<?xml version="1.0" encoding="UTF-8" standalone="no" ?>
<gpx xmlns="http://www.topografix.com/GPX/1/1" xmlns:xsi="http://www.w3.org/2001/XMLSchema-instance" xsi:schemaLocation="http://www.topografix.com/GPX/1/1 http://www.topografix.com/GPX/1/1/gpx.xsd" version="1.1" creator="VisuGPX - https://www.visugpx.com">
  <metadata>
    <name>Trek au Ladakh</name>
    <desc><![CDATA[Trek au Ladakh - Septembre 2015]]></desc>
  </metadata>
  <trk>
    <name><![CDATA[Markha (3700m) - Monastère de Humlung - Hankar - Camp de Tachungste (4250m)]]></name>
    <trkseg>
      <trkpt lat="33.88627" lon="77.42316">
        <ele>3771</ele>
        <time>2015-09-03T02:37:36Z</time>
      </trkpt>
      <trkpt lat="33.88619" lon="77.42313">
        <ele>3771.8</ele>
        <time>2015-09-03T02:37:45Z</time>
      </trkpt>
      <trkpt lat="33.88617" lon="77.42311">
        <ele>3772</ele>
        <time>2015-09-03T02:37:49Z</time>
      </trkpt>
      <trkpt lat="33.88618" lon="77.42316">
        <ele>3773</ele>
        <time>2015-09-03T02:38:02Z</time>
      </trkpt>
      <trkpt lat="33.88621" lon="77.42319">
        <ele>3774.2</ele>
        <time>2015-09-03T02:38:12Z</time>
      </trkpt>
      <trkpt lat="33.8862" lon="77.42317">
        <ele>3775.2</ele>
        <time>2015-09-03T02:38:23Z</time>
      </trkpt>
      <trkpt lat="33.88621" lon="77.42316">
        <ele>3776.4</ele>
        <time>2015-09-03T02:38:32Z</time>
      </trkpt>
      <trkpt lat="33.88619" lon="77.42323">
        <ele>3777.4</ele>
        <time>2015-09-03T02:38:42Z</time>
      </trkpt>
      <trkpt lat="33.88617" lon="77.42327">
        <ele>3777.8</ele>
        <time>2015-09-03T02:38:45Z</time>
      </trkpt>
      <trkpt lat="33.88618" lon="77.42332">
        <ele>3778.4</ele>
        <time>2015-09-03T02:38:52Z</time>
      </trkpt>
      <trkpt lat="33.88617" lon="77.42337">
        <ele>3779.4</ele>
        <time>2015-09-03T02:39:00Z</time>
      </trkpt>
      <trkpt lat="33.88619" lon="77.42339">
        <ele>3780.6</ele>
        <time>2015-09-03T02:39:09Z</time>
      </trkpt>
      <trkpt lat="33.88624" lon="77.4234">
        <ele>3781.8</ele>
        <time>2015-09-03T02:39:21Z</time>
      </trkpt>
      <trkpt lat="33.88618" lon="77.4234">
        <ele>3781.8</ele>
        <time>2015-09-03T02:39:27Z</time>
      </trkpt>
      <trkpt lat="33.88617" lon="77.42347">
        <ele>3780.6</ele>
        <time>2015-09-03T02:39:34Z</time>
      </trkpt>
      <trkpt lat="33.88618" lon="77.4235">
        <ele>3780.2</ele>
        <time>2015-09-03T02:39:36Z</time>
      </trkpt>
      <trkpt lat="33.88617" lon="77.42354">
        <ele>3779.6</ele>
        <time>2015-09-03T02:39:39Z</time>
      </trkpt>
      <trkpt lat="33.88615" lon="77.42358">
        <ele>3778.4</ele>
        <time>2015-09-03T02:39:44Z</time>
      </trkpt>
      <trkpt lat="33.88609" lon="77.42362">
        <ele>3777.4</ele>
        <time>2015-09-03T02:39:49Z</time>
      </trkpt>
      <trkpt lat="33.88613" lon="77.42365">
        <ele>3776.2</ele>
        <time>2015-09-03T02:39:54Z</time>
      </trkpt>
      <trkpt lat="33.88611" lon="77.42383">
        <ele>3776.2</ele>
        <time>2015-09-03T02:40:12Z</time>
      </trkpt>
      <trkpt lat="33.88617" lon="77.42403">
        <ele>3776.8</ele>
        <time>2015-09-03T02:40:30Z</time>
      </trkpt>
      <trkpt lat="33.88626" lon="77.42413">
        <ele>3777.4</ele>
        <time>2015-09-03T02:40:39Z</time>
      </trkpt>
      <trkpt lat="33.88639" lon="77.4242">
        <ele>3778.4</ele>
        <time>2015-09-03T02:40:56Z</time>
      </trkpt>
      <trkpt lat="33.88645" lon="77.4242">
        <ele>3778.6</ele>
        <time>2015-09-03T02:41:04Z</time>
      </trkpt>
      <trkpt lat="33.8865" lon="77.4242">
        <ele>3778.4</ele>
        <time>2015-09-03T02:41:07Z</time>
      </trkpt>
      <trkpt lat="33.88656" lon="77.42435">
        <ele>3777.2</ele>
        <time>2015-09-03T02:41:27Z</time>
      </trkpt>
      <trkpt lat="33.88656" lon="77.42437">
        <ele>3776.8</ele>
        <time>2015-09-03T02:41:28Z</time>
      </trkpt>
      <trkpt lat="33.88656" lon="77.42439">
        <ele>3776.4</ele>
        <time>2015-09-03T02:41:30Z</time>
      </trkpt>
      <trkpt lat="33.88654" lon="77.42441">
        <ele>3776.2</ele>
        <time>2015-09-03T02:41:32Z</time>
      </trkpt>
      <trkpt lat="33.88652" lon="77.42447">
        <ele>3776.4</ele>
        <time>2015-09-03T02:41:39Z</time>
      </trkpt>
      <trkpt lat="33.88645" lon="77.42462">
        <ele>3777</ele>
        <time>2015-09-03T02:42:05Z</time>
      </trkpt>
      <trkpt lat="33.88644" lon="77.42462">
        <ele>3777.2</ele>
        <time>2015-09-03T02:42:06Z</time>
      </trkpt>
      <trkpt lat="33.8864" lon="77.42462">
        <ele>3777.4</ele>
        <time>2015-09-03T02:42:10Z</time>
      </trkpt>
      <trkpt lat="33.88637" lon="77.42465">
        <ele>3778.2</ele>
        <time>2015-09-03T02:42:19Z</time>
      </trkpt>
      <trkpt lat="33.88629" lon="77.42469">
        <ele>3778.8</ele>
        <time>2015-09-03T02:42:47Z</time>
      </trkpt>
      <trkpt lat="33.88626" lon="77.42471">
        <ele>3779.2</ele>
        <time>2015-09-03T02:42:56Z</time>
      </trkpt>
      <trkpt lat="33.8861" lon="77.42479">
        <ele>3778.4</ele>
        <time>2015-09-03T02:43:20Z</time>
      </trkpt>
      <trkpt lat="33.88606" lon="77.42478">
        <ele>3778.2</ele>
        <time>2015-09-03T02:43:22Z</time>
      </trkpt>
      <trkpt lat="33.88598" lon="77.42481">
        <ele>3777.2</ele>
        <time>2015-09-03T02:43:29Z</time>
      </trkpt>
      <trkpt lat="33.88596" lon="77.42484">
        <ele>3776.8</ele>
        <time>2015-09-03T02:43:31Z</time>
      </trkpt>
      <trkpt lat="33.88593" lon="77.42488">
        <ele>3776</ele>
        <time>2015-09-03T02:43:35Z</time>
      </trkpt>
      <trkpt lat="33.88593" lon="77.42497">
        <ele>3775.6</ele>
        <time>2015-09-03T02:43:41Z</time>
      </trkpt>
      <trkpt lat="33.8858" lon="77.42502">
        <ele>3775</ele>
        <time>2015-09-03T02:43:57Z</time>
      </trkpt>
      <trkpt lat="33.88573" lon="77.42514">
        <ele>3774.6</ele>
        <time>2015-09-03T02:44:06Z</time>
      </trkpt>
      <trkpt lat="33.88564" lon="77.42533">
        <ele>3775.4</ele>
        <time>2015-09-03T02:44:25Z</time>
      </trkpt>
      <trkpt lat="33.88553" lon="77.4255">
        <ele>3775.8</ele>
        <time>2015-09-03T02:44:40Z</time>
      </trkpt>
      <trkpt lat="33.88548" lon="77.42554">
        <ele>3776</ele>
        <time>2015-09-03T02:44:46Z</time>
      </trkpt>
      <trkpt lat="33.8853" lon="77.42562">
        <ele>3775.4</ele>
        <time>2015-09-03T02:45:04Z</time>
      </trkpt>
      <trkpt lat="33.88514" lon="77.42571">
        <ele>3774.6</ele>
        <time>2015-09-03T02:45:18Z</time>
      </trkpt>
      <trkpt lat="33.88509" lon="77.42577">
        <ele>3773.8</ele>
        <time>2015-09-03T02:45:25Z</time>
      </trkpt>
      <trkpt lat="33.88503" lon="77.42581">
        <ele>3772.8</ele>
        <time>2015-09-03T02:45:31Z</time>
      </trkpt>
      <trkpt lat="33.88497" lon="77.42589">
        <ele>3772.2</ele>
        <time>2015-09-03T02:45:40Z</time>
      </trkpt>
      <trkpt lat="33.88498" lon="77.42592">
        <ele>3771.6</ele>
        <time>2015-09-03T02:45:42Z</time>
      </trkpt>
      <trkpt lat="33.88496" lon="77.426">
        <ele>3770.6</ele>
        <time>2015-09-03T02:45:49Z</time>
      </trkpt>
      <trkpt lat="33.88496" lon="77.42601">
        <ele>3770.6</ele>
        <time>2015-09-03T02:45:50Z</time>
      </trkpt>
      <trkpt lat="33.88492" lon="77.42609">
        <ele>3769.6</ele>
        <time>2015-09-03T02:45:56Z</time>
      </trkpt>
      <trkpt lat="33.8849" lon="77.42617">
        <ele>3768.6</ele>
        <time>2015-09-03T02:46:00Z</time>
      </trkpt>
      <trkpt lat="33.88487" lon="77.42624">
        <ele>3767.4</ele>
        <time>2015-09-03T02:46:06Z</time>
      </trkpt>
      <trkpt lat="33.88485" lon="77.4263">
        <ele>3767.2</ele>
        <time>2015-09-03T02:46:13Z</time>
      </trkpt>
      <trkpt lat="33.88484" lon="77.42631">
        <ele>3766.4</ele>
        <time>2015-09-03T02:46:17Z</time>
      </trkpt>
      <trkpt lat="33.88481" lon="77.42639">
        <ele>3766.6</ele>
        <time>2015-09-03T02:46:27Z</time>
      </trkpt>
      <trkpt lat="33.88476" lon="77.42651">
        <ele>3765.2</ele>
        <time>2015-09-03T02:46:34Z</time>
      </trkpt>
      <trkpt lat="33.88466" lon="77.4267">
        <ele>3764.4</ele>
        <time>2015-09-03T02:46:48Z</time>
      </trkpt>
      <trkpt lat="33.88464" lon="77.42675">
        <ele>3764.4</ele>
        <time>2015-09-03T02:46:53Z</time>
      </trkpt>
      <trkpt lat="33.88465" lon="77.42683">
        <ele>3764.4</ele>
        <time>2015-09-03T02:46:58Z</time>
      </trkpt>
      <trkpt lat="33.88465" lon="77.42688">
        <ele>3764.4</ele>
        <time>2015-09-03T02:47:01Z</time>
      </trkpt>
      <trkpt lat="33.88467" lon="77.42698">
        <ele>3764.6</ele>
        <time>2015-09-03T02:47:08Z</time>
      </trkpt>
      <trkpt lat="33.88462" lon="77.42715">
        <ele>3764.8</ele>
        <time>2015-09-03T02:47:22Z</time>
      </trkpt>
      <trkpt lat="33.88461" lon="77.42717">
        <ele>3764.8</ele>
        <time>2015-09-03T02:47:24Z</time>
      </trkpt>
      <trkpt lat="33.88461" lon="77.42721">
        <ele>3765</ele>
        <time>2015-09-03T02:47:27Z</time>
      </trkpt>
      <trkpt lat="33.88459" lon="77.42743">
        <ele>3766</ele>
        <time>2015-09-03T02:47:49Z</time>
      </trkpt>
      <trkpt lat="33.88455" lon="77.42764">
        <ele>3765.4</ele>
        <time>2015-09-03T02:48:05Z</time>
      </trkpt>
      <trkpt lat="33.8845" lon="77.42775">
        <ele>3765.2</ele>
        <time>2015-09-03T02:48:15Z</time>
      </trkpt>
      <trkpt lat="33.88438" lon="77.42792">
        <ele>3765.6</ele>
        <time>2015-09-03T02:48:32Z</time>
      </trkpt>
      <trkpt lat="33.88424" lon="77.42805">
        <ele>3765.6</ele>
        <time>2015-09-03T02:48:53Z</time>
      </trkpt>
      <trkpt lat="33.88419" lon="77.42825">
        <ele>3766.2</ele>
        <time>2015-09-03T02:49:08Z</time>
      </trkpt>
      <trkpt lat="33.88413" lon="77.42846">
        <ele>3766.2</ele>
        <time>2015-09-03T02:49:28Z</time>
      </trkpt>
      <trkpt lat="33.88409" lon="77.42862">
        <ele>3766.2</ele>
        <time>2015-09-03T02:49:40Z</time>
      </trkpt>
      <trkpt lat="33.88407" lon="77.42867">
        <ele>3766.2</ele>
        <time>2015-09-03T02:49:45Z</time>
      </trkpt>
      <trkpt lat="33.88402" lon="77.42887">
        <ele>3767</ele>
        <time>2015-09-03T02:50:00Z</time>
      </trkpt>
      <trkpt lat="33.88388" lon="77.42901">
        <ele>3767.2</ele>
        <time>2015-09-03T02:50:18Z</time>
      </trkpt>
      <trkpt lat="33.88381" lon="77.42906">
        <ele>3767.2</ele>
        <time>2015-09-03T02:50:27Z</time>
      </trkpt>
      <trkpt lat="33.8838" lon="77.42907">
        <ele>3767.2</ele>
        <time>2015-09-03T02:50:29Z</time>
      </trkpt>
      <trkpt lat="33.88366" lon="77.42922">
        <ele>3767.2</ele>
        <time>2015-09-03T02:50:46Z</time>
      </trkpt>
      <trkpt lat="33.88351" lon="77.42936">
        <ele>3767.6</ele>
        <time>2015-09-03T02:51:06Z</time>
      </trkpt>
      <trkpt lat="33.88349" lon="77.42937">
        <ele>3767.6</ele>
        <time>2015-09-03T02:51:08Z</time>
      </trkpt>
      <trkpt lat="33.88345" lon="77.42941">
        <ele>3767.6</ele>
        <time>2015-09-03T02:51:14Z</time>
      </trkpt>
      <trkpt lat="33.88342" lon="77.42942">
        <ele>3767.6</ele>
        <time>2015-09-03T02:51:17Z</time>
      </trkpt>
      <trkpt lat="33.88333" lon="77.42962">
        <ele>3768</ele>
        <time>2015-09-03T02:51:32Z</time>
      </trkpt>
      <trkpt lat="33.88332" lon="77.42965">
        <ele>3768.2</ele>
        <time>2015-09-03T02:51:36Z</time>
      </trkpt>
      <trkpt lat="33.88323" lon="77.42982">
        <ele>3768.4</ele>
        <time>2015-09-03T02:51:56Z</time>
      </trkpt>
      <trkpt lat="33.88322" lon="77.42985">
        <ele>3768.2</ele>
        <time>2015-09-03T02:51:58Z</time>
      </trkpt>
      <trkpt lat="33.88316" lon="77.42999">
        <ele>3768.6</ele>
        <time>2015-09-03T02:52:09Z</time>
      </trkpt>
      <trkpt lat="33.88309" lon="77.43006">
        <ele>3769.4</ele>
        <time>2015-09-03T02:52:17Z</time>
      </trkpt>
      <trkpt lat="33.88304" lon="77.43027">
        <ele>3769.8</ele>
        <time>2015-09-03T02:52:34Z</time>
      </trkpt>
      <trkpt lat="33.88295" lon="77.43045">
        <ele>3770.2</ele>
        <time>2015-09-03T02:52:50Z</time>
      </trkpt>
      <trkpt lat="33.88292" lon="77.43054">
        <ele>3770.4</ele>
        <time>2015-09-03T02:52:58Z</time>
      </trkpt>
      <trkpt lat="33.88282" lon="77.43073">
        <ele>3770.8</ele>
        <time>2015-09-03T02:53:16Z</time>
      </trkpt>
      <trkpt lat="33.88277" lon="77.4308">
        <ele>3770.8</ele>
        <time>2015-09-03T02:53:25Z</time>
      </trkpt>
      <trkpt lat="33.8827" lon="77.43084">
        <ele>3771</ele>
        <time>2015-09-03T02:53:33Z</time>
      </trkpt>
      <trkpt lat="33.88262" lon="77.43099">
        <ele>3771.4</ele>
        <time>2015-09-03T02:53:50Z</time>
      </trkpt>
      <trkpt lat="33.88261" lon="77.43101">
        <ele>3771.4</ele>
        <time>2015-09-03T02:53:52Z</time>
      </trkpt>
      <trkpt lat="33.88251" lon="77.43119">
        <ele>3772.2</ele>
        <time>2015-09-03T02:54:13Z</time>
      </trkpt>
      <trkpt lat="33.88243" lon="77.43129">
        <ele>3772.2</ele>
        <time>2015-09-03T02:54:27Z</time>
      </trkpt>
      <trkpt lat="33.88241" lon="77.43136">
        <ele>3772.4</ele>
        <time>2015-09-03T02:54:33Z</time>
      </trkpt>
      <trkpt lat="33.88241" lon="77.43137">
        <ele>3772.4</ele>
        <time>2015-09-03T02:54:34Z</time>
      </trkpt>
      <trkpt lat="33.88238" lon="77.43147">
        <ele>3772.6</ele>
        <time>2015-09-03T02:54:42Z</time>
      </trkpt>
      <trkpt lat="33.88238" lon="77.4315">
        <ele>3772.6</ele>
        <time>2015-09-03T02:54:44Z</time>
      </trkpt>
      <trkpt lat="33.88236" lon="77.43154">
        <ele>3773</ele>
        <time>2015-09-03T02:54:48Z</time>
      </trkpt>
      <trkpt lat="33.88233" lon="77.43169">
        <ele>3773.4</ele>
        <time>2015-09-03T02:55:05Z</time>
      </trkpt>
      <trkpt lat="33.88228" lon="77.4319">
        <ele>3773.4</ele>
        <time>2015-09-03T02:55:24Z</time>
      </trkpt>
      <trkpt lat="33.88227" lon="77.43191">
        <ele>3773.4</ele>
        <time>2015-09-03T02:55:26Z</time>
      </trkpt>
      <trkpt lat="33.88227" lon="77.43193">
        <ele>3773.4</ele>
        <time>2015-09-03T02:55:28Z</time>
      </trkpt>
      <trkpt lat="33.88226" lon="77.43203">
        <ele>3772.8</ele>
        <time>2015-09-03T02:55:36Z</time>
      </trkpt>
      <trkpt lat="33.88221" lon="77.43211">
        <ele>3773</ele>
        <time>2015-09-03T02:55:45Z</time>
      </trkpt>
      <trkpt lat="33.88217" lon="77.43232">
        <ele>3773.8</ele>
        <time>2015-09-03T02:56:03Z</time>
      </trkpt>
      <trkpt lat="33.88216" lon="77.43233">
        <ele>3773.8</ele>
        <time>2015-09-03T02:56:06Z</time>
      </trkpt>
      <trkpt lat="33.88215" lon="77.43252">
        <ele>3774</ele>
        <time>2015-09-03T02:56:22Z</time>
      </trkpt>
      <trkpt lat="33.88214" lon="77.43255">
        <ele>3774.4</ele>
        <time>2015-09-03T02:56:25Z</time>
      </trkpt>
      <trkpt lat="33.88213" lon="77.43255">
        <ele>3774.6</ele>
        <time>2015-09-03T02:56:26Z</time>
      </trkpt>
      <trkpt lat="33.88212" lon="77.43258">
        <ele>3774.6</ele>
        <time>2015-09-03T02:56:29Z</time>
      </trkpt>
      <trkpt lat="33.8821" lon="77.4328">
        <ele>3774.6</ele>
        <time>2015-09-03T02:56:48Z</time>
      </trkpt>
      <trkpt lat="33.88209" lon="77.43302">
        <ele>3775.2</ele>
        <time>2015-09-03T02:57:05Z</time>
      </trkpt>
      <trkpt lat="33.88208" lon="77.43324">
        <ele>3775.2</ele>
        <time>2015-09-03T02:57:22Z</time>
      </trkpt>
      <trkpt lat="33.88209" lon="77.43327">
        <ele>3775.2</ele>
        <time>2015-09-03T02:57:24Z</time>
      </trkpt>
      <trkpt lat="33.88204" lon="77.43342">
        <ele>3775.4</ele>
        <time>2015-09-03T02:57:37Z</time>
      </trkpt>
      <trkpt lat="33.88199" lon="77.43349">
        <ele>3775.6</ele>
        <time>2015-09-03T02:57:47Z</time>
      </trkpt>
      <trkpt lat="33.88195" lon="77.43359">
        <ele>3775.8</ele>
        <time>2015-09-03T02:57:56Z</time>
      </trkpt>
      <trkpt lat="33.88191" lon="77.4338">
        <ele>3775.8</ele>
        <time>2015-09-03T02:58:16Z</time>
      </trkpt>
      <trkpt lat="33.8819" lon="77.43403">
        <ele>3776</ele>
        <time>2015-09-03T02:58:35Z</time>
      </trkpt>
      <trkpt lat="33.88191" lon="77.43414">
        <ele>3776</ele>
        <time>2015-09-03T02:58:44Z</time>
      </trkpt>
      <trkpt lat="33.88186" lon="77.43428">
        <ele>3776.2</ele>
        <time>2015-09-03T02:58:56Z</time>
      </trkpt>
      <trkpt lat="33.88186" lon="77.43435">
        <ele>3776.4</ele>
        <time>2015-09-03T02:59:01Z</time>
      </trkpt>
      <trkpt lat="33.88187" lon="77.43439">
        <ele>3776.4</ele>
        <time>2015-09-03T02:59:04Z</time>
      </trkpt>
      <trkpt lat="33.88188" lon="77.43446">
        <ele>3776.4</ele>
        <time>2015-09-03T02:59:11Z</time>
      </trkpt>
      <trkpt lat="33.88186" lon="77.43449">
        <ele>3776.8</ele>
        <time>2015-09-03T02:59:14Z</time>
      </trkpt>
      <trkpt lat="33.88178" lon="77.43453">
        <ele>3776.6</ele>
        <time>2015-09-03T02:59:21Z</time>
      </trkpt>
      <trkpt lat="33.88174" lon="77.43474">
        <ele>3777.4</ele>
        <time>2015-09-03T02:59:49Z</time>
      </trkpt>
      <trkpt lat="33.88173" lon="77.43476">
        <ele>3777.6</ele>
        <time>2015-09-03T02:59:50Z</time>
      </trkpt>
      <trkpt lat="33.88171" lon="77.43493">
        <ele>3777</ele>
        <time>2015-09-03T03:00:04Z</time>
      </trkpt>
      <trkpt lat="33.88165" lon="77.435">
        <ele>3776.8</ele>
        <time>2015-09-03T03:00:12Z</time>
      </trkpt>
      <trkpt lat="33.88157" lon="77.4352">
        <ele>3778</ele>
        <time>2015-09-03T03:00:29Z</time>
      </trkpt>
      <trkpt lat="33.8815" lon="77.4354">
        <ele>3778.4</ele>
        <time>2015-09-03T03:00:46Z</time>
      </trkpt>
      <trkpt lat="33.88149" lon="77.43546">
        <ele>3778.6</ele>
        <time>2015-09-03T03:00:51Z</time>
      </trkpt>
      <trkpt lat="33.88142" lon="77.43568">
        <ele>3778.6</ele>
        <time>2015-09-03T03:01:08Z</time>
      </trkpt>
      <trkpt lat="33.88141" lon="77.43571">
        <ele>3779</ele>
        <time>2015-09-03T03:01:12Z</time>
      </trkpt>
      <trkpt lat="33.88137" lon="77.43583">
        <ele>3778.8</ele>
        <time>2015-09-03T03:01:28Z</time>
      </trkpt>
      <trkpt lat="33.88126" lon="77.436">
        <ele>3779</ele>
        <time>2015-09-03T03:01:43Z</time>
      </trkpt>
      <trkpt lat="33.88123" lon="77.43622">
        <ele>3779.6</ele>
        <time>2015-09-03T03:01:58Z</time>
      </trkpt>
      <trkpt lat="33.88119" lon="77.43635">
        <ele>3779.8</ele>
        <time>2015-09-03T03:02:11Z</time>
      </trkpt>
      <trkpt lat="33.88117" lon="77.43643">
        <ele>3780</ele>
        <time>2015-09-03T03:02:18Z</time>
      </trkpt>
      <trkpt lat="33.88117" lon="77.43661">
        <ele>3780.4</ele>
        <time>2015-09-03T03:02:31Z</time>
      </trkpt>
      <trkpt lat="33.88112" lon="77.43671">
        <ele>3780.8</ele>
        <time>2015-09-03T03:02:41Z</time>
      </trkpt>
      <trkpt lat="33.88111" lon="77.43685">
        <ele>3780.6</ele>
        <time>2015-09-03T03:02:53Z</time>
      </trkpt>
      <trkpt lat="33.88112" lon="77.43699">
        <ele>3781.2</ele>
        <time>2015-09-03T03:03:04Z</time>
      </trkpt>
      <trkpt lat="33.88111" lon="77.43713">
        <ele>3781.4</ele>
        <time>2015-09-03T03:03:19Z</time>
      </trkpt>
      <trkpt lat="33.8811" lon="77.43718">
        <ele>3781</ele>
        <time>2015-09-03T03:03:23Z</time>
      </trkpt>
      <trkpt lat="33.88107" lon="77.43721">
        <ele>3781</ele>
        <time>2015-09-03T03:03:26Z</time>
      </trkpt>
      <trkpt lat="33.88103" lon="77.43741">
        <ele>3781.6</ele>
        <time>2015-09-03T03:03:44Z</time>
      </trkpt>
      <trkpt lat="33.881" lon="77.43762">
        <ele>3781.4</ele>
        <time>2015-09-03T03:04:01Z</time>
      </trkpt>
      <trkpt lat="33.88099" lon="77.43765">
        <ele>3781.6</ele>
        <time>2015-09-03T03:04:04Z</time>
      </trkpt>
      <trkpt lat="33.88099" lon="77.43769">
        <ele>3781.8</ele>
        <time>2015-09-03T03:04:07Z</time>
      </trkpt>
      <trkpt lat="33.88098" lon="77.43771">
        <ele>3782</ele>
        <time>2015-09-03T03:04:08Z</time>
      </trkpt>
      <trkpt lat="33.88094" lon="77.43792">
        <ele>3782.2</ele>
        <time>2015-09-03T03:04:24Z</time>
      </trkpt>
      <trkpt lat="33.88093" lon="77.43795">
        <ele>3782.4</ele>
        <time>2015-09-03T03:04:26Z</time>
      </trkpt>
      <trkpt lat="33.88092" lon="77.43797">
        <ele>3782.4</ele>
        <time>2015-09-03T03:04:28Z</time>
      </trkpt>
      <trkpt lat="33.88089" lon="77.43802">
        <ele>3782.4</ele>
        <time>2015-09-03T03:04:34Z</time>
      </trkpt>
      <trkpt lat="33.88086" lon="77.43804">
        <ele>3783</ele>
        <time>2015-09-03T03:04:39Z</time>
      </trkpt>
      <trkpt lat="33.88078" lon="77.43813">
        <ele>3782.8</ele>
        <time>2015-09-03T03:04:50Z</time>
      </trkpt>
      <trkpt lat="33.88074" lon="77.43834">
        <ele>3784</ele>
        <time>2015-09-03T03:05:04Z</time>
      </trkpt>
      <trkpt lat="33.88072" lon="77.43836">
        <ele>3784</ele>
        <time>2015-09-03T03:05:06Z</time>
      </trkpt>
      <trkpt lat="33.88069" lon="77.43842">
        <ele>3784.2</ele>
        <time>2015-09-03T03:05:12Z</time>
      </trkpt>
      <trkpt lat="33.88065" lon="77.43857">
        <ele>3785</ele>
        <time>2015-09-03T03:05:26Z</time>
      </trkpt>
      <trkpt lat="33.88065" lon="77.43858">
        <ele>3785</ele>
        <time>2015-09-03T03:05:27Z</time>
      </trkpt>
      <trkpt lat="33.88058" lon="77.43874">
        <ele>3786</ele>
        <time>2015-09-03T03:05:43Z</time>
      </trkpt>
      <trkpt lat="33.8805" lon="77.43893">
        <ele>3787</ele>
        <time>2015-09-03T03:06:00Z</time>
      </trkpt>
      <trkpt lat="33.88048" lon="77.43897">
        <ele>3787</ele>
        <time>2015-09-03T03:06:05Z</time>
      </trkpt>
      <trkpt lat="33.88041" lon="77.43904">
        <ele>3787.6</ele>
        <time>2015-09-03T03:06:21Z</time>
      </trkpt>
      <trkpt lat="33.88039" lon="77.43912">
        <ele>3788.2</ele>
        <time>2015-09-03T03:06:30Z</time>
      </trkpt>
      <trkpt lat="33.88035" lon="77.43931">
        <ele>3789.2</ele>
        <time>2015-09-03T03:06:50Z</time>
      </trkpt>
      <trkpt lat="33.88032" lon="77.43944">
        <ele>3790.2</ele>
        <time>2015-09-03T03:07:03Z</time>
      </trkpt>
      <trkpt lat="33.88033" lon="77.43945">
        <ele>3790.4</ele>
        <time>2015-09-03T03:07:05Z</time>
      </trkpt>
      <trkpt lat="33.88033" lon="77.43957">
        <ele>3791.4</ele>
        <time>2015-09-03T03:07:17Z</time>
      </trkpt>
      <trkpt lat="33.88034" lon="77.43966">
        <ele>3792</ele>
        <time>2015-09-03T03:07:27Z</time>
      </trkpt>
      <trkpt lat="33.88034" lon="77.43969">
        <ele>3792.6</ele>
        <time>2015-09-03T03:07:29Z</time>
      </trkpt>
      <trkpt lat="33.88035" lon="77.4397">
        <ele>3792.6</ele>
        <time>2015-09-03T03:07:30Z</time>
      </trkpt>
      <trkpt lat="33.88034" lon="77.43972">
        <ele>3793</ele>
        <time>2015-09-03T03:07:33Z</time>
      </trkpt>
      <trkpt lat="33.88033" lon="77.43984">
        <ele>3793.6</ele>
        <time>2015-09-03T03:07:46Z</time>
      </trkpt>
      <trkpt lat="33.8803" lon="77.43998">
        <ele>3794.6</ele>
        <time>2015-09-03T03:07:57Z</time>
      </trkpt>
      <trkpt lat="33.8803" lon="77.43999">
        <ele>3794.8</ele>
        <time>2015-09-03T03:07:59Z</time>
      </trkpt>
      <trkpt lat="33.88033" lon="77.44003">
        <ele>3794.8</ele>
        <time>2015-09-03T03:08:03Z</time>
      </trkpt>
      <trkpt lat="33.88034" lon="77.44008">
        <ele>3795.6</ele>
        <time>2015-09-03T03:08:13Z</time>
      </trkpt>
      <trkpt lat="33.88037" lon="77.44018">
        <ele>3796.8</ele>
        <time>2015-09-03T03:08:24Z</time>
      </trkpt>
      <trkpt lat="33.88043" lon="77.44026">
        <ele>3797.8</ele>
        <time>2015-09-03T03:08:36Z</time>
      </trkpt>
      <trkpt lat="33.88042" lon="77.44038">
        <ele>3799</ele>
        <time>2015-09-03T03:08:51Z</time>
      </trkpt>
      <trkpt lat="33.88044" lon="77.44047">
        <ele>3800.2</ele>
        <time>2015-09-03T03:09:01Z</time>
      </trkpt>
      <trkpt lat="33.88043" lon="77.44068">
        <ele>3801.2</ele>
        <time>2015-09-03T03:09:26Z</time>
      </trkpt>
      <trkpt lat="33.88042" lon="77.44073">
        <ele>3802.2</ele>
        <time>2015-09-03T03:09:34Z</time>
      </trkpt>
      <trkpt lat="33.88035" lon="77.44086">
        <ele>3803</ele>
        <time>2015-09-03T03:09:46Z</time>
      </trkpt>
      <trkpt lat="33.88035" lon="77.44091">
        <ele>3803.4</ele>
        <time>2015-09-03T03:09:55Z</time>
      </trkpt>
      <trkpt lat="33.88033" lon="77.44091">
        <ele>3803.6</ele>
        <time>2015-09-03T03:10:10Z</time>
      </trkpt>
      <trkpt lat="33.88036" lon="77.44089">
        <ele>3804.2</ele>
        <time>2015-09-03T03:10:36Z</time>
      </trkpt>
      <trkpt lat="33.88035" lon="77.4409">
        <ele>3804</ele>
        <time>2015-09-03T03:10:39Z</time>
      </trkpt>
      <trkpt lat="33.88035" lon="77.44089">
        <ele>3804</ele>
        <time>2015-09-03T03:10:55Z</time>
      </trkpt>
      <trkpt lat="33.88037" lon="77.44103">
        <ele>3802.6</ele>
        <time>2015-09-03T03:11:11Z</time>
      </trkpt>
      <trkpt lat="33.88037" lon="77.44108">
        <ele>3802.2</ele>
        <time>2015-09-03T03:11:16Z</time>
      </trkpt>
      <trkpt lat="33.88038" lon="77.44119">
        <ele>3801.2</ele>
        <time>2015-09-03T03:11:25Z</time>
      </trkpt>
      <trkpt lat="33.88039" lon="77.44128">
        <ele>3800.6</ele>
        <time>2015-09-03T03:11:32Z</time>
      </trkpt>
      <trkpt lat="33.88041" lon="77.44131">
        <ele>3800.4</ele>
        <time>2015-09-03T03:11:35Z</time>
      </trkpt>
      <trkpt lat="33.88042" lon="77.44133">
        <ele>3800.4</ele>
        <time>2015-09-03T03:11:37Z</time>
      </trkpt>
      <trkpt lat="33.88042" lon="77.44135">
        <ele>3800.2</ele>
        <time>2015-09-03T03:11:39Z</time>
      </trkpt>
      <trkpt lat="33.88043" lon="77.44157">
        <ele>3799.8</ele>
        <time>2015-09-03T03:11:55Z</time>
      </trkpt>
      <trkpt lat="33.88045" lon="77.44171">
        <ele>3799.2</ele>
        <time>2015-09-03T03:12:05Z</time>
      </trkpt>
      <trkpt lat="33.88051" lon="77.44177">
        <ele>3798.8</ele>
        <time>2015-09-03T03:12:10Z</time>
      </trkpt>
      <trkpt lat="33.8805" lon="77.44178">
        <ele>3798.6</ele>
        <time>2015-09-03T03:12:12Z</time>
      </trkpt>
      <trkpt lat="33.88049" lon="77.44188">
        <ele>3798.2</ele>
        <time>2015-09-03T03:12:19Z</time>
      </trkpt>
      <trkpt lat="33.88049" lon="77.44203">
        <ele>3797</ele>
        <time>2015-09-03T03:12:31Z</time>
      </trkpt>
      <trkpt lat="33.88046" lon="77.44216">
        <ele>3796</ele>
        <time>2015-09-03T03:12:39Z</time>
      </trkpt>
      <trkpt lat="33.88048" lon="77.44234">
        <ele>3794.8</ele>
        <time>2015-09-03T03:12:51Z</time>
      </trkpt>
      <trkpt lat="33.88044" lon="77.44245">
        <ele>3793.8</ele>
        <time>2015-09-03T03:13:02Z</time>
      </trkpt>
      <trkpt lat="33.88043" lon="77.44248">
        <ele>3793.6</ele>
        <time>2015-09-03T03:13:04Z</time>
      </trkpt>
      <trkpt lat="33.88046" lon="77.4427">
        <ele>3793.8</ele>
        <time>2015-09-03T03:13:23Z</time>
      </trkpt>
      <trkpt lat="33.88047" lon="77.44279">
        <ele>3794</ele>
        <time>2015-09-03T03:13:29Z</time>
      </trkpt>
      <trkpt lat="33.88049" lon="77.44286">
        <ele>3794</ele>
        <time>2015-09-03T03:13:35Z</time>
      </trkpt>
      <trkpt lat="33.88053" lon="77.44301">
        <ele>3794</ele>
        <time>2015-09-03T03:13:50Z</time>
      </trkpt>
      <trkpt lat="33.88052" lon="77.44304">
        <ele>3794.2</ele>
        <time>2015-09-03T03:13:53Z</time>
      </trkpt>
      <trkpt lat="33.88049" lon="77.44316">
        <ele>3794.6</ele>
        <time>2015-09-03T03:14:06Z</time>
      </trkpt>
      <trkpt lat="33.88048" lon="77.44325">
        <ele>3794.6</ele>
        <time>2015-09-03T03:14:13Z</time>
      </trkpt>
      <trkpt lat="33.88047" lon="77.44331">
        <ele>3794.6</ele>
        <time>2015-09-03T03:14:17Z</time>
      </trkpt>
      <trkpt lat="33.88047" lon="77.44334">
        <ele>3794.6</ele>
        <time>2015-09-03T03:14:20Z</time>
      </trkpt>
      <trkpt lat="33.88046" lon="77.44339">
        <ele>3794.8</ele>
        <time>2015-09-03T03:14:25Z</time>
      </trkpt>
      <trkpt lat="33.88046" lon="77.44341">
        <ele>3795</ele>
        <time>2015-09-03T03:14:27Z</time>
      </trkpt>
      <trkpt lat="33.88056" lon="77.44352">
        <ele>3794.4</ele>
        <time>2015-09-03T03:14:35Z</time>
      </trkpt>
      <trkpt lat="33.88058" lon="77.44373">
        <ele>3795.8</ele>
        <time>2015-09-03T03:14:53Z</time>
      </trkpt>
      <trkpt lat="33.88059" lon="77.44374">
        <ele>3795.8</ele>
        <time>2015-09-03T03:14:54Z</time>
      </trkpt>
      <trkpt lat="33.88059" lon="77.44379">
        <ele>3795.6</ele>
        <time>2015-09-03T03:14:58Z</time>
      </trkpt>
      <trkpt lat="33.88058" lon="77.44385">
        <ele>3795.8</ele>
        <time>2015-09-03T03:15:04Z</time>
      </trkpt>
      <trkpt lat="33.8806" lon="77.44399">
        <ele>3796.8</ele>
        <time>2015-09-03T03:15:16Z</time>
      </trkpt>
      <trkpt lat="33.88062" lon="77.44417">
        <ele>3797</ele>
        <time>2015-09-03T03:15:30Z</time>
      </trkpt>
      <trkpt lat="33.88061" lon="77.44429">
        <ele>3797.8</ele>
        <time>2015-09-03T03:15:41Z</time>
      </trkpt>
      <trkpt lat="33.88061" lon="77.44434">
        <ele>3798</ele>
        <time>2015-09-03T03:15:47Z</time>
      </trkpt>
      <trkpt lat="33.88058" lon="77.44452">
        <ele>3797.2</ele>
        <time>2015-09-03T03:16:00Z</time>
      </trkpt>
      <trkpt lat="33.88057" lon="77.44473">
        <ele>3797.6</ele>
        <time>2015-09-03T03:16:12Z</time>
      </trkpt>
      <trkpt lat="33.88057" lon="77.44475">
        <ele>3797.6</ele>
        <time>2015-09-03T03:16:14Z</time>
      </trkpt>
      <trkpt lat="33.88057" lon="77.44478">
        <ele>3797.4</ele>
        <time>2015-09-03T03:16:17Z</time>
      </trkpt>
      <trkpt lat="33.88059" lon="77.44484">
        <ele>3797.8</ele>
        <time>2015-09-03T03:16:24Z</time>
      </trkpt>
      <trkpt lat="33.88059" lon="77.44487">
        <ele>3798.2</ele>
        <time>2015-09-03T03:16:27Z</time>
      </trkpt>
      <trkpt lat="33.88059" lon="77.44489">
        <ele>3798.2</ele>
        <time>2015-09-03T03:16:29Z</time>
      </trkpt>
      <trkpt lat="33.88059" lon="77.44492">
        <ele>3797.6</ele>
        <time>2015-09-03T03:16:32Z</time>
      </trkpt>
      <trkpt lat="33.88062" lon="77.44499">
        <ele>3797.4</ele>
        <time>2015-09-03T03:16:38Z</time>
      </trkpt>
      <trkpt lat="33.88061" lon="77.44502">
        <ele>3797</ele>
        <time>2015-09-03T03:16:41Z</time>
      </trkpt>
      <trkpt lat="33.88071" lon="77.44521">
        <ele>3798</ele>
        <time>2015-09-03T03:16:58Z</time>
      </trkpt>
      <trkpt lat="33.88074" lon="77.44529">
        <ele>3798</ele>
        <time>2015-09-03T03:17:12Z</time>
      </trkpt>
      <trkpt lat="33.88071" lon="77.44531">
        <ele>3798.4</ele>
        <time>2015-09-03T03:17:17Z</time>
      </trkpt>
      <trkpt lat="33.88067" lon="77.44538">
        <ele>3799</ele>
        <time>2015-09-03T03:17:27Z</time>
      </trkpt>
      <trkpt lat="33.88065" lon="77.4454">
        <ele>3799</ele>
        <time>2015-09-03T03:17:29Z</time>
      </trkpt>
      <trkpt lat="33.88063" lon="77.4454">
        <ele>3798.8</ele>
        <time>2015-09-03T03:17:31Z</time>
      </trkpt>
      <trkpt lat="33.88062" lon="77.44539">
        <ele>3798.6</ele>
        <time>2015-09-03T03:17:34Z</time>
      </trkpt>
      <trkpt lat="33.88049" lon="77.44532">
        <ele>3798</ele>
        <time>2015-09-03T03:17:44Z</time>
      </trkpt>
      <trkpt lat="33.88069" lon="77.44524">
        <ele>3798.2</ele>
        <time>2015-09-03T03:18:15Z</time>
      </trkpt>
      <trkpt lat="33.88072" lon="77.4452">
        <ele>3798.8</ele>
        <time>2015-09-03T03:18:19Z</time>
      </trkpt>
      <trkpt lat="33.88081" lon="77.44512">
        <ele>3799</ele>
        <time>2015-09-03T03:18:26Z</time>
      </trkpt>
      <trkpt lat="33.88068" lon="77.4452">
        <ele>3799</ele>
        <time>2015-09-03T03:18:35Z</time>
      </trkpt>
      <trkpt lat="33.88063" lon="77.44522">
        <ele>3799</ele>
        <time>2015-09-03T03:18:38Z</time>
      </trkpt>
      <trkpt lat="33.88059" lon="77.44521">
        <ele>3799</ele>
        <time>2015-09-03T03:18:41Z</time>
      </trkpt>
      <trkpt lat="33.88056" lon="77.44521">
        <ele>3799</ele>
        <time>2015-09-03T03:18:43Z</time>
      </trkpt>
      <trkpt lat="33.88051" lon="77.44522">
        <ele>3799.2</ele>
        <time>2015-09-03T03:18:45Z</time>
      </trkpt>
      <trkpt lat="33.88051" lon="77.44528">
        <ele>3799.2</ele>
        <time>2015-09-03T03:18:49Z</time>
      </trkpt>
      <trkpt lat="33.88049" lon="77.44531">
        <ele>3800.2</ele>
        <time>2015-09-03T03:19:01Z</time>
      </trkpt>
      <trkpt lat="33.88048" lon="77.44537">
        <ele>3800.2</ele>
        <time>2015-09-03T03:19:06Z</time>
      </trkpt>
      <trkpt lat="33.88046" lon="77.44539">
        <ele>3800.2</ele>
        <time>2015-09-03T03:19:09Z</time>
      </trkpt>
      <trkpt lat="33.88044" lon="77.44544">
        <ele>3800.4</ele>
        <time>2015-09-03T03:19:13Z</time>
      </trkpt>
      <trkpt lat="33.88037" lon="77.44558">
        <ele>3800.8</ele>
        <time>2015-09-03T03:19:25Z</time>
      </trkpt>
      <trkpt lat="33.88034" lon="77.44562">
        <ele>3801.2</ele>
        <time>2015-09-03T03:19:31Z</time>
      </trkpt>
      <trkpt lat="33.88028" lon="77.44568">
        <ele>3801.6</ele>
        <time>2015-09-03T03:19:40Z</time>
      </trkpt>
      <trkpt lat="33.88027" lon="77.44574">
        <ele>3802.2</ele>
        <time>2015-09-03T03:19:45Z</time>
      </trkpt>
      <trkpt lat="33.88026" lon="77.44574">
        <ele>3802.4</ele>
        <time>2015-09-03T03:19:46Z</time>
      </trkpt>
      <trkpt lat="33.88017" lon="77.44586">
        <ele>3803.4</ele>
        <time>2015-09-03T03:20:00Z</time>
      </trkpt>
      <trkpt lat="33.88015" lon="77.44589">
        <ele>3803.8</ele>
        <time>2015-09-03T03:20:03Z</time>
      </trkpt>
      <trkpt lat="33.88006" lon="77.44606">
        <ele>3804.4</ele>
        <time>2015-09-03T03:20:26Z</time>
      </trkpt>
      <trkpt lat="33.88003" lon="77.4461">
        <ele>3805.4</ele>
        <time>2015-09-03T03:20:31Z</time>
      </trkpt>
      <trkpt lat="33.87997" lon="77.44612">
        <ele>3804.4</ele>
        <time>2015-09-03T03:20:38Z</time>
      </trkpt>
      <trkpt lat="33.87996" lon="77.44614">
        <ele>3804.6</ele>
        <time>2015-09-03T03:20:40Z</time>
      </trkpt>
      <trkpt lat="33.87995" lon="77.44632">
        <ele>3804.8</ele>
        <time>2015-09-03T03:20:51Z</time>
      </trkpt>
      <trkpt lat="33.87991" lon="77.4464">
        <ele>3805</ele>
        <time>2015-09-03T03:20:57Z</time>
      </trkpt>
      <trkpt lat="33.8799" lon="77.4464">
        <ele>3805</ele>
        <time>2015-09-03T03:20:59Z</time>
      </trkpt>
      <trkpt lat="33.87987" lon="77.44642">
        <ele>3804.8</ele>
        <time>2015-09-03T03:21:03Z</time>
      </trkpt>
      <trkpt lat="33.87985" lon="77.44643">
        <ele>3805.2</ele>
        <time>2015-09-03T03:21:06Z</time>
      </trkpt>
      <trkpt lat="33.87975" lon="77.44653">
        <ele>3805.4</ele>
        <time>2015-09-03T03:21:23Z</time>
      </trkpt>
      <trkpt lat="33.87969" lon="77.44661">
        <ele>3806</ele>
        <time>2015-09-03T03:21:32Z</time>
      </trkpt>
      <trkpt lat="33.87968" lon="77.44665">
        <ele>3805.8</ele>
        <time>2015-09-03T03:21:35Z</time>
      </trkpt>
      <trkpt lat="33.87962" lon="77.44679">
        <ele>3806.2</ele>
        <time>2015-09-03T03:21:47Z</time>
      </trkpt>
      <trkpt lat="33.87961" lon="77.44683">
        <ele>3806.6</ele>
        <time>2015-09-03T03:21:50Z</time>
      </trkpt>
      <trkpt lat="33.87962" lon="77.44685">
        <ele>3807</ele>
        <time>2015-09-03T03:21:52Z</time>
      </trkpt>
      <trkpt lat="33.87959" lon="77.4469">
        <ele>3806.8</ele>
        <time>2015-09-03T03:21:56Z</time>
      </trkpt>
      <trkpt lat="33.87949" lon="77.44709">
        <ele>3806.8</ele>
        <time>2015-09-03T03:22:13Z</time>
      </trkpt>
      <trkpt lat="33.87949" lon="77.44713">
        <ele>3806.8</ele>
        <time>2015-09-03T03:22:16Z</time>
      </trkpt>
      <trkpt lat="33.87947" lon="77.4472">
        <ele>3807</ele>
        <time>2015-09-03T03:22:24Z</time>
      </trkpt>
      <trkpt lat="33.87932" lon="77.44734">
        <ele>3807</ele>
        <time>2015-09-03T03:22:41Z</time>
      </trkpt>
      <trkpt lat="33.87921" lon="77.44742">
        <ele>3806.8</ele>
        <time>2015-09-03T03:22:51Z</time>
      </trkpt>
      <trkpt lat="33.87905" lon="77.44753">
        <ele>3806</ele>
        <time>2015-09-03T03:23:08Z</time>
      </trkpt>
      <trkpt lat="33.87899" lon="77.44758">
        <ele>3805.4</ele>
        <time>2015-09-03T03:23:14Z</time>
      </trkpt>
      <trkpt lat="33.87888" lon="77.44775">
        <ele>3806.4</ele>
        <time>2015-09-03T03:23:32Z</time>
      </trkpt>
      <trkpt lat="33.87879" lon="77.44793">
        <ele>3806.4</ele>
        <time>2015-09-03T03:23:50Z</time>
      </trkpt>
      <trkpt lat="33.87868" lon="77.44809">
        <ele>3807</ele>
        <time>2015-09-03T03:24:07Z</time>
      </trkpt>
      <trkpt lat="33.87864" lon="77.44813">
        <ele>3807.2</ele>
        <time>2015-09-03T03:24:13Z</time>
      </trkpt>
      <trkpt lat="33.87856" lon="77.44818">
        <ele>3807.6</ele>
        <time>2015-09-03T03:24:24Z</time>
      </trkpt>
      <trkpt lat="33.87855" lon="77.44819">
        <ele>3807.8</ele>
        <time>2015-09-03T03:24:25Z</time>
      </trkpt>
      <trkpt lat="33.87851" lon="77.44825">
        <ele>3807.8</ele>
        <time>2015-09-03T03:24:30Z</time>
      </trkpt>
      <trkpt lat="33.87841" lon="77.44842">
        <ele>3808</ele>
        <time>2015-09-03T03:24:42Z</time>
      </trkpt>
      <trkpt lat="33.87834" lon="77.44845">
        <ele>3807.8</ele>
        <time>2015-09-03T03:24:49Z</time>
      </trkpt>
      <trkpt lat="33.87829" lon="77.44846">
        <ele>3808</ele>
        <time>2015-09-03T03:24:54Z</time>
      </trkpt>
      <trkpt lat="33.87827" lon="77.44857">
        <ele>3808.8</ele>
        <time>2015-09-03T03:25:02Z</time>
      </trkpt>
      <trkpt lat="33.8782" lon="77.44876">
        <ele>3808.6</ele>
        <time>2015-09-03T03:25:19Z</time>
      </trkpt>
      <trkpt lat="33.87809" lon="77.44894">
        <ele>3808.6</ele>
        <time>2015-09-03T03:25:36Z</time>
      </trkpt>
      <trkpt lat="33.87809" lon="77.44897">
        <ele>3808.6</ele>
        <time>2015-09-03T03:25:39Z</time>
      </trkpt>
      <trkpt lat="33.87807" lon="77.44901">
        <ele>3808.8</ele>
        <time>2015-09-03T03:25:43Z</time>
      </trkpt>
      <trkpt lat="33.87799" lon="77.44911">
        <ele>3809.2</ele>
        <time>2015-09-03T03:25:52Z</time>
      </trkpt>
      <trkpt lat="33.87784" lon="77.44921">
        <ele>3809.8</ele>
        <time>2015-09-03T03:26:09Z</time>
      </trkpt>
      <trkpt lat="33.87772" lon="77.4493">
        <ele>3810.4</ele>
        <time>2015-09-03T03:26:21Z</time>
      </trkpt>
      <trkpt lat="33.87767" lon="77.44933">
        <ele>3810.8</ele>
        <time>2015-09-03T03:26:32Z</time>
      </trkpt>
      <trkpt lat="33.87761" lon="77.44939">
        <ele>3811.8</ele>
        <time>2015-09-03T03:26:41Z</time>
      </trkpt>
      <trkpt lat="33.87759" lon="77.44941">
        <ele>3811.8</ele>
        <time>2015-09-03T03:26:44Z</time>
      </trkpt>
      <trkpt lat="33.87754" lon="77.44947">
        <ele>3811.6</ele>
        <time>2015-09-03T03:26:51Z</time>
      </trkpt>
      <trkpt lat="33.87751" lon="77.44946">
        <ele>3811.6</ele>
        <time>2015-09-03T03:26:55Z</time>
      </trkpt>
      <trkpt lat="33.87748" lon="77.44948">
        <ele>3812</ele>
        <time>2015-09-03T03:26:59Z</time>
      </trkpt>
      <trkpt lat="33.87744" lon="77.44953">
        <ele>3811</ele>
        <time>2015-09-03T03:27:04Z</time>
      </trkpt>
      <trkpt lat="33.8774" lon="77.44955">
        <ele>3810.8</ele>
        <time>2015-09-03T03:27:07Z</time>
      </trkpt>
      <trkpt lat="33.87727" lon="77.44962">
        <ele>3810.8</ele>
        <time>2015-09-03T03:27:19Z</time>
      </trkpt>
      <trkpt lat="33.87726" lon="77.44965">
        <ele>3811.2</ele>
        <time>2015-09-03T03:27:21Z</time>
      </trkpt>
      <trkpt lat="33.87726" lon="77.44967">
        <ele>3811.4</ele>
        <time>2015-09-03T03:27:23Z</time>
      </trkpt>
      <trkpt lat="33.87725" lon="77.44969">
        <ele>3811.6</ele>
        <time>2015-09-03T03:27:26Z</time>
      </trkpt>
      <trkpt lat="33.87725" lon="77.4497">
        <ele>3811.8</ele>
        <time>2015-09-03T03:27:29Z</time>
      </trkpt>
      <trkpt lat="33.87709" lon="77.44972">
        <ele>3811.6</ele>
        <time>2015-09-03T03:27:45Z</time>
      </trkpt>
      <trkpt lat="33.87698" lon="77.44979">
        <ele>3811.6</ele>
        <time>2015-09-03T03:27:56Z</time>
      </trkpt>
      <trkpt lat="33.87685" lon="77.44972">
        <ele>3812.2</ele>
        <time>2015-09-03T03:28:10Z</time>
      </trkpt>
      <trkpt lat="33.87683" lon="77.44974">
        <ele>3812.2</ele>
        <time>2015-09-03T03:28:13Z</time>
      </trkpt>
      <trkpt lat="33.8768" lon="77.44976">
        <ele>3812.2</ele>
        <time>2015-09-03T03:28:15Z</time>
      </trkpt>
      <trkpt lat="33.87665" lon="77.44992">
        <ele>3812.6</ele>
        <time>2015-09-03T03:28:30Z</time>
      </trkpt>
      <trkpt lat="33.87663" lon="77.44994">
        <ele>3813</ele>
        <time>2015-09-03T03:28:32Z</time>
      </trkpt>
      <trkpt lat="33.8765" lon="77.45001">
        <ele>3812.6</ele>
        <time>2015-09-03T03:28:44Z</time>
      </trkpt>
      <trkpt lat="33.87642" lon="77.45002">
        <ele>3813</ele>
        <time>2015-09-03T03:28:50Z</time>
      </trkpt>
      <trkpt lat="33.87632" lon="77.45002">
        <ele>3813.8</ele>
        <time>2015-09-03T03:28:59Z</time>
      </trkpt>
      <trkpt lat="33.8762" lon="77.45004">
        <ele>3813.8</ele>
        <time>2015-09-03T03:29:10Z</time>
      </trkpt>
      <trkpt lat="33.8762" lon="77.45004">
        <ele>3814.2</ele>
        <time>2015-09-03T03:29:11Z</time>
      </trkpt>
      <trkpt lat="33.87616" lon="77.45001">
        <ele>3814.4</ele>
        <time>2015-09-03T03:29:18Z</time>
      </trkpt>
      <trkpt lat="33.87609" lon="77.45004">
        <ele>3815.2</ele>
        <time>2015-09-03T03:29:33Z</time>
      </trkpt>
      <trkpt lat="33.87606" lon="77.45006">
        <ele>3816.2</ele>
        <time>2015-09-03T03:29:38Z</time>
      </trkpt>
      <trkpt lat="33.87604" lon="77.45007">
        <ele>3817.2</ele>
        <time>2015-09-03T03:29:41Z</time>
      </trkpt>
      <trkpt lat="33.87602" lon="77.45006">
        <ele>3818.4</ele>
        <time>2015-09-03T03:29:45Z</time>
      </trkpt>
      <trkpt lat="33.87598" lon="77.4501">
        <ele>3819.4</ele>
        <time>2015-09-03T03:29:54Z</time>
      </trkpt>
      <trkpt lat="33.87597" lon="77.4501">
        <ele>3819.6</ele>
        <time>2015-09-03T03:29:55Z</time>
      </trkpt>
      <trkpt lat="33.87579" lon="77.45012">
        <ele>3818.4</ele>
        <time>2015-09-03T03:30:17Z</time>
      </trkpt>
      <trkpt lat="33.87578" lon="77.45011">
        <ele>3818.2</ele>
        <time>2015-09-03T03:30:18Z</time>
      </trkpt>
      <trkpt lat="33.87571" lon="77.45007">
        <ele>3817.6</ele>
        <time>2015-09-03T03:30:25Z</time>
      </trkpt>
      <trkpt lat="33.87569" lon="77.45006">
        <ele>3817</ele>
        <time>2015-09-03T03:30:27Z</time>
      </trkpt>
      <trkpt lat="33.87567" lon="77.45006">
        <ele>3816.8</ele>
        <time>2015-09-03T03:30:29Z</time>
      </trkpt>
      <trkpt lat="33.8758" lon="77.44999">
        <ele>3817</ele>
        <time>2015-09-03T03:31:00Z</time>
      </trkpt>
      <trkpt lat="33.87582" lon="77.44995">
        <ele>3817</ele>
        <time>2015-09-03T03:31:03Z</time>
      </trkpt>
      <trkpt lat="33.87583" lon="77.4499">
        <ele>3817</ele>
        <time>2015-09-03T03:31:06Z</time>
      </trkpt>
      <trkpt lat="33.87577" lon="77.4499">
        <ele>3817.2</ele>
        <time>2015-09-03T03:31:09Z</time>
      </trkpt>
      <trkpt lat="33.87575" lon="77.44992">
        <ele>3817.4</ele>
        <time>2015-09-03T03:31:11Z</time>
      </trkpt>
      <trkpt lat="33.8757" lon="77.44995">
        <ele>3816.6</ele>
        <time>2015-09-03T03:31:14Z</time>
      </trkpt>
      <trkpt lat="33.87552" lon="77.45004">
        <ele>3817.4</ele>
        <time>2015-09-03T03:31:28Z</time>
      </trkpt>
      <trkpt lat="33.87538" lon="77.4502">
        <ele>3816.6</ele>
        <time>2015-09-03T03:31:45Z</time>
      </trkpt>
      <trkpt lat="33.87531" lon="77.45018">
        <ele>3816</ele>
        <time>2015-09-03T03:31:52Z</time>
      </trkpt>
      <trkpt lat="33.87525" lon="77.45018">
        <ele>3816</ele>
        <time>2015-09-03T03:31:58Z</time>
      </trkpt>
      <trkpt lat="33.87514" lon="77.45023">
        <ele>3817</ele>
        <time>2015-09-03T03:32:16Z</time>
      </trkpt>
      <trkpt lat="33.87503" lon="77.45025">
        <ele>3817.4</ele>
        <time>2015-09-03T03:32:27Z</time>
      </trkpt>
      <trkpt lat="33.87487" lon="77.45025">
        <ele>3817.8</ele>
        <time>2015-09-03T03:32:44Z</time>
      </trkpt>
      <trkpt lat="33.87485" lon="77.45022">
        <ele>3818</ele>
        <time>2015-09-03T03:32:46Z</time>
      </trkpt>
      <trkpt lat="33.8748" lon="77.45018">
        <ele>3818.2</ele>
        <time>2015-09-03T03:32:50Z</time>
      </trkpt>
      <trkpt lat="33.87462" lon="77.45015">
        <ele>3819</ele>
        <time>2015-09-03T03:33:04Z</time>
      </trkpt>
      <trkpt lat="33.8746" lon="77.45015">
        <ele>3819.2</ele>
        <time>2015-09-03T03:33:05Z</time>
      </trkpt>
      <trkpt lat="33.8745" lon="77.45018">
        <ele>3819.4</ele>
        <time>2015-09-03T03:33:19Z</time>
      </trkpt>
      <trkpt lat="33.8744" lon="77.45029">
        <ele>3820.2</ele>
        <time>2015-09-03T03:33:26Z</time>
      </trkpt>
      <trkpt lat="33.87427" lon="77.4505">
        <ele>3820.6</ele>
        <time>2015-09-03T03:33:32Z</time>
      </trkpt>
      <trkpt lat="33.87422" lon="77.45063">
        <ele>3821.4</ele>
        <time>2015-09-03T03:33:36Z</time>
      </trkpt>
      <trkpt lat="33.87418" lon="77.45071">
        <ele>3822.4</ele>
        <time>2015-09-03T03:33:40Z</time>
      </trkpt>
      <trkpt lat="33.87415" lon="77.45077">
        <ele>3823.6</ele>
        <time>2015-09-03T03:33:44Z</time>
      </trkpt>
      <trkpt lat="33.87414" lon="77.45078">
        <ele>3823.8</ele>
        <time>2015-09-03T03:33:45Z</time>
      </trkpt>
      <trkpt lat="33.8741" lon="77.45078">
        <ele>3824.8</ele>
        <time>2015-09-03T03:33:48Z</time>
      </trkpt>
      <trkpt lat="33.8741" lon="77.45079">
        <ele>3825</ele>
        <time>2015-09-03T03:33:49Z</time>
      </trkpt>
      <trkpt lat="33.87406" lon="77.45083">
        <ele>3826</ele>
        <time>2015-09-03T03:33:54Z</time>
      </trkpt>
      <trkpt lat="33.87405" lon="77.45086">
        <ele>3827.2</ele>
        <time>2015-09-03T03:33:57Z</time>
      </trkpt>
      <trkpt lat="33.87407" lon="77.4509">
        <ele>3828.2</ele>
        <time>2015-09-03T03:34:02Z</time>
      </trkpt>
      <trkpt lat="33.87407" lon="77.45091">
        <ele>3828.4</ele>
        <time>2015-09-03T03:34:03Z</time>
      </trkpt>
      <trkpt lat="33.87406" lon="77.45092">
        <ele>3829.4</ele>
        <time>2015-09-03T03:34:06Z</time>
      </trkpt>
      <trkpt lat="33.87406" lon="77.45096">
        <ele>3830.6</ele>
        <time>2015-09-03T03:34:10Z</time>
      </trkpt>
      <trkpt lat="33.87411" lon="77.45121">
        <ele>3831.6</ele>
        <time>2015-09-03T03:34:16Z</time>
      </trkpt>
      <trkpt lat="33.87412" lon="77.45119">
        <ele>3832.2</ele>
        <time>2015-09-03T03:34:19Z</time>
      </trkpt>
      <trkpt lat="33.87409" lon="77.45113">
        <ele>3832.8</ele>
        <time>2015-09-03T03:34:22Z</time>
      </trkpt>
      <trkpt lat="33.87409" lon="77.45112">
        <ele>3833</ele>
        <time>2015-09-03T03:34:23Z</time>
      </trkpt>
      <trkpt lat="33.87407" lon="77.4511">
        <ele>3833.4</ele>
        <time>2015-09-03T03:34:27Z</time>
      </trkpt>
      <trkpt lat="33.87404" lon="77.4511">
        <ele>3833.8</ele>
        <time>2015-09-03T03:34:31Z</time>
      </trkpt>
      <trkpt lat="33.87402" lon="77.45113">
        <ele>3834.4</ele>
        <time>2015-09-03T03:34:36Z</time>
      </trkpt>
      <trkpt lat="33.874" lon="77.45104">
        <ele>3834.8</ele>
        <time>2015-09-03T03:34:41Z</time>
      </trkpt>
      <trkpt lat="33.874" lon="77.45102">
        <ele>3835</ele>
        <time>2015-09-03T03:34:42Z</time>
      </trkpt>
      <trkpt lat="33.87399" lon="77.45096">
        <ele>3835.2</ele>
        <time>2015-09-03T03:34:45Z</time>
      </trkpt>
      <trkpt lat="33.87397" lon="77.45089">
        <ele>3835.6</ele>
        <time>2015-09-03T03:34:48Z</time>
      </trkpt>
      <trkpt lat="33.87396" lon="77.45082">
        <ele>3835.8</ele>
        <time>2015-09-03T03:34:51Z</time>
      </trkpt>
      <trkpt lat="33.87394" lon="77.45076">
        <ele>3836.6</ele>
        <time>2015-09-03T03:34:58Z</time>
      </trkpt>
      <trkpt lat="33.87393" lon="77.45076">
        <ele>3837</ele>
        <time>2015-09-03T03:35:00Z</time>
      </trkpt>
      <trkpt lat="33.87392" lon="77.45082">
        <ele>3838</ele>
        <time>2015-09-03T03:35:08Z</time>
      </trkpt>
      <trkpt lat="33.87382" lon="77.45092">
        <ele>3838</ele>
        <time>2015-09-03T03:35:19Z</time>
      </trkpt>
      <trkpt lat="33.8738" lon="77.45091">
        <ele>3837.8</ele>
        <time>2015-09-03T03:35:22Z</time>
      </trkpt>
      <trkpt lat="33.87375" lon="77.45094">
        <ele>3837</ele>
        <time>2015-09-03T03:35:30Z</time>
      </trkpt>
      <trkpt lat="33.87375" lon="77.45096">
        <ele>3836.8</ele>
        <time>2015-09-03T03:35:32Z</time>
      </trkpt>
      <trkpt lat="33.87374" lon="77.45096">
        <ele>3836.6</ele>
        <time>2015-09-03T03:35:34Z</time>
      </trkpt>
      <trkpt lat="33.8737" lon="77.45099">
        <ele>3838</ele>
        <time>2015-09-03T03:35:56Z</time>
      </trkpt>
      <trkpt lat="33.87364" lon="77.45103">
        <ele>3837.6</ele>
        <time>2015-09-03T03:36:09Z</time>
      </trkpt>
      <trkpt lat="33.87362" lon="77.45109">
        <ele>3837</ele>
        <time>2015-09-03T03:36:14Z</time>
      </trkpt>
      <trkpt lat="33.87363" lon="77.45101">
        <ele>3837.4</ele>
        <time>2015-09-03T03:36:27Z</time>
      </trkpt>
      <trkpt lat="33.87362" lon="77.45109">
        <ele>3837.2</ele>
        <time>2015-09-03T03:36:42Z</time>
      </trkpt>
      <trkpt lat="33.87361" lon="77.45111">
        <ele>3837.2</ele>
        <time>2015-09-03T03:36:45Z</time>
      </trkpt>
      <trkpt lat="33.87359" lon="77.45113">
        <ele>3837.4</ele>
        <time>2015-09-03T03:36:47Z</time>
      </trkpt>
      <trkpt lat="33.87357" lon="77.45116">
        <ele>3837.8</ele>
        <time>2015-09-03T03:36:51Z</time>
      </trkpt>
      <trkpt lat="33.87356" lon="77.45116">
        <ele>3837.8</ele>
        <time>2015-09-03T03:36:52Z</time>
      </trkpt>
      <trkpt lat="33.87355" lon="77.45117">
        <ele>3838</ele>
        <time>2015-09-03T03:36:54Z</time>
      </trkpt>
      <trkpt lat="33.87357" lon="77.45119">
        <ele>3838</ele>
        <time>2015-09-03T03:36:57Z</time>
      </trkpt>
      <trkpt lat="33.87364" lon="77.45105">
        <ele>3838</ele>
        <time>2015-09-03T03:37:18Z</time>
      </trkpt>
      <trkpt lat="33.87364" lon="77.45104">
        <ele>3838</ele>
        <time>2015-09-03T03:37:19Z</time>
      </trkpt>
      <trkpt lat="33.87362" lon="77.45094">
        <ele>3837.8</ele>
        <time>2015-09-03T03:37:29Z</time>
      </trkpt>
      <trkpt lat="33.87374" lon="77.45096">
        <ele>3837.6</ele>
        <time>2015-09-03T03:37:38Z</time>
      </trkpt>
      <trkpt lat="33.87372" lon="77.45115">
        <ele>3837.8</ele>
        <time>2015-09-03T03:37:41Z</time>
      </trkpt>
      <trkpt lat="33.87369" lon="77.45122">
        <ele>3837.2</ele>
        <time>2015-09-03T03:37:48Z</time>
      </trkpt>
      <trkpt lat="33.87366" lon="77.45144">
        <ele>3836.8</ele>
        <time>2015-09-03T03:38:03Z</time>
      </trkpt>
      <trkpt lat="33.87367" lon="77.45145">
        <ele>3836.6</ele>
        <time>2015-09-03T03:38:05Z</time>
      </trkpt>
      <trkpt lat="33.87367" lon="77.45147">
        <ele>3836.6</ele>
        <time>2015-09-03T03:38:08Z</time>
      </trkpt>
      <trkpt lat="33.87373" lon="77.45155">
        <ele>3837</ele>
        <time>2015-09-03T03:38:18Z</time>
      </trkpt>
      <trkpt lat="33.87373" lon="77.45153">
        <ele>3837</ele>
        <time>2015-09-03T03:38:48Z</time>
      </trkpt>
      <trkpt lat="33.87369" lon="77.45148">
        <ele>3837</ele>
        <time>2015-09-03T03:38:50Z</time>
      </trkpt>
      <trkpt lat="33.87367" lon="77.45138">
        <ele>3837.4</ele>
        <time>2015-09-03T03:38:55Z</time>
      </trkpt>
      <trkpt lat="33.87367" lon="77.45135">
        <ele>3837</ele>
        <time>2015-09-03T03:39:00Z</time>
      </trkpt>
      <trkpt lat="33.87371" lon="77.4513">
        <ele>3837</ele>
        <time>2015-09-03T03:39:08Z</time>
      </trkpt>
      <trkpt lat="33.87365" lon="77.45145">
        <ele>3837.6</ele>
        <time>2015-09-03T03:39:16Z</time>
      </trkpt>
      <trkpt lat="33.87365" lon="77.45147">
        <ele>3837.6</ele>
        <time>2015-09-03T03:39:17Z</time>
      </trkpt>
      <trkpt lat="33.87364" lon="77.45147">
        <ele>3837.8</ele>
        <time>2015-09-03T03:39:36Z</time>
      </trkpt>
      <trkpt lat="33.87365" lon="77.45151">
        <ele>3837.8</ele>
        <time>2015-09-03T03:39:39Z</time>
      </trkpt>
      <trkpt lat="33.87363" lon="77.45148">
        <ele>3837.8</ele>
        <time>2015-09-03T03:39:41Z</time>
      </trkpt>
      <trkpt lat="33.87365" lon="77.4515">
        <ele>3837.6</ele>
        <time>2015-09-03T03:39:44Z</time>
      </trkpt>
      <trkpt lat="33.87368" lon="77.45153">
        <ele>3837.6</ele>
        <time>2015-09-03T03:39:46Z</time>
      </trkpt>
      <trkpt lat="33.87366" lon="77.45151">
        <ele>3837.4</ele>
        <time>2015-09-03T03:40:00Z</time>
      </trkpt>
      <trkpt lat="33.87363" lon="77.45152">
        <ele>3837.4</ele>
        <time>2015-09-03T03:40:06Z</time>
      </trkpt>
      <trkpt lat="33.87367" lon="77.45148">
        <ele>3837.8</ele>
        <time>2015-09-03T03:40:10Z</time>
      </trkpt>
      <trkpt lat="33.87367" lon="77.45147">
        <ele>3837.8</ele>
        <time>2015-09-03T03:40:12Z</time>
      </trkpt>
      <trkpt lat="33.87365" lon="77.45144">
        <ele>3838</ele>
        <time>2015-09-03T03:40:16Z</time>
      </trkpt>
      <trkpt lat="33.87365" lon="77.45142">
        <ele>3838.2</ele>
        <time>2015-09-03T03:40:18Z</time>
      </trkpt>
      <trkpt lat="33.87365" lon="77.45139">
        <ele>3838.2</ele>
        <time>2015-09-03T03:40:22Z</time>
      </trkpt>
      <trkpt lat="33.87364" lon="77.45133">
        <ele>3838</ele>
        <time>2015-09-03T03:40:24Z</time>
      </trkpt>
      <trkpt lat="33.87364" lon="77.45135">
        <ele>3837</ele>
        <time>2015-09-03T03:40:28Z</time>
      </trkpt>
      <trkpt lat="33.87365" lon="77.45139">
        <ele>3836.8</ele>
        <time>2015-09-03T03:40:30Z</time>
      </trkpt>
      <trkpt lat="33.87363" lon="77.45143">
        <ele>3837</ele>
        <time>2015-09-03T03:40:58Z</time>
      </trkpt>
      <trkpt lat="33.87358" lon="77.45144">
        <ele>3836.6</ele>
        <time>2015-09-03T03:41:24Z</time>
      </trkpt>
      <trkpt lat="33.8736" lon="77.45135">
        <ele>3837</ele>
        <time>2015-09-03T03:41:51Z</time>
      </trkpt>
      <trkpt lat="33.87361" lon="77.45133">
        <ele>3837</ele>
        <time>2015-09-03T03:41:53Z</time>
      </trkpt>
      <trkpt lat="33.87362" lon="77.45133">
        <ele>3836.8</ele>
        <time>2015-09-03T03:41:57Z</time>
      </trkpt>
      <trkpt lat="33.87357" lon="77.45134">
        <ele>3837</ele>
        <time>2015-09-03T03:42:03Z</time>
      </trkpt>
      <trkpt lat="33.8736" lon="77.45131">
        <ele>3837</ele>
        <time>2015-09-03T03:42:06Z</time>
      </trkpt>
      <trkpt lat="33.87362" lon="77.4514">
        <ele>3835.8</ele>
        <time>2015-09-03T03:42:29Z</time>
      </trkpt>
      <trkpt lat="33.87364" lon="77.45142">
        <ele>3836</ele>
        <time>2015-09-03T03:43:07Z</time>
      </trkpt>
      <trkpt lat="33.87377" lon="77.45142">
        <ele>3836.4</ele>
        <time>2015-09-03T03:43:16Z</time>
      </trkpt>
      <trkpt lat="33.87378" lon="77.45143">
        <ele>3836.6</ele>
        <time>2015-09-03T03:43:18Z</time>
      </trkpt>
      <trkpt lat="33.8738" lon="77.45143">
        <ele>3836.6</ele>
        <time>2015-09-03T03:43:20Z</time>
      </trkpt>
      <trkpt lat="33.87378" lon="77.45145">
        <ele>3836.6</ele>
        <time>2015-09-03T03:43:25Z</time>
      </trkpt>
      <trkpt lat="33.8737" lon="77.45139">
        <ele>3836.2</ele>
        <time>2015-09-03T03:43:28Z</time>
      </trkpt>
      <trkpt lat="33.87365" lon="77.45136">
        <ele>3835.6</ele>
        <time>2015-09-03T03:43:32Z</time>
      </trkpt>
      <trkpt lat="33.87364" lon="77.45138">
        <ele>3835.4</ele>
        <time>2015-09-03T03:43:34Z</time>
      </trkpt>
      <trkpt lat="33.87364" lon="77.4514">
        <ele>3835.6</ele>
        <time>2015-09-03T03:43:42Z</time>
      </trkpt>
      <trkpt lat="33.8737" lon="77.45153">
        <ele>3836</ele>
        <time>2015-09-03T03:44:08Z</time>
      </trkpt>
      <trkpt lat="33.87371" lon="77.45157">
        <ele>3836.4</ele>
        <time>2015-09-03T03:44:11Z</time>
      </trkpt>
      <trkpt lat="33.87366" lon="77.45154">
        <ele>3836.8</ele>
        <time>2015-09-03T03:44:28Z</time>
      </trkpt>
      <trkpt lat="33.87362" lon="77.45157">
        <ele>3837</ele>
        <time>2015-09-03T03:44:34Z</time>
      </trkpt>
      <trkpt lat="33.87359" lon="77.45159">
        <ele>3835.8</ele>
        <time>2015-09-03T03:45:20Z</time>
      </trkpt>
      <trkpt lat="33.87359" lon="77.4516">
        <ele>3835.8</ele>
        <time>2015-09-03T03:45:21Z</time>
      </trkpt>
      <trkpt lat="33.87358" lon="77.45155">
        <ele>3836.6</ele>
        <time>2015-09-03T03:45:41Z</time>
      </trkpt>
      <trkpt lat="33.87355" lon="77.45144">
        <ele>3836.6</ele>
        <time>2015-09-03T03:45:46Z</time>
      </trkpt>
      <trkpt lat="33.87356" lon="77.45133">
        <ele>3837</ele>
        <time>2015-09-03T03:46:00Z</time>
      </trkpt>
      <trkpt lat="33.87361" lon="77.45139">
        <ele>3838</ele>
        <time>2015-09-03T03:46:21Z</time>
      </trkpt>
      <trkpt lat="33.87364" lon="77.45138">
        <ele>3838.8</ele>
        <time>2015-09-03T03:46:24Z</time>
      </trkpt>
      <trkpt lat="33.87368" lon="77.45139">
        <ele>3839</ele>
        <time>2015-09-03T03:46:29Z</time>
      </trkpt>
      <trkpt lat="33.87371" lon="77.45141">
        <ele>3839.2</ele>
        <time>2015-09-03T03:46:40Z</time>
      </trkpt>
      <trkpt lat="33.87373" lon="77.45149">
        <ele>3840.2</ele>
        <time>2015-09-03T03:46:55Z</time>
      </trkpt>
      <trkpt lat="33.87373" lon="77.45153">
        <ele>3841</ele>
        <time>2015-09-03T03:46:59Z</time>
      </trkpt>
      <trkpt lat="33.87373" lon="77.45156">
        <ele>3841.4</ele>
        <time>2015-09-03T03:47:01Z</time>
      </trkpt>
      <trkpt lat="33.87373" lon="77.45158">
        <ele>3842.4</ele>
        <time>2015-09-03T03:47:08Z</time>
      </trkpt>
      <trkpt lat="33.87374" lon="77.45156">
        <ele>3843.6</ele>
        <time>2015-09-03T03:47:17Z</time>
      </trkpt>
      <trkpt lat="33.87375" lon="77.45158">
        <ele>3844.6</ele>
        <time>2015-09-03T03:47:25Z</time>
      </trkpt>
      <trkpt lat="33.87378" lon="77.45162">
        <ele>3845.8</ele>
        <time>2015-09-03T03:47:33Z</time>
      </trkpt>
      <trkpt lat="33.87379" lon="77.45162">
        <ele>3846.8</ele>
        <time>2015-09-03T03:47:42Z</time>
      </trkpt>
      <trkpt lat="33.87381" lon="77.45163">
        <ele>3847.8</ele>
        <time>2015-09-03T03:47:51Z</time>
      </trkpt>
      <trkpt lat="33.87379" lon="77.45166">
        <ele>3849</ele>
        <time>2015-09-03T03:47:59Z</time>
      </trkpt>
      <trkpt lat="33.87379" lon="77.4517">
        <ele>3850</ele>
        <time>2015-09-03T03:48:09Z</time>
      </trkpt>
      <trkpt lat="33.8738" lon="77.45171">
        <ele>3850</ele>
        <time>2015-09-03T03:48:10Z</time>
      </trkpt>
      <trkpt lat="33.87382" lon="77.4517">
        <ele>3851.2</ele>
        <time>2015-09-03T03:48:23Z</time>
      </trkpt>
      <trkpt lat="33.87384" lon="77.45169">
        <ele>3852.2</ele>
        <time>2015-09-03T03:48:33Z</time>
      </trkpt>
      <trkpt lat="33.87382" lon="77.45162">
        <ele>3853.2</ele>
        <time>2015-09-03T03:48:41Z</time>
      </trkpt>
      <trkpt lat="33.87383" lon="77.4516">
        <ele>3854.4</ele>
        <time>2015-09-03T03:48:49Z</time>
      </trkpt>
      <trkpt lat="33.87382" lon="77.45167">
        <ele>3855.4</ele>
        <time>2015-09-03T03:48:59Z</time>
      </trkpt>
      <trkpt lat="33.87384" lon="77.4517">
        <ele>3856.6</ele>
        <time>2015-09-03T03:49:08Z</time>
      </trkpt>
      <trkpt lat="33.87387" lon="77.45169">
        <ele>3857.6</ele>
        <time>2015-09-03T03:49:18Z</time>
      </trkpt>
      <trkpt lat="33.87388" lon="77.45172">
        <ele>3858.8</ele>
        <time>2015-09-03T03:49:25Z</time>
      </trkpt>
      <trkpt lat="33.87388" lon="77.45177">
        <ele>3859.8</ele>
        <time>2015-09-03T03:49:34Z</time>
      </trkpt>
      <trkpt lat="33.87383" lon="77.45178">
        <ele>3860.2</ele>
        <time>2015-09-03T03:49:39Z</time>
      </trkpt>
      <trkpt lat="33.87386" lon="77.45174">
        <ele>3860.8</ele>
        <time>2015-09-03T03:49:44Z</time>
      </trkpt>
      <trkpt lat="33.87387" lon="77.45172">
        <ele>3861.8</ele>
        <time>2015-09-03T03:49:52Z</time>
      </trkpt>
      <trkpt lat="33.8739" lon="77.45171">
        <ele>3862.8</ele>
        <time>2015-09-03T03:49:57Z</time>
      </trkpt>
      <trkpt lat="33.87401" lon="77.45171">
        <ele>3863.8</ele>
        <time>2015-09-03T03:50:16Z</time>
      </trkpt>
      <trkpt lat="33.87402" lon="77.45172">
        <ele>3864</ele>
        <time>2015-09-03T03:50:22Z</time>
      </trkpt>
      <trkpt lat="33.874" lon="77.45174">
        <ele>3865</ele>
        <time>2015-09-03T03:50:29Z</time>
      </trkpt>
      <trkpt lat="33.874" lon="77.45171">
        <ele>3866</ele>
        <time>2015-09-03T03:50:36Z</time>
      </trkpt>
      <trkpt lat="33.87398" lon="77.45168">
        <ele>3867.2</ele>
        <time>2015-09-03T03:50:42Z</time>
      </trkpt>
      <trkpt lat="33.87397" lon="77.45166">
        <ele>3868.4</ele>
        <time>2015-09-03T03:50:48Z</time>
      </trkpt>
      <trkpt lat="33.87397" lon="77.45166">
        <ele>3869.4</ele>
        <time>2015-09-03T03:50:54Z</time>
      </trkpt>
      <trkpt lat="33.874" lon="77.45167">
        <ele>3870.4</ele>
        <time>2015-09-03T03:51:02Z</time>
      </trkpt>
      <trkpt lat="33.87398" lon="77.4517">
        <ele>3871.6</ele>
        <time>2015-09-03T03:51:10Z</time>
      </trkpt>
      <trkpt lat="33.87399" lon="77.4517">
        <ele>3872.8</ele>
        <time>2015-09-03T03:51:17Z</time>
      </trkpt>
      <trkpt lat="33.874" lon="77.45174">
        <ele>3873.8</ele>
        <time>2015-09-03T03:51:27Z</time>
      </trkpt>
      <trkpt lat="33.87399" lon="77.45176">
        <ele>3874.8</ele>
        <time>2015-09-03T03:51:35Z</time>
      </trkpt>
      <trkpt lat="33.87398" lon="77.45181">
        <ele>3875.8</ele>
        <time>2015-09-03T03:51:46Z</time>
      </trkpt>
      <trkpt lat="33.87395" lon="77.45183">
        <ele>3876.8</ele>
        <time>2015-09-03T03:51:55Z</time>
      </trkpt>
      <trkpt lat="33.87399" lon="77.45184">
        <ele>3877</ele>
        <time>2015-09-03T03:52:08Z</time>
      </trkpt>
      <trkpt lat="33.87401" lon="77.45184">
        <ele>3877.4</ele>
        <time>2015-09-03T03:52:10Z</time>
      </trkpt>
      <trkpt lat="33.874" lon="77.45185">
        <ele>3878.2</ele>
        <time>2015-09-03T03:52:12Z</time>
      </trkpt>
      <trkpt lat="33.87402" lon="77.45188">
        <ele>3879.2</ele>
        <time>2015-09-03T03:52:16Z</time>
      </trkpt>
      <trkpt lat="33.87402" lon="77.45194">
        <ele>3880.4</ele>
        <time>2015-09-03T03:52:32Z</time>
      </trkpt>
      <trkpt lat="33.874" lon="77.45197">
        <ele>3881.4</ele>
        <time>2015-09-03T03:52:38Z</time>
      </trkpt>
      <trkpt lat="33.87398" lon="77.45205">
        <ele>3882.6</ele>
        <time>2015-09-03T03:52:48Z</time>
      </trkpt>
      <trkpt lat="33.87397" lon="77.45208">
        <ele>3883.6</ele>
        <time>2015-09-03T03:52:53Z</time>
      </trkpt>
      <trkpt lat="33.87397" lon="77.4521">
        <ele>3884.6</ele>
        <time>2015-09-03T03:53:00Z</time>
      </trkpt>
      <trkpt lat="33.874" lon="77.45201">
        <ele>3885.8</ele>
        <time>2015-09-03T03:53:12Z</time>
      </trkpt>
      <trkpt lat="33.87402" lon="77.45191">
        <ele>3886.8</ele>
        <time>2015-09-03T03:53:24Z</time>
      </trkpt>
      <trkpt lat="33.874" lon="77.45188">
        <ele>3887.8</ele>
        <time>2015-09-03T03:53:30Z</time>
      </trkpt>
      <trkpt lat="33.87404" lon="77.45183">
        <ele>3888.4</ele>
        <time>2015-09-03T03:53:36Z</time>
      </trkpt>
      <trkpt lat="33.87408" lon="77.45183">
        <ele>3888.6</ele>
        <time>2015-09-03T03:53:39Z</time>
      </trkpt>
      <trkpt lat="33.87409" lon="77.45185">
        <ele>3888.8</ele>
        <time>2015-09-03T03:53:41Z</time>
      </trkpt>
      <trkpt lat="33.87408" lon="77.45186">
        <ele>3889</ele>
        <time>2015-09-03T03:53:42Z</time>
      </trkpt>
      <trkpt lat="33.87408" lon="77.45187">
        <ele>3889.2</ele>
        <time>2015-09-03T03:53:43Z</time>
      </trkpt>
      <trkpt lat="33.87409" lon="77.45189">
        <ele>3890</ele>
        <time>2015-09-03T03:53:50Z</time>
      </trkpt>
      <trkpt lat="33.87406" lon="77.45194">
        <ele>3891</ele>
        <time>2015-09-03T03:53:57Z</time>
      </trkpt>
      <trkpt lat="33.87408" lon="77.45198">
        <ele>3892.2</ele>
        <time>2015-09-03T03:54:07Z</time>
      </trkpt>
      <trkpt lat="33.87405" lon="77.45209">
        <ele>3893.2</ele>
        <time>2015-09-03T03:54:29Z</time>
      </trkpt>
      <trkpt lat="33.87406" lon="77.45211">
        <ele>3894.4</ele>
        <time>2015-09-03T03:54:36Z</time>
      </trkpt>
      <trkpt lat="33.87408" lon="77.45212">
        <ele>3895.4</ele>
        <time>2015-09-03T03:54:43Z</time>
      </trkpt>
      <trkpt lat="33.87412" lon="77.45212">
        <ele>3896.4</ele>
        <time>2015-09-03T03:54:52Z</time>
      </trkpt>
      <trkpt lat="33.87424" lon="77.45223">
        <ele>3897.2</ele>
        <time>2015-09-03T03:55:19Z</time>
      </trkpt>
      <trkpt lat="33.87418" lon="77.45221">
        <ele>3897.4</ele>
        <time>2015-09-03T03:55:25Z</time>
      </trkpt>
      <trkpt lat="33.87417" lon="77.45221">
        <ele>3897.6</ele>
        <time>2015-09-03T03:55:26Z</time>
      </trkpt>
      <trkpt lat="33.87413" lon="77.45221">
        <ele>3898</ele>
        <time>2015-09-03T03:55:29Z</time>
      </trkpt>
      <trkpt lat="33.87411" lon="77.45224">
        <ele>3898.8</ele>
        <time>2015-09-03T03:55:33Z</time>
      </trkpt>
      <trkpt lat="33.87411" lon="77.45225">
        <ele>3899.8</ele>
        <time>2015-09-03T03:55:40Z</time>
      </trkpt>
      <trkpt lat="33.87409" lon="77.45228">
        <ele>3901</ele>
        <time>2015-09-03T03:55:50Z</time>
      </trkpt>
      <trkpt lat="33.87409" lon="77.45228">
        <ele>3902</ele>
        <time>2015-09-03T03:55:58Z</time>
      </trkpt>
      <trkpt lat="33.87408" lon="77.45235">
        <ele>3903</ele>
        <time>2015-09-03T03:56:06Z</time>
      </trkpt>
      <trkpt lat="33.87412" lon="77.45228">
        <ele>3905.2</ele>
        <time>2015-09-03T03:56:26Z</time>
      </trkpt>
      <trkpt lat="33.87411" lon="77.45223">
        <ele>3906.2</ele>
        <time>2015-09-03T03:56:33Z</time>
      </trkpt>
      <trkpt lat="33.87433" lon="77.4524">
        <ele>3907.4</ele>
        <time>2015-09-03T03:56:40Z</time>
      </trkpt>
      <trkpt lat="33.87422" lon="77.45225">
        <ele>3908.6</ele>
        <time>2015-09-03T03:56:49Z</time>
      </trkpt>
      <trkpt lat="33.8742" lon="77.45227">
        <ele>3909.6</ele>
        <time>2015-09-03T03:57:03Z</time>
      </trkpt>
      <trkpt lat="33.8742" lon="77.45233">
        <ele>3910.8</ele>
        <time>2015-09-03T03:57:10Z</time>
      </trkpt>
      <trkpt lat="33.87419" lon="77.45232">
        <ele>3911.8</ele>
        <time>2015-09-03T03:57:17Z</time>
      </trkpt>
      <trkpt lat="33.87415" lon="77.45232">
        <ele>3913</ele>
        <time>2015-09-03T03:57:23Z</time>
      </trkpt>
      <trkpt lat="33.87416" lon="77.45234">
        <ele>3914</ele>
        <time>2015-09-03T03:57:35Z</time>
      </trkpt>
      <trkpt lat="33.87416" lon="77.45237">
        <ele>3915</ele>
        <time>2015-09-03T03:57:42Z</time>
      </trkpt>
      <trkpt lat="33.87416" lon="77.45236">
        <ele>3916.2</ele>
        <time>2015-09-03T03:57:53Z</time>
      </trkpt>
      <trkpt lat="33.87419" lon="77.45231">
        <ele>3917.2</ele>
        <time>2015-09-03T03:58:02Z</time>
      </trkpt>
      <trkpt lat="33.87419" lon="77.45227">
        <ele>3918.2</ele>
        <time>2015-09-03T03:58:08Z</time>
      </trkpt>
      <trkpt lat="33.8742" lon="77.45221">
        <ele>3919.2</ele>
        <time>2015-09-03T03:58:27Z</time>
      </trkpt>
      <trkpt lat="33.87423" lon="77.45223">
        <ele>3919.6</ele>
        <time>2015-09-03T03:58:41Z</time>
      </trkpt>
      <trkpt lat="33.87425" lon="77.45221">
        <ele>3919.6</ele>
        <time>2015-09-03T03:58:52Z</time>
      </trkpt>
      <trkpt lat="33.87426" lon="77.4522">
        <ele>3920.2</ele>
        <time>2015-09-03T03:59:35Z</time>
      </trkpt>
      <trkpt lat="33.87426" lon="77.4522">
        <ele>3920.4</ele>
        <time>2015-09-03T03:59:36Z</time>
      </trkpt>
      <trkpt lat="33.87418" lon="77.45218">
        <ele>3919.8</ele>
        <time>2015-09-03T04:00:49Z</time>
      </trkpt>
      <trkpt lat="33.87415" lon="77.45219">
        <ele>3919.8</ele>
        <time>2015-09-03T04:00:52Z</time>
      </trkpt>
      <trkpt lat="33.87415" lon="77.45231">
        <ele>3919.2</ele>
        <time>2015-09-03T04:01:01Z</time>
      </trkpt>
      <trkpt lat="33.87415" lon="77.45234">
        <ele>3919</ele>
        <time>2015-09-03T04:01:04Z</time>
      </trkpt>
      <trkpt lat="33.87412" lon="77.45237">
        <ele>3920</ele>
        <time>2015-09-03T04:01:09Z</time>
      </trkpt>
      <trkpt lat="33.87408" lon="77.45242">
        <ele>3920</ele>
        <time>2015-09-03T04:01:14Z</time>
      </trkpt>
      <trkpt lat="33.87411" lon="77.45247">
        <ele>3920</ele>
        <time>2015-09-03T04:01:16Z</time>
      </trkpt>
      <trkpt lat="33.87412" lon="77.45249">
        <ele>3920.4</ele>
        <time>2015-09-03T04:01:18Z</time>
      </trkpt>
      <trkpt lat="33.87413" lon="77.4525">
        <ele>3920.8</ele>
        <time>2015-09-03T04:01:19Z</time>
      </trkpt>
      <trkpt lat="33.87417" lon="77.45252">
        <ele>3921.4</ele>
        <time>2015-09-03T04:01:25Z</time>
      </trkpt>
      <trkpt lat="33.87415" lon="77.45253">
        <ele>3922.8</ele>
        <time>2015-09-03T04:01:30Z</time>
      </trkpt>
      <trkpt lat="33.87414" lon="77.45256">
        <ele>3923.8</ele>
        <time>2015-09-03T04:01:36Z</time>
      </trkpt>
      <trkpt lat="33.87413" lon="77.45253">
        <ele>3924.8</ele>
        <time>2015-09-03T04:01:45Z</time>
      </trkpt>
      <trkpt lat="33.87412" lon="77.45254">
        <ele>3926</ele>
        <time>2015-09-03T04:01:51Z</time>
      </trkpt>
      <trkpt lat="33.87413" lon="77.45258">
        <ele>3927.2</ele>
        <time>2015-09-03T04:01:57Z</time>
      </trkpt>
      <trkpt lat="33.87414" lon="77.45262">
        <ele>3927.4</ele>
        <time>2015-09-03T04:02:01Z</time>
      </trkpt>
      <trkpt lat="33.87412" lon="77.45264">
        <ele>3928.2</ele>
        <time>2015-09-03T04:02:06Z</time>
      </trkpt>
      <trkpt lat="33.8742" lon="77.45274">
        <ele>3929</ele>
        <time>2015-09-03T04:03:25Z</time>
      </trkpt>
      <trkpt lat="33.87414" lon="77.45282">
        <ele>3929.4</ele>
        <time>2015-09-03T04:03:30Z</time>
      </trkpt>
      <trkpt lat="33.87413" lon="77.45283">
        <ele>3929.4</ele>
        <time>2015-09-03T04:03:32Z</time>
      </trkpt>
      <trkpt lat="33.87413" lon="77.4529">
        <ele>3929.2</ele>
        <time>2015-09-03T04:03:37Z</time>
      </trkpt>
      <trkpt lat="33.87415" lon="77.45288">
        <ele>3929.4</ele>
        <time>2015-09-03T04:03:40Z</time>
      </trkpt>
      <trkpt lat="33.87417" lon="77.45288">
        <ele>3930</ele>
        <time>2015-09-03T04:03:42Z</time>
      </trkpt>
      <trkpt lat="33.87417" lon="77.45286">
        <ele>3930.4</ele>
        <time>2015-09-03T04:03:44Z</time>
      </trkpt>
      <trkpt lat="33.87419" lon="77.45282">
        <ele>3931.4</ele>
        <time>2015-09-03T04:03:49Z</time>
      </trkpt>
      <trkpt lat="33.87422" lon="77.45279">
        <ele>3931.4</ele>
        <time>2015-09-03T04:03:54Z</time>
      </trkpt>
      <trkpt lat="33.87414" lon="77.45279">
        <ele>3932.4</ele>
        <time>2015-09-03T04:04:28Z</time>
      </trkpt>
      <trkpt lat="33.87413" lon="77.45277">
        <ele>3932.4</ele>
        <time>2015-09-03T04:04:31Z</time>
      </trkpt>
      <trkpt lat="33.87413" lon="77.45275">
        <ele>3932.6</ele>
        <time>2015-09-03T04:04:33Z</time>
      </trkpt>
      <trkpt lat="33.87412" lon="77.45276">
        <ele>3932.8</ele>
        <time>2015-09-03T04:04:35Z</time>
      </trkpt>
      <trkpt lat="33.8741" lon="77.45271">
        <ele>3932.8</ele>
        <time>2015-09-03T04:04:51Z</time>
      </trkpt>
      <trkpt lat="33.8743" lon="77.45245">
        <ele>3933.2</ele>
        <time>2015-09-03T04:05:58Z</time>
      </trkpt>
      <trkpt lat="33.87437" lon="77.45258">
        <ele>3931.4</ele>
        <time>2015-09-03T04:06:50Z</time>
      </trkpt>
      <trkpt lat="33.87434" lon="77.45281">
        <ele>3931.8</ele>
        <time>2015-09-03T04:09:07Z</time>
      </trkpt>
      <trkpt lat="33.87461" lon="77.45263">
        <ele>3931.2</ele>
        <time>2015-09-03T04:09:27Z</time>
      </trkpt>
      <trkpt lat="33.87453" lon="77.45265">
        <ele>3931.2</ele>
        <time>2015-09-03T04:09:31Z</time>
      </trkpt>
      <trkpt lat="33.87456" lon="77.45266">
        <ele>3931.2</ele>
        <time>2015-09-03T04:09:32Z</time>
      </trkpt>
      <trkpt lat="33.87457" lon="77.45266">
        <ele>3931</ele>
        <time>2015-09-03T04:09:34Z</time>
      </trkpt>
      <trkpt lat="33.87454" lon="77.45264">
        <ele>3930.4</ele>
        <time>2015-09-03T04:09:36Z</time>
      </trkpt>
      <trkpt lat="33.87453" lon="77.45265">
        <ele>3930.2</ele>
        <time>2015-09-03T04:09:37Z</time>
      </trkpt>
      <trkpt lat="33.8745" lon="77.45266">
        <ele>3930</ele>
        <time>2015-09-03T04:09:39Z</time>
      </trkpt>
      <trkpt lat="33.87446" lon="77.45268">
        <ele>3930</ele>
        <time>2015-09-03T04:09:42Z</time>
      </trkpt>
      <trkpt lat="33.87422" lon="77.45272">
        <ele>3930</ele>
        <time>2015-09-03T04:09:45Z</time>
      </trkpt>
      <trkpt lat="33.87424" lon="77.45272">
        <ele>3930.2</ele>
        <time>2015-09-03T04:09:57Z</time>
      </trkpt>
      <trkpt lat="33.87426" lon="77.45272">
        <ele>3930.2</ele>
        <time>2015-09-03T04:10:02Z</time>
      </trkpt>
      <trkpt lat="33.87421" lon="77.45274">
        <ele>3930</ele>
        <time>2015-09-03T04:10:06Z</time>
      </trkpt>
      <trkpt lat="33.87416" lon="77.45285">
        <ele>3930</ele>
        <time>2015-09-03T04:10:09Z</time>
      </trkpt>
      <trkpt lat="33.87414" lon="77.45289">
        <ele>3929.8</ele>
        <time>2015-09-03T04:10:12Z</time>
      </trkpt>
      <trkpt lat="33.87412" lon="77.45292">
        <ele>3929.4</ele>
        <time>2015-09-03T04:10:16Z</time>
      </trkpt>
      <trkpt lat="33.87416" lon="77.45283">
        <ele>3929.2</ele>
        <time>2015-09-03T04:10:23Z</time>
      </trkpt>
      <trkpt lat="33.87418" lon="77.45282">
        <ele>3929.2</ele>
        <time>2015-09-03T04:10:25Z</time>
      </trkpt>
      <trkpt lat="33.87418" lon="77.45279">
        <ele>3929.6</ele>
        <time>2015-09-03T04:10:32Z</time>
      </trkpt>
      <trkpt lat="33.87419" lon="77.45278">
        <ele>3929.8</ele>
        <time>2015-09-03T04:10:34Z</time>
      </trkpt>
      <trkpt lat="33.87418" lon="77.45271">
        <ele>3930.4</ele>
        <time>2015-09-03T04:10:48Z</time>
      </trkpt>
      <trkpt lat="33.87421" lon="77.45278">
        <ele>3930.2</ele>
        <time>2015-09-03T04:11:06Z</time>
      </trkpt>
      <trkpt lat="33.87418" lon="77.45289">
        <ele>3929.2</ele>
        <time>2015-09-03T04:11:28Z</time>
      </trkpt>
      <trkpt lat="33.87417" lon="77.45291">
        <ele>3928.2</ele>
        <time>2015-09-03T04:11:32Z</time>
      </trkpt>
      <trkpt lat="33.87412" lon="77.45293">
        <ele>3929.4</ele>
        <time>2015-09-03T04:11:43Z</time>
      </trkpt>
      <trkpt lat="33.87409" lon="77.45297">
        <ele>3930.4</ele>
        <time>2015-09-03T04:11:51Z</time>
      </trkpt>
      <trkpt lat="33.8741" lon="77.45296">
        <ele>3930.8</ele>
        <time>2015-09-03T04:11:56Z</time>
      </trkpt>
      <trkpt lat="33.87421" lon="77.45287">
        <ele>3929.6</ele>
        <time>2015-09-03T04:13:04Z</time>
      </trkpt>
      <trkpt lat="33.87421" lon="77.45286">
        <ele>3929.4</ele>
        <time>2015-09-03T04:13:06Z</time>
      </trkpt>
      <trkpt lat="33.87416" lon="77.4527">
        <ele>3929.4</ele>
        <time>2015-09-03T04:13:18Z</time>
      </trkpt>
      <trkpt lat="33.87416" lon="77.45267">
        <ele>3928.8</ele>
        <time>2015-09-03T04:13:21Z</time>
      </trkpt>
      <trkpt lat="33.87416" lon="77.45265">
        <ele>3928.6</ele>
        <time>2015-09-03T04:13:24Z</time>
      </trkpt>
      <trkpt lat="33.87417" lon="77.45263">
        <ele>3928.4</ele>
        <time>2015-09-03T04:13:31Z</time>
      </trkpt>
      <trkpt lat="33.87418" lon="77.45263">
        <ele>3928.4</ele>
        <time>2015-09-03T04:13:32Z</time>
      </trkpt>
      <trkpt lat="33.87417" lon="77.4526">
        <ele>3927.2</ele>
        <time>2015-09-03T04:13:37Z</time>
      </trkpt>
      <trkpt lat="33.87414" lon="77.45252">
        <ele>3926.2</ele>
        <time>2015-09-03T04:13:45Z</time>
      </trkpt>
      <trkpt lat="33.87415" lon="77.45249">
        <ele>3926.8</ele>
        <time>2015-09-03T04:14:11Z</time>
      </trkpt>
      <trkpt lat="33.87389" lon="77.45269">
        <ele>3926.8</ele>
        <time>2015-09-03T04:14:45Z</time>
      </trkpt>
      <trkpt lat="33.87326" lon="77.45316">
        <ele>3926.2</ele>
        <time>2015-09-03T04:25:09Z</time>
      </trkpt>
      <trkpt lat="33.87394" lon="77.45264">
        <ele>3926</ele>
        <time>2015-09-03T04:25:16Z</time>
      </trkpt>
      <trkpt lat="33.87409" lon="77.45258">
        <ele>3926</ele>
        <time>2015-09-03T04:25:19Z</time>
      </trkpt>
      <trkpt lat="33.87423" lon="77.45243">
        <ele>3926.6</ele>
        <time>2015-09-03T04:25:23Z</time>
      </trkpt>
      <trkpt lat="33.87427" lon="77.45246">
        <ele>3926.6</ele>
        <time>2015-09-03T04:25:25Z</time>
      </trkpt>
      <trkpt lat="33.87425" lon="77.45247">
        <ele>3927.2</ele>
        <time>2015-09-03T04:25:37Z</time>
      </trkpt>
      <trkpt lat="33.8743" lon="77.45243">
        <ele>3927.2</ele>
        <time>2015-09-03T04:25:43Z</time>
      </trkpt>
      <trkpt lat="33.87427" lon="77.45241">
        <ele>3927</ele>
        <time>2015-09-03T04:25:45Z</time>
      </trkpt>
      <trkpt lat="33.87431" lon="77.45253">
        <ele>3926.8</ele>
        <time>2015-09-03T04:25:53Z</time>
      </trkpt>
      <trkpt lat="33.87435" lon="77.4526">
        <ele>3926.4</ele>
        <time>2015-09-03T04:26:00Z</time>
      </trkpt>
      <trkpt lat="33.87436" lon="77.45258">
        <ele>3926.2</ele>
        <time>2015-09-03T04:26:03Z</time>
      </trkpt>
      <trkpt lat="33.87434" lon="77.45259">
        <ele>3926.2</ele>
        <time>2015-09-03T04:26:06Z</time>
      </trkpt>
      <trkpt lat="33.87413" lon="77.45265">
        <ele>3925.6</ele>
        <time>2015-09-03T04:26:25Z</time>
      </trkpt>
      <trkpt lat="33.87417" lon="77.45282">
        <ele>3925.6</ele>
        <time>2015-09-03T04:26:49Z</time>
      </trkpt>
      <trkpt lat="33.87419" lon="77.45259">
        <ele>3925.2</ele>
        <time>2015-09-03T04:26:57Z</time>
      </trkpt>
      <trkpt lat="33.87418" lon="77.45254">
        <ele>3924.8</ele>
        <time>2015-09-03T04:27:01Z</time>
      </trkpt>
      <trkpt lat="33.87415" lon="77.45256">
        <ele>3925</ele>
        <time>2015-09-03T04:27:07Z</time>
      </trkpt>
      <trkpt lat="33.8741" lon="77.4526">
        <ele>3925.6</ele>
        <time>2015-09-03T04:27:15Z</time>
      </trkpt>
      <trkpt lat="33.87409" lon="77.4526">
        <ele>3925.6</ele>
        <time>2015-09-03T04:27:17Z</time>
      </trkpt>
      <trkpt lat="33.87415" lon="77.45254">
        <ele>3924.2</ele>
        <time>2015-09-03T04:27:54Z</time>
      </trkpt>
      <trkpt lat="33.87414" lon="77.45251">
        <ele>3923.2</ele>
        <time>2015-09-03T04:28:02Z</time>
      </trkpt>
      <trkpt lat="33.87414" lon="77.45246">
        <ele>3922</ele>
        <time>2015-09-03T04:28:08Z</time>
      </trkpt>
      <trkpt lat="33.8742" lon="77.45243">
        <ele>3920.8</ele>
        <time>2015-09-03T04:28:31Z</time>
      </trkpt>
      <trkpt lat="33.87421" lon="77.45239">
        <ele>3920.2</ele>
        <time>2015-09-03T04:28:35Z</time>
      </trkpt>
      <trkpt lat="33.87422" lon="77.45236">
        <ele>3920.2</ele>
        <time>2015-09-03T04:28:40Z</time>
      </trkpt>
      <trkpt lat="33.87422" lon="77.45233">
        <ele>3919.8</ele>
        <time>2015-09-03T04:28:48Z</time>
      </trkpt>
      <trkpt lat="33.87416" lon="77.45232">
        <ele>3919.2</ele>
        <time>2015-09-03T04:29:14Z</time>
      </trkpt>
      <trkpt lat="33.87417" lon="77.45236">
        <ele>3918.4</ele>
        <time>2015-09-03T04:29:18Z</time>
      </trkpt>
      <trkpt lat="33.87417" lon="77.45236">
        <ele>3917.8</ele>
        <time>2015-09-03T04:29:20Z</time>
      </trkpt>
      <trkpt lat="33.87416" lon="77.45235">
        <ele>3917.2</ele>
        <time>2015-09-03T04:29:22Z</time>
      </trkpt>
      <trkpt lat="33.87418" lon="77.45236">
        <ele>3916.2</ele>
        <time>2015-09-03T04:29:33Z</time>
      </trkpt>
      <trkpt lat="33.87418" lon="77.45233">
        <ele>3915</ele>
        <time>2015-09-03T04:29:45Z</time>
      </trkpt>
      <trkpt lat="33.87416" lon="77.45234">
        <ele>3914</ele>
        <time>2015-09-03T04:30:01Z</time>
      </trkpt>
      <trkpt lat="33.87416" lon="77.45221">
        <ele>3912.8</ele>
        <time>2015-09-03T04:30:08Z</time>
      </trkpt>
      <trkpt lat="33.87416" lon="77.4522">
        <ele>3912</ele>
        <time>2015-09-03T04:30:10Z</time>
      </trkpt>
      <trkpt lat="33.87416" lon="77.45219">
        <ele>3911.6</ele>
        <time>2015-09-03T04:30:11Z</time>
      </trkpt>
      <trkpt lat="33.87416" lon="77.45224">
        <ele>3909.4</ele>
        <time>2015-09-03T04:30:20Z</time>
      </trkpt>
      <trkpt lat="33.87414" lon="77.45229">
        <ele>3908.4</ele>
        <time>2015-09-03T04:30:30Z</time>
      </trkpt>
      <trkpt lat="33.87412" lon="77.45234">
        <ele>3907.8</ele>
        <time>2015-09-03T04:30:32Z</time>
      </trkpt>
      <trkpt lat="33.8741" lon="77.45236">
        <ele>3907</ele>
        <time>2015-09-03T04:30:34Z</time>
      </trkpt>
      <trkpt lat="33.8741" lon="77.4523">
        <ele>3906.4</ele>
        <time>2015-09-03T04:30:36Z</time>
      </trkpt>
      <trkpt lat="33.87409" lon="77.45228">
        <ele>3906</ele>
        <time>2015-09-03T04:30:37Z</time>
      </trkpt>
      <trkpt lat="33.87409" lon="77.45224">
        <ele>3905</ele>
        <time>2015-09-03T04:30:40Z</time>
      </trkpt>
      <trkpt lat="33.8741" lon="77.45223">
        <ele>3904</ele>
        <time>2015-09-03T04:30:43Z</time>
      </trkpt>
      <trkpt lat="33.8741" lon="77.45224">
        <ele>3903.6</ele>
        <time>2015-09-03T04:30:44Z</time>
      </trkpt>
      <trkpt lat="33.87412" lon="77.45221">
        <ele>3902.4</ele>
        <time>2015-09-03T04:30:56Z</time>
      </trkpt>
      <trkpt lat="33.87413" lon="77.45216">
        <ele>3901.4</ele>
        <time>2015-09-03T04:31:00Z</time>
      </trkpt>
      <trkpt lat="33.87413" lon="77.45215">
        <ele>3901.2</ele>
        <time>2015-09-03T04:31:01Z</time>
      </trkpt>
      <trkpt lat="33.87414" lon="77.4521">
        <ele>3900.2</ele>
        <time>2015-09-03T04:31:05Z</time>
      </trkpt>
      <trkpt lat="33.87415" lon="77.45209">
        <ele>3899.6</ele>
        <time>2015-09-03T04:31:08Z</time>
      </trkpt>
      <trkpt lat="33.87415" lon="77.45206">
        <ele>3899.2</ele>
        <time>2015-09-03T04:31:10Z</time>
      </trkpt>
      <trkpt lat="33.87413" lon="77.4521">
        <ele>3898.8</ele>
        <time>2015-09-03T04:31:12Z</time>
      </trkpt>
      <trkpt lat="33.87408" lon="77.45205">
        <ele>3893.6</ele>
        <time>2015-09-03T04:31:41Z</time>
      </trkpt>
      <trkpt lat="33.87409" lon="77.45197">
        <ele>3892.4</ele>
        <time>2015-09-03T04:31:49Z</time>
      </trkpt>
      <trkpt lat="33.87409" lon="77.45191">
        <ele>3891.6</ele>
        <time>2015-09-03T04:31:53Z</time>
      </trkpt>
      <trkpt lat="33.87408" lon="77.45189">
        <ele>3891.4</ele>
        <time>2015-09-03T04:31:54Z</time>
      </trkpt>
      <trkpt lat="33.87405" lon="77.45187">
        <ele>3891</ele>
        <time>2015-09-03T04:31:57Z</time>
      </trkpt>
      <trkpt lat="33.87402" lon="77.45191">
        <ele>3890.2</ele>
        <time>2015-09-03T04:32:01Z</time>
      </trkpt>
      <trkpt lat="33.874" lon="77.45201">
        <ele>3889.2</ele>
        <time>2015-09-03T04:32:08Z</time>
      </trkpt>
      <trkpt lat="33.87399" lon="77.45211">
        <ele>3888.2</ele>
        <time>2015-09-03T04:32:15Z</time>
      </trkpt>
      <trkpt lat="33.87397" lon="77.45212">
        <ele>3888</ele>
        <time>2015-09-03T04:32:16Z</time>
      </trkpt>
      <trkpt lat="33.87396" lon="77.45211">
        <ele>3888</ele>
        <time>2015-09-03T04:32:17Z</time>
      </trkpt>
      <trkpt lat="33.87394" lon="77.4521">
        <ele>3887.2</ele>
        <time>2015-09-03T04:32:20Z</time>
      </trkpt>
      <trkpt lat="33.87393" lon="77.45209">
        <ele>3887</ele>
        <time>2015-09-03T04:32:22Z</time>
      </trkpt>
      <trkpt lat="33.87394" lon="77.45202">
        <ele>3885.8</ele>
        <time>2015-09-03T04:32:28Z</time>
      </trkpt>
      <trkpt lat="33.87395" lon="77.45198">
        <ele>3884.8</ele>
        <time>2015-09-03T04:32:34Z</time>
      </trkpt>
      <trkpt lat="33.87394" lon="77.45191">
        <ele>3883.8</ele>
        <time>2015-09-03T04:32:40Z</time>
      </trkpt>
      <trkpt lat="33.87395" lon="77.45186">
        <ele>3882.8</ele>
        <time>2015-09-03T04:32:45Z</time>
      </trkpt>
      <trkpt lat="33.87394" lon="77.45184">
        <ele>3882</ele>
        <time>2015-09-03T04:32:48Z</time>
      </trkpt>
      <trkpt lat="33.87392" lon="77.45185">
        <ele>3881.6</ele>
        <time>2015-09-03T04:32:50Z</time>
      </trkpt>
      <trkpt lat="33.8739" lon="77.45189">
        <ele>3880.6</ele>
        <time>2015-09-03T04:32:57Z</time>
      </trkpt>
      <trkpt lat="33.87388" lon="77.45187">
        <ele>3879.4</ele>
        <time>2015-09-03T04:33:10Z</time>
      </trkpt>
      <trkpt lat="33.8739" lon="77.45162">
        <ele>3874.6</ele>
        <time>2015-09-03T04:33:35Z</time>
      </trkpt>
      <trkpt lat="33.8739" lon="77.45164">
        <ele>3873.8</ele>
        <time>2015-09-03T04:33:39Z</time>
      </trkpt>
      <trkpt lat="33.87388" lon="77.45171">
        <ele>3873.4</ele>
        <time>2015-09-03T04:33:47Z</time>
      </trkpt>
      <trkpt lat="33.87387" lon="77.45171">
        <ele>3873.4</ele>
        <time>2015-09-03T04:33:48Z</time>
      </trkpt>
      <trkpt lat="33.87383" lon="77.45172">
        <ele>3872.4</ele>
        <time>2015-09-03T04:33:53Z</time>
      </trkpt>
      <trkpt lat="33.87384" lon="77.45172">
        <ele>3871.4</ele>
        <time>2015-09-03T04:33:59Z</time>
      </trkpt>
      <trkpt lat="33.87389" lon="77.45171">
        <ele>3870.4</ele>
        <time>2015-09-03T04:34:05Z</time>
      </trkpt>
      <trkpt lat="33.87385" lon="77.45177">
        <ele>3869.4</ele>
        <time>2015-09-03T04:34:11Z</time>
      </trkpt>
      <trkpt lat="33.87385" lon="77.45178">
        <ele>3869.2</ele>
        <time>2015-09-03T04:34:12Z</time>
      </trkpt>
      <trkpt lat="33.87385" lon="77.45181">
        <ele>3868</ele>
        <time>2015-09-03T04:34:16Z</time>
      </trkpt>
      <trkpt lat="33.87385" lon="77.45184">
        <ele>3867.4</ele>
        <time>2015-09-03T04:34:19Z</time>
      </trkpt>
      <trkpt lat="33.87384" lon="77.45185">
        <ele>3867</ele>
        <time>2015-09-03T04:34:21Z</time>
      </trkpt>
      <trkpt lat="33.87383" lon="77.45181">
        <ele>3865.8</ele>
        <time>2015-09-03T04:34:27Z</time>
      </trkpt>
      <trkpt lat="33.87383" lon="77.45174">
        <ele>3864.6</ele>
        <time>2015-09-03T04:34:33Z</time>
      </trkpt>
      <trkpt lat="33.87383" lon="77.45173">
        <ele>3864.4</ele>
        <time>2015-09-03T04:34:34Z</time>
      </trkpt>
      <trkpt lat="33.87383" lon="77.4517">
        <ele>3863.4</ele>
        <time>2015-09-03T04:34:39Z</time>
      </trkpt>
      <trkpt lat="33.87383" lon="77.45166">
        <ele>3862.4</ele>
        <time>2015-09-03T04:34:46Z</time>
      </trkpt>
      <trkpt lat="33.87378" lon="77.45161">
        <ele>3862.2</ele>
        <time>2015-09-03T04:35:09Z</time>
      </trkpt>
      <trkpt lat="33.87384" lon="77.45138">
        <ele>3862.2</ele>
        <time>2015-09-03T04:35:11Z</time>
      </trkpt>
      <trkpt lat="33.87383" lon="77.45161">
        <ele>3862.2</ele>
        <time>2015-09-03T04:35:18Z</time>
      </trkpt>
      <trkpt lat="33.87383" lon="77.45164">
        <ele>3862</ele>
        <time>2015-09-03T04:35:20Z</time>
      </trkpt>
      <trkpt lat="33.87382" lon="77.45165">
        <ele>3861.8</ele>
        <time>2015-09-03T04:35:22Z</time>
      </trkpt>
      <trkpt lat="33.8738" lon="77.45169">
        <ele>3861.2</ele>
        <time>2015-09-03T04:35:24Z</time>
      </trkpt>
      <trkpt lat="33.87378" lon="77.45173">
        <ele>3860.8</ele>
        <time>2015-09-03T04:35:26Z</time>
      </trkpt>
      <trkpt lat="33.87377" lon="77.45175">
        <ele>3860.4</ele>
        <time>2015-09-03T04:35:28Z</time>
      </trkpt>
      <trkpt lat="33.87376" lon="77.45176">
        <ele>3860.2</ele>
        <time>2015-09-03T04:35:29Z</time>
      </trkpt>
      <trkpt lat="33.87376" lon="77.45177">
        <ele>3859.8</ele>
        <time>2015-09-03T04:35:30Z</time>
      </trkpt>
      <trkpt lat="33.87374" lon="77.45178">
        <ele>3859.2</ele>
        <time>2015-09-03T04:35:32Z</time>
      </trkpt>
      <trkpt lat="33.87373" lon="77.45178">
        <ele>3858.8</ele>
        <time>2015-09-03T04:35:33Z</time>
      </trkpt>
      <trkpt lat="33.87372" lon="77.45177">
        <ele>3858.6</ele>
        <time>2015-09-03T04:35:34Z</time>
      </trkpt>
      <trkpt lat="33.87372" lon="77.45175">
        <ele>3857.8</ele>
        <time>2015-09-03T04:35:36Z</time>
      </trkpt>
      <trkpt lat="33.87373" lon="77.45173">
        <ele>3857.6</ele>
        <time>2015-09-03T04:35:37Z</time>
      </trkpt>
      <trkpt lat="33.87373" lon="77.45172">
        <ele>3857.4</ele>
        <time>2015-09-03T04:35:38Z</time>
      </trkpt>
      <trkpt lat="33.87373" lon="77.4517">
        <ele>3856.4</ele>
        <time>2015-09-03T04:35:41Z</time>
      </trkpt>
      <trkpt lat="33.87372" lon="77.45168">
        <ele>3856</ele>
        <time>2015-09-03T04:35:42Z</time>
      </trkpt>
      <trkpt lat="33.87371" lon="77.45165">
        <ele>3855.4</ele>
        <time>2015-09-03T04:35:44Z</time>
      </trkpt>
      <trkpt lat="33.87371" lon="77.45165">
        <ele>3855</ele>
        <time>2015-09-03T04:35:45Z</time>
      </trkpt>
      <trkpt lat="33.87371" lon="77.45161">
        <ele>3854</ele>
        <time>2015-09-03T04:35:49Z</time>
      </trkpt>
      <trkpt lat="33.87371" lon="77.45159">
        <ele>3852.8</ele>
        <time>2015-09-03T04:35:52Z</time>
      </trkpt>
      <trkpt lat="33.87371" lon="77.45154">
        <ele>3851.8</ele>
        <time>2015-09-03T04:35:56Z</time>
      </trkpt>
      <trkpt lat="33.87369" lon="77.45151">
        <ele>3850.6</ele>
        <time>2015-09-03T04:35:59Z</time>
      </trkpt>
      <trkpt lat="33.87367" lon="77.45149">
        <ele>3849.6</ele>
        <time>2015-09-03T04:36:02Z</time>
      </trkpt>
      <trkpt lat="33.87367" lon="77.45143">
        <ele>3848.6</ele>
        <time>2015-09-03T04:36:05Z</time>
      </trkpt>
      <trkpt lat="33.87366" lon="77.45142">
        <ele>3848.4</ele>
        <time>2015-09-03T04:36:06Z</time>
      </trkpt>
      <trkpt lat="33.87365" lon="77.45142">
        <ele>3847.8</ele>
        <time>2015-09-03T04:36:09Z</time>
      </trkpt>
      <trkpt lat="33.87366" lon="77.45143">
        <ele>3847.6</ele>
        <time>2015-09-03T04:36:13Z</time>
      </trkpt>
      <trkpt lat="33.8735" lon="77.4516">
        <ele>3847</ele>
        <time>2015-09-03T04:36:20Z</time>
      </trkpt>
      <trkpt lat="33.87346" lon="77.45159">
        <ele>3847</ele>
        <time>2015-09-03T04:36:23Z</time>
      </trkpt>
      <trkpt lat="33.87345" lon="77.45154">
        <ele>3847</ele>
        <time>2015-09-03T04:36:27Z</time>
      </trkpt>
      <trkpt lat="33.87354" lon="77.4514">
        <ele>3847</ele>
        <time>2015-09-03T04:36:30Z</time>
      </trkpt>
      <trkpt lat="33.87361" lon="77.45133">
        <ele>3847.2</ele>
        <time>2015-09-03T04:36:35Z</time>
      </trkpt>
      <trkpt lat="33.87357" lon="77.45136">
        <ele>3846.6</ele>
        <time>2015-09-03T04:36:41Z</time>
      </trkpt>
      <trkpt lat="33.87356" lon="77.45141">
        <ele>3846</ele>
        <time>2015-09-03T04:36:44Z</time>
      </trkpt>
      <trkpt lat="33.87355" lon="77.45146">
        <ele>3845.8</ele>
        <time>2015-09-03T04:36:48Z</time>
      </trkpt>
      <trkpt lat="33.87356" lon="77.45147">
        <ele>3845.6</ele>
        <time>2015-09-03T04:36:50Z</time>
      </trkpt>
      <trkpt lat="33.87361" lon="77.45144">
        <ele>3845.8</ele>
        <time>2015-09-03T04:37:00Z</time>
      </trkpt>
      <trkpt lat="33.87362" lon="77.45149">
        <ele>3846</ele>
        <time>2015-09-03T04:37:05Z</time>
      </trkpt>
      <trkpt lat="33.87366" lon="77.45154">
        <ele>3845.8</ele>
        <time>2015-09-03T04:37:10Z</time>
      </trkpt>
      <trkpt lat="33.87363" lon="77.45156">
        <ele>3845.6</ele>
        <time>2015-09-03T04:37:13Z</time>
      </trkpt>
      <trkpt lat="33.87362" lon="77.45157">
        <ele>3846.6</ele>
        <time>2015-09-03T04:37:32Z</time>
      </trkpt>
      <trkpt lat="33.87357" lon="77.45154">
        <ele>3847</ele>
        <time>2015-09-03T04:37:52Z</time>
      </trkpt>
      <trkpt lat="33.87359" lon="77.45152">
        <ele>3846.6</ele>
        <time>2015-09-03T04:37:55Z</time>
      </trkpt>
      <trkpt lat="33.87363" lon="77.45156">
        <ele>3846.8</ele>
        <time>2015-09-03T04:38:01Z</time>
      </trkpt>
      <trkpt lat="33.8736" lon="77.45158">
        <ele>3846.8</ele>
        <time>2015-09-03T04:38:04Z</time>
      </trkpt>
      <trkpt lat="33.87355" lon="77.45164">
        <ele>3846.6</ele>
        <time>2015-09-03T04:38:06Z</time>
      </trkpt>
      <trkpt lat="33.87342" lon="77.45179">
        <ele>3846.6</ele>
        <time>2015-09-03T04:38:09Z</time>
      </trkpt>
      <trkpt lat="33.87351" lon="77.45172">
        <ele>3846.8</ele>
        <time>2015-09-03T04:38:15Z</time>
      </trkpt>
      <trkpt lat="33.87358" lon="77.45163">
        <ele>3846.8</ele>
        <time>2015-09-03T04:38:18Z</time>
      </trkpt>
      <trkpt lat="33.87361" lon="77.45154">
        <ele>3846.6</ele>
        <time>2015-09-03T04:38:24Z</time>
      </trkpt>
      <trkpt lat="33.87354" lon="77.45158">
        <ele>3847.2</ele>
        <time>2015-09-03T04:38:39Z</time>
      </trkpt>
      <trkpt lat="33.8735" lon="77.45163">
        <ele>3847</ele>
        <time>2015-09-03T04:38:45Z</time>
      </trkpt>
      <trkpt lat="33.87347" lon="77.45171">
        <ele>3847</ele>
        <time>2015-09-03T04:38:52Z</time>
      </trkpt>
      <trkpt lat="33.8735" lon="77.45168">
        <ele>3847.2</ele>
        <time>2015-09-03T04:38:59Z</time>
      </trkpt>
      <trkpt lat="33.87338" lon="77.45177">
        <ele>3847.4</ele>
        <time>2015-09-03T04:39:08Z</time>
      </trkpt>
      <trkpt lat="33.87332" lon="77.45182">
        <ele>3847.4</ele>
        <time>2015-09-03T04:39:10Z</time>
      </trkpt>
      <trkpt lat="33.87329" lon="77.45178">
        <ele>3847.6</ele>
        <time>2015-09-03T04:39:13Z</time>
      </trkpt>
      <trkpt lat="33.87329" lon="77.45177">
        <ele>3847.8</ele>
        <time>2015-09-03T04:39:16Z</time>
      </trkpt>
      <trkpt lat="33.87353" lon="77.45154">
        <ele>3848</ele>
        <time>2015-09-03T04:39:20Z</time>
      </trkpt>
      <trkpt lat="33.87358" lon="77.45154">
        <ele>3847.6</ele>
        <time>2015-09-03T04:39:23Z</time>
      </trkpt>
      <trkpt lat="33.87363" lon="77.45158">
        <ele>3848</ele>
        <time>2015-09-03T04:39:41Z</time>
      </trkpt>
      <trkpt lat="33.87362" lon="77.45156">
        <ele>3847.8</ele>
        <time>2015-09-03T04:40:03Z</time>
      </trkpt>
      <trkpt lat="33.87365" lon="77.45155">
        <ele>3848</ele>
        <time>2015-09-03T04:40:27Z</time>
      </trkpt>
      <trkpt lat="33.8736" lon="77.45159">
        <ele>3848.2</ele>
        <time>2015-09-03T04:40:41Z</time>
      </trkpt>
      <trkpt lat="33.87356" lon="77.45155">
        <ele>3848.6</ele>
        <time>2015-09-03T04:41:07Z</time>
      </trkpt>
      <trkpt lat="33.87357" lon="77.45153">
        <ele>3848.6</ele>
        <time>2015-09-03T04:41:09Z</time>
      </trkpt>
      <trkpt lat="33.87361" lon="77.4516">
        <ele>3848.8</ele>
        <time>2015-09-03T04:41:26Z</time>
      </trkpt>
      <trkpt lat="33.87364" lon="77.4516">
        <ele>3848.6</ele>
        <time>2015-09-03T04:41:29Z</time>
      </trkpt>
      <trkpt lat="33.87368" lon="77.45147">
        <ele>3848.6</ele>
        <time>2015-09-03T04:42:22Z</time>
      </trkpt>
      <trkpt lat="33.87355" lon="77.45161">
        <ele>3848.4</ele>
        <time>2015-09-03T04:42:34Z</time>
      </trkpt>
      <trkpt lat="33.87349" lon="77.45168">
        <ele>3848.4</ele>
        <time>2015-09-03T04:42:35Z</time>
      </trkpt>
      <trkpt lat="33.87346" lon="77.45174">
        <ele>3848.6</ele>
        <time>2015-09-03T04:42:41Z</time>
      </trkpt>
      <trkpt lat="33.87348" lon="77.45171">
        <ele>3848.8</ele>
        <time>2015-09-03T04:42:44Z</time>
      </trkpt>
      <trkpt lat="33.87352" lon="77.4517">
        <ele>3849</ele>
        <time>2015-09-03T04:43:00Z</time>
      </trkpt>
      <trkpt lat="33.87341" lon="77.45189">
        <ele>3849.4</ele>
        <time>2015-09-03T04:43:21Z</time>
      </trkpt>
      <trkpt lat="33.8734" lon="77.4519">
        <ele>3849.4</ele>
        <time>2015-09-03T04:43:22Z</time>
      </trkpt>
      <trkpt lat="33.8735" lon="77.45183">
        <ele>3849.6</ele>
        <time>2015-09-03T04:43:27Z</time>
      </trkpt>
      <trkpt lat="33.87363" lon="77.4516">
        <ele>3850.2</ele>
        <time>2015-09-03T04:43:37Z</time>
      </trkpt>
      <trkpt lat="33.87366" lon="77.45155">
        <ele>3849.8</ele>
        <time>2015-09-03T04:43:41Z</time>
      </trkpt>
      <trkpt lat="33.87365" lon="77.45155">
        <ele>3850.6</ele>
        <time>2015-09-03T04:44:14Z</time>
      </trkpt>
      <trkpt lat="33.87359" lon="77.45159">
        <ele>3849.6</ele>
        <time>2015-09-03T04:44:30Z</time>
      </trkpt>
      <trkpt lat="33.87358" lon="77.45171">
        <ele>3849</ele>
        <time>2015-09-03T04:44:40Z</time>
      </trkpt>
      <trkpt lat="33.87359" lon="77.45177">
        <ele>3848.8</ele>
        <time>2015-09-03T04:44:54Z</time>
      </trkpt>
      <trkpt lat="33.87364" lon="77.45184">
        <ele>3848.8</ele>
        <time>2015-09-03T04:45:06Z</time>
      </trkpt>
      <trkpt lat="33.87364" lon="77.45185">
        <ele>3848.6</ele>
        <time>2015-09-03T04:45:07Z</time>
      </trkpt>
      <trkpt lat="33.87359" lon="77.45185">
        <ele>3848.8</ele>
        <time>2015-09-03T04:45:31Z</time>
      </trkpt>
      <trkpt lat="33.87343" lon="77.45197">
        <ele>3848.8</ele>
        <time>2015-09-03T04:45:40Z</time>
      </trkpt>
      <trkpt lat="33.87342" lon="77.45198">
        <ele>3848.8</ele>
        <time>2015-09-03T04:45:41Z</time>
      </trkpt>
      <trkpt lat="33.87336" lon="77.452">
        <ele>3849.4</ele>
        <time>2015-09-03T04:46:03Z</time>
      </trkpt>
      <trkpt lat="33.87316" lon="77.4522">
        <ele>3849.4</ele>
        <time>2015-09-03T04:46:09Z</time>
      </trkpt>
      <trkpt lat="33.87345" lon="77.45184">
        <ele>3849.4</ele>
        <time>2015-09-03T04:46:12Z</time>
      </trkpt>
      <trkpt lat="33.87361" lon="77.45162">
        <ele>3849.4</ele>
        <time>2015-09-03T04:46:28Z</time>
      </trkpt>
      <trkpt lat="33.87363" lon="77.45157">
        <ele>3849.4</ele>
        <time>2015-09-03T04:46:29Z</time>
      </trkpt>
      <trkpt lat="33.8736" lon="77.4517">
        <ele>3849.6</ele>
        <time>2015-09-03T04:46:37Z</time>
      </trkpt>
      <trkpt lat="33.87358" lon="77.45129">
        <ele>3849.4</ele>
        <time>2015-09-03T04:46:55Z</time>
      </trkpt>
      <trkpt lat="33.87369" lon="77.45114">
        <ele>3849</ele>
        <time>2015-09-03T04:47:04Z</time>
      </trkpt>
      <trkpt lat="33.87367" lon="77.45119">
        <ele>3849</ele>
        <time>2015-09-03T04:47:06Z</time>
      </trkpt>
      <trkpt lat="33.87373" lon="77.45125">
        <ele>3848.2</ele>
        <time>2015-09-03T04:47:18Z</time>
      </trkpt>
      <trkpt lat="33.87381" lon="77.45116">
        <ele>3847.8</ele>
        <time>2015-09-03T04:47:22Z</time>
      </trkpt>
      <trkpt lat="33.87381" lon="77.45118">
        <ele>3847.6</ele>
        <time>2015-09-03T04:47:24Z</time>
      </trkpt>
      <trkpt lat="33.87381" lon="77.4512">
        <ele>3847.2</ele>
        <time>2015-09-03T04:47:27Z</time>
      </trkpt>
      <trkpt lat="33.87378" lon="77.4512">
        <ele>3846.8</ele>
        <time>2015-09-03T04:47:32Z</time>
      </trkpt>
      <trkpt lat="33.87379" lon="77.45118">
        <ele>3846.6</ele>
        <time>2015-09-03T04:47:34Z</time>
      </trkpt>
      <trkpt lat="33.87378" lon="77.45116">
        <ele>3846.4</ele>
        <time>2015-09-03T04:47:36Z</time>
      </trkpt>
      <trkpt lat="33.87373" lon="77.45142">
        <ele>3845.4</ele>
        <time>2015-09-03T04:47:51Z</time>
      </trkpt>
      <trkpt lat="33.87379" lon="77.45152">
        <ele>3845.2</ele>
        <time>2015-09-03T04:47:55Z</time>
      </trkpt>
      <trkpt lat="33.87378" lon="77.45156">
        <ele>3845.2</ele>
        <time>2015-09-03T04:47:57Z</time>
      </trkpt>
      <trkpt lat="33.87377" lon="77.45152">
        <ele>3845.2</ele>
        <time>2015-09-03T04:48:00Z</time>
      </trkpt>
      <trkpt lat="33.87374" lon="77.45147">
        <ele>3845</ele>
        <time>2015-09-03T04:48:03Z</time>
      </trkpt>
      <trkpt lat="33.87368" lon="77.45163">
        <ele>3845</ele>
        <time>2015-09-03T04:48:07Z</time>
      </trkpt>
      <trkpt lat="33.87357" lon="77.45181">
        <ele>3845</ele>
        <time>2015-09-03T04:48:09Z</time>
      </trkpt>
      <trkpt lat="33.87357" lon="77.45176">
        <ele>3844.6</ele>
        <time>2015-09-03T04:48:17Z</time>
      </trkpt>
      <trkpt lat="33.8736" lon="77.45173">
        <ele>3844.6</ele>
        <time>2015-09-03T04:48:19Z</time>
      </trkpt>
      <trkpt lat="33.87357" lon="77.45177">
        <ele>3844.6</ele>
        <time>2015-09-03T04:48:27Z</time>
      </trkpt>
      <trkpt lat="33.87357" lon="77.45195">
        <ele>3844.4</ele>
        <time>2015-09-03T04:48:41Z</time>
      </trkpt>
      <trkpt lat="33.87359" lon="77.45215">
        <ele>3843.4</ele>
        <time>2015-09-03T04:48:59Z</time>
      </trkpt>
      <trkpt lat="33.87354" lon="77.45218">
        <ele>3843</ele>
        <time>2015-09-03T04:49:06Z</time>
      </trkpt>
      <trkpt lat="33.87352" lon="77.45219">
        <ele>3843</ele>
        <time>2015-09-03T04:49:08Z</time>
      </trkpt>
      <trkpt lat="33.87352" lon="77.45242">
        <ele>3843.8</ele>
        <time>2015-09-03T04:49:26Z</time>
      </trkpt>
      <trkpt lat="33.87353" lon="77.45247">
        <ele>3844</ele>
        <time>2015-09-03T04:49:29Z</time>
      </trkpt>
      <trkpt lat="33.87356" lon="77.45263">
        <ele>3844.2</ele>
        <time>2015-09-03T04:49:38Z</time>
      </trkpt>
      <trkpt lat="33.87356" lon="77.45268">
        <ele>3844.4</ele>
        <time>2015-09-03T04:49:42Z</time>
      </trkpt>
      <trkpt lat="33.87357" lon="77.4527">
        <ele>3844.6</ele>
        <time>2015-09-03T04:49:43Z</time>
      </trkpt>
      <trkpt lat="33.87356" lon="77.45277">
        <ele>3844.4</ele>
        <time>2015-09-03T04:49:48Z</time>
      </trkpt>
      <trkpt lat="33.87355" lon="77.45287">
        <ele>3845.4</ele>
        <time>2015-09-03T04:50:08Z</time>
      </trkpt>
      <trkpt lat="33.87354" lon="77.45296">
        <ele>3845.8</ele>
        <time>2015-09-03T04:50:22Z</time>
      </trkpt>
      <trkpt lat="33.87361" lon="77.45314">
        <ele>3846.2</ele>
        <time>2015-09-03T04:50:40Z</time>
      </trkpt>
      <trkpt lat="33.87364" lon="77.45316">
        <ele>3846.4</ele>
        <time>2015-09-03T04:50:43Z</time>
      </trkpt>
      <trkpt lat="33.87363" lon="77.45319">
        <ele>3846.6</ele>
        <time>2015-09-03T04:50:45Z</time>
      </trkpt>
      <trkpt lat="33.87365" lon="77.45332">
        <ele>3846</ele>
        <time>2015-09-03T04:50:53Z</time>
      </trkpt>
      <trkpt lat="33.87361" lon="77.45331">
        <ele>3846</ele>
        <time>2015-09-03T04:50:57Z</time>
      </trkpt>
      <trkpt lat="33.87357" lon="77.45338">
        <ele>3846.6</ele>
        <time>2015-09-03T04:51:10Z</time>
      </trkpt>
      <trkpt lat="33.87353" lon="77.45346">
        <ele>3847</ele>
        <time>2015-09-03T04:51:18Z</time>
      </trkpt>
      <trkpt lat="33.87353" lon="77.45357">
        <ele>3847.2</ele>
        <time>2015-09-03T04:51:26Z</time>
      </trkpt>
      <trkpt lat="33.87352" lon="77.45367">
        <ele>3847.4</ele>
        <time>2015-09-03T04:51:36Z</time>
      </trkpt>
      <trkpt lat="33.87352" lon="77.45369">
        <ele>3847.6</ele>
        <time>2015-09-03T04:51:37Z</time>
      </trkpt>
      <trkpt lat="33.87352" lon="77.4539">
        <ele>3848.6</ele>
        <time>2015-09-03T04:52:00Z</time>
      </trkpt>
      <trkpt lat="33.8735" lon="77.45396">
        <ele>3848.8</ele>
        <time>2015-09-03T04:52:05Z</time>
      </trkpt>
      <trkpt lat="33.87349" lon="77.45416">
        <ele>3849</ele>
        <time>2015-09-03T04:52:21Z</time>
      </trkpt>
      <trkpt lat="33.87349" lon="77.45433">
        <ele>3849.2</ele>
        <time>2015-09-03T04:52:35Z</time>
      </trkpt>
      <trkpt lat="33.87346" lon="77.45438">
        <ele>3849.4</ele>
        <time>2015-09-03T04:52:38Z</time>
      </trkpt>
      <trkpt lat="33.87349" lon="77.45457">
        <ele>3849.4</ele>
        <time>2015-09-03T04:52:56Z</time>
      </trkpt>
      <trkpt lat="33.87349" lon="77.45467">
        <ele>3849.6</ele>
        <time>2015-09-03T04:53:03Z</time>
      </trkpt>
      <trkpt lat="33.87349" lon="77.45468">
        <ele>3849.6</ele>
        <time>2015-09-03T04:53:04Z</time>
      </trkpt>
      <trkpt lat="33.87349" lon="77.45471">
        <ele>3849.8</ele>
        <time>2015-09-03T04:53:06Z</time>
      </trkpt>
      <trkpt lat="33.87346" lon="77.45494">
        <ele>3850.4</ele>
        <time>2015-09-03T04:53:19Z</time>
      </trkpt>
      <trkpt lat="33.87346" lon="77.455">
        <ele>3850.6</ele>
        <time>2015-09-03T04:53:24Z</time>
      </trkpt>
      <trkpt lat="33.87339" lon="77.4552">
        <ele>3851.4</ele>
        <time>2015-09-03T04:53:49Z</time>
      </trkpt>
      <trkpt lat="33.87342" lon="77.45526">
        <ele>3851.6</ele>
        <time>2015-09-03T04:53:55Z</time>
      </trkpt>
      <trkpt lat="33.87343" lon="77.45539">
        <ele>3851.6</ele>
        <time>2015-09-03T04:54:04Z</time>
      </trkpt>
      <trkpt lat="33.87343" lon="77.45544">
        <ele>3851.6</ele>
        <time>2015-09-03T04:54:07Z</time>
      </trkpt>
      <trkpt lat="33.87343" lon="77.45546">
        <ele>3851.6</ele>
        <time>2015-09-03T04:54:09Z</time>
      </trkpt>
      <trkpt lat="33.87343" lon="77.45548">
        <ele>3851.8</ele>
        <time>2015-09-03T04:54:12Z</time>
      </trkpt>
      <trkpt lat="33.87356" lon="77.45565">
        <ele>3851.8</ele>
        <time>2015-09-03T04:54:21Z</time>
      </trkpt>
      <trkpt lat="33.87346" lon="77.45584">
        <ele>3852.2</ele>
        <time>2015-09-03T04:54:35Z</time>
      </trkpt>
      <trkpt lat="33.87346" lon="77.45586">
        <ele>3852.2</ele>
        <time>2015-09-03T04:54:36Z</time>
      </trkpt>
      <trkpt lat="33.87347" lon="77.45591">
        <ele>3852.6</ele>
        <time>2015-09-03T04:54:48Z</time>
      </trkpt>
      <trkpt lat="33.87347" lon="77.45609">
        <ele>3853</ele>
        <time>2015-09-03T04:55:07Z</time>
      </trkpt>
      <trkpt lat="33.87344" lon="77.45617">
        <ele>3853.4</ele>
        <time>2015-09-03T04:55:14Z</time>
      </trkpt>
      <trkpt lat="33.87341" lon="77.45626">
        <ele>3853.4</ele>
        <time>2015-09-03T04:55:18Z</time>
      </trkpt>
      <trkpt lat="33.8734" lon="77.45627">
        <ele>3853.4</ele>
        <time>2015-09-03T04:55:19Z</time>
      </trkpt>
      <trkpt lat="33.87345" lon="77.45632">
        <ele>3853.6</ele>
        <time>2015-09-03T04:55:26Z</time>
      </trkpt>
      <trkpt lat="33.87347" lon="77.45639">
        <ele>3853.8</ele>
        <time>2015-09-03T04:55:31Z</time>
      </trkpt>
      <trkpt lat="33.87348" lon="77.4563">
        <ele>3853.8</ele>
        <time>2015-09-03T04:55:35Z</time>
      </trkpt>
      <trkpt lat="33.87337" lon="77.45646">
        <ele>3853.8</ele>
        <time>2015-09-03T04:55:46Z</time>
      </trkpt>
      <trkpt lat="33.87335" lon="77.45649">
        <ele>3854</ele>
        <time>2015-09-03T04:55:48Z</time>
      </trkpt>
      <trkpt lat="33.87332" lon="77.4566">
        <ele>3854.2</ele>
        <time>2015-09-03T04:55:55Z</time>
      </trkpt>
      <trkpt lat="33.87328" lon="77.45677">
        <ele>3854.4</ele>
        <time>2015-09-03T04:56:07Z</time>
      </trkpt>
      <trkpt lat="33.87327" lon="77.4569">
        <ele>3854.8</ele>
        <time>2015-09-03T04:56:15Z</time>
      </trkpt>
      <trkpt lat="33.87323" lon="77.45703">
        <ele>3854.8</ele>
        <time>2015-09-03T04:56:26Z</time>
      </trkpt>
      <trkpt lat="33.87324" lon="77.45712">
        <ele>3855.2</ele>
        <time>2015-09-03T04:56:35Z</time>
      </trkpt>
      <trkpt lat="33.87316" lon="77.45726">
        <ele>3855.6</ele>
        <time>2015-09-03T04:56:44Z</time>
      </trkpt>
      <trkpt lat="33.87315" lon="77.45734">
        <ele>3855.8</ele>
        <time>2015-09-03T04:56:49Z</time>
      </trkpt>
      <trkpt lat="33.87315" lon="77.45734">
        <ele>3855.8</ele>
        <time>2015-09-03T04:56:50Z</time>
      </trkpt>
      <trkpt lat="33.87311" lon="77.45744">
        <ele>3856.2</ele>
        <time>2015-09-03T04:57:01Z</time>
      </trkpt>
      <trkpt lat="33.87309" lon="77.4575">
        <ele>3856.2</ele>
        <time>2015-09-03T04:57:06Z</time>
      </trkpt>
      <trkpt lat="33.8731" lon="77.45759">
        <ele>3856.6</ele>
        <time>2015-09-03T04:57:13Z</time>
      </trkpt>
      <trkpt lat="33.87306" lon="77.45768">
        <ele>3856.6</ele>
        <time>2015-09-03T04:57:21Z</time>
      </trkpt>
      <trkpt lat="33.87302" lon="77.45774">
        <ele>3856.6</ele>
        <time>2015-09-03T04:57:25Z</time>
      </trkpt>
      <trkpt lat="33.87298" lon="77.45775">
        <ele>3856.8</ele>
        <time>2015-09-03T04:57:28Z</time>
      </trkpt>
      <trkpt lat="33.87297" lon="77.45774">
        <ele>3856.8</ele>
        <time>2015-09-03T04:57:29Z</time>
      </trkpt>
      <trkpt lat="33.87297" lon="77.45773">
        <ele>3857</ele>
        <time>2015-09-03T04:57:30Z</time>
      </trkpt>
      <trkpt lat="33.87299" lon="77.45767">
        <ele>3857</ele>
        <time>2015-09-03T04:57:46Z</time>
      </trkpt>
      <trkpt lat="33.87299" lon="77.45767">
        <ele>3857</ele>
        <time>2015-09-03T04:57:48Z</time>
      </trkpt>
      <trkpt lat="33.87296" lon="77.45776">
        <ele>3857.4</ele>
        <time>2015-09-03T04:57:53Z</time>
      </trkpt>
      <trkpt lat="33.87293" lon="77.45795">
        <ele>3857.4</ele>
        <time>2015-09-03T04:58:12Z</time>
      </trkpt>
      <trkpt lat="33.87288" lon="77.45815">
        <ele>3857.8</ele>
        <time>2015-09-03T04:58:26Z</time>
      </trkpt>
      <trkpt lat="33.87283" lon="77.4582">
        <ele>3858.2</ele>
        <time>2015-09-03T04:58:37Z</time>
      </trkpt>
      <trkpt lat="33.87276" lon="77.45838">
        <ele>3858.6</ele>
        <time>2015-09-03T04:58:51Z</time>
      </trkpt>
      <trkpt lat="33.87274" lon="77.45844">
        <ele>3859</ele>
        <time>2015-09-03T04:58:56Z</time>
      </trkpt>
      <trkpt lat="33.87272" lon="77.45846">
        <ele>3859</ele>
        <time>2015-09-03T04:58:59Z</time>
      </trkpt>
      <trkpt lat="33.87269" lon="77.45866">
        <ele>3858.8</ele>
        <time>2015-09-03T04:59:12Z</time>
      </trkpt>
      <trkpt lat="33.87267" lon="77.45877">
        <ele>3859</ele>
        <time>2015-09-03T04:59:24Z</time>
      </trkpt>
      <trkpt lat="33.87264" lon="77.4588">
        <ele>3859.4</ele>
        <time>2015-09-03T04:59:28Z</time>
      </trkpt>
      <trkpt lat="33.87263" lon="77.45881">
        <ele>3859.4</ele>
        <time>2015-09-03T04:59:30Z</time>
      </trkpt>
      <trkpt lat="33.87258" lon="77.45888">
        <ele>3859.6</ele>
        <time>2015-09-03T04:59:38Z</time>
      </trkpt>
      <trkpt lat="33.87257" lon="77.4589">
        <ele>3859.6</ele>
        <time>2015-09-03T04:59:40Z</time>
      </trkpt>
      <trkpt lat="33.87254" lon="77.45903">
        <ele>3859.8</ele>
        <time>2015-09-03T04:59:51Z</time>
      </trkpt>
      <trkpt lat="33.87254" lon="77.45904">
        <ele>3860</ele>
        <time>2015-09-03T04:59:52Z</time>
      </trkpt>
      <trkpt lat="33.87254" lon="77.45917">
        <ele>3860</ele>
        <time>2015-09-03T05:00:05Z</time>
      </trkpt>
      <trkpt lat="33.87255" lon="77.4592">
        <ele>3860.2</ele>
        <time>2015-09-03T05:00:07Z</time>
      </trkpt>
      <trkpt lat="33.87256" lon="77.45924">
        <ele>3860.6</ele>
        <time>2015-09-03T05:00:11Z</time>
      </trkpt>
      <trkpt lat="33.87255" lon="77.45926">
        <ele>3860.6</ele>
        <time>2015-09-03T05:00:13Z</time>
      </trkpt>
      <trkpt lat="33.87252" lon="77.45932">
        <ele>3860.6</ele>
        <time>2015-09-03T05:00:18Z</time>
      </trkpt>
      <trkpt lat="33.8725" lon="77.45943">
        <ele>3860.6</ele>
        <time>2015-09-03T05:00:28Z</time>
      </trkpt>
      <trkpt lat="33.87249" lon="77.45946">
        <ele>3860.6</ele>
        <time>2015-09-03T05:00:31Z</time>
      </trkpt>
      <trkpt lat="33.87247" lon="77.45951">
        <ele>3860.8</ele>
        <time>2015-09-03T05:00:35Z</time>
      </trkpt>
      <trkpt lat="33.87245" lon="77.45956">
        <ele>3861</ele>
        <time>2015-09-03T05:00:39Z</time>
      </trkpt>
      <trkpt lat="33.87245" lon="77.45958">
        <ele>3861</ele>
        <time>2015-09-03T05:00:40Z</time>
      </trkpt>
      <trkpt lat="33.87244" lon="77.4596">
        <ele>3861</ele>
        <time>2015-09-03T05:00:42Z</time>
      </trkpt>
      <trkpt lat="33.87242" lon="77.45964">
        <ele>3861</ele>
        <time>2015-09-03T05:00:46Z</time>
      </trkpt>
      <trkpt lat="33.87241" lon="77.45967">
        <ele>3860.8</ele>
        <time>2015-09-03T05:00:50Z</time>
      </trkpt>
      <trkpt lat="33.8723" lon="77.45985">
        <ele>3861.2</ele>
        <time>2015-09-03T05:01:04Z</time>
      </trkpt>
      <trkpt lat="33.87228" lon="77.45988">
        <ele>3861.4</ele>
        <time>2015-09-03T05:01:08Z</time>
      </trkpt>
      <trkpt lat="33.87217" lon="77.46006">
        <ele>3861.8</ele>
        <time>2015-09-03T05:01:24Z</time>
      </trkpt>
      <trkpt lat="33.87213" lon="77.46011">
        <ele>3862</ele>
        <time>2015-09-03T05:01:28Z</time>
      </trkpt>
      <trkpt lat="33.87201" lon="77.46026">
        <ele>3862.4</ele>
        <time>2015-09-03T05:01:45Z</time>
      </trkpt>
      <trkpt lat="33.87199" lon="77.4604">
        <ele>3862</ele>
        <time>2015-09-03T05:01:55Z</time>
      </trkpt>
      <trkpt lat="33.87195" lon="77.46052">
        <ele>3862.2</ele>
        <time>2015-09-03T05:02:05Z</time>
      </trkpt>
      <trkpt lat="33.87199" lon="77.46056">
        <ele>3861.8</ele>
        <time>2015-09-03T05:02:12Z</time>
      </trkpt>
      <trkpt lat="33.872" lon="77.46058">
        <ele>3861.8</ele>
        <time>2015-09-03T05:02:14Z</time>
      </trkpt>
      <trkpt lat="33.87195" lon="77.46071">
        <ele>3861.8</ele>
        <time>2015-09-03T05:02:32Z</time>
      </trkpt>
      <trkpt lat="33.87188" lon="77.46091">
        <ele>3862</ele>
        <time>2015-09-03T05:02:47Z</time>
      </trkpt>
      <trkpt lat="33.87184" lon="77.46099">
        <ele>3862.2</ele>
        <time>2015-09-03T05:02:56Z</time>
      </trkpt>
      <trkpt lat="33.87173" lon="77.46118">
        <ele>3862.4</ele>
        <time>2015-09-03T05:03:15Z</time>
      </trkpt>
      <trkpt lat="33.87167" lon="77.46125">
        <ele>3862.4</ele>
        <time>2015-09-03T05:03:22Z</time>
      </trkpt>
      <trkpt lat="33.87163" lon="77.46132">
        <ele>3862.4</ele>
        <time>2015-09-03T05:03:27Z</time>
      </trkpt>
      <trkpt lat="33.87161" lon="77.46135">
        <ele>3862.6</ele>
        <time>2015-09-03T05:03:29Z</time>
      </trkpt>
      <trkpt lat="33.87157" lon="77.4614">
        <ele>3862.8</ele>
        <time>2015-09-03T05:03:34Z</time>
      </trkpt>
      <trkpt lat="33.87157" lon="77.46142">
        <ele>3863</ele>
        <time>2015-09-03T05:03:36Z</time>
      </trkpt>
      <trkpt lat="33.8715" lon="77.46152">
        <ele>3863.4</ele>
        <time>2015-09-03T05:03:46Z</time>
      </trkpt>
      <trkpt lat="33.87135" lon="77.46165">
        <ele>3863.6</ele>
        <time>2015-09-03T05:04:01Z</time>
      </trkpt>
      <trkpt lat="33.8713" lon="77.4617">
        <ele>3863.6</ele>
        <time>2015-09-03T05:04:06Z</time>
      </trkpt>
      <trkpt lat="33.87124" lon="77.46181">
        <ele>3864</ele>
        <time>2015-09-03T05:04:15Z</time>
      </trkpt>
      <trkpt lat="33.87123" lon="77.46182">
        <ele>3864</ele>
        <time>2015-09-03T05:04:16Z</time>
      </trkpt>
      <trkpt lat="33.87122" lon="77.46187">
        <ele>3864.2</ele>
        <time>2015-09-03T05:04:21Z</time>
      </trkpt>
      <trkpt lat="33.87124" lon="77.46194">
        <ele>3865.2</ele>
        <time>2015-09-03T05:04:36Z</time>
      </trkpt>
      <trkpt lat="33.87117" lon="77.46213">
        <ele>3866.2</ele>
        <time>2015-09-03T05:04:57Z</time>
      </trkpt>
      <trkpt lat="33.87116" lon="77.46217">
        <ele>3866.2</ele>
        <time>2015-09-03T05:05:01Z</time>
      </trkpt>
      <trkpt lat="33.87115" lon="77.46219">
        <ele>3866.2</ele>
        <time>2015-09-03T05:05:03Z</time>
      </trkpt>
      <trkpt lat="33.87113" lon="77.4622">
        <ele>3866.6</ele>
        <time>2015-09-03T05:05:06Z</time>
      </trkpt>
      <trkpt lat="33.87111" lon="77.46223">
        <ele>3867.2</ele>
        <time>2015-09-03T05:05:09Z</time>
      </trkpt>
      <trkpt lat="33.87111" lon="77.46224">
        <ele>3867.2</ele>
        <time>2015-09-03T05:05:10Z</time>
      </trkpt>
      <trkpt lat="33.87109" lon="77.46226">
        <ele>3867.4</ele>
        <time>2015-09-03T05:05:13Z</time>
      </trkpt>
      <trkpt lat="33.87108" lon="77.46228">
        <ele>3867.4</ele>
        <time>2015-09-03T05:05:15Z</time>
      </trkpt>
      <trkpt lat="33.87106" lon="77.46233">
        <ele>3867</ele>
        <time>2015-09-03T05:05:20Z</time>
      </trkpt>
      <trkpt lat="33.87104" lon="77.46225">
        <ele>3866.2</ele>
        <time>2015-09-03T05:05:29Z</time>
      </trkpt>
      <trkpt lat="33.87102" lon="77.46226">
        <ele>3865</ele>
        <time>2015-09-03T05:05:34Z</time>
      </trkpt>
      <trkpt lat="33.87101" lon="77.46219">
        <ele>3864.4</ele>
        <time>2015-09-03T05:06:14Z</time>
      </trkpt>
      <trkpt lat="33.87105" lon="77.46224">
        <ele>3864</ele>
        <time>2015-09-03T05:06:26Z</time>
      </trkpt>
      <trkpt lat="33.87108" lon="77.46218">
        <ele>3865.2</ele>
        <time>2015-09-03T05:06:57Z</time>
      </trkpt>
      <trkpt lat="33.87105" lon="77.46211">
        <ele>3865.2</ele>
        <time>2015-09-03T05:07:10Z</time>
      </trkpt>
      <trkpt lat="33.87112" lon="77.46217">
        <ele>3865</ele>
        <time>2015-09-03T05:07:19Z</time>
      </trkpt>
      <trkpt lat="33.87102" lon="77.46228">
        <ele>3865.8</ele>
        <time>2015-09-03T05:08:25Z</time>
      </trkpt>
      <trkpt lat="33.87102" lon="77.46231">
        <ele>3866.2</ele>
        <time>2015-09-03T05:08:30Z</time>
      </trkpt>
      <trkpt lat="33.87101" lon="77.46235">
        <ele>3867.2</ele>
        <time>2015-09-03T05:08:37Z</time>
      </trkpt>
      <trkpt lat="33.871" lon="77.46243">
        <ele>3868.2</ele>
        <time>2015-09-03T05:08:47Z</time>
      </trkpt>
      <trkpt lat="33.87099" lon="77.46246">
        <ele>3868.8</ele>
        <time>2015-09-03T05:08:51Z</time>
      </trkpt>
      <trkpt lat="33.87097" lon="77.46249">
        <ele>3869.2</ele>
        <time>2015-09-03T05:08:55Z</time>
      </trkpt>
      <trkpt lat="33.87098" lon="77.46255">
        <ele>3870.4</ele>
        <time>2015-09-03T05:09:03Z</time>
      </trkpt>
      <trkpt lat="33.87094" lon="77.46264">
        <ele>3871.4</ele>
        <time>2015-09-03T05:09:16Z</time>
      </trkpt>
      <trkpt lat="33.87089" lon="77.46263">
        <ele>3871.4</ele>
        <time>2015-09-03T05:09:42Z</time>
      </trkpt>
      <trkpt lat="33.87083" lon="77.46284">
        <ele>3870.8</ele>
        <time>2015-09-03T05:10:01Z</time>
      </trkpt>
      <trkpt lat="33.87079" lon="77.46292">
        <ele>3870.4</ele>
        <time>2015-09-03T05:10:09Z</time>
      </trkpt>
      <trkpt lat="33.87078" lon="77.46294">
        <ele>3870</ele>
        <time>2015-09-03T05:10:12Z</time>
      </trkpt>
      <trkpt lat="33.87065" lon="77.4631">
        <ele>3869.6</ele>
        <time>2015-09-03T05:10:29Z</time>
      </trkpt>
      <trkpt lat="33.87063" lon="77.46312">
        <ele>3869.4</ele>
        <time>2015-09-03T05:10:32Z</time>
      </trkpt>
      <trkpt lat="33.87047" lon="77.4632">
        <ele>3870</ele>
        <time>2015-09-03T05:10:50Z</time>
      </trkpt>
      <trkpt lat="33.87042" lon="77.46329">
        <ele>3870</ele>
        <time>2015-09-03T05:10:56Z</time>
      </trkpt>
      <trkpt lat="33.8704" lon="77.46333">
        <ele>3870</ele>
        <time>2015-09-03T05:10:59Z</time>
      </trkpt>
      <trkpt lat="33.8704" lon="77.46334">
        <ele>3870.2</ele>
        <time>2015-09-03T05:11:00Z</time>
      </trkpt>
      <trkpt lat="33.8703" lon="77.46353">
        <ele>3869.6</ele>
        <time>2015-09-03T05:11:18Z</time>
      </trkpt>
      <trkpt lat="33.87028" lon="77.46355">
        <ele>3869.6</ele>
        <time>2015-09-03T05:11:20Z</time>
      </trkpt>
      <trkpt lat="33.8702" lon="77.46366">
        <ele>3870.4</ele>
        <time>2015-09-03T05:11:32Z</time>
      </trkpt>
      <trkpt lat="33.87015" lon="77.46376">
        <ele>3871</ele>
        <time>2015-09-03T05:11:39Z</time>
      </trkpt>
      <trkpt lat="33.87013" lon="77.46373">
        <ele>3871.2</ele>
        <time>2015-09-03T05:11:42Z</time>
      </trkpt>
      <trkpt lat="33.87013" lon="77.46371">
        <ele>3871.4</ele>
        <time>2015-09-03T05:11:43Z</time>
      </trkpt>
      <trkpt lat="33.87012" lon="77.46369">
        <ele>3871.6</ele>
        <time>2015-09-03T05:11:45Z</time>
      </trkpt>
      <trkpt lat="33.8701" lon="77.46368">
        <ele>3872</ele>
        <time>2015-09-03T05:11:48Z</time>
      </trkpt>
      <trkpt lat="33.87008" lon="77.46366">
        <ele>3872.4</ele>
        <time>2015-09-03T05:11:51Z</time>
      </trkpt>
      <trkpt lat="33.87004" lon="77.46368">
        <ele>3873</ele>
        <time>2015-09-03T05:11:55Z</time>
      </trkpt>
      <trkpt lat="33.87002" lon="77.46371">
        <ele>3873.6</ele>
        <time>2015-09-03T05:11:58Z</time>
      </trkpt>
      <trkpt lat="33.86984" lon="77.46377">
        <ele>3874.2</ele>
        <time>2015-09-03T05:12:13Z</time>
      </trkpt>
      <trkpt lat="33.86981" lon="77.46376">
        <ele>3874.6</ele>
        <time>2015-09-03T05:12:17Z</time>
      </trkpt>
      <trkpt lat="33.8698" lon="77.46376">
        <ele>3874.8</ele>
        <time>2015-09-03T05:12:18Z</time>
      </trkpt>
      <trkpt lat="33.86978" lon="77.46376">
        <ele>3875</ele>
        <time>2015-09-03T05:12:21Z</time>
      </trkpt>
      <trkpt lat="33.86964" lon="77.46374">
        <ele>3875.2</ele>
        <time>2015-09-03T05:12:35Z</time>
      </trkpt>
      <trkpt lat="33.86962" lon="77.46372">
        <ele>3875.2</ele>
        <time>2015-09-03T05:12:38Z</time>
      </trkpt>
      <trkpt lat="33.86944" lon="77.46366">
        <ele>3875.4</ele>
        <time>2015-09-03T05:12:54Z</time>
      </trkpt>
      <trkpt lat="33.86938" lon="77.46368">
        <ele>3875.4</ele>
        <time>2015-09-03T05:13:01Z</time>
      </trkpt>
      <trkpt lat="33.86934" lon="77.46366">
        <ele>3875.6</ele>
        <time>2015-09-03T05:13:05Z</time>
      </trkpt>
      <trkpt lat="33.86934" lon="77.46365">
        <ele>3875.6</ele>
        <time>2015-09-03T05:13:06Z</time>
      </trkpt>
      <trkpt lat="33.86916" lon="77.46364">
        <ele>3876.2</ele>
        <time>2015-09-03T05:13:22Z</time>
      </trkpt>
      <trkpt lat="33.86912" lon="77.46367">
        <ele>3876.6</ele>
        <time>2015-09-03T05:13:26Z</time>
      </trkpt>
      <trkpt lat="33.86911" lon="77.46368">
        <ele>3876.8</ele>
        <time>2015-09-03T05:13:27Z</time>
      </trkpt>
      <trkpt lat="33.86899" lon="77.46372">
        <ele>3877.4</ele>
        <time>2015-09-03T05:13:39Z</time>
      </trkpt>
      <trkpt lat="33.86897" lon="77.4637">
        <ele>3877.8</ele>
        <time>2015-09-03T05:13:41Z</time>
      </trkpt>
      <trkpt lat="33.86897" lon="77.46371">
        <ele>3877.8</ele>
        <time>2015-09-03T05:13:42Z</time>
      </trkpt>
      <trkpt lat="33.86894" lon="77.46369">
        <ele>3878.2</ele>
        <time>2015-09-03T05:13:45Z</time>
      </trkpt>
      <trkpt lat="33.86892" lon="77.4637">
        <ele>3878.4</ele>
        <time>2015-09-03T05:13:48Z</time>
      </trkpt>
      <trkpt lat="33.86888" lon="77.46372">
        <ele>3878.6</ele>
        <time>2015-09-03T05:13:54Z</time>
      </trkpt>
      <trkpt lat="33.86884" lon="77.46375">
        <ele>3878.6</ele>
        <time>2015-09-03T05:13:59Z</time>
      </trkpt>
      <trkpt lat="33.86883" lon="77.46376">
        <ele>3878.6</ele>
        <time>2015-09-03T05:14:01Z</time>
      </trkpt>
      <trkpt lat="33.86881" lon="77.46377">
        <ele>3878.6</ele>
        <time>2015-09-03T05:14:03Z</time>
      </trkpt>
      <trkpt lat="33.8688" lon="77.46379">
        <ele>3878.6</ele>
        <time>2015-09-03T05:14:05Z</time>
      </trkpt>
      <trkpt lat="33.86868" lon="77.4637">
        <ele>3878.4</ele>
        <time>2015-09-03T05:14:23Z</time>
      </trkpt>
      <trkpt lat="33.86859" lon="77.46369">
        <ele>3878.4</ele>
        <time>2015-09-03T05:14:29Z</time>
      </trkpt>
      <trkpt lat="33.86852" lon="77.46372">
        <ele>3878.6</ele>
        <time>2015-09-03T05:14:36Z</time>
      </trkpt>
      <trkpt lat="33.8685" lon="77.46372">
        <ele>3878.8</ele>
        <time>2015-09-03T05:14:38Z</time>
      </trkpt>
      <trkpt lat="33.86839" lon="77.46371">
        <ele>3879.6</ele>
        <time>2015-09-03T05:14:53Z</time>
      </trkpt>
      <trkpt lat="33.86838" lon="77.46371">
        <ele>3879.6</ele>
        <time>2015-09-03T05:14:55Z</time>
      </trkpt>
      <trkpt lat="33.86821" lon="77.4638">
        <ele>3878.2</ele>
        <time>2015-09-03T05:15:36Z</time>
      </trkpt>
      <trkpt lat="33.86803" lon="77.46379">
        <ele>3879.2</ele>
        <time>2015-09-03T05:15:56Z</time>
      </trkpt>
      <trkpt lat="33.86795" lon="77.46383">
        <ele>3879.6</ele>
        <time>2015-09-03T05:16:05Z</time>
      </trkpt>
      <trkpt lat="33.86791" lon="77.46381">
        <ele>3879.6</ele>
        <time>2015-09-03T05:16:11Z</time>
      </trkpt>
      <trkpt lat="33.86788" lon="77.46382">
        <ele>3879.8</ele>
        <time>2015-09-03T05:16:16Z</time>
      </trkpt>
      <trkpt lat="33.8678" lon="77.46379">
        <ele>3880.2</ele>
        <time>2015-09-03T05:16:23Z</time>
      </trkpt>
      <trkpt lat="33.86775" lon="77.4638">
        <ele>3880</ele>
        <time>2015-09-03T05:16:28Z</time>
      </trkpt>
      <trkpt lat="33.86771" lon="77.46382">
        <ele>3880</ele>
        <time>2015-09-03T05:16:33Z</time>
      </trkpt>
      <trkpt lat="33.86765" lon="77.46372">
        <ele>3879.4</ele>
        <time>2015-09-03T05:16:43Z</time>
      </trkpt>
      <trkpt lat="33.86761" lon="77.4636">
        <ele>3878.8</ele>
        <time>2015-09-03T05:16:52Z</time>
      </trkpt>
      <trkpt lat="33.86759" lon="77.46357">
        <ele>3878.8</ele>
        <time>2015-09-03T05:16:53Z</time>
      </trkpt>
      <trkpt lat="33.86753" lon="77.46335">
        <ele>3877.8</ele>
        <time>2015-09-03T05:17:04Z</time>
      </trkpt>
      <trkpt lat="33.86753" lon="77.46333">
        <ele>3877.6</ele>
        <time>2015-09-03T05:17:05Z</time>
      </trkpt>
      <trkpt lat="33.86758" lon="77.46313">
        <ele>3876.6</ele>
        <time>2015-09-03T05:17:15Z</time>
      </trkpt>
      <trkpt lat="33.86758" lon="77.46313">
        <ele>3876.4</ele>
        <time>2015-09-03T05:17:16Z</time>
      </trkpt>
      <trkpt lat="33.86756" lon="77.46319">
        <ele>3876.2</ele>
        <time>2015-09-03T05:17:18Z</time>
      </trkpt>
      <trkpt lat="33.86756" lon="77.4632">
        <ele>3875.8</ele>
        <time>2015-09-03T05:17:20Z</time>
      </trkpt>
      <trkpt lat="33.86756" lon="77.46322">
        <ele>3875.8</ele>
        <time>2015-09-03T05:17:22Z</time>
      </trkpt>
      <trkpt lat="33.86759" lon="77.46324">
        <ele>3875.6</ele>
        <time>2015-09-03T05:17:24Z</time>
      </trkpt>
      <trkpt lat="33.8676" lon="77.4633">
        <ele>3874.4</ele>
        <time>2015-09-03T05:17:29Z</time>
      </trkpt>
      <trkpt lat="33.86757" lon="77.4634">
        <ele>3873.2</ele>
        <time>2015-09-03T05:17:36Z</time>
      </trkpt>
      <trkpt lat="33.86755" lon="77.46343">
        <ele>3873</ele>
        <time>2015-09-03T05:17:39Z</time>
      </trkpt>
      <trkpt lat="33.86754" lon="77.46348">
        <ele>3873.2</ele>
        <time>2015-09-03T05:17:44Z</time>
      </trkpt>
      <trkpt lat="33.86752" lon="77.46356">
        <ele>3873.2</ele>
        <time>2015-09-03T05:17:50Z</time>
      </trkpt>
      <trkpt lat="33.86753" lon="77.46373">
        <ele>3873.6</ele>
        <time>2015-09-03T05:18:09Z</time>
      </trkpt>
      <trkpt lat="33.86754" lon="77.46377">
        <ele>3873.8</ele>
        <time>2015-09-03T05:18:12Z</time>
      </trkpt>
      <trkpt lat="33.86754" lon="77.46382">
        <ele>3873.8</ele>
        <time>2015-09-03T05:18:15Z</time>
      </trkpt>
      <trkpt lat="33.86752" lon="77.46387">
        <ele>3874</ele>
        <time>2015-09-03T05:18:19Z</time>
      </trkpt>
      <trkpt lat="33.86751" lon="77.46389">
        <ele>3874.2</ele>
        <time>2015-09-03T05:18:21Z</time>
      </trkpt>
      <trkpt lat="33.86749" lon="77.46392">
        <ele>3874.2</ele>
        <time>2015-09-03T05:18:23Z</time>
      </trkpt>
      <trkpt lat="33.86748" lon="77.46393">
        <ele>3874.2</ele>
        <time>2015-09-03T05:18:25Z</time>
      </trkpt>
      <trkpt lat="33.86748" lon="77.46393">
        <ele>3874.4</ele>
        <time>2015-09-03T05:18:26Z</time>
      </trkpt>
      <trkpt lat="33.86748" lon="77.464">
        <ele>3875</ele>
        <time>2015-09-03T05:18:32Z</time>
      </trkpt>
      <trkpt lat="33.86749" lon="77.46402">
        <ele>3875</ele>
        <time>2015-09-03T05:18:35Z</time>
      </trkpt>
      <trkpt lat="33.86747" lon="77.46407">
        <ele>3874.6</ele>
        <time>2015-09-03T05:18:40Z</time>
      </trkpt>
      <trkpt lat="33.86739" lon="77.46412">
        <ele>3874.4</ele>
        <time>2015-09-03T05:18:46Z</time>
      </trkpt>
      <trkpt lat="33.86737" lon="77.46416">
        <ele>3874.6</ele>
        <time>2015-09-03T05:18:49Z</time>
      </trkpt>
      <trkpt lat="33.86735" lon="77.46418">
        <ele>3874.6</ele>
        <time>2015-09-03T05:18:52Z</time>
      </trkpt>
      <trkpt lat="33.86737" lon="77.46427">
        <ele>3875</ele>
        <time>2015-09-03T05:19:04Z</time>
      </trkpt>
      <trkpt lat="33.86732" lon="77.46437">
        <ele>3875.4</ele>
        <time>2015-09-03T05:19:13Z</time>
      </trkpt>
      <trkpt lat="33.8673" lon="77.4644">
        <ele>3875.4</ele>
        <time>2015-09-03T05:19:16Z</time>
      </trkpt>
      <trkpt lat="33.86722" lon="77.46446">
        <ele>3875.4</ele>
        <time>2015-09-03T05:19:23Z</time>
      </trkpt>
      <trkpt lat="33.86716" lon="77.46455">
        <ele>3875.6</ele>
        <time>2015-09-03T05:19:32Z</time>
      </trkpt>
      <trkpt lat="33.86714" lon="77.46459">
        <ele>3875.6</ele>
        <time>2015-09-03T05:19:34Z</time>
      </trkpt>
      <trkpt lat="33.86712" lon="77.46464">
        <ele>3875.6</ele>
        <time>2015-09-03T05:19:40Z</time>
      </trkpt>
      <trkpt lat="33.86705" lon="77.46486">
        <ele>3876.2</ele>
        <time>2015-09-03T05:19:58Z</time>
      </trkpt>
      <trkpt lat="33.86702" lon="77.46491">
        <ele>3876.4</ele>
        <time>2015-09-03T05:20:03Z</time>
      </trkpt>
      <trkpt lat="33.86698" lon="77.465">
        <ele>3876.6</ele>
        <time>2015-09-03T05:20:12Z</time>
      </trkpt>
      <trkpt lat="33.86692" lon="77.4651">
        <ele>3876.8</ele>
        <time>2015-09-03T05:20:22Z</time>
      </trkpt>
      <trkpt lat="33.86689" lon="77.46515">
        <ele>3876.8</ele>
        <time>2015-09-03T05:20:27Z</time>
      </trkpt>
      <trkpt lat="33.86688" lon="77.46521">
        <ele>3877</ele>
        <time>2015-09-03T05:20:33Z</time>
      </trkpt>
      <trkpt lat="33.86685" lon="77.46524">
        <ele>3877</ele>
        <time>2015-09-03T05:20:37Z</time>
      </trkpt>
      <trkpt lat="33.86678" lon="77.46539">
        <ele>3876.6</ele>
        <time>2015-09-03T05:20:51Z</time>
      </trkpt>
      <trkpt lat="33.86676" lon="77.46541">
        <ele>3876.8</ele>
        <time>2015-09-03T05:20:53Z</time>
      </trkpt>
      <trkpt lat="33.86673" lon="77.46547">
        <ele>3877.2</ele>
        <time>2015-09-03T05:20:59Z</time>
      </trkpt>
      <trkpt lat="33.86675" lon="77.46549">
        <ele>3877.6</ele>
        <time>2015-09-03T05:21:05Z</time>
      </trkpt>
      <trkpt lat="33.86669" lon="77.46556">
        <ele>3878.2</ele>
        <time>2015-09-03T05:21:13Z</time>
      </trkpt>
      <trkpt lat="33.86665" lon="77.46571">
        <ele>3878</ele>
        <time>2015-09-03T05:21:25Z</time>
      </trkpt>
      <trkpt lat="33.86666" lon="77.46574">
        <ele>3878</ele>
        <time>2015-09-03T05:21:27Z</time>
      </trkpt>
      <trkpt lat="33.86667" lon="77.46576">
        <ele>3878</ele>
        <time>2015-09-03T05:21:29Z</time>
      </trkpt>
      <trkpt lat="33.86672" lon="77.46578">
        <ele>3878</ele>
        <time>2015-09-03T05:21:33Z</time>
      </trkpt>
      <trkpt lat="33.86676" lon="77.4658">
        <ele>3878</ele>
        <time>2015-09-03T05:21:35Z</time>
      </trkpt>
      <trkpt lat="33.86683" lon="77.46584">
        <ele>3878</ele>
        <time>2015-09-03T05:21:39Z</time>
      </trkpt>
      <trkpt lat="33.86681" lon="77.46588">
        <ele>3877.8</ele>
        <time>2015-09-03T05:21:44Z</time>
      </trkpt>
      <trkpt lat="33.86672" lon="77.46608">
        <ele>3877.8</ele>
        <time>2015-09-03T05:21:58Z</time>
      </trkpt>
      <trkpt lat="33.86679" lon="77.46627">
        <ele>3878</ele>
        <time>2015-09-03T05:22:11Z</time>
      </trkpt>
      <trkpt lat="33.86676" lon="77.46649">
        <ele>3878.4</ele>
        <time>2015-09-03T05:22:25Z</time>
      </trkpt>
      <trkpt lat="33.86671" lon="77.46664">
        <ele>3878.4</ele>
        <time>2015-09-03T05:22:34Z</time>
      </trkpt>
      <trkpt lat="33.86668" lon="77.46664">
        <ele>3878.4</ele>
        <time>2015-09-03T05:22:38Z</time>
      </trkpt>
      <trkpt lat="33.86667" lon="77.46661">
        <ele>3878.6</ele>
        <time>2015-09-03T05:22:42Z</time>
      </trkpt>
      <trkpt lat="33.86666" lon="77.46661">
        <ele>3878.6</ele>
        <time>2015-09-03T05:22:43Z</time>
      </trkpt>
      <trkpt lat="33.86664" lon="77.46666">
        <ele>3878.8</ele>
        <time>2015-09-03T05:22:48Z</time>
      </trkpt>
      <trkpt lat="33.86665" lon="77.46668">
        <ele>3878.8</ele>
        <time>2015-09-03T05:22:50Z</time>
      </trkpt>
      <trkpt lat="33.86666" lon="77.46671">
        <ele>3879</ele>
        <time>2015-09-03T05:22:53Z</time>
      </trkpt>
      <trkpt lat="33.86666" lon="77.46678">
        <ele>3879</ele>
        <time>2015-09-03T05:22:59Z</time>
      </trkpt>
      <trkpt lat="33.86664" lon="77.4668">
        <ele>3879.2</ele>
        <time>2015-09-03T05:23:01Z</time>
      </trkpt>
      <trkpt lat="33.86663" lon="77.46682">
        <ele>3879.4</ele>
        <time>2015-09-03T05:23:03Z</time>
      </trkpt>
      <trkpt lat="33.8666" lon="77.46684">
        <ele>3879.4</ele>
        <time>2015-09-03T05:23:06Z</time>
      </trkpt>
      <trkpt lat="33.86655" lon="77.46691">
        <ele>3879.6</ele>
        <time>2015-09-03T05:23:13Z</time>
      </trkpt>
      <trkpt lat="33.86652" lon="77.46694">
        <ele>3879.6</ele>
        <time>2015-09-03T05:23:17Z</time>
      </trkpt>
      <trkpt lat="33.86648" lon="77.46702">
        <ele>3879.6</ele>
        <time>2015-09-03T05:23:22Z</time>
      </trkpt>
      <trkpt lat="33.86648" lon="77.46704">
        <ele>3879.8</ele>
        <time>2015-09-03T05:23:24Z</time>
      </trkpt>
      <trkpt lat="33.86647" lon="77.46708">
        <ele>3879.8</ele>
        <time>2015-09-03T05:23:28Z</time>
      </trkpt>
      <trkpt lat="33.86647" lon="77.46711">
        <ele>3879.8</ele>
        <time>2015-09-03T05:23:31Z</time>
      </trkpt>
      <trkpt lat="33.86648" lon="77.46721">
        <ele>3880.2</ele>
        <time>2015-09-03T05:23:38Z</time>
      </trkpt>
      <trkpt lat="33.86644" lon="77.46729">
        <ele>3880.6</ele>
        <time>2015-09-03T05:23:47Z</time>
      </trkpt>
      <trkpt lat="33.86642" lon="77.4673">
        <ele>3880.6</ele>
        <time>2015-09-03T05:23:50Z</time>
      </trkpt>
      <trkpt lat="33.86641" lon="77.46733">
        <ele>3880.6</ele>
        <time>2015-09-03T05:23:53Z</time>
      </trkpt>
      <trkpt lat="33.86636" lon="77.46738">
        <ele>3880.6</ele>
        <time>2015-09-03T05:23:59Z</time>
      </trkpt>
      <trkpt lat="33.86635" lon="77.46739">
        <ele>3880.6</ele>
        <time>2015-09-03T05:24:01Z</time>
      </trkpt>
      <trkpt lat="33.86631" lon="77.46752">
        <ele>3880.8</ele>
        <time>2015-09-03T05:24:15Z</time>
      </trkpt>
      <trkpt lat="33.86623" lon="77.46773">
        <ele>3881.2</ele>
        <time>2015-09-03T05:24:33Z</time>
      </trkpt>
      <trkpt lat="33.86622" lon="77.46776">
        <ele>3881.2</ele>
        <time>2015-09-03T05:24:36Z</time>
      </trkpt>
      <trkpt lat="33.86621" lon="77.46778">
        <ele>3881.2</ele>
        <time>2015-09-03T05:24:38Z</time>
      </trkpt>
      <trkpt lat="33.8662" lon="77.46781">
        <ele>3881.2</ele>
        <time>2015-09-03T05:24:41Z</time>
      </trkpt>
      <trkpt lat="33.8662" lon="77.46786">
        <ele>3881.2</ele>
        <time>2015-09-03T05:24:45Z</time>
      </trkpt>
      <trkpt lat="33.86617" lon="77.46791">
        <ele>3881</ele>
        <time>2015-09-03T05:24:51Z</time>
      </trkpt>
      <trkpt lat="33.8661" lon="77.46799">
        <ele>3881.6</ele>
        <time>2015-09-03T05:25:05Z</time>
      </trkpt>
      <trkpt lat="33.86609" lon="77.46803">
        <ele>3881.6</ele>
        <time>2015-09-03T05:25:08Z</time>
      </trkpt>
      <trkpt lat="33.86608" lon="77.46804">
        <ele>3881.6</ele>
        <time>2015-09-03T05:25:10Z</time>
      </trkpt>
      <trkpt lat="33.86605" lon="77.46808">
        <ele>3881.8</ele>
        <time>2015-09-03T05:25:15Z</time>
      </trkpt>
      <trkpt lat="33.86605" lon="77.46813">
        <ele>3882</ele>
        <time>2015-09-03T05:25:20Z</time>
      </trkpt>
      <trkpt lat="33.86602" lon="77.46818">
        <ele>3882.2</ele>
        <time>2015-09-03T05:25:25Z</time>
      </trkpt>
      <trkpt lat="33.866" lon="77.4682">
        <ele>3882.2</ele>
        <time>2015-09-03T05:25:27Z</time>
      </trkpt>
      <trkpt lat="33.86598" lon="77.46825">
        <ele>3882</ele>
        <time>2015-09-03T05:25:30Z</time>
      </trkpt>
      <trkpt lat="33.86591" lon="77.46838">
        <ele>3882</ele>
        <time>2015-09-03T05:25:41Z</time>
      </trkpt>
      <trkpt lat="33.86581" lon="77.46847">
        <ele>3882.6</ele>
        <time>2015-09-03T05:25:53Z</time>
      </trkpt>
      <trkpt lat="33.86581" lon="77.46848">
        <ele>3882.8</ele>
        <time>2015-09-03T05:25:54Z</time>
      </trkpt>
      <trkpt lat="33.86579" lon="77.4685">
        <ele>3883</ele>
        <time>2015-09-03T05:25:57Z</time>
      </trkpt>
      <trkpt lat="33.86577" lon="77.46852">
        <ele>3883</ele>
        <time>2015-09-03T05:26:00Z</time>
      </trkpt>
      <trkpt lat="33.86575" lon="77.46854">
        <ele>3883</ele>
        <time>2015-09-03T05:26:02Z</time>
      </trkpt>
      <trkpt lat="33.86572" lon="77.46857">
        <ele>3883</ele>
        <time>2015-09-03T05:26:06Z</time>
      </trkpt>
      <trkpt lat="33.86569" lon="77.46861">
        <ele>3883.2</ele>
        <time>2015-09-03T05:26:12Z</time>
      </trkpt>
      <trkpt lat="33.86568" lon="77.46871">
        <ele>3883</ele>
        <time>2015-09-03T05:26:18Z</time>
      </trkpt>
      <trkpt lat="33.86566" lon="77.46878">
        <ele>3883.2</ele>
        <time>2015-09-03T05:26:23Z</time>
      </trkpt>
      <trkpt lat="33.86556" lon="77.46892">
        <ele>3883.6</ele>
        <time>2015-09-03T05:26:38Z</time>
      </trkpt>
      <trkpt lat="33.86552" lon="77.46896">
        <ele>3883.6</ele>
        <time>2015-09-03T05:26:51Z</time>
      </trkpt>
      <trkpt lat="33.8655" lon="77.46901">
        <ele>3883.8</ele>
        <time>2015-09-03T05:27:00Z</time>
      </trkpt>
      <trkpt lat="33.86547" lon="77.46905">
        <ele>3883.8</ele>
        <time>2015-09-03T05:27:15Z</time>
      </trkpt>
      <trkpt lat="33.86546" lon="77.46907">
        <ele>3883.8</ele>
        <time>2015-09-03T05:27:17Z</time>
      </trkpt>
      <trkpt lat="33.86545" lon="77.46911">
        <ele>3883.4</ele>
        <time>2015-09-03T05:27:20Z</time>
      </trkpt>
      <trkpt lat="33.86542" lon="77.46916">
        <ele>3883.4</ele>
        <time>2015-09-03T05:27:25Z</time>
      </trkpt>
      <trkpt lat="33.86536" lon="77.46927">
        <ele>3883.8</ele>
        <time>2015-09-03T05:27:36Z</time>
      </trkpt>
      <trkpt lat="33.8653" lon="77.46931">
        <ele>3884.6</ele>
        <time>2015-09-03T05:27:43Z</time>
      </trkpt>
      <trkpt lat="33.86524" lon="77.46934">
        <ele>3884.6</ele>
        <time>2015-09-03T05:27:50Z</time>
      </trkpt>
      <trkpt lat="33.86512" lon="77.46952">
        <ele>3884.6</ele>
        <time>2015-09-03T05:28:06Z</time>
      </trkpt>
      <trkpt lat="33.86511" lon="77.46954">
        <ele>3884.8</ele>
        <time>2015-09-03T05:28:07Z</time>
      </trkpt>
      <trkpt lat="33.86502" lon="77.46964">
        <ele>3885.2</ele>
        <time>2015-09-03T05:28:20Z</time>
      </trkpt>
      <trkpt lat="33.86501" lon="77.46967">
        <ele>3885.4</ele>
        <time>2015-09-03T05:28:23Z</time>
      </trkpt>
      <trkpt lat="33.86491" lon="77.46972">
        <ele>3885</ele>
        <time>2015-09-03T05:28:32Z</time>
      </trkpt>
      <trkpt lat="33.86489" lon="77.46972">
        <ele>3885.2</ele>
        <time>2015-09-03T05:28:34Z</time>
      </trkpt>
      <trkpt lat="33.86485" lon="77.46972">
        <ele>3885.4</ele>
        <time>2015-09-03T05:28:38Z</time>
      </trkpt>
      <trkpt lat="33.86481" lon="77.46975">
        <ele>3885.6</ele>
        <time>2015-09-03T05:28:43Z</time>
      </trkpt>
      <trkpt lat="33.86479" lon="77.46975">
        <ele>3885.6</ele>
        <time>2015-09-03T05:28:45Z</time>
      </trkpt>
      <trkpt lat="33.86475" lon="77.46977">
        <ele>3885.8</ele>
        <time>2015-09-03T05:28:50Z</time>
      </trkpt>
      <trkpt lat="33.86463" lon="77.46977">
        <ele>3885.8</ele>
        <time>2015-09-03T05:28:59Z</time>
      </trkpt>
      <trkpt lat="33.86456" lon="77.46984">
        <ele>3886</ele>
        <time>2015-09-03T05:29:19Z</time>
      </trkpt>
      <trkpt lat="33.86453" lon="77.46986">
        <ele>3886</ele>
        <time>2015-09-03T05:29:24Z</time>
      </trkpt>
      <trkpt lat="33.8645" lon="77.46992">
        <ele>3886</ele>
        <time>2015-09-03T05:29:29Z</time>
      </trkpt>
      <trkpt lat="33.86443" lon="77.4701">
        <ele>3886.4</ele>
        <time>2015-09-03T05:29:47Z</time>
      </trkpt>
      <trkpt lat="33.86442" lon="77.47011">
        <ele>3886.4</ele>
        <time>2015-09-03T05:29:49Z</time>
      </trkpt>
      <trkpt lat="33.8644" lon="77.4702">
        <ele>3886.4</ele>
        <time>2015-09-03T05:29:57Z</time>
      </trkpt>
      <trkpt lat="33.86438" lon="77.47023">
        <ele>3886.4</ele>
        <time>2015-09-03T05:30:01Z</time>
      </trkpt>
      <trkpt lat="33.86434" lon="77.47034">
        <ele>3886.6</ele>
        <time>2015-09-03T05:30:17Z</time>
      </trkpt>
      <trkpt lat="33.86429" lon="77.47043">
        <ele>3886.6</ele>
        <time>2015-09-03T05:30:23Z</time>
      </trkpt>
      <trkpt lat="33.86428" lon="77.47044">
        <ele>3886.6</ele>
        <time>2015-09-03T05:30:24Z</time>
      </trkpt>
      <trkpt lat="33.86427" lon="77.47052">
        <ele>3887</ele>
        <time>2015-09-03T05:30:33Z</time>
      </trkpt>
      <trkpt lat="33.86426" lon="77.47056">
        <ele>3887.2</ele>
        <time>2015-09-03T05:30:38Z</time>
      </trkpt>
      <trkpt lat="33.86422" lon="77.4706">
        <ele>3887.4</ele>
        <time>2015-09-03T05:30:43Z</time>
      </trkpt>
      <trkpt lat="33.86419" lon="77.47064">
        <ele>3887.6</ele>
        <time>2015-09-03T05:30:46Z</time>
      </trkpt>
      <trkpt lat="33.86406" lon="77.47077">
        <ele>3888</ele>
        <time>2015-09-03T05:31:00Z</time>
      </trkpt>
      <trkpt lat="33.86405" lon="77.47078">
        <ele>3888</ele>
        <time>2015-09-03T05:31:02Z</time>
      </trkpt>
      <trkpt lat="33.86404" lon="77.47078">
        <ele>3888</ele>
        <time>2015-09-03T05:31:03Z</time>
      </trkpt>
      <trkpt lat="33.86402" lon="77.47081">
        <ele>3888.2</ele>
        <time>2015-09-03T05:31:06Z</time>
      </trkpt>
      <trkpt lat="33.86397" lon="77.4709">
        <ele>3888.2</ele>
        <time>2015-09-03T05:31:13Z</time>
      </trkpt>
      <trkpt lat="33.86396" lon="77.47095">
        <ele>3888.4</ele>
        <time>2015-09-03T05:31:18Z</time>
      </trkpt>
      <trkpt lat="33.86392" lon="77.47102">
        <ele>3888.2</ele>
        <time>2015-09-03T05:31:27Z</time>
      </trkpt>
      <trkpt lat="33.86385" lon="77.47109">
        <ele>3888.2</ele>
        <time>2015-09-03T05:31:40Z</time>
      </trkpt>
      <trkpt lat="33.86384" lon="77.47111">
        <ele>3888.4</ele>
        <time>2015-09-03T05:31:42Z</time>
      </trkpt>
      <trkpt lat="33.86381" lon="77.47114">
        <ele>3889</ele>
        <time>2015-09-03T05:31:46Z</time>
      </trkpt>
      <trkpt lat="33.86381" lon="77.47115">
        <ele>3889.2</ele>
        <time>2015-09-03T05:31:47Z</time>
      </trkpt>
      <trkpt lat="33.86379" lon="77.47118">
        <ele>3889.2</ele>
        <time>2015-09-03T05:31:50Z</time>
      </trkpt>
      <trkpt lat="33.86373" lon="77.47126">
        <ele>3889.2</ele>
        <time>2015-09-03T05:32:00Z</time>
      </trkpt>
      <trkpt lat="33.86369" lon="77.47139">
        <ele>3889.4</ele>
        <time>2015-09-03T05:32:07Z</time>
      </trkpt>
      <trkpt lat="33.86367" lon="77.47141">
        <ele>3889.6</ele>
        <time>2015-09-03T05:32:11Z</time>
      </trkpt>
      <trkpt lat="33.86367" lon="77.47142">
        <ele>3889.6</ele>
        <time>2015-09-03T05:32:12Z</time>
      </trkpt>
      <trkpt lat="33.86351" lon="77.47155">
        <ele>3890</ele>
        <time>2015-09-03T05:32:34Z</time>
      </trkpt>
      <trkpt lat="33.86349" lon="77.47157">
        <ele>3890</ele>
        <time>2015-09-03T05:32:37Z</time>
      </trkpt>
      <trkpt lat="33.86348" lon="77.4716">
        <ele>3890</ele>
        <time>2015-09-03T05:32:39Z</time>
      </trkpt>
      <trkpt lat="33.86346" lon="77.47169">
        <ele>3889.8</ele>
        <time>2015-09-03T05:32:44Z</time>
      </trkpt>
      <trkpt lat="33.86342" lon="77.47174">
        <ele>3890</ele>
        <time>2015-09-03T05:32:48Z</time>
      </trkpt>
      <trkpt lat="33.86342" lon="77.47175">
        <ele>3890</ele>
        <time>2015-09-03T05:32:49Z</time>
      </trkpt>
      <trkpt lat="33.86339" lon="77.47181">
        <ele>3890</ele>
        <time>2015-09-03T05:32:54Z</time>
      </trkpt>
      <trkpt lat="33.86337" lon="77.47185">
        <ele>3890.2</ele>
        <time>2015-09-03T05:32:59Z</time>
      </trkpt>
      <trkpt lat="33.86335" lon="77.47187">
        <ele>3890.4</ele>
        <time>2015-09-03T05:33:01Z</time>
      </trkpt>
      <trkpt lat="33.86332" lon="77.47189">
        <ele>3890.4</ele>
        <time>2015-09-03T05:33:05Z</time>
      </trkpt>
      <trkpt lat="33.86329" lon="77.47199">
        <ele>3890.6</ele>
        <time>2015-09-03T05:33:10Z</time>
      </trkpt>
      <trkpt lat="33.86319" lon="77.47211">
        <ele>3891</ele>
        <time>2015-09-03T05:33:28Z</time>
      </trkpt>
      <trkpt lat="33.86313" lon="77.47228">
        <ele>3891.8</ele>
        <time>2015-09-03T05:33:45Z</time>
      </trkpt>
      <trkpt lat="33.86311" lon="77.4723">
        <ele>3892</ele>
        <time>2015-09-03T05:33:48Z</time>
      </trkpt>
      <trkpt lat="33.8631" lon="77.47231">
        <ele>3892</ele>
        <time>2015-09-03T05:33:49Z</time>
      </trkpt>
      <trkpt lat="33.86306" lon="77.47232">
        <ele>3892</ele>
        <time>2015-09-03T05:33:53Z</time>
      </trkpt>
      <trkpt lat="33.86304" lon="77.47236">
        <ele>3892</ele>
        <time>2015-09-03T05:33:55Z</time>
      </trkpt>
      <trkpt lat="33.86301" lon="77.47237">
        <ele>3892</ele>
        <time>2015-09-03T05:33:57Z</time>
      </trkpt>
      <trkpt lat="33.86294" lon="77.4724">
        <ele>3892.2</ele>
        <time>2015-09-03T05:34:04Z</time>
      </trkpt>
      <trkpt lat="33.86293" lon="77.47241">
        <ele>3892.2</ele>
        <time>2015-09-03T05:34:06Z</time>
      </trkpt>
      <trkpt lat="33.86293" lon="77.47244">
        <ele>3892.4</ele>
        <time>2015-09-03T05:34:08Z</time>
      </trkpt>
      <trkpt lat="33.86292" lon="77.47247">
        <ele>3892.4</ele>
        <time>2015-09-03T05:34:12Z</time>
      </trkpt>
      <trkpt lat="33.86293" lon="77.47252">
        <ele>3892.4</ele>
        <time>2015-09-03T05:34:17Z</time>
      </trkpt>
      <trkpt lat="33.86294" lon="77.47261">
        <ele>3892.8</ele>
        <time>2015-09-03T05:34:25Z</time>
      </trkpt>
      <trkpt lat="33.86293" lon="77.47263">
        <ele>3893</ele>
        <time>2015-09-03T05:34:27Z</time>
      </trkpt>
      <trkpt lat="33.86292" lon="77.47263">
        <ele>3893.2</ele>
        <time>2015-09-03T05:34:29Z</time>
      </trkpt>
      <trkpt lat="33.86284" lon="77.47278">
        <ele>3894.2</ele>
        <time>2015-09-03T05:34:45Z</time>
      </trkpt>
      <trkpt lat="33.86283" lon="77.47282">
        <ele>3894.6</ele>
        <time>2015-09-03T05:34:49Z</time>
      </trkpt>
      <trkpt lat="33.8628" lon="77.47283">
        <ele>3894.8</ele>
        <time>2015-09-03T05:34:52Z</time>
      </trkpt>
      <trkpt lat="33.86275" lon="77.47283">
        <ele>3895.2</ele>
        <time>2015-09-03T05:34:58Z</time>
      </trkpt>
      <trkpt lat="33.8627" lon="77.47294">
        <ele>3896</ele>
        <time>2015-09-03T05:35:07Z</time>
      </trkpt>
      <trkpt lat="33.86268" lon="77.473">
        <ele>3896.2</ele>
        <time>2015-09-03T05:35:10Z</time>
      </trkpt>
      <trkpt lat="33.86267" lon="77.47302">
        <ele>3896.2</ele>
        <time>2015-09-03T05:35:12Z</time>
      </trkpt>
      <trkpt lat="33.86266" lon="77.47305">
        <ele>3896.8</ele>
        <time>2015-09-03T05:35:15Z</time>
      </trkpt>
      <trkpt lat="33.86265" lon="77.47306">
        <ele>3897</ele>
        <time>2015-09-03T05:35:18Z</time>
      </trkpt>
      <trkpt lat="33.86262" lon="77.47307">
        <ele>3897.4</ele>
        <time>2015-09-03T05:35:24Z</time>
      </trkpt>
      <trkpt lat="33.86262" lon="77.47305">
        <ele>3897.8</ele>
        <time>2015-09-03T05:35:29Z</time>
      </trkpt>
      <trkpt lat="33.86261" lon="77.4731">
        <ele>3897.8</ele>
        <time>2015-09-03T05:35:32Z</time>
      </trkpt>
      <trkpt lat="33.86258" lon="77.47318">
        <ele>3898.4</ele>
        <time>2015-09-03T05:35:43Z</time>
      </trkpt>
      <trkpt lat="33.86257" lon="77.47319">
        <ele>3898.4</ele>
        <time>2015-09-03T05:35:45Z</time>
      </trkpt>
      <trkpt lat="33.86252" lon="77.4733">
        <ele>3898.4</ele>
        <time>2015-09-03T05:35:59Z</time>
      </trkpt>
      <trkpt lat="33.8625" lon="77.47334">
        <ele>3898.2</ele>
        <time>2015-09-03T05:36:02Z</time>
      </trkpt>
      <trkpt lat="33.86248" lon="77.47338">
        <ele>3898</ele>
        <time>2015-09-03T05:36:05Z</time>
      </trkpt>
      <trkpt lat="33.86247" lon="77.47339">
        <ele>3897.6</ele>
        <time>2015-09-03T05:36:07Z</time>
      </trkpt>
      <trkpt lat="33.86245" lon="77.47341">
        <ele>3897.6</ele>
        <time>2015-09-03T05:36:09Z</time>
      </trkpt>
      <trkpt lat="33.86243" lon="77.47343">
        <ele>3897.6</ele>
        <time>2015-09-03T05:36:11Z</time>
      </trkpt>
      <trkpt lat="33.86241" lon="77.47345">
        <ele>3897.6</ele>
        <time>2015-09-03T05:36:13Z</time>
      </trkpt>
      <trkpt lat="33.86239" lon="77.47347">
        <ele>3897.4</ele>
        <time>2015-09-03T05:36:16Z</time>
      </trkpt>
      <trkpt lat="33.86238" lon="77.47353">
        <ele>3896.6</ele>
        <time>2015-09-03T05:36:26Z</time>
      </trkpt>
      <trkpt lat="33.86236" lon="77.47353">
        <ele>3896.4</ele>
        <time>2015-09-03T05:36:29Z</time>
      </trkpt>
      <trkpt lat="33.86233" lon="77.47358">
        <ele>3895.4</ele>
        <time>2015-09-03T05:36:35Z</time>
      </trkpt>
      <trkpt lat="33.86233" lon="77.47359">
        <ele>3895.2</ele>
        <time>2015-09-03T05:36:36Z</time>
      </trkpt>
      <trkpt lat="33.86232" lon="77.47361">
        <ele>3895</ele>
        <time>2015-09-03T05:36:38Z</time>
      </trkpt>
      <trkpt lat="33.8623" lon="77.47363">
        <ele>3894.6</ele>
        <time>2015-09-03T05:36:41Z</time>
      </trkpt>
      <trkpt lat="33.86229" lon="77.47369">
        <ele>3894.6</ele>
        <time>2015-09-03T05:36:47Z</time>
      </trkpt>
      <trkpt lat="33.86228" lon="77.47373">
        <ele>3894.6</ele>
        <time>2015-09-03T05:36:50Z</time>
      </trkpt>
      <trkpt lat="33.86227" lon="77.47375">
        <ele>3894.6</ele>
        <time>2015-09-03T05:36:52Z</time>
      </trkpt>
      <trkpt lat="33.86225" lon="77.47391">
        <ele>3895.2</ele>
        <time>2015-09-03T05:37:02Z</time>
      </trkpt>
      <trkpt lat="33.86224" lon="77.47407">
        <ele>3895.4</ele>
        <time>2015-09-03T05:37:16Z</time>
      </trkpt>
      <trkpt lat="33.86223" lon="77.4741">
        <ele>3895.6</ele>
        <time>2015-09-03T05:37:18Z</time>
      </trkpt>
      <trkpt lat="33.86219" lon="77.47418">
        <ele>3896</ele>
        <time>2015-09-03T05:37:25Z</time>
      </trkpt>
      <trkpt lat="33.8621" lon="77.4743">
        <ele>3896</ele>
        <time>2015-09-03T05:37:35Z</time>
      </trkpt>
      <trkpt lat="33.86208" lon="77.47433">
        <ele>3896</ele>
        <time>2015-09-03T05:37:38Z</time>
      </trkpt>
      <trkpt lat="33.86204" lon="77.47437">
        <ele>3896.2</ele>
        <time>2015-09-03T05:37:45Z</time>
      </trkpt>
      <trkpt lat="33.86204" lon="77.47437">
        <ele>3896.2</ele>
        <time>2015-09-03T05:37:46Z</time>
      </trkpt>
      <trkpt lat="33.862" lon="77.47446">
        <ele>3896.2</ele>
        <time>2015-09-03T05:37:57Z</time>
      </trkpt>
      <trkpt lat="33.86199" lon="77.47446">
        <ele>3896.2</ele>
        <time>2015-09-03T05:37:58Z</time>
      </trkpt>
      <trkpt lat="33.86199" lon="77.47447">
        <ele>3896.2</ele>
        <time>2015-09-03T05:37:59Z</time>
      </trkpt>
      <trkpt lat="33.86198" lon="77.47453">
        <ele>3896.2</ele>
        <time>2015-09-03T05:38:03Z</time>
      </trkpt>
      <trkpt lat="33.86197" lon="77.47454">
        <ele>3896.2</ele>
        <time>2015-09-03T05:38:05Z</time>
      </trkpt>
      <trkpt lat="33.86194" lon="77.47457">
        <ele>3896.4</ele>
        <time>2015-09-03T05:38:09Z</time>
      </trkpt>
      <trkpt lat="33.86181" lon="77.47469">
        <ele>3896.6</ele>
        <time>2015-09-03T05:38:22Z</time>
      </trkpt>
      <trkpt lat="33.8618" lon="77.47472">
        <ele>3896.6</ele>
        <time>2015-09-03T05:38:25Z</time>
      </trkpt>
      <trkpt lat="33.86168" lon="77.47486">
        <ele>3896.6</ele>
        <time>2015-09-03T05:38:44Z</time>
      </trkpt>
      <trkpt lat="33.86165" lon="77.47492">
        <ele>3896.6</ele>
        <time>2015-09-03T05:38:53Z</time>
      </trkpt>
      <trkpt lat="33.86163" lon="77.47495">
        <ele>3896.8</ele>
        <time>2015-09-03T05:38:55Z</time>
      </trkpt>
      <trkpt lat="33.86155" lon="77.47501">
        <ele>3896.8</ele>
        <time>2015-09-03T05:39:07Z</time>
      </trkpt>
      <trkpt lat="33.86153" lon="77.47504">
        <ele>3896.8</ele>
        <time>2015-09-03T05:39:10Z</time>
      </trkpt>
      <trkpt lat="33.86144" lon="77.47514">
        <ele>3897.4</ele>
        <time>2015-09-03T05:39:19Z</time>
      </trkpt>
      <trkpt lat="33.86128" lon="77.47522">
        <ele>3897</ele>
        <time>2015-09-03T05:39:33Z</time>
      </trkpt>
      <trkpt lat="33.86124" lon="77.47525">
        <ele>3897</ele>
        <time>2015-09-03T05:39:37Z</time>
      </trkpt>
      <trkpt lat="33.86118" lon="77.47528">
        <ele>3898.4</ele>
        <time>2015-09-03T05:39:51Z</time>
      </trkpt>
      <trkpt lat="33.86112" lon="77.47532">
        <ele>3898.2</ele>
        <time>2015-09-03T05:40:00Z</time>
      </trkpt>
      <trkpt lat="33.86105" lon="77.47545">
        <ele>3898.2</ele>
        <time>2015-09-03T05:40:21Z</time>
      </trkpt>
      <trkpt lat="33.86103" lon="77.47549">
        <ele>3898.4</ele>
        <time>2015-09-03T05:40:24Z</time>
      </trkpt>
      <trkpt lat="33.86101" lon="77.47551">
        <ele>3898.4</ele>
        <time>2015-09-03T05:40:27Z</time>
      </trkpt>
      <trkpt lat="33.86091" lon="77.47562">
        <ele>3898.6</ele>
        <time>2015-09-03T05:40:42Z</time>
      </trkpt>
      <trkpt lat="33.86082" lon="77.4758">
        <ele>3899</ele>
        <time>2015-09-03T05:40:55Z</time>
      </trkpt>
      <trkpt lat="33.8608" lon="77.47587">
        <ele>3899</ele>
        <time>2015-09-03T05:40:59Z</time>
      </trkpt>
      <trkpt lat="33.86067" lon="77.47597">
        <ele>3899.4</ele>
        <time>2015-09-03T05:41:19Z</time>
      </trkpt>
      <trkpt lat="33.86064" lon="77.47601">
        <ele>3899.4</ele>
        <time>2015-09-03T05:41:22Z</time>
      </trkpt>
      <trkpt lat="33.86063" lon="77.47604">
        <ele>3899.4</ele>
        <time>2015-09-03T05:41:24Z</time>
      </trkpt>
      <trkpt lat="33.86062" lon="77.47607">
        <ele>3899.4</ele>
        <time>2015-09-03T05:41:25Z</time>
      </trkpt>
      <trkpt lat="33.86059" lon="77.47611">
        <ele>3899.6</ele>
        <time>2015-09-03T05:41:29Z</time>
      </trkpt>
      <trkpt lat="33.86057" lon="77.47614">
        <ele>3899.6</ele>
        <time>2015-09-03T05:41:32Z</time>
      </trkpt>
      <trkpt lat="33.86054" lon="77.47619">
        <ele>3899.8</ele>
        <time>2015-09-03T05:41:37Z</time>
      </trkpt>
      <trkpt lat="33.8605" lon="77.47619">
        <ele>3899.8</ele>
        <time>2015-09-03T05:41:41Z</time>
      </trkpt>
      <trkpt lat="33.86041" lon="77.4763">
        <ele>3899.8</ele>
        <time>2015-09-03T05:41:50Z</time>
      </trkpt>
      <trkpt lat="33.86038" lon="77.47643">
        <ele>3899.8</ele>
        <time>2015-09-03T05:41:57Z</time>
      </trkpt>
      <trkpt lat="33.86035" lon="77.4765">
        <ele>3900</ele>
        <time>2015-09-03T05:42:03Z</time>
      </trkpt>
      <trkpt lat="33.86032" lon="77.4765">
        <ele>3900.2</ele>
        <time>2015-09-03T05:42:07Z</time>
      </trkpt>
      <trkpt lat="33.86029" lon="77.47652">
        <ele>3900.4</ele>
        <time>2015-09-03T05:42:10Z</time>
      </trkpt>
      <trkpt lat="33.86028" lon="77.47652">
        <ele>3900.4</ele>
        <time>2015-09-03T05:42:11Z</time>
      </trkpt>
      <trkpt lat="33.86026" lon="77.47652">
        <ele>3900.4</ele>
        <time>2015-09-03T05:42:13Z</time>
      </trkpt>
      <trkpt lat="33.86018" lon="77.47657">
        <ele>3900.8</ele>
        <time>2015-09-03T05:42:24Z</time>
      </trkpt>
      <trkpt lat="33.86016" lon="77.47667">
        <ele>3900.8</ele>
        <time>2015-09-03T05:42:30Z</time>
      </trkpt>
      <trkpt lat="33.86003" lon="77.47683">
        <ele>3901</ele>
        <time>2015-09-03T05:42:43Z</time>
      </trkpt>
      <trkpt lat="33.85994" lon="77.4769">
        <ele>3901.2</ele>
        <time>2015-09-03T05:42:52Z</time>
      </trkpt>
      <trkpt lat="33.85991" lon="77.47698">
        <ele>3901.4</ele>
        <time>2015-09-03T05:43:00Z</time>
      </trkpt>
      <trkpt lat="33.8599" lon="77.47703">
        <ele>3901.6</ele>
        <time>2015-09-03T05:43:04Z</time>
      </trkpt>
      <trkpt lat="33.85986" lon="77.47708">
        <ele>3901.8</ele>
        <time>2015-09-03T05:43:10Z</time>
      </trkpt>
      <trkpt lat="33.85985" lon="77.47709">
        <ele>3902</ele>
        <time>2015-09-03T05:43:12Z</time>
      </trkpt>
      <trkpt lat="33.85982" lon="77.47719">
        <ele>3901.8</ele>
        <time>2015-09-03T05:43:18Z</time>
      </trkpt>
      <trkpt lat="33.85975" lon="77.47725">
        <ele>3902.2</ele>
        <time>2015-09-03T05:43:28Z</time>
      </trkpt>
      <trkpt lat="33.85973" lon="77.47728">
        <ele>3902.2</ele>
        <time>2015-09-03T05:43:31Z</time>
      </trkpt>
      <trkpt lat="33.85971" lon="77.47731">
        <ele>3902.2</ele>
        <time>2015-09-03T05:43:34Z</time>
      </trkpt>
      <trkpt lat="33.85969" lon="77.47733">
        <ele>3902.2</ele>
        <time>2015-09-03T05:43:36Z</time>
      </trkpt>
      <trkpt lat="33.85964" lon="77.47735">
        <ele>3902.4</ele>
        <time>2015-09-03T05:43:42Z</time>
      </trkpt>
      <trkpt lat="33.85963" lon="77.47738">
        <ele>3902.4</ele>
        <time>2015-09-03T05:43:43Z</time>
      </trkpt>
      <trkpt lat="33.85961" lon="77.47738">
        <ele>3902.6</ele>
        <time>2015-09-03T05:43:46Z</time>
      </trkpt>
      <trkpt lat="33.85958" lon="77.47738">
        <ele>3902.6</ele>
        <time>2015-09-03T05:43:51Z</time>
      </trkpt>
      <trkpt lat="33.85956" lon="77.47745">
        <ele>3902.6</ele>
        <time>2015-09-03T05:43:56Z</time>
      </trkpt>
      <trkpt lat="33.85954" lon="77.47749">
        <ele>3902.6</ele>
        <time>2015-09-03T05:43:59Z</time>
      </trkpt>
      <trkpt lat="33.85948" lon="77.47756">
        <ele>3902.4</ele>
        <time>2015-09-03T05:44:05Z</time>
      </trkpt>
      <trkpt lat="33.85945" lon="77.47757">
        <ele>3902.2</ele>
        <time>2015-09-03T05:44:08Z</time>
      </trkpt>
      <trkpt lat="33.85934" lon="77.4776">
        <ele>3901.8</ele>
        <time>2015-09-03T05:44:18Z</time>
      </trkpt>
      <trkpt lat="33.85931" lon="77.47759">
        <ele>3901.8</ele>
        <time>2015-09-03T05:44:22Z</time>
      </trkpt>
      <trkpt lat="33.85929" lon="77.4776">
        <ele>3901.8</ele>
        <time>2015-09-03T05:44:24Z</time>
      </trkpt>
      <trkpt lat="33.85925" lon="77.47763">
        <ele>3902</ele>
        <time>2015-09-03T05:44:31Z</time>
      </trkpt>
      <trkpt lat="33.85913" lon="77.4776">
        <ele>3902.4</ele>
        <time>2015-09-03T05:44:42Z</time>
      </trkpt>
      <trkpt lat="33.85907" lon="77.47767">
        <ele>3902.6</ele>
        <time>2015-09-03T05:44:50Z</time>
      </trkpt>
      <trkpt lat="33.85905" lon="77.47771">
        <ele>3902.6</ele>
        <time>2015-09-03T05:44:54Z</time>
      </trkpt>
      <trkpt lat="33.85899" lon="77.47788">
        <ele>3902.8</ele>
        <time>2015-09-03T05:45:02Z</time>
      </trkpt>
      <trkpt lat="33.8589" lon="77.47795">
        <ele>3903</ele>
        <time>2015-09-03T05:45:17Z</time>
      </trkpt>
      <trkpt lat="33.85889" lon="77.47796">
        <ele>3903</ele>
        <time>2015-09-03T05:45:19Z</time>
      </trkpt>
      <trkpt lat="33.85887" lon="77.4779">
        <ele>3903.2</ele>
        <time>2015-09-03T05:45:22Z</time>
      </trkpt>
      <trkpt lat="33.85886" lon="77.4779">
        <ele>3903.2</ele>
        <time>2015-09-03T05:45:24Z</time>
      </trkpt>
      <trkpt lat="33.85883" lon="77.47799">
        <ele>3903</ele>
        <time>2015-09-03T05:45:30Z</time>
      </trkpt>
      <trkpt lat="33.85882" lon="77.47801">
        <ele>3903</ele>
        <time>2015-09-03T05:45:32Z</time>
      </trkpt>
      <trkpt lat="33.8588" lon="77.47804">
        <ele>3903.2</ele>
        <time>2015-09-03T05:45:36Z</time>
      </trkpt>
      <trkpt lat="33.85878" lon="77.47809">
        <ele>3903.2</ele>
        <time>2015-09-03T05:45:38Z</time>
      </trkpt>
      <trkpt lat="33.85869" lon="77.47829">
        <ele>3903</ele>
        <time>2015-09-03T05:45:53Z</time>
      </trkpt>
      <trkpt lat="33.85859" lon="77.47841">
        <ele>3903.6</ele>
        <time>2015-09-03T05:46:11Z</time>
      </trkpt>
      <trkpt lat="33.85855" lon="77.47841">
        <ele>3903.6</ele>
        <time>2015-09-03T05:46:13Z</time>
      </trkpt>
      <trkpt lat="33.85858" lon="77.47845">
        <ele>3903.6</ele>
        <time>2015-09-03T05:46:16Z</time>
      </trkpt>
      <trkpt lat="33.85851" lon="77.47849">
        <ele>3903.8</ele>
        <time>2015-09-03T05:46:27Z</time>
      </trkpt>
      <trkpt lat="33.85847" lon="77.47849">
        <ele>3903.6</ele>
        <time>2015-09-03T05:46:31Z</time>
      </trkpt>
      <trkpt lat="33.8584" lon="77.4785">
        <ele>3903.6</ele>
        <time>2015-09-03T05:46:36Z</time>
      </trkpt>
      <trkpt lat="33.85839" lon="77.47851">
        <ele>3903.6</ele>
        <time>2015-09-03T05:46:38Z</time>
      </trkpt>
      <trkpt lat="33.85835" lon="77.47853">
        <ele>3903.8</ele>
        <time>2015-09-03T05:46:42Z</time>
      </trkpt>
      <trkpt lat="33.85818" lon="77.47861">
        <ele>3904.6</ele>
        <time>2015-09-03T05:46:58Z</time>
      </trkpt>
      <trkpt lat="33.85818" lon="77.47862">
        <ele>3904.6</ele>
        <time>2015-09-03T05:46:59Z</time>
      </trkpt>
      <trkpt lat="33.85821" lon="77.47866">
        <ele>3904.6</ele>
        <time>2015-09-03T05:47:02Z</time>
      </trkpt>
      <trkpt lat="33.85823" lon="77.47871">
        <ele>3904.6</ele>
        <time>2015-09-03T05:47:07Z</time>
      </trkpt>
      <trkpt lat="33.85821" lon="77.47874">
        <ele>3904.6</ele>
        <time>2015-09-03T05:47:11Z</time>
      </trkpt>
      <trkpt lat="33.85819" lon="77.47878">
        <ele>3904.8</ele>
        <time>2015-09-03T05:47:13Z</time>
      </trkpt>
      <trkpt lat="33.85818" lon="77.47881">
        <ele>3905</ele>
        <time>2015-09-03T05:47:16Z</time>
      </trkpt>
      <trkpt lat="33.85808" lon="77.47889">
        <ele>3905.2</ele>
        <time>2015-09-03T05:47:23Z</time>
      </trkpt>
      <trkpt lat="33.85803" lon="77.47899">
        <ele>3905.2</ele>
        <time>2015-09-03T05:47:39Z</time>
      </trkpt>
      <trkpt lat="33.85802" lon="77.47903">
        <ele>3905.6</ele>
        <time>2015-09-03T05:47:44Z</time>
      </trkpt>
      <trkpt lat="33.85799" lon="77.47917">
        <ele>3906.6</ele>
        <time>2015-09-03T05:47:52Z</time>
      </trkpt>
      <trkpt lat="33.85798" lon="77.4792">
        <ele>3906.8</ele>
        <time>2015-09-03T05:47:56Z</time>
      </trkpt>
      <trkpt lat="33.85796" lon="77.47922">
        <ele>3907.6</ele>
        <time>2015-09-03T05:48:04Z</time>
      </trkpt>
      <trkpt lat="33.85789" lon="77.4793">
        <ele>3907.8</ele>
        <time>2015-09-03T05:48:16Z</time>
      </trkpt>
      <trkpt lat="33.85793" lon="77.4794">
        <ele>3907.4</ele>
        <time>2015-09-03T05:48:27Z</time>
      </trkpt>
      <trkpt lat="33.85789" lon="77.47943">
        <ele>3907.4</ele>
        <time>2015-09-03T05:48:32Z</time>
      </trkpt>
      <trkpt lat="33.8579" lon="77.47945">
        <ele>3907.6</ele>
        <time>2015-09-03T05:48:34Z</time>
      </trkpt>
      <trkpt lat="33.8579" lon="77.47947">
        <ele>3907.6</ele>
        <time>2015-09-03T05:48:36Z</time>
      </trkpt>
      <trkpt lat="33.85783" lon="77.47952">
        <ele>3907.6</ele>
        <time>2015-09-03T05:48:42Z</time>
      </trkpt>
      <trkpt lat="33.85778" lon="77.47954">
        <ele>3907.6</ele>
        <time>2015-09-03T05:48:47Z</time>
      </trkpt>
      <trkpt lat="33.8577" lon="77.47972">
        <ele>3907.4</ele>
        <time>2015-09-03T05:49:02Z</time>
      </trkpt>
      <trkpt lat="33.85769" lon="77.47982">
        <ele>3907.4</ele>
        <time>2015-09-03T05:49:07Z</time>
      </trkpt>
      <trkpt lat="33.85759" lon="77.47989">
        <ele>3907.4</ele>
        <time>2015-09-03T05:49:16Z</time>
      </trkpt>
      <trkpt lat="33.85754" lon="77.47992">
        <ele>3907.8</ele>
        <time>2015-09-03T05:49:26Z</time>
      </trkpt>
      <trkpt lat="33.85743" lon="77.48007">
        <ele>3908</ele>
        <time>2015-09-03T05:49:44Z</time>
      </trkpt>
      <trkpt lat="33.85743" lon="77.48008">
        <ele>3908</ele>
        <time>2015-09-03T05:49:46Z</time>
      </trkpt>
      <trkpt lat="33.85742" lon="77.48013">
        <ele>3908.2</ele>
        <time>2015-09-03T05:49:49Z</time>
      </trkpt>
      <trkpt lat="33.85739" lon="77.48016">
        <ele>3908</ele>
        <time>2015-09-03T05:49:53Z</time>
      </trkpt>
      <trkpt lat="33.85736" lon="77.48016">
        <ele>3908</ele>
        <time>2015-09-03T05:49:56Z</time>
      </trkpt>
      <trkpt lat="33.85727" lon="77.4802">
        <ele>3908.2</ele>
        <time>2015-09-03T05:50:06Z</time>
      </trkpt>
      <trkpt lat="33.85713" lon="77.48036">
        <ele>3908.6</ele>
        <time>2015-09-03T05:50:19Z</time>
      </trkpt>
      <trkpt lat="33.85712" lon="77.48038">
        <ele>3908.6</ele>
        <time>2015-09-03T05:50:20Z</time>
      </trkpt>
      <trkpt lat="33.85705" lon="77.48058">
        <ele>3909.2</ele>
        <time>2015-09-03T05:50:39Z</time>
      </trkpt>
      <trkpt lat="33.85705" lon="77.48058">
        <ele>3909.4</ele>
        <time>2015-09-03T05:50:40Z</time>
      </trkpt>
      <trkpt lat="33.85703" lon="77.4806">
        <ele>3909.8</ele>
        <time>2015-09-03T05:50:43Z</time>
      </trkpt>
      <trkpt lat="33.85693" lon="77.4807">
        <ele>3910.6</ele>
        <time>2015-09-03T05:50:55Z</time>
      </trkpt>
      <trkpt lat="33.85692" lon="77.48071">
        <ele>3910.8</ele>
        <time>2015-09-03T05:50:57Z</time>
      </trkpt>
      <trkpt lat="33.85689" lon="77.48073">
        <ele>3910.6</ele>
        <time>2015-09-03T05:51:02Z</time>
      </trkpt>
      <trkpt lat="33.85687" lon="77.48074">
        <ele>3910.6</ele>
        <time>2015-09-03T05:51:05Z</time>
      </trkpt>
      <trkpt lat="33.85684" lon="77.48076">
        <ele>3910.6</ele>
        <time>2015-09-03T05:51:09Z</time>
      </trkpt>
      <trkpt lat="33.85683" lon="77.48075">
        <ele>3910.6</ele>
        <time>2015-09-03T05:51:11Z</time>
      </trkpt>
      <trkpt lat="33.8568" lon="77.48075">
        <ele>3910.2</ele>
        <time>2015-09-03T05:51:15Z</time>
      </trkpt>
      <trkpt lat="33.85679" lon="77.48082">
        <ele>3910</ele>
        <time>2015-09-03T05:51:20Z</time>
      </trkpt>
      <trkpt lat="33.85671" lon="77.4809">
        <ele>3909.8</ele>
        <time>2015-09-03T05:51:31Z</time>
      </trkpt>
      <trkpt lat="33.8567" lon="77.48092">
        <ele>3909.8</ele>
        <time>2015-09-03T05:51:33Z</time>
      </trkpt>
      <trkpt lat="33.85669" lon="77.48093">
        <ele>3909.8</ele>
        <time>2015-09-03T05:51:35Z</time>
      </trkpt>
      <trkpt lat="33.85664" lon="77.48106">
        <ele>3909.6</ele>
        <time>2015-09-03T05:51:41Z</time>
      </trkpt>
      <trkpt lat="33.85661" lon="77.48109">
        <ele>3909.6</ele>
        <time>2015-09-03T05:51:44Z</time>
      </trkpt>
      <trkpt lat="33.85654" lon="77.48114">
        <ele>3910</ele>
        <time>2015-09-03T05:51:54Z</time>
      </trkpt>
      <trkpt lat="33.85652" lon="77.48117">
        <ele>3910</ele>
        <time>2015-09-03T05:51:57Z</time>
      </trkpt>
      <trkpt lat="33.8565" lon="77.48117">
        <ele>3910</ele>
        <time>2015-09-03T05:51:59Z</time>
      </trkpt>
      <trkpt lat="33.85647" lon="77.4812">
        <ele>3910.2</ele>
        <time>2015-09-03T05:52:02Z</time>
      </trkpt>
      <trkpt lat="33.85637" lon="77.48133">
        <ele>3910.6</ele>
        <time>2015-09-03T05:52:16Z</time>
      </trkpt>
      <trkpt lat="33.85628" lon="77.48141">
        <ele>3910.8</ele>
        <time>2015-09-03T05:52:26Z</time>
      </trkpt>
      <trkpt lat="33.85612" lon="77.48151">
        <ele>3911.2</ele>
        <time>2015-09-03T05:52:42Z</time>
      </trkpt>
      <trkpt lat="33.85602" lon="77.48167">
        <ele>3911.8</ele>
        <time>2015-09-03T05:53:00Z</time>
      </trkpt>
      <trkpt lat="33.85596" lon="77.48176">
        <ele>3912.2</ele>
        <time>2015-09-03T05:53:07Z</time>
      </trkpt>
      <trkpt lat="33.85587" lon="77.48179">
        <ele>3912.4</ele>
        <time>2015-09-03T05:53:19Z</time>
      </trkpt>
      <trkpt lat="33.85584" lon="77.48181">
        <ele>3912.4</ele>
        <time>2015-09-03T05:53:23Z</time>
      </trkpt>
      <trkpt lat="33.85578" lon="77.48185">
        <ele>3912.8</ele>
        <time>2015-09-03T05:53:33Z</time>
      </trkpt>
      <trkpt lat="33.85569" lon="77.48199">
        <ele>3913.2</ele>
        <time>2015-09-03T05:53:45Z</time>
      </trkpt>
      <trkpt lat="33.85563" lon="77.48203">
        <ele>3914</ele>
        <time>2015-09-03T05:53:50Z</time>
      </trkpt>
      <trkpt lat="33.85538" lon="77.48213">
        <ele>3913.8</ele>
        <time>2015-09-03T05:54:25Z</time>
      </trkpt>
      <trkpt lat="33.85524" lon="77.48224">
        <ele>3914.4</ele>
        <time>2015-09-03T05:54:49Z</time>
      </trkpt>
      <trkpt lat="33.85522" lon="77.48226">
        <ele>3914.6</ele>
        <time>2015-09-03T05:54:50Z</time>
      </trkpt>
      <trkpt lat="33.85521" lon="77.48231">
        <ele>3914.6</ele>
        <time>2015-09-03T05:54:53Z</time>
      </trkpt>
      <trkpt lat="33.85526" lon="77.48251">
        <ele>3914.4</ele>
        <time>2015-09-03T05:55:04Z</time>
      </trkpt>
      <trkpt lat="33.85544" lon="77.48263">
        <ele>3914.6</ele>
        <time>2015-09-03T05:55:10Z</time>
      </trkpt>
      <trkpt lat="33.85556" lon="77.48281">
        <ele>3915</ele>
        <time>2015-09-03T05:55:17Z</time>
      </trkpt>
      <trkpt lat="33.85552" lon="77.48284">
        <ele>3915</ele>
        <time>2015-09-03T05:55:22Z</time>
      </trkpt>
      <trkpt lat="33.85546" lon="77.48285">
        <ele>3915.2</ele>
        <time>2015-09-03T05:55:24Z</time>
      </trkpt>
      <trkpt lat="33.85518" lon="77.48277">
        <ele>3915.2</ele>
        <time>2015-09-03T05:55:26Z</time>
      </trkpt>
      <trkpt lat="33.85494" lon="77.48271">
        <ele>3915.2</ele>
        <time>2015-09-03T05:55:28Z</time>
      </trkpt>
      <trkpt lat="33.85473" lon="77.48265">
        <ele>3915.2</ele>
        <time>2015-09-03T05:55:31Z</time>
      </trkpt>
      <trkpt lat="33.85454" lon="77.48261">
        <ele>3915.2</ele>
        <time>2015-09-03T05:55:34Z</time>
      </trkpt>
      <trkpt lat="33.85436" lon="77.48269">
        <ele>3915</ele>
        <time>2015-09-03T05:55:46Z</time>
      </trkpt>
      <trkpt lat="33.85422" lon="77.48256">
        <ele>3922.2</ele>
        <time>2015-09-03T05:59:28Z</time>
      </trkpt>
      <trkpt lat="33.85419" lon="77.48253">
        <ele>3923.4</ele>
        <time>2015-09-03T05:59:49Z</time>
      </trkpt>
      <trkpt lat="33.85412" lon="77.48252">
        <ele>3924.4</ele>
        <time>2015-09-03T05:59:59Z</time>
      </trkpt>
      <trkpt lat="33.85389" lon="77.48267">
        <ele>3924.8</ele>
        <time>2015-09-03T06:00:06Z</time>
      </trkpt>
      <trkpt lat="33.85369" lon="77.48284">
        <ele>3925</ele>
        <time>2015-09-03T06:00:08Z</time>
      </trkpt>
      <trkpt lat="33.85343" lon="77.48303">
        <ele>3925</ele>
        <time>2015-09-03T06:00:10Z</time>
      </trkpt>
      <trkpt lat="33.85336" lon="77.48306">
        <ele>3925</ele>
        <time>2015-09-03T06:00:11Z</time>
      </trkpt>
      <trkpt lat="33.85315" lon="77.48316">
        <ele>3925.4</ele>
        <time>2015-09-03T06:00:17Z</time>
      </trkpt>
      <trkpt lat="33.85313" lon="77.48322">
        <ele>3925.4</ele>
        <time>2015-09-03T06:00:18Z</time>
      </trkpt>
      <trkpt lat="33.85294" lon="77.48322">
        <ele>3925.4</ele>
        <time>2015-09-03T06:00:23Z</time>
      </trkpt>
      <trkpt lat="33.85273" lon="77.48323">
        <ele>3925.6</ele>
        <time>2015-09-03T06:00:30Z</time>
      </trkpt>
      <trkpt lat="33.85255" lon="77.4832">
        <ele>3925.8</ele>
        <time>2015-09-03T06:00:35Z</time>
      </trkpt>
      <trkpt lat="33.85236" lon="77.48322">
        <ele>3925.6</ele>
        <time>2015-09-03T06:00:43Z</time>
      </trkpt>
      <trkpt lat="33.85219" lon="77.48329">
        <ele>3926.4</ele>
        <time>2015-09-03T06:00:56Z</time>
      </trkpt>
      <trkpt lat="33.85217" lon="77.48328">
        <ele>3926.4</ele>
        <time>2015-09-03T06:00:57Z</time>
      </trkpt>
      <trkpt lat="33.85205" lon="77.48329">
        <ele>3927.6</ele>
        <time>2015-09-03T06:01:05Z</time>
      </trkpt>
      <trkpt lat="33.85199" lon="77.48326">
        <ele>3928.8</ele>
        <time>2015-09-03T06:01:18Z</time>
      </trkpt>
      <trkpt lat="33.85196" lon="77.48343">
        <ele>3929.8</ele>
        <time>2015-09-03T06:01:32Z</time>
      </trkpt>
      <trkpt lat="33.85195" lon="77.48354">
        <ele>3930.8</ele>
        <time>2015-09-03T06:01:43Z</time>
      </trkpt>
      <trkpt lat="33.85195" lon="77.48355">
        <ele>3930.8</ele>
        <time>2015-09-03T06:01:44Z</time>
      </trkpt>
      <trkpt lat="33.85191" lon="77.48361">
        <ele>3930.8</ele>
        <time>2015-09-03T06:01:49Z</time>
      </trkpt>
      <trkpt lat="33.85177" lon="77.48365">
        <ele>3931.8</ele>
        <time>2015-09-03T06:02:12Z</time>
      </trkpt>
      <trkpt lat="33.85168" lon="77.4837">
        <ele>3932.4</ele>
        <time>2015-09-03T06:02:22Z</time>
      </trkpt>
      <trkpt lat="33.85164" lon="77.4837">
        <ele>3932.4</ele>
        <time>2015-09-03T06:02:27Z</time>
      </trkpt>
      <trkpt lat="33.8516" lon="77.48372">
        <ele>3932.8</ele>
        <time>2015-09-03T06:02:36Z</time>
      </trkpt>
      <trkpt lat="33.85152" lon="77.4839">
        <ele>3933.2</ele>
        <time>2015-09-03T06:02:51Z</time>
      </trkpt>
      <trkpt lat="33.85146" lon="77.48395">
        <ele>3933.6</ele>
        <time>2015-09-03T06:03:00Z</time>
      </trkpt>
      <trkpt lat="33.85145" lon="77.48396">
        <ele>3933.8</ele>
        <time>2015-09-03T06:03:02Z</time>
      </trkpt>
      <trkpt lat="33.85143" lon="77.48403">
        <ele>3935</ele>
        <time>2015-09-03T06:03:09Z</time>
      </trkpt>
      <trkpt lat="33.85137" lon="77.48402">
        <ele>3935.6</ele>
        <time>2015-09-03T06:03:16Z</time>
      </trkpt>
      <trkpt lat="33.85135" lon="77.48402">
        <ele>3936</ele>
        <time>2015-09-03T06:03:19Z</time>
      </trkpt>
      <trkpt lat="33.85134" lon="77.48402">
        <ele>3936</ele>
        <time>2015-09-03T06:03:20Z</time>
      </trkpt>
      <trkpt lat="33.85125" lon="77.4841">
        <ele>3937</ele>
        <time>2015-09-03T06:03:33Z</time>
      </trkpt>
      <trkpt lat="33.85119" lon="77.48414">
        <ele>3937</ele>
        <time>2015-09-03T06:03:37Z</time>
      </trkpt>
      <trkpt lat="33.85108" lon="77.4842">
        <ele>3937.8</ele>
        <time>2015-09-03T06:03:44Z</time>
      </trkpt>
      <trkpt lat="33.85085" lon="77.48435">
        <ele>3938</ele>
        <time>2015-09-03T06:03:52Z</time>
      </trkpt>
      <trkpt lat="33.85065" lon="77.4844">
        <ele>3939</ele>
        <time>2015-09-03T06:04:06Z</time>
      </trkpt>
      <trkpt lat="33.85108" lon="77.48429">
        <ele>3939.4</ele>
        <time>2015-09-03T06:04:16Z</time>
      </trkpt>
      <trkpt lat="33.85106" lon="77.48431">
        <ele>3939.4</ele>
        <time>2015-09-03T06:04:17Z</time>
      </trkpt>
      <trkpt lat="33.85106" lon="77.48432">
        <ele>3939.4</ele>
        <time>2015-09-03T06:04:19Z</time>
      </trkpt>
      <trkpt lat="33.85106" lon="77.48437">
        <ele>3939.4</ele>
        <time>2015-09-03T06:04:25Z</time>
      </trkpt>
      <trkpt lat="33.85092" lon="77.48437">
        <ele>3940.2</ele>
        <time>2015-09-03T06:04:34Z</time>
      </trkpt>
      <trkpt lat="33.85093" lon="77.48442">
        <ele>3940.2</ele>
        <time>2015-09-03T06:04:46Z</time>
      </trkpt>
      <trkpt lat="33.85092" lon="77.48451">
        <ele>3940.2</ele>
        <time>2015-09-03T06:04:59Z</time>
      </trkpt>
      <trkpt lat="33.85088" lon="77.48461">
        <ele>3940.6</ele>
        <time>2015-09-03T06:05:09Z</time>
      </trkpt>
      <trkpt lat="33.85084" lon="77.48469">
        <ele>3940.8</ele>
        <time>2015-09-03T06:05:23Z</time>
      </trkpt>
      <trkpt lat="33.85083" lon="77.48469">
        <ele>3941.2</ele>
        <time>2015-09-03T06:05:29Z</time>
      </trkpt>
      <trkpt lat="33.85084" lon="77.4847">
        <ele>3942.2</ele>
        <time>2015-09-03T06:05:34Z</time>
      </trkpt>
      <trkpt lat="33.8508" lon="77.48466">
        <ele>3941.8</ele>
        <time>2015-09-03T06:05:39Z</time>
      </trkpt>
      <trkpt lat="33.85078" lon="77.48464">
        <ele>3941.6</ele>
        <time>2015-09-03T06:05:42Z</time>
      </trkpt>
      <trkpt lat="33.85065" lon="77.48473">
        <ele>3943</ele>
        <time>2015-09-03T06:06:09Z</time>
      </trkpt>
      <trkpt lat="33.85064" lon="77.48474">
        <ele>3943.2</ele>
        <time>2015-09-03T06:06:12Z</time>
      </trkpt>
      <trkpt lat="33.85064" lon="77.48474">
        <ele>3943.4</ele>
        <time>2015-09-03T06:06:13Z</time>
      </trkpt>
      <trkpt lat="33.85061" lon="77.48478">
        <ele>3944</ele>
        <time>2015-09-03T06:06:17Z</time>
      </trkpt>
      <trkpt lat="33.8506" lon="77.48479">
        <ele>3944</ele>
        <time>2015-09-03T06:06:19Z</time>
      </trkpt>
      <trkpt lat="33.85057" lon="77.48481">
        <ele>3944</ele>
        <time>2015-09-03T06:06:30Z</time>
      </trkpt>
      <trkpt lat="33.8504" lon="77.48491">
        <ele>3943.6</ele>
        <time>2015-09-03T06:06:50Z</time>
      </trkpt>
      <trkpt lat="33.85023" lon="77.48498">
        <ele>3944.2</ele>
        <time>2015-09-03T06:07:09Z</time>
      </trkpt>
      <trkpt lat="33.85015" lon="77.48511">
        <ele>3943.8</ele>
        <time>2015-09-03T06:07:46Z</time>
      </trkpt>
      <trkpt lat="33.8502" lon="77.48512">
        <ele>3943.6</ele>
        <time>2015-09-03T06:08:33Z</time>
      </trkpt>
      <trkpt lat="33.85007" lon="77.48507">
        <ele>3943.4</ele>
        <time>2015-09-03T06:08:44Z</time>
      </trkpt>
      <trkpt lat="33.85007" lon="77.48513">
        <ele>3943.4</ele>
        <time>2015-09-03T06:08:48Z</time>
      </trkpt>
      <trkpt lat="33.85016" lon="77.48513">
        <ele>3943.2</ele>
        <time>2015-09-03T06:09:00Z</time>
      </trkpt>
      <trkpt lat="33.85017" lon="77.48513">
        <ele>3943.4</ele>
        <time>2015-09-03T06:09:03Z</time>
      </trkpt>
      <trkpt lat="33.85009" lon="77.48513">
        <ele>3944.2</ele>
        <time>2015-09-03T06:09:30Z</time>
      </trkpt>
      <trkpt lat="33.85006" lon="77.48521">
        <ele>3942.8</ele>
        <time>2015-09-03T06:10:44Z</time>
      </trkpt>
      <trkpt lat="33.85004" lon="77.48525">
        <ele>3942.4</ele>
        <time>2015-09-03T06:10:46Z</time>
      </trkpt>
      <trkpt lat="33.84998" lon="77.48533">
        <ele>3942.4</ele>
        <time>2015-09-03T06:10:55Z</time>
      </trkpt>
      <trkpt lat="33.84993" lon="77.4854">
        <ele>3941.6</ele>
        <time>2015-09-03T06:11:02Z</time>
      </trkpt>
      <trkpt lat="33.84993" lon="77.48542">
        <ele>3941.6</ele>
        <time>2015-09-03T06:11:04Z</time>
      </trkpt>
      <trkpt lat="33.84993" lon="77.48545">
        <ele>3941.8</ele>
        <time>2015-09-03T06:11:06Z</time>
      </trkpt>
      <trkpt lat="33.84994" lon="77.48552">
        <ele>3941.2</ele>
        <time>2015-09-03T06:11:13Z</time>
      </trkpt>
      <trkpt lat="33.84995" lon="77.48553">
        <ele>3941.2</ele>
        <time>2015-09-03T06:11:14Z</time>
      </trkpt>
      <trkpt lat="33.84991" lon="77.48555">
        <ele>3940.6</ele>
        <time>2015-09-03T06:12:11Z</time>
      </trkpt>
      <trkpt lat="33.84993" lon="77.48557">
        <ele>3940.2</ele>
        <time>2015-09-03T06:12:15Z</time>
      </trkpt>
      <trkpt lat="33.84985" lon="77.48573">
        <ele>3939.2</ele>
        <time>2015-09-03T06:12:32Z</time>
      </trkpt>
      <trkpt lat="33.84985" lon="77.48574">
        <ele>3939</ele>
        <time>2015-09-03T06:12:33Z</time>
      </trkpt>
      <trkpt lat="33.84984" lon="77.48586">
        <ele>3938</ele>
        <time>2015-09-03T06:12:42Z</time>
      </trkpt>
      <trkpt lat="33.84985" lon="77.48592">
        <ele>3936.8</ele>
        <time>2015-09-03T06:12:46Z</time>
      </trkpt>
      <trkpt lat="33.84984" lon="77.486">
        <ele>3936</ele>
        <time>2015-09-03T06:12:52Z</time>
      </trkpt>
      <trkpt lat="33.84982" lon="77.48605">
        <ele>3935.8</ele>
        <time>2015-09-03T06:12:56Z</time>
      </trkpt>
      <trkpt lat="33.84978" lon="77.48627">
        <ele>3935.6</ele>
        <time>2015-09-03T06:13:12Z</time>
      </trkpt>
      <trkpt lat="33.84974" lon="77.48645">
        <ele>3935.6</ele>
        <time>2015-09-03T06:13:26Z</time>
      </trkpt>
      <trkpt lat="33.84971" lon="77.48651">
        <ele>3936</ele>
        <time>2015-09-03T06:13:32Z</time>
      </trkpt>
      <trkpt lat="33.8497" lon="77.48652">
        <ele>3936.2</ele>
        <time>2015-09-03T06:13:34Z</time>
      </trkpt>
      <trkpt lat="33.84969" lon="77.48657">
        <ele>3936.2</ele>
        <time>2015-09-03T06:13:39Z</time>
      </trkpt>
      <trkpt lat="33.84966" lon="77.48657">
        <ele>3937</ele>
        <time>2015-09-03T06:13:47Z</time>
      </trkpt>
      <trkpt lat="33.84973" lon="77.48659">
        <ele>3936.8</ele>
        <time>2015-09-03T06:14:34Z</time>
      </trkpt>
      <trkpt lat="33.84968" lon="77.48659">
        <ele>3937</ele>
        <time>2015-09-03T06:15:14Z</time>
      </trkpt>
      <trkpt lat="33.84965" lon="77.4866">
        <ele>3937</ele>
        <time>2015-09-03T06:15:23Z</time>
      </trkpt>
      <trkpt lat="33.84963" lon="77.48663">
        <ele>3937</ele>
        <time>2015-09-03T06:15:26Z</time>
      </trkpt>
      <trkpt lat="33.8496" lon="77.48667">
        <ele>3937</ele>
        <time>2015-09-03T06:15:30Z</time>
      </trkpt>
      <trkpt lat="33.8496" lon="77.4867">
        <ele>3937</ele>
        <time>2015-09-03T06:15:32Z</time>
      </trkpt>
      <trkpt lat="33.84956" lon="77.48676">
        <ele>3936.8</ele>
        <time>2015-09-03T06:15:38Z</time>
      </trkpt>
      <trkpt lat="33.84951" lon="77.48687">
        <ele>3937.4</ele>
        <time>2015-09-03T06:15:45Z</time>
      </trkpt>
      <trkpt lat="33.84948" lon="77.48696">
        <ele>3937.2</ele>
        <time>2015-09-03T06:15:51Z</time>
      </trkpt>
      <trkpt lat="33.84942" lon="77.48707">
        <ele>3937.2</ele>
        <time>2015-09-03T06:16:01Z</time>
      </trkpt>
      <trkpt lat="33.84935" lon="77.48721">
        <ele>3937</ele>
        <time>2015-09-03T06:16:17Z</time>
      </trkpt>
      <trkpt lat="33.84937" lon="77.48723">
        <ele>3937.2</ele>
        <time>2015-09-03T06:16:20Z</time>
      </trkpt>
      <trkpt lat="33.84929" lon="77.48739">
        <ele>3938</ele>
        <time>2015-09-03T06:16:30Z</time>
      </trkpt>
      <trkpt lat="33.84922" lon="77.48751">
        <ele>3938.2</ele>
        <time>2015-09-03T06:16:40Z</time>
      </trkpt>
      <trkpt lat="33.84914" lon="77.4877">
        <ele>3938.6</ele>
        <time>2015-09-03T06:16:55Z</time>
      </trkpt>
      <trkpt lat="33.84913" lon="77.48772">
        <ele>3938.8</ele>
        <time>2015-09-03T06:16:57Z</time>
      </trkpt>
      <trkpt lat="33.84911" lon="77.48772">
        <ele>3939</ele>
        <time>2015-09-03T06:16:59Z</time>
      </trkpt>
      <trkpt lat="33.84908" lon="77.48773">
        <ele>3939.2</ele>
        <time>2015-09-03T06:17:01Z</time>
      </trkpt>
      <trkpt lat="33.84897" lon="77.48789">
        <ele>3939.4</ele>
        <time>2015-09-03T06:17:16Z</time>
      </trkpt>
      <trkpt lat="33.84885" lon="77.48807">
        <ele>3939.4</ele>
        <time>2015-09-03T06:17:31Z</time>
      </trkpt>
      <trkpt lat="33.84878" lon="77.4882">
        <ele>3940.2</ele>
        <time>2015-09-03T06:17:45Z</time>
      </trkpt>
      <trkpt lat="33.84875" lon="77.48821">
        <ele>3940.4</ele>
        <time>2015-09-03T06:17:48Z</time>
      </trkpt>
      <trkpt lat="33.84873" lon="77.48827">
        <ele>3940.8</ele>
        <time>2015-09-03T06:17:55Z</time>
      </trkpt>
      <trkpt lat="33.84867" lon="77.48831">
        <ele>3941.2</ele>
        <time>2015-09-03T06:18:01Z</time>
      </trkpt>
      <trkpt lat="33.84864" lon="77.48833">
        <ele>3941.4</ele>
        <time>2015-09-03T06:18:04Z</time>
      </trkpt>
      <trkpt lat="33.84855" lon="77.4885">
        <ele>3941.6</ele>
        <time>2015-09-03T06:18:17Z</time>
      </trkpt>
      <trkpt lat="33.84854" lon="77.48852">
        <ele>3941.6</ele>
        <time>2015-09-03T06:18:20Z</time>
      </trkpt>
      <trkpt lat="33.84854" lon="77.48855">
        <ele>3941.6</ele>
        <time>2015-09-03T06:18:22Z</time>
      </trkpt>
      <trkpt lat="33.84852" lon="77.48857">
        <ele>3941.8</ele>
        <time>2015-09-03T06:18:25Z</time>
      </trkpt>
      <trkpt lat="33.8485" lon="77.48859">
        <ele>3941.8</ele>
        <time>2015-09-03T06:18:27Z</time>
      </trkpt>
      <trkpt lat="33.84849" lon="77.48859">
        <ele>3941.8</ele>
        <time>2015-09-03T06:18:29Z</time>
      </trkpt>
      <trkpt lat="33.84847" lon="77.48866">
        <ele>3941.2</ele>
        <time>2015-09-03T06:18:35Z</time>
      </trkpt>
      <trkpt lat="33.84842" lon="77.48872">
        <ele>3941.8</ele>
        <time>2015-09-03T06:18:42Z</time>
      </trkpt>
      <trkpt lat="33.84839" lon="77.48875">
        <ele>3941.8</ele>
        <time>2015-09-03T06:18:47Z</time>
      </trkpt>
      <trkpt lat="33.84838" lon="77.48877">
        <ele>3942</ele>
        <time>2015-09-03T06:18:49Z</time>
      </trkpt>
      <trkpt lat="33.84832" lon="77.48879">
        <ele>3942</ele>
        <time>2015-09-03T06:18:54Z</time>
      </trkpt>
      <trkpt lat="33.84827" lon="77.48886">
        <ele>3942.2</ele>
        <time>2015-09-03T06:19:00Z</time>
      </trkpt>
      <trkpt lat="33.84817" lon="77.48899">
        <ele>3942.4</ele>
        <time>2015-09-03T06:19:14Z</time>
      </trkpt>
      <trkpt lat="33.84808" lon="77.48908">
        <ele>3942.6</ele>
        <time>2015-09-03T06:19:24Z</time>
      </trkpt>
      <trkpt lat="33.84807" lon="77.48909">
        <ele>3942.8</ele>
        <time>2015-09-03T06:19:26Z</time>
      </trkpt>
      <trkpt lat="33.84798" lon="77.48923">
        <ele>3943.4</ele>
        <time>2015-09-03T06:19:40Z</time>
      </trkpt>
      <trkpt lat="33.84795" lon="77.48927">
        <ele>3943.2</ele>
        <time>2015-09-03T06:19:45Z</time>
      </trkpt>
      <trkpt lat="33.84791" lon="77.48934">
        <ele>3943.6</ele>
        <time>2015-09-03T06:19:51Z</time>
      </trkpt>
      <trkpt lat="33.84784" lon="77.48944">
        <ele>3944</ele>
        <time>2015-09-03T06:20:03Z</time>
      </trkpt>
      <trkpt lat="33.8478" lon="77.48949">
        <ele>3944.4</ele>
        <time>2015-09-03T06:20:08Z</time>
      </trkpt>
      <trkpt lat="33.84778" lon="77.48951">
        <ele>3944.6</ele>
        <time>2015-09-03T06:20:11Z</time>
      </trkpt>
      <trkpt lat="33.84772" lon="77.4896">
        <ele>3945.4</ele>
        <time>2015-09-03T06:20:22Z</time>
      </trkpt>
      <trkpt lat="33.84771" lon="77.48972">
        <ele>3946.6</ele>
        <time>2015-09-03T06:20:34Z</time>
      </trkpt>
      <trkpt lat="33.84768" lon="77.48976">
        <ele>3947</ele>
        <time>2015-09-03T06:20:39Z</time>
      </trkpt>
      <trkpt lat="33.84768" lon="77.48979">
        <ele>3947.2</ele>
        <time>2015-09-03T06:20:42Z</time>
      </trkpt>
      <trkpt lat="33.84767" lon="77.48981">
        <ele>3947.4</ele>
        <time>2015-09-03T06:20:44Z</time>
      </trkpt>
      <trkpt lat="33.84767" lon="77.48982">
        <ele>3947.6</ele>
        <time>2015-09-03T06:20:45Z</time>
      </trkpt>
      <trkpt lat="33.84764" lon="77.48997">
        <ele>3947.2</ele>
        <time>2015-09-03T06:20:58Z</time>
      </trkpt>
      <trkpt lat="33.84763" lon="77.49002">
        <ele>3946.4</ele>
        <time>2015-09-03T06:21:02Z</time>
      </trkpt>
      <trkpt lat="33.84758" lon="77.49007">
        <ele>3945.4</ele>
        <time>2015-09-03T06:21:10Z</time>
      </trkpt>
      <trkpt lat="33.84757" lon="77.4901">
        <ele>3945.2</ele>
        <time>2015-09-03T06:21:12Z</time>
      </trkpt>
      <trkpt lat="33.84754" lon="77.49016">
        <ele>3945.4</ele>
        <time>2015-09-03T06:21:17Z</time>
      </trkpt>
      <trkpt lat="33.84748" lon="77.49024">
        <ele>3945.6</ele>
        <time>2015-09-03T06:21:25Z</time>
      </trkpt>
      <trkpt lat="33.84742" lon="77.49043">
        <ele>3946.2</ele>
        <time>2015-09-03T06:21:39Z</time>
      </trkpt>
      <trkpt lat="33.84738" lon="77.49057">
        <ele>3946</ele>
        <time>2015-09-03T06:21:51Z</time>
      </trkpt>
      <trkpt lat="33.84734" lon="77.49057">
        <ele>3946.2</ele>
        <time>2015-09-03T06:21:54Z</time>
      </trkpt>
      <trkpt lat="33.84733" lon="77.49059">
        <ele>3946.2</ele>
        <time>2015-09-03T06:21:56Z</time>
      </trkpt>
      <trkpt lat="33.84732" lon="77.49064">
        <ele>3946.4</ele>
        <time>2015-09-03T06:21:59Z</time>
      </trkpt>
      <trkpt lat="33.84725" lon="77.49067">
        <ele>3946</ele>
        <time>2015-09-03T06:22:05Z</time>
      </trkpt>
      <trkpt lat="33.84719" lon="77.49078">
        <ele>3946.6</ele>
        <time>2015-09-03T06:22:16Z</time>
      </trkpt>
      <trkpt lat="33.84719" lon="77.49082">
        <ele>3946.8</ele>
        <time>2015-09-03T06:22:20Z</time>
      </trkpt>
      <trkpt lat="33.84711" lon="77.49103">
        <ele>3947</ele>
        <time>2015-09-03T06:22:40Z</time>
      </trkpt>
      <trkpt lat="33.84705" lon="77.49106">
        <ele>3947</ele>
        <time>2015-09-03T06:22:45Z</time>
      </trkpt>
      <trkpt lat="33.84695" lon="77.49113">
        <ele>3947.4</ele>
        <time>2015-09-03T06:22:55Z</time>
      </trkpt>
      <trkpt lat="33.84695" lon="77.49124">
        <ele>3947.8</ele>
        <time>2015-09-03T06:23:02Z</time>
      </trkpt>
      <trkpt lat="33.84696" lon="77.49127">
        <ele>3947.8</ele>
        <time>2015-09-03T06:23:05Z</time>
      </trkpt>
      <trkpt lat="33.84697" lon="77.49132">
        <ele>3948.6</ele>
        <time>2015-09-03T06:23:09Z</time>
      </trkpt>
      <trkpt lat="33.84698" lon="77.49138">
        <ele>3949.8</ele>
        <time>2015-09-03T06:23:14Z</time>
      </trkpt>
      <trkpt lat="33.84692" lon="77.49147">
        <ele>3950.8</ele>
        <time>2015-09-03T06:23:26Z</time>
      </trkpt>
      <trkpt lat="33.8469" lon="77.49154">
        <ele>3951.8</ele>
        <time>2015-09-03T06:23:37Z</time>
      </trkpt>
      <trkpt lat="33.84686" lon="77.49162">
        <ele>3953</ele>
        <time>2015-09-03T06:23:48Z</time>
      </trkpt>
      <trkpt lat="33.84681" lon="77.49167">
        <ele>3951.8</ele>
        <time>2015-09-03T06:23:55Z</time>
      </trkpt>
      <trkpt lat="33.84678" lon="77.49167">
        <ele>3951.6</ele>
        <time>2015-09-03T06:23:58Z</time>
      </trkpt>
      <trkpt lat="33.84676" lon="77.49169">
        <ele>3950.6</ele>
        <time>2015-09-03T06:24:02Z</time>
      </trkpt>
      <trkpt lat="33.84665" lon="77.49176">
        <ele>3949.6</ele>
        <time>2015-09-03T06:24:23Z</time>
      </trkpt>
      <trkpt lat="33.84664" lon="77.49177">
        <ele>3949.2</ele>
        <time>2015-09-03T06:24:24Z</time>
      </trkpt>
      <trkpt lat="33.84663" lon="77.4919">
        <ele>3950.6</ele>
        <time>2015-09-03T06:24:42Z</time>
      </trkpt>
      <trkpt lat="33.84666" lon="77.49205">
        <ele>3951.8</ele>
        <time>2015-09-03T06:25:06Z</time>
      </trkpt>
      <trkpt lat="33.84668" lon="77.4921">
        <ele>3952.8</ele>
        <time>2015-09-03T06:25:16Z</time>
      </trkpt>
      <trkpt lat="33.84669" lon="77.4921">
        <ele>3954</ele>
        <time>2015-09-03T06:25:20Z</time>
      </trkpt>
      <trkpt lat="33.84667" lon="77.49212">
        <ele>3955</ele>
        <time>2015-09-03T06:25:28Z</time>
      </trkpt>
      <trkpt lat="33.84666" lon="77.49215">
        <ele>3956</ele>
        <time>2015-09-03T06:25:35Z</time>
      </trkpt>
      <trkpt lat="33.84665" lon="77.49217">
        <ele>3957</ele>
        <time>2015-09-03T06:25:43Z</time>
      </trkpt>
      <trkpt lat="33.84667" lon="77.49218">
        <ele>3958</ele>
        <time>2015-09-03T06:25:53Z</time>
      </trkpt>
      <trkpt lat="33.84663" lon="77.49222">
        <ele>3959</ele>
        <time>2015-09-03T06:26:02Z</time>
      </trkpt>
      <trkpt lat="33.84664" lon="77.49228">
        <ele>3959.8</ele>
        <time>2015-09-03T06:26:08Z</time>
      </trkpt>
      <trkpt lat="33.84663" lon="77.4923">
        <ele>3960</ele>
        <time>2015-09-03T06:26:10Z</time>
      </trkpt>
      <trkpt lat="33.84662" lon="77.49231">
        <ele>3960.2</ele>
        <time>2015-09-03T06:26:12Z</time>
      </trkpt>
      <trkpt lat="33.84658" lon="77.49234">
        <ele>3961.2</ele>
        <time>2015-09-03T06:26:20Z</time>
      </trkpt>
      <trkpt lat="33.84655" lon="77.49235">
        <ele>3961.2</ele>
        <time>2015-09-03T06:26:23Z</time>
      </trkpt>
      <trkpt lat="33.8465" lon="77.4924">
        <ele>3960.6</ele>
        <time>2015-09-03T06:26:31Z</time>
      </trkpt>
      <trkpt lat="33.84649" lon="77.49242">
        <ele>3960.6</ele>
        <time>2015-09-03T06:26:33Z</time>
      </trkpt>
      <trkpt lat="33.84648" lon="77.49246">
        <ele>3960.2</ele>
        <time>2015-09-03T06:26:36Z</time>
      </trkpt>
      <trkpt lat="33.84646" lon="77.49249">
        <ele>3960.2</ele>
        <time>2015-09-03T06:26:41Z</time>
      </trkpt>
      <trkpt lat="33.84635" lon="77.49258">
        <ele>3961.4</ele>
        <time>2015-09-03T06:27:00Z</time>
      </trkpt>
      <trkpt lat="33.84635" lon="77.49272">
        <ele>3962.4</ele>
        <time>2015-09-03T06:27:14Z</time>
      </trkpt>
      <trkpt lat="33.84632" lon="77.49283">
        <ele>3962.6</ele>
        <time>2015-09-03T06:27:26Z</time>
      </trkpt>
      <trkpt lat="33.84629" lon="77.49284">
        <ele>3962.6</ele>
        <time>2015-09-03T06:27:29Z</time>
      </trkpt>
      <trkpt lat="33.84617" lon="77.49282">
        <ele>3963.2</ele>
        <time>2015-09-03T06:27:45Z</time>
      </trkpt>
      <trkpt lat="33.84614" lon="77.49282">
        <ele>3963.2</ele>
        <time>2015-09-03T06:27:47Z</time>
      </trkpt>
      <trkpt lat="33.84612" lon="77.49282">
        <ele>3963.4</ele>
        <time>2015-09-03T06:27:49Z</time>
      </trkpt>
      <trkpt lat="33.84611" lon="77.49282">
        <ele>3963.6</ele>
        <time>2015-09-03T06:27:50Z</time>
      </trkpt>
      <trkpt lat="33.84611" lon="77.49283">
        <ele>3963.8</ele>
        <time>2015-09-03T06:27:51Z</time>
      </trkpt>
      <trkpt lat="33.8461" lon="77.49284">
        <ele>3964.8</ele>
        <time>2015-09-03T06:27:56Z</time>
      </trkpt>
      <trkpt lat="33.84611" lon="77.49291">
        <ele>3965.2</ele>
        <time>2015-09-03T06:28:07Z</time>
      </trkpt>
      <trkpt lat="33.84613" lon="77.49295">
        <ele>3963.6</ele>
        <time>2015-09-03T06:28:31Z</time>
      </trkpt>
      <trkpt lat="33.84614" lon="77.49296">
        <ele>3963.2</ele>
        <time>2015-09-03T06:28:41Z</time>
      </trkpt>
      <trkpt lat="33.84613" lon="77.49298">
        <ele>3962.6</ele>
        <time>2015-09-03T06:28:44Z</time>
      </trkpt>
      <trkpt lat="33.84614" lon="77.49301">
        <ele>3961.6</ele>
        <time>2015-09-03T06:28:51Z</time>
      </trkpt>
      <trkpt lat="33.84618" lon="77.49305">
        <ele>3962.2</ele>
        <time>2015-09-03T06:29:09Z</time>
      </trkpt>
      <trkpt lat="33.84613" lon="77.49308">
        <ele>3961</ele>
        <time>2015-09-03T06:29:14Z</time>
      </trkpt>
      <trkpt lat="33.84606" lon="77.49313">
        <ele>3961.4</ele>
        <time>2015-09-03T06:29:27Z</time>
      </trkpt>
      <trkpt lat="33.84601" lon="77.49314">
        <ele>3962.8</ele>
        <time>2015-09-03T06:29:34Z</time>
      </trkpt>
      <trkpt lat="33.84598" lon="77.49315">
        <ele>3963</ele>
        <time>2015-09-03T06:29:37Z</time>
      </trkpt>
      <trkpt lat="33.84597" lon="77.49317">
        <ele>3963.2</ele>
        <time>2015-09-03T06:29:39Z</time>
      </trkpt>
      <trkpt lat="33.84596" lon="77.49321">
        <ele>3964</ele>
        <time>2015-09-03T06:29:45Z</time>
      </trkpt>
      <trkpt lat="33.84599" lon="77.49339">
        <ele>3965</ele>
        <time>2015-09-03T06:30:09Z</time>
      </trkpt>
      <trkpt lat="33.84589" lon="77.4935">
        <ele>3966</ele>
        <time>2015-09-03T06:30:34Z</time>
      </trkpt>
      <trkpt lat="33.84587" lon="77.49352">
        <ele>3967</ele>
        <time>2015-09-03T06:30:44Z</time>
      </trkpt>
      <trkpt lat="33.84588" lon="77.49353">
        <ele>3968</ele>
        <time>2015-09-03T06:30:50Z</time>
      </trkpt>
      <trkpt lat="33.84586" lon="77.49356">
        <ele>3969.2</ele>
        <time>2015-09-03T06:31:03Z</time>
      </trkpt>
      <trkpt lat="33.84583" lon="77.49357">
        <ele>3970.2</ele>
        <time>2015-09-03T06:31:11Z</time>
      </trkpt>
      <trkpt lat="33.84579" lon="77.49365">
        <ele>3971.4</ele>
        <time>2015-09-03T06:31:33Z</time>
      </trkpt>
      <trkpt lat="33.84577" lon="77.49367">
        <ele>3972.6</ele>
        <time>2015-09-03T06:31:38Z</time>
      </trkpt>
      <trkpt lat="33.84577" lon="77.49371">
        <ele>3973.6</ele>
        <time>2015-09-03T06:31:47Z</time>
      </trkpt>
      <trkpt lat="33.84579" lon="77.49378">
        <ele>3974.6</ele>
        <time>2015-09-03T06:31:58Z</time>
      </trkpt>
      <trkpt lat="33.84576" lon="77.49383">
        <ele>3975.6</ele>
        <time>2015-09-03T06:32:07Z</time>
      </trkpt>
      <trkpt lat="33.84574" lon="77.49389">
        <ele>3976.6</ele>
        <time>2015-09-03T06:32:17Z</time>
      </trkpt>
      <trkpt lat="33.84575" lon="77.49391">
        <ele>3977.6</ele>
        <time>2015-09-03T06:32:21Z</time>
      </trkpt>
      <trkpt lat="33.84578" lon="77.49393">
        <ele>3978.2</ele>
        <time>2015-09-03T06:32:25Z</time>
      </trkpt>
      <trkpt lat="33.84574" lon="77.49397">
        <ele>3978.6</ele>
        <time>2015-09-03T06:32:32Z</time>
      </trkpt>
      <trkpt lat="33.84559" lon="77.49407">
        <ele>3978.4</ele>
        <time>2015-09-03T06:33:08Z</time>
      </trkpt>
      <trkpt lat="33.84555" lon="77.4941">
        <ele>3977.6</ele>
        <time>2015-09-03T06:33:15Z</time>
      </trkpt>
      <trkpt lat="33.84554" lon="77.49411">
        <ele>3977</ele>
        <time>2015-09-03T06:33:17Z</time>
      </trkpt>
      <trkpt lat="33.8455" lon="77.49407">
        <ele>3976.4</ele>
        <time>2015-09-03T06:33:21Z</time>
      </trkpt>
      <trkpt lat="33.8455" lon="77.49407">
        <ele>3976.4</ele>
        <time>2015-09-03T06:33:22Z</time>
      </trkpt>
      <trkpt lat="33.84551" lon="77.49411">
        <ele>3976.2</ele>
        <time>2015-09-03T06:33:26Z</time>
      </trkpt>
      <trkpt lat="33.84548" lon="77.49413">
        <ele>3975.4</ele>
        <time>2015-09-03T06:33:31Z</time>
      </trkpt>
      <trkpt lat="33.84546" lon="77.49414">
        <ele>3974.2</ele>
        <time>2015-09-03T06:33:38Z</time>
      </trkpt>
      <trkpt lat="33.84548" lon="77.49419">
        <ele>3973.2</ele>
        <time>2015-09-03T06:33:55Z</time>
      </trkpt>
      <trkpt lat="33.84542" lon="77.49425">
        <ele>3972.2</ele>
        <time>2015-09-03T06:33:59Z</time>
      </trkpt>
      <trkpt lat="33.84541" lon="77.49426">
        <ele>3972</ele>
        <time>2015-09-03T06:34:00Z</time>
      </trkpt>
      <trkpt lat="33.84538" lon="77.49429">
        <ele>3971.2</ele>
        <time>2015-09-03T06:34:05Z</time>
      </trkpt>
      <trkpt lat="33.84537" lon="77.4943">
        <ele>3971</ele>
        <time>2015-09-03T06:34:06Z</time>
      </trkpt>
      <trkpt lat="33.84534" lon="77.49433">
        <ele>3970.6</ele>
        <time>2015-09-03T06:34:10Z</time>
      </trkpt>
      <trkpt lat="33.84533" lon="77.4944">
        <ele>3970</ele>
        <time>2015-09-03T06:34:14Z</time>
      </trkpt>
      <trkpt lat="33.84533" lon="77.49444">
        <ele>3969.6</ele>
        <time>2015-09-03T06:34:17Z</time>
      </trkpt>
      <trkpt lat="33.84533" lon="77.49445">
        <ele>3969.4</ele>
        <time>2015-09-03T06:34:19Z</time>
      </trkpt>
      <trkpt lat="33.84531" lon="77.49446">
        <ele>3969</ele>
        <time>2015-09-03T06:34:40Z</time>
      </trkpt>
      <trkpt lat="33.84532" lon="77.49456">
        <ele>3968.2</ele>
        <time>2015-09-03T06:35:09Z</time>
      </trkpt>
      <trkpt lat="33.84531" lon="77.49457">
        <ele>3968</ele>
        <time>2015-09-03T06:35:10Z</time>
      </trkpt>
      <trkpt lat="33.84529" lon="77.49458">
        <ele>3967.4</ele>
        <time>2015-09-03T06:35:12Z</time>
      </trkpt>
      <trkpt lat="33.84528" lon="77.4946">
        <ele>3966.8</ele>
        <time>2015-09-03T06:35:14Z</time>
      </trkpt>
      <trkpt lat="33.84525" lon="77.49459">
        <ele>3966.2</ele>
        <time>2015-09-03T06:35:17Z</time>
      </trkpt>
      <trkpt lat="33.84523" lon="77.49459">
        <ele>3965.8</ele>
        <time>2015-09-03T06:35:19Z</time>
      </trkpt>
      <trkpt lat="33.84523" lon="77.49457">
        <ele>3965.8</ele>
        <time>2015-09-03T06:35:20Z</time>
      </trkpt>
      <trkpt lat="33.84517" lon="77.49453">
        <ele>3964.8</ele>
        <time>2015-09-03T06:35:25Z</time>
      </trkpt>
      <trkpt lat="33.84516" lon="77.49452">
        <ele>3964.6</ele>
        <time>2015-09-03T06:35:26Z</time>
      </trkpt>
      <trkpt lat="33.84516" lon="77.49451">
        <ele>3964.4</ele>
        <time>2015-09-03T06:35:27Z</time>
      </trkpt>
      <trkpt lat="33.84512" lon="77.49452">
        <ele>3963.6</ele>
        <time>2015-09-03T06:35:32Z</time>
      </trkpt>
      <trkpt lat="33.8451" lon="77.49452">
        <ele>3963.2</ele>
        <time>2015-09-03T06:35:34Z</time>
      </trkpt>
      <trkpt lat="33.84508" lon="77.49452">
        <ele>3962.4</ele>
        <time>2015-09-03T06:35:36Z</time>
      </trkpt>
      <trkpt lat="33.84507" lon="77.49453">
        <ele>3961.8</ele>
        <time>2015-09-03T06:35:38Z</time>
      </trkpt>
      <trkpt lat="33.84507" lon="77.49454">
        <ele>3961.2</ele>
        <time>2015-09-03T06:35:40Z</time>
      </trkpt>
      <trkpt lat="33.84506" lon="77.49457">
        <ele>3960.2</ele>
        <time>2015-09-03T06:35:51Z</time>
      </trkpt>
      <trkpt lat="33.84504" lon="77.49457">
        <ele>3959</ele>
        <time>2015-09-03T06:35:55Z</time>
      </trkpt>
      <trkpt lat="33.84501" lon="77.49459">
        <ele>3958.6</ele>
        <time>2015-09-03T06:35:59Z</time>
      </trkpt>
      <trkpt lat="33.84496" lon="77.4946">
        <ele>3957.8</ele>
        <time>2015-09-03T06:36:02Z</time>
      </trkpt>
      <trkpt lat="33.84487" lon="77.49467">
        <ele>3957.2</ele>
        <time>2015-09-03T06:36:21Z</time>
      </trkpt>
      <trkpt lat="33.84486" lon="77.49478">
        <ele>3958</ele>
        <time>2015-09-03T06:36:42Z</time>
      </trkpt>
      <trkpt lat="33.84486" lon="77.49481">
        <ele>3958</ele>
        <time>2015-09-03T06:36:46Z</time>
      </trkpt>
      <trkpt lat="33.84484" lon="77.49483">
        <ele>3958</ele>
        <time>2015-09-03T06:36:49Z</time>
      </trkpt>
      <trkpt lat="33.84479" lon="77.49491">
        <ele>3958.2</ele>
        <time>2015-09-03T06:36:59Z</time>
      </trkpt>
      <trkpt lat="33.84478" lon="77.49494">
        <ele>3958.4</ele>
        <time>2015-09-03T06:37:02Z</time>
      </trkpt>
      <trkpt lat="33.84477" lon="77.49499">
        <ele>3959</ele>
        <time>2015-09-03T06:37:06Z</time>
      </trkpt>
      <trkpt lat="33.84471" lon="77.49502">
        <ele>3959.2</ele>
        <time>2015-09-03T06:37:14Z</time>
      </trkpt>
      <trkpt lat="33.84468" lon="77.49505">
        <ele>3959.4</ele>
        <time>2015-09-03T06:37:19Z</time>
      </trkpt>
      <trkpt lat="33.84466" lon="77.49507">
        <ele>3959.6</ele>
        <time>2015-09-03T06:37:22Z</time>
      </trkpt>
      <trkpt lat="33.84463" lon="77.49507">
        <ele>3959.8</ele>
        <time>2015-09-03T06:37:25Z</time>
      </trkpt>
      <trkpt lat="33.84463" lon="77.49509">
        <ele>3960</ele>
        <time>2015-09-03T06:37:26Z</time>
      </trkpt>
      <trkpt lat="33.84462" lon="77.49509">
        <ele>3960.2</ele>
        <time>2015-09-03T06:37:27Z</time>
      </trkpt>
      <trkpt lat="33.8446" lon="77.49515">
        <ele>3961</ele>
        <time>2015-09-03T06:37:34Z</time>
      </trkpt>
      <trkpt lat="33.8446" lon="77.49515">
        <ele>3961</ele>
        <time>2015-09-03T06:37:35Z</time>
      </trkpt>
      <trkpt lat="33.84453" lon="77.49515">
        <ele>3961.8</ele>
        <time>2015-09-03T06:37:44Z</time>
      </trkpt>
      <trkpt lat="33.8445" lon="77.49517">
        <ele>3961.4</ele>
        <time>2015-09-03T06:37:47Z</time>
      </trkpt>
      <trkpt lat="33.84448" lon="77.49518">
        <ele>3961</ele>
        <time>2015-09-03T06:37:49Z</time>
      </trkpt>
      <trkpt lat="33.84444" lon="77.49522">
        <ele>3960.4</ele>
        <time>2015-09-03T06:37:54Z</time>
      </trkpt>
      <trkpt lat="33.84445" lon="77.49527">
        <ele>3960.2</ele>
        <time>2015-09-03T06:37:57Z</time>
      </trkpt>
      <trkpt lat="33.8443" lon="77.49538">
        <ele>3960.6</ele>
        <time>2015-09-03T06:38:17Z</time>
      </trkpt>
      <trkpt lat="33.84429" lon="77.49539">
        <ele>3960.8</ele>
        <time>2015-09-03T06:38:18Z</time>
      </trkpt>
      <trkpt lat="33.84424" lon="77.4955">
        <ele>3961</ele>
        <time>2015-09-03T06:38:28Z</time>
      </trkpt>
      <trkpt lat="33.84424" lon="77.49553">
        <ele>3961</ele>
        <time>2015-09-03T06:38:30Z</time>
      </trkpt>
      <trkpt lat="33.84415" lon="77.49572">
        <ele>3961.2</ele>
        <time>2015-09-03T06:38:44Z</time>
      </trkpt>
      <trkpt lat="33.84402" lon="77.49586">
        <ele>3961.8</ele>
        <time>2015-09-03T06:39:07Z</time>
      </trkpt>
      <trkpt lat="33.844" lon="77.49587">
        <ele>3961.8</ele>
        <time>2015-09-03T06:39:08Z</time>
      </trkpt>
      <trkpt lat="33.84395" lon="77.49595">
        <ele>3962.2</ele>
        <time>2015-09-03T06:39:16Z</time>
      </trkpt>
      <trkpt lat="33.84379" lon="77.49607">
        <ele>3962.6</ele>
        <time>2015-09-03T06:39:32Z</time>
      </trkpt>
      <trkpt lat="33.84377" lon="77.49607">
        <ele>3962.6</ele>
        <time>2015-09-03T06:39:35Z</time>
      </trkpt>
      <trkpt lat="33.84374" lon="77.49617">
        <ele>3962.8</ele>
        <time>2015-09-03T06:39:44Z</time>
      </trkpt>
      <trkpt lat="33.84374" lon="77.49621">
        <ele>3963.2</ele>
        <time>2015-09-03T06:39:47Z</time>
      </trkpt>
      <trkpt lat="33.84374" lon="77.49626">
        <ele>3963.4</ele>
        <time>2015-09-03T06:39:51Z</time>
      </trkpt>
      <trkpt lat="33.84375" lon="77.49628">
        <ele>3963.4</ele>
        <time>2015-09-03T06:39:53Z</time>
      </trkpt>
      <trkpt lat="33.8437" lon="77.49633">
        <ele>3963.6</ele>
        <time>2015-09-03T06:40:00Z</time>
      </trkpt>
      <trkpt lat="33.84367" lon="77.49637">
        <ele>3964.2</ele>
        <time>2015-09-03T06:40:06Z</time>
      </trkpt>
      <trkpt lat="33.84367" lon="77.49638">
        <ele>3964.2</ele>
        <time>2015-09-03T06:40:08Z</time>
      </trkpt>
      <trkpt lat="33.84363" lon="77.49643">
        <ele>3964.4</ele>
        <time>2015-09-03T06:40:14Z</time>
      </trkpt>
      <trkpt lat="33.84362" lon="77.49645">
        <ele>3964.6</ele>
        <time>2015-09-03T06:40:16Z</time>
      </trkpt>
      <trkpt lat="33.84361" lon="77.49647">
        <ele>3964.6</ele>
        <time>2015-09-03T06:40:18Z</time>
      </trkpt>
      <trkpt lat="33.84356" lon="77.49654">
        <ele>3965</ele>
        <time>2015-09-03T06:40:27Z</time>
      </trkpt>
      <trkpt lat="33.84355" lon="77.49656">
        <ele>3965</ele>
        <time>2015-09-03T06:40:29Z</time>
      </trkpt>
      <trkpt lat="33.84354" lon="77.49657">
        <ele>3965.2</ele>
        <time>2015-09-03T06:40:31Z</time>
      </trkpt>
      <trkpt lat="33.84354" lon="77.49659">
        <ele>3965.2</ele>
        <time>2015-09-03T06:40:33Z</time>
      </trkpt>
      <trkpt lat="33.84353" lon="77.49659">
        <ele>3965.2</ele>
        <time>2015-09-03T06:40:34Z</time>
      </trkpt>
      <trkpt lat="33.84352" lon="77.4966">
        <ele>3965.4</ele>
        <time>2015-09-03T06:40:35Z</time>
      </trkpt>
      <trkpt lat="33.84352" lon="77.49661">
        <ele>3965.4</ele>
        <time>2015-09-03T06:40:37Z</time>
      </trkpt>
      <trkpt lat="33.84345" lon="77.49667">
        <ele>3966.4</ele>
        <time>2015-09-03T06:40:52Z</time>
      </trkpt>
      <trkpt lat="33.84341" lon="77.49668">
        <ele>3966.8</ele>
        <time>2015-09-03T06:40:57Z</time>
      </trkpt>
      <trkpt lat="33.8434" lon="77.49668">
        <ele>3967</ele>
        <time>2015-09-03T06:40:59Z</time>
      </trkpt>
      <trkpt lat="33.84337" lon="77.49669">
        <ele>3967</ele>
        <time>2015-09-03T06:41:02Z</time>
      </trkpt>
      <trkpt lat="33.84335" lon="77.4967">
        <ele>3967.2</ele>
        <time>2015-09-03T06:41:05Z</time>
      </trkpt>
      <trkpt lat="33.84334" lon="77.4967">
        <ele>3967.4</ele>
        <time>2015-09-03T06:41:06Z</time>
      </trkpt>
      <trkpt lat="33.84325" lon="77.49672">
        <ele>3967.8</ele>
        <time>2015-09-03T06:41:19Z</time>
      </trkpt>
      <trkpt lat="33.8432" lon="77.49677">
        <ele>3968.2</ele>
        <time>2015-09-03T06:41:26Z</time>
      </trkpt>
      <trkpt lat="33.84317" lon="77.4968">
        <ele>3968.4</ele>
        <time>2015-09-03T06:41:29Z</time>
      </trkpt>
      <trkpt lat="33.84316" lon="77.49682">
        <ele>3968.8</ele>
        <time>2015-09-03T06:41:32Z</time>
      </trkpt>
      <trkpt lat="33.84306" lon="77.49687">
        <ele>3969</ele>
        <time>2015-09-03T06:41:44Z</time>
      </trkpt>
      <trkpt lat="33.84302" lon="77.49692">
        <ele>3969.2</ele>
        <time>2015-09-03T06:41:49Z</time>
      </trkpt>
      <trkpt lat="33.84287" lon="77.49705">
        <ele>3969.4</ele>
        <time>2015-09-03T06:42:08Z</time>
      </trkpt>
      <trkpt lat="33.84278" lon="77.49713">
        <ele>3968.4</ele>
        <time>2015-09-03T06:42:21Z</time>
      </trkpt>
      <trkpt lat="33.84269" lon="77.49731">
        <ele>3968.8</ele>
        <time>2015-09-03T06:42:36Z</time>
      </trkpt>
      <trkpt lat="33.84266" lon="77.49753">
        <ele>3968.6</ele>
        <time>2015-09-03T06:42:52Z</time>
      </trkpt>
      <trkpt lat="33.84265" lon="77.49768">
        <ele>3968.2</ele>
        <time>2015-09-03T06:43:03Z</time>
      </trkpt>
      <trkpt lat="33.84262" lon="77.49774">
        <ele>3968.4</ele>
        <time>2015-09-03T06:43:08Z</time>
      </trkpt>
      <trkpt lat="33.84261" lon="77.49776">
        <ele>3968.4</ele>
        <time>2015-09-03T06:43:10Z</time>
      </trkpt>
      <trkpt lat="33.84259" lon="77.49779">
        <ele>3968.4</ele>
        <time>2015-09-03T06:43:14Z</time>
      </trkpt>
      <trkpt lat="33.84254" lon="77.49787">
        <ele>3968</ele>
        <time>2015-09-03T06:43:26Z</time>
      </trkpt>
      <trkpt lat="33.8425" lon="77.49789">
        <ele>3967.8</ele>
        <time>2015-09-03T06:43:31Z</time>
      </trkpt>
      <trkpt lat="33.84246" lon="77.49794">
        <ele>3967.8</ele>
        <time>2015-09-03T06:43:36Z</time>
      </trkpt>
      <trkpt lat="33.84244" lon="77.49796">
        <ele>3967.8</ele>
        <time>2015-09-03T06:43:39Z</time>
      </trkpt>
      <trkpt lat="33.84242" lon="77.49798">
        <ele>3967.8</ele>
        <time>2015-09-03T06:43:41Z</time>
      </trkpt>
      <trkpt lat="33.84233" lon="77.49806">
        <ele>3967.8</ele>
        <time>2015-09-03T06:43:53Z</time>
      </trkpt>
      <trkpt lat="33.84232" lon="77.49807">
        <ele>3968</ele>
        <time>2015-09-03T06:43:55Z</time>
      </trkpt>
      <trkpt lat="33.8423" lon="77.49809">
        <ele>3968.2</ele>
        <time>2015-09-03T06:43:57Z</time>
      </trkpt>
      <trkpt lat="33.84217" lon="77.49823">
        <ele>3968.4</ele>
        <time>2015-09-03T06:44:17Z</time>
      </trkpt>
      <trkpt lat="33.84213" lon="77.49825">
        <ele>3968.6</ele>
        <time>2015-09-03T06:44:20Z</time>
      </trkpt>
      <trkpt lat="33.84212" lon="77.49826">
        <ele>3968.6</ele>
        <time>2015-09-03T06:44:22Z</time>
      </trkpt>
      <trkpt lat="33.84207" lon="77.49833">
        <ele>3969.4</ele>
        <time>2015-09-03T06:44:30Z</time>
      </trkpt>
      <trkpt lat="33.8419" lon="77.49844">
        <ele>3969.6</ele>
        <time>2015-09-03T06:44:47Z</time>
      </trkpt>
      <trkpt lat="33.84182" lon="77.49848">
        <ele>3969.2</ele>
        <time>2015-09-03T06:44:53Z</time>
      </trkpt>
      <trkpt lat="33.84182" lon="77.49851">
        <ele>3969.6</ele>
        <time>2015-09-03T06:44:56Z</time>
      </trkpt>
      <trkpt lat="33.8418" lon="77.49854">
        <ele>3969.8</ele>
        <time>2015-09-03T06:45:01Z</time>
      </trkpt>
      <trkpt lat="33.84178" lon="77.49857">
        <ele>3969.8</ele>
        <time>2015-09-03T06:45:06Z</time>
      </trkpt>
      <trkpt lat="33.84164" lon="77.49863">
        <ele>3970.2</ele>
        <time>2015-09-03T06:45:19Z</time>
      </trkpt>
      <trkpt lat="33.84162" lon="77.49864">
        <ele>3970.2</ele>
        <time>2015-09-03T06:45:21Z</time>
      </trkpt>
      <trkpt lat="33.84159" lon="77.49867">
        <ele>3970.4</ele>
        <time>2015-09-03T06:45:25Z</time>
      </trkpt>
      <trkpt lat="33.84148" lon="77.49869">
        <ele>3970.4</ele>
        <time>2015-09-03T06:45:47Z</time>
      </trkpt>
      <trkpt lat="33.84141" lon="77.49872">
        <ele>3970.8</ele>
        <time>2015-09-03T06:45:52Z</time>
      </trkpt>
      <trkpt lat="33.84139" lon="77.49872">
        <ele>3970.8</ele>
        <time>2015-09-03T06:45:55Z</time>
      </trkpt>
      <trkpt lat="33.84135" lon="77.49872">
        <ele>3970.8</ele>
        <time>2015-09-03T06:45:58Z</time>
      </trkpt>
      <trkpt lat="33.84123" lon="77.49881">
        <ele>3970.8</ele>
        <time>2015-09-03T06:46:04Z</time>
      </trkpt>
      <trkpt lat="33.84128" lon="77.49878">
        <ele>3970.8</ele>
        <time>2015-09-03T06:46:08Z</time>
      </trkpt>
      <trkpt lat="33.84122" lon="77.49881">
        <ele>3971.4</ele>
        <time>2015-09-03T06:46:13Z</time>
      </trkpt>
      <trkpt lat="33.84117" lon="77.49884">
        <ele>3971.6</ele>
        <time>2015-09-03T06:46:16Z</time>
      </trkpt>
      <trkpt lat="33.84113" lon="77.49887">
        <ele>3971.4</ele>
        <time>2015-09-03T06:46:20Z</time>
      </trkpt>
      <trkpt lat="33.84104" lon="77.49888">
        <ele>3971.6</ele>
        <time>2015-09-03T06:46:27Z</time>
      </trkpt>
      <trkpt lat="33.84099" lon="77.49893">
        <ele>3971.8</ele>
        <time>2015-09-03T06:46:33Z</time>
      </trkpt>
      <trkpt lat="33.84105" lon="77.49891">
        <ele>3972</ele>
        <time>2015-09-03T06:46:37Z</time>
      </trkpt>
      <trkpt lat="33.84103" lon="77.49895">
        <ele>3972</ele>
        <time>2015-09-03T06:46:41Z</time>
      </trkpt>
      <trkpt lat="33.84087" lon="77.499">
        <ele>3971.8</ele>
        <time>2015-09-03T06:46:59Z</time>
      </trkpt>
      <trkpt lat="33.84089" lon="77.49903">
        <ele>3971.6</ele>
        <time>2015-09-03T06:47:05Z</time>
      </trkpt>
      <trkpt lat="33.84075" lon="77.49915">
        <ele>3972.2</ele>
        <time>2015-09-03T06:47:25Z</time>
      </trkpt>
      <trkpt lat="33.84073" lon="77.49916">
        <ele>3972.4</ele>
        <time>2015-09-03T06:47:26Z</time>
      </trkpt>
      <trkpt lat="33.84072" lon="77.49916">
        <ele>3972.8</ele>
        <time>2015-09-03T06:47:28Z</time>
      </trkpt>
      <trkpt lat="33.8407" lon="77.49918">
        <ele>3973</ele>
        <time>2015-09-03T06:47:31Z</time>
      </trkpt>
      <trkpt lat="33.84061" lon="77.49925">
        <ele>3972.8</ele>
        <time>2015-09-03T06:47:41Z</time>
      </trkpt>
      <trkpt lat="33.84059" lon="77.49926">
        <ele>3972.8</ele>
        <time>2015-09-03T06:47:43Z</time>
      </trkpt>
      <trkpt lat="33.84045" lon="77.49928">
        <ele>3972.2</ele>
        <time>2015-09-03T06:47:51Z</time>
      </trkpt>
      <trkpt lat="33.84043" lon="77.49929">
        <ele>3972.2</ele>
        <time>2015-09-03T06:47:54Z</time>
      </trkpt>
      <trkpt lat="33.84042" lon="77.49932">
        <ele>3972.2</ele>
        <time>2015-09-03T06:47:57Z</time>
      </trkpt>
      <trkpt lat="33.84039" lon="77.49937">
        <ele>3972.6</ele>
        <time>2015-09-03T06:48:05Z</time>
      </trkpt>
      <trkpt lat="33.84022" lon="77.49947">
        <ele>3972.4</ele>
        <time>2015-09-03T06:48:17Z</time>
      </trkpt>
      <trkpt lat="33.84022" lon="77.49948">
        <ele>3972.4</ele>
        <time>2015-09-03T06:48:18Z</time>
      </trkpt>
      <trkpt lat="33.84025" lon="77.4995">
        <ele>3972.8</ele>
        <time>2015-09-03T06:48:28Z</time>
      </trkpt>
      <trkpt lat="33.84019" lon="77.49953">
        <ele>3973.2</ele>
        <time>2015-09-03T06:48:34Z</time>
      </trkpt>
      <trkpt lat="33.84021" lon="77.49953">
        <ele>3973.2</ele>
        <time>2015-09-03T06:48:38Z</time>
      </trkpt>
      <trkpt lat="33.84024" lon="77.49953">
        <ele>3973.2</ele>
        <time>2015-09-03T06:48:40Z</time>
      </trkpt>
      <trkpt lat="33.8403" lon="77.49957">
        <ele>3973.2</ele>
        <time>2015-09-03T06:48:43Z</time>
      </trkpt>
      <trkpt lat="33.84032" lon="77.49956">
        <ele>3973.6</ele>
        <time>2015-09-03T06:48:46Z</time>
      </trkpt>
      <trkpt lat="33.84032" lon="77.49958">
        <ele>3974.2</ele>
        <time>2015-09-03T06:48:49Z</time>
      </trkpt>
      <trkpt lat="33.84032" lon="77.49958">
        <ele>3974.6</ele>
        <time>2015-09-03T06:48:50Z</time>
      </trkpt>
      <trkpt lat="33.84022" lon="77.49959">
        <ele>3975.6</ele>
        <time>2015-09-03T06:49:02Z</time>
      </trkpt>
      <trkpt lat="33.84021" lon="77.49959">
        <ele>3975.6</ele>
        <time>2015-09-03T06:49:03Z</time>
      </trkpt>
      <trkpt lat="33.84004" lon="77.49964">
        <ele>3976.6</ele>
        <time>2015-09-03T06:49:23Z</time>
      </trkpt>
      <trkpt lat="33.83998" lon="77.49966">
        <ele>3976.6</ele>
        <time>2015-09-03T06:49:27Z</time>
      </trkpt>
      <trkpt lat="33.83991" lon="77.49971">
        <ele>3976.8</ele>
        <time>2015-09-03T06:49:35Z</time>
      </trkpt>
      <trkpt lat="33.83991" lon="77.49978">
        <ele>3977.4</ele>
        <time>2015-09-03T06:49:43Z</time>
      </trkpt>
      <trkpt lat="33.83989" lon="77.49978">
        <ele>3977.4</ele>
        <time>2015-09-03T06:49:45Z</time>
      </trkpt>
      <trkpt lat="33.83986" lon="77.49983">
        <ele>3977.6</ele>
        <time>2015-09-03T06:49:53Z</time>
      </trkpt>
      <trkpt lat="33.83986" lon="77.49984">
        <ele>3977.8</ele>
        <time>2015-09-03T06:49:54Z</time>
      </trkpt>
      <trkpt lat="33.83987" lon="77.49985">
        <ele>3977.8</ele>
        <time>2015-09-03T06:49:55Z</time>
      </trkpt>
      <trkpt lat="33.83984" lon="77.49986">
        <ele>3978.2</ele>
        <time>2015-09-03T06:49:59Z</time>
      </trkpt>
      <trkpt lat="33.83986" lon="77.49985">
        <ele>3978.2</ele>
        <time>2015-09-03T06:50:01Z</time>
      </trkpt>
      <trkpt lat="33.8399" lon="77.49988">
        <ele>3978</ele>
        <time>2015-09-03T06:50:05Z</time>
      </trkpt>
      <trkpt lat="33.8399" lon="77.4999">
        <ele>3977.8</ele>
        <time>2015-09-03T06:50:07Z</time>
      </trkpt>
      <trkpt lat="33.83975" lon="77.49996">
        <ele>3977.2</ele>
        <time>2015-09-03T06:50:22Z</time>
      </trkpt>
      <trkpt lat="33.83969" lon="77.50001">
        <ele>3977.4</ele>
        <time>2015-09-03T06:50:29Z</time>
      </trkpt>
      <trkpt lat="33.83964" lon="77.50004">
        <ele>3977.8</ele>
        <time>2015-09-03T06:50:33Z</time>
      </trkpt>
      <trkpt lat="33.8396" lon="77.50006">
        <ele>3978</ele>
        <time>2015-09-03T06:50:35Z</time>
      </trkpt>
      <trkpt lat="33.83964" lon="77.50008">
        <ele>3977.8</ele>
        <time>2015-09-03T06:50:40Z</time>
      </trkpt>
      <trkpt lat="33.83966" lon="77.50009">
        <ele>3978.8</ele>
        <time>2015-09-03T06:50:48Z</time>
      </trkpt>
      <trkpt lat="33.83956" lon="77.50009">
        <ele>3978.8</ele>
        <time>2015-09-03T06:50:57Z</time>
      </trkpt>
      <trkpt lat="33.83965" lon="77.50016">
        <ele>3978.8</ele>
        <time>2015-09-03T06:51:01Z</time>
      </trkpt>
      <trkpt lat="33.83962" lon="77.50018">
        <ele>3979</ele>
        <time>2015-09-03T06:51:04Z</time>
      </trkpt>
      <trkpt lat="33.83959" lon="77.50023">
        <ele>3979.6</ele>
        <time>2015-09-03T06:51:12Z</time>
      </trkpt>
      <trkpt lat="33.83959" lon="77.50028">
        <ele>3979.8</ele>
        <time>2015-09-03T06:51:18Z</time>
      </trkpt>
      <trkpt lat="33.83957" lon="77.5003">
        <ele>3980</ele>
        <time>2015-09-03T06:51:21Z</time>
      </trkpt>
      <trkpt lat="33.83962" lon="77.50028">
        <ele>3980</ele>
        <time>2015-09-03T06:51:31Z</time>
      </trkpt>
      <trkpt lat="33.83964" lon="77.50029">
        <ele>3980</ele>
        <time>2015-09-03T06:51:33Z</time>
      </trkpt>
      <trkpt lat="33.83963" lon="77.50031">
        <ele>3979.8</ele>
        <time>2015-09-03T06:51:35Z</time>
      </trkpt>
      <trkpt lat="33.83959" lon="77.50035">
        <ele>3980.8</ele>
        <time>2015-09-03T06:51:45Z</time>
      </trkpt>
      <trkpt lat="33.83956" lon="77.50037">
        <ele>3981</ele>
        <time>2015-09-03T06:51:49Z</time>
      </trkpt>
      <trkpt lat="33.83945" lon="77.50046">
        <ele>3980.4</ele>
        <time>2015-09-03T06:52:01Z</time>
      </trkpt>
      <trkpt lat="33.8394" lon="77.50051">
        <ele>3981.4</ele>
        <time>2015-09-03T06:52:07Z</time>
      </trkpt>
      <trkpt lat="33.83939" lon="77.50053">
        <ele>3981.4</ele>
        <time>2015-09-03T06:52:09Z</time>
      </trkpt>
      <trkpt lat="33.83936" lon="77.50055">
        <ele>3982</ele>
        <time>2015-09-03T06:52:13Z</time>
      </trkpt>
      <trkpt lat="33.83934" lon="77.50057">
        <ele>3982.2</ele>
        <time>2015-09-03T06:52:16Z</time>
      </trkpt>
      <trkpt lat="33.83927" lon="77.50063">
        <ele>3983</ele>
        <time>2015-09-03T06:52:25Z</time>
      </trkpt>
      <trkpt lat="33.83926" lon="77.50063">
        <ele>3983</ele>
        <time>2015-09-03T06:52:26Z</time>
      </trkpt>
      <trkpt lat="33.83923" lon="77.50065">
        <ele>3983.2</ele>
        <time>2015-09-03T06:52:29Z</time>
      </trkpt>
      <trkpt lat="33.83905" lon="77.50073">
        <ele>3983.8</ele>
        <time>2015-09-03T06:52:48Z</time>
      </trkpt>
      <trkpt lat="33.83902" lon="77.50074">
        <ele>3984.2</ele>
        <time>2015-09-03T06:52:51Z</time>
      </trkpt>
      <trkpt lat="33.839" lon="77.50075">
        <ele>3984.4</ele>
        <time>2015-09-03T06:52:53Z</time>
      </trkpt>
      <trkpt lat="33.83895" lon="77.50075">
        <ele>3984.4</ele>
        <time>2015-09-03T06:52:59Z</time>
      </trkpt>
      <trkpt lat="33.83882" lon="77.5008">
        <ele>3985.2</ele>
        <time>2015-09-03T06:53:16Z</time>
      </trkpt>
      <trkpt lat="33.83881" lon="77.50082">
        <ele>3985.2</ele>
        <time>2015-09-03T06:53:18Z</time>
      </trkpt>
      <trkpt lat="33.83878" lon="77.50082">
        <ele>3986.2</ele>
        <time>2015-09-03T06:53:33Z</time>
      </trkpt>
      <trkpt lat="33.83875" lon="77.50083">
        <ele>3987.4</ele>
        <time>2015-09-03T06:53:44Z</time>
      </trkpt>
      <trkpt lat="33.83872" lon="77.50087">
        <ele>3987.2</ele>
        <time>2015-09-03T06:53:50Z</time>
      </trkpt>
      <trkpt lat="33.83869" lon="77.5009">
        <ele>3987.4</ele>
        <time>2015-09-03T06:53:54Z</time>
      </trkpt>
      <trkpt lat="33.83865" lon="77.50095">
        <ele>3987.6</ele>
        <time>2015-09-03T06:54:00Z</time>
      </trkpt>
      <trkpt lat="33.83863" lon="77.50099">
        <ele>3987.8</ele>
        <time>2015-09-03T06:54:03Z</time>
      </trkpt>
      <trkpt lat="33.83863" lon="77.50101">
        <ele>3988.4</ele>
        <time>2015-09-03T06:54:06Z</time>
      </trkpt>
      <trkpt lat="33.83857" lon="77.50108">
        <ele>3989</ele>
        <time>2015-09-03T06:54:16Z</time>
      </trkpt>
      <trkpt lat="33.83858" lon="77.50118">
        <ele>3989.4</ele>
        <time>2015-09-03T06:54:32Z</time>
      </trkpt>
      <trkpt lat="33.83857" lon="77.50126">
        <ele>3990.4</ele>
        <time>2015-09-03T06:55:00Z</time>
      </trkpt>
      <trkpt lat="33.83858" lon="77.50121">
        <ele>3990.6</ele>
        <time>2015-09-03T06:56:20Z</time>
      </trkpt>
      <trkpt lat="33.83853" lon="77.50125">
        <ele>3990.2</ele>
        <time>2015-09-03T06:56:38Z</time>
      </trkpt>
      <trkpt lat="33.83856" lon="77.50123">
        <ele>3989.4</ele>
        <time>2015-09-03T06:57:32Z</time>
      </trkpt>
      <trkpt lat="33.8386" lon="77.50124">
        <ele>3990.6</ele>
        <time>2015-09-03T06:57:47Z</time>
      </trkpt>
      <trkpt lat="33.83855" lon="77.50128">
        <ele>3990.8</ele>
        <time>2015-09-03T06:57:54Z</time>
      </trkpt>
      <trkpt lat="33.83855" lon="77.50125">
        <ele>3990.8</ele>
        <time>2015-09-03T06:57:56Z</time>
      </trkpt>
      <trkpt lat="33.83856" lon="77.50123">
        <ele>3990.8</ele>
        <time>2015-09-03T06:57:58Z</time>
      </trkpt>
      <trkpt lat="33.83855" lon="77.5012">
        <ele>3990.2</ele>
        <time>2015-09-03T06:58:01Z</time>
      </trkpt>
      <trkpt lat="33.83857" lon="77.50118">
        <ele>3989.6</ele>
        <time>2015-09-03T06:58:10Z</time>
      </trkpt>
      <trkpt lat="33.83863" lon="77.50127">
        <ele>3989.6</ele>
        <time>2015-09-03T06:58:20Z</time>
      </trkpt>
      <trkpt lat="33.83861" lon="77.50127">
        <ele>3990.6</ele>
        <time>2015-09-03T06:59:10Z</time>
      </trkpt>
      <trkpt lat="33.83863" lon="77.50125">
        <ele>3990.6</ele>
        <time>2015-09-03T06:59:16Z</time>
      </trkpt>
      <trkpt lat="33.83863" lon="77.50123">
        <ele>3990.4</ele>
        <time>2015-09-03T06:59:19Z</time>
      </trkpt>
      <trkpt lat="33.83851" lon="77.50128">
        <ele>3990.8</ele>
        <time>2015-09-03T06:59:35Z</time>
      </trkpt>
      <trkpt lat="33.83846" lon="77.50132">
        <ele>3991.2</ele>
        <time>2015-09-03T06:59:55Z</time>
      </trkpt>
      <trkpt lat="33.83854" lon="77.50134">
        <ele>3991.2</ele>
        <time>2015-09-03T07:00:02Z</time>
      </trkpt>
      <trkpt lat="33.83855" lon="77.50132">
        <ele>3991.6</ele>
        <time>2015-09-03T07:00:11Z</time>
      </trkpt>
      <trkpt lat="33.83862" lon="77.50126">
        <ele>3991.6</ele>
        <time>2015-09-03T07:00:30Z</time>
      </trkpt>
      <trkpt lat="33.83858" lon="77.50127">
        <ele>3990.6</ele>
        <time>2015-09-03T07:01:36Z</time>
      </trkpt>
      <trkpt lat="33.83856" lon="77.50128">
        <ele>3989.6</ele>
        <time>2015-09-03T07:02:47Z</time>
      </trkpt>
      <trkpt lat="33.83856" lon="77.50128">
        <ele>3990.6</ele>
        <time>2015-09-03T07:05:01Z</time>
      </trkpt>
      <trkpt lat="33.8386" lon="77.50124">
        <ele>3990</ele>
        <time>2015-09-03T07:07:11Z</time>
      </trkpt>
      <trkpt lat="33.83855" lon="77.50126">
        <ele>3989.4</ele>
        <time>2015-09-03T07:07:37Z</time>
      </trkpt>
      <trkpt lat="33.83857" lon="77.50127">
        <ele>3989.6</ele>
        <time>2015-09-03T07:09:54Z</time>
      </trkpt>
      <trkpt lat="33.83861" lon="77.50121">
        <ele>3990.2</ele>
        <time>2015-09-03T07:11:00Z</time>
      </trkpt>
      <trkpt lat="33.83858" lon="77.50117">
        <ele>3988.4</ele>
        <time>2015-09-03T07:11:14Z</time>
      </trkpt>
      <trkpt lat="33.83857" lon="77.50119">
        <ele>3988.8</ele>
        <time>2015-09-03T07:11:34Z</time>
      </trkpt>
      <trkpt lat="33.83857" lon="77.50119">
        <ele>3989.4</ele>
        <time>2015-09-03T07:11:41Z</time>
      </trkpt>
      <trkpt lat="33.83855" lon="77.50126">
        <ele>3989.2</ele>
        <time>2015-09-03T07:11:51Z</time>
      </trkpt>
      <trkpt lat="33.83858" lon="77.50116">
        <ele>3988.4</ele>
        <time>2015-09-03T07:12:27Z</time>
      </trkpt>
      <trkpt lat="33.83859" lon="77.50125">
        <ele>3988.8</ele>
        <time>2015-09-03T07:12:54Z</time>
      </trkpt>
      <trkpt lat="33.83859" lon="77.50124">
        <ele>3988.6</ele>
        <time>2015-09-03T07:12:56Z</time>
      </trkpt>
      <trkpt lat="33.83859" lon="77.50121">
        <ele>3988.6</ele>
        <time>2015-09-03T07:13:21Z</time>
      </trkpt>
      <trkpt lat="33.83859" lon="77.50116">
        <ele>3988.8</ele>
        <time>2015-09-03T07:13:26Z</time>
      </trkpt>
      <trkpt lat="33.83861" lon="77.50118">
        <ele>3988.8</ele>
        <time>2015-09-03T07:13:28Z</time>
      </trkpt>
      <trkpt lat="33.83876" lon="77.50142">
        <ele>3987.2</ele>
        <time>2015-09-03T07:13:42Z</time>
      </trkpt>
      <trkpt lat="33.83872" lon="77.50158">
        <ele>3988.4</ele>
        <time>2015-09-03T07:13:55Z</time>
      </trkpt>
      <trkpt lat="33.83872" lon="77.50158">
        <ele>3988.4</ele>
        <time>2015-09-03T07:13:57Z</time>
      </trkpt>
      <trkpt lat="33.83873" lon="77.50159">
        <ele>3988.6</ele>
        <time>2015-09-03T07:14:00Z</time>
      </trkpt>
      <trkpt lat="33.83864" lon="77.50125">
        <ele>3988.4</ele>
        <time>2015-09-03T07:14:11Z</time>
      </trkpt>
      <trkpt lat="33.83865" lon="77.50125">
        <ele>3988.4</ele>
        <time>2015-09-03T07:14:13Z</time>
      </trkpt>
      <trkpt lat="33.83866" lon="77.50122">
        <ele>3988.8</ele>
        <time>2015-09-03T07:14:16Z</time>
      </trkpt>
      <trkpt lat="33.83866" lon="77.50119">
        <ele>3989</ele>
        <time>2015-09-03T07:14:20Z</time>
      </trkpt>
      <trkpt lat="33.83862" lon="77.5012">
        <ele>3989.4</ele>
        <time>2015-09-03T07:14:31Z</time>
      </trkpt>
      <trkpt lat="33.83857" lon="77.50123">
        <ele>3989.4</ele>
        <time>2015-09-03T07:14:39Z</time>
      </trkpt>
      <trkpt lat="33.83855" lon="77.50128">
        <ele>3989.2</ele>
        <time>2015-09-03T07:15:15Z</time>
      </trkpt>
      <trkpt lat="33.83856" lon="77.50133">
        <ele>3990.4</ele>
        <time>2015-09-03T07:15:23Z</time>
      </trkpt>
      <trkpt lat="33.83857" lon="77.50144">
        <ele>3989.4</ele>
        <time>2015-09-03T07:15:31Z</time>
      </trkpt>
      <trkpt lat="33.83854" lon="77.50142">
        <ele>3989.4</ele>
        <time>2015-09-03T07:17:11Z</time>
      </trkpt>
      <trkpt lat="33.83854" lon="77.50126">
        <ele>3990.4</ele>
        <time>2015-09-03T07:17:34Z</time>
      </trkpt>
      <trkpt lat="33.8384" lon="77.50145">
        <ele>3991.4</ele>
        <time>2015-09-03T07:18:19Z</time>
      </trkpt>
      <trkpt lat="33.83841" lon="77.50134">
        <ele>3992.4</ele>
        <time>2015-09-03T07:18:28Z</time>
      </trkpt>
      <trkpt lat="33.83834" lon="77.50147">
        <ele>3993.4</ele>
        <time>2015-09-03T07:19:27Z</time>
      </trkpt>
      <trkpt lat="33.83846" lon="77.50138">
        <ele>3994.6</ele>
        <time>2015-09-03T07:19:36Z</time>
      </trkpt>
      <trkpt lat="33.8385" lon="77.50132">
        <ele>3995.2</ele>
        <time>2015-09-03T07:19:46Z</time>
      </trkpt>
      <trkpt lat="33.8385" lon="77.50134">
        <ele>3995.2</ele>
        <time>2015-09-03T07:19:48Z</time>
      </trkpt>
      <trkpt lat="33.83849" lon="77.50125">
        <ele>3995.8</ele>
        <time>2015-09-03T07:19:53Z</time>
      </trkpt>
      <trkpt lat="33.83849" lon="77.50121">
        <ele>3996.2</ele>
        <time>2015-09-03T07:19:55Z</time>
      </trkpt>
      <trkpt lat="33.8385" lon="77.5011">
        <ele>3996.2</ele>
        <time>2015-09-03T07:19:59Z</time>
      </trkpt>
      <trkpt lat="33.83859" lon="77.50133">
        <ele>3996.8</ele>
        <time>2015-09-03T07:20:24Z</time>
      </trkpt>
      <trkpt lat="33.83859" lon="77.50128">
        <ele>3997.2</ele>
        <time>2015-09-03T07:20:48Z</time>
      </trkpt>
      <trkpt lat="33.83864" lon="77.50116">
        <ele>3996.8</ele>
        <time>2015-09-03T07:20:57Z</time>
      </trkpt>
      <trkpt lat="33.83875" lon="77.50117">
        <ele>3996.2</ele>
        <time>2015-09-03T07:21:08Z</time>
      </trkpt>
      <trkpt lat="33.83864" lon="77.50125">
        <ele>3995.8</ele>
        <time>2015-09-03T07:21:23Z</time>
      </trkpt>
      <trkpt lat="33.83861" lon="77.50123">
        <ele>3995.6</ele>
        <time>2015-09-03T07:21:24Z</time>
      </trkpt>
      <trkpt lat="33.83855" lon="77.50128">
        <ele>3996</ele>
        <time>2015-09-03T07:22:14Z</time>
      </trkpt>
      <trkpt lat="33.83854" lon="77.50128">
        <ele>3996.8</ele>
        <time>2015-09-03T07:22:54Z</time>
      </trkpt>
      <trkpt lat="33.83857" lon="77.50118">
        <ele>3996.8</ele>
        <time>2015-09-03T07:23:09Z</time>
      </trkpt>
      <trkpt lat="33.83862" lon="77.50118">
        <ele>3997.2</ele>
        <time>2015-09-03T07:23:21Z</time>
      </trkpt>
      <trkpt lat="33.8386" lon="77.50121">
        <ele>3997.2</ele>
        <time>2015-09-03T07:23:24Z</time>
      </trkpt>
      <trkpt lat="33.83854" lon="77.50114">
        <ele>3997.8</ele>
        <time>2015-09-03T07:23:55Z</time>
      </trkpt>
      <trkpt lat="33.83855" lon="77.50159">
        <ele>3997.8</ele>
        <time>2015-09-03T07:24:18Z</time>
      </trkpt>
      <trkpt lat="33.83857" lon="77.50129">
        <ele>3998.6</ele>
        <time>2015-09-03T07:24:26Z</time>
      </trkpt>
      <trkpt lat="33.83858" lon="77.5012">
        <ele>3998.6</ele>
        <time>2015-09-03T07:24:29Z</time>
      </trkpt>
      <trkpt lat="33.83849" lon="77.50126">
        <ele>3997.2</ele>
        <time>2015-09-03T07:25:50Z</time>
      </trkpt>
      <trkpt lat="33.83854" lon="77.50126">
        <ele>3997.6</ele>
        <time>2015-09-03T07:25:59Z</time>
      </trkpt>
      <trkpt lat="33.83855" lon="77.50124">
        <ele>3999</ele>
        <time>2015-09-03T07:27:02Z</time>
      </trkpt>
      <trkpt lat="33.83859" lon="77.50127">
        <ele>3999.4</ele>
        <time>2015-09-03T07:27:31Z</time>
      </trkpt>
      <trkpt lat="33.83857" lon="77.50123">
        <ele>3999.4</ele>
        <time>2015-09-03T07:27:33Z</time>
      </trkpt>
      <trkpt lat="33.83856" lon="77.50128">
        <ele>3999</ele>
        <time>2015-09-03T07:28:37Z</time>
      </trkpt>
      <trkpt lat="33.8386" lon="77.50142">
        <ele>3999.6</ele>
        <time>2015-09-03T07:29:08Z</time>
      </trkpt>
      <trkpt lat="33.83863" lon="77.50137">
        <ele>3999.8</ele>
        <time>2015-09-03T07:29:11Z</time>
      </trkpt>
      <trkpt lat="33.83862" lon="77.50151">
        <ele>4000</ele>
        <time>2015-09-03T07:29:35Z</time>
      </trkpt>
      <trkpt lat="33.83886" lon="77.502">
        <ele>4000</ele>
        <time>2015-09-03T07:29:44Z</time>
      </trkpt>
      <trkpt lat="33.83863" lon="77.50145">
        <ele>4000</ele>
        <time>2015-09-03T07:29:46Z</time>
      </trkpt>
      <trkpt lat="33.83858" lon="77.50133">
        <ele>3999.8</ele>
        <time>2015-09-03T07:29:48Z</time>
      </trkpt>
      <trkpt lat="33.83854" lon="77.50119">
        <ele>3999.8</ele>
        <time>2015-09-03T07:29:51Z</time>
      </trkpt>
      <trkpt lat="33.83854" lon="77.50117">
        <ele>3999.8</ele>
        <time>2015-09-03T07:29:53Z</time>
      </trkpt>
      <trkpt lat="33.83855" lon="77.50117">
        <ele>3999.8</ele>
        <time>2015-09-03T07:29:55Z</time>
      </trkpt>
      <trkpt lat="33.83864" lon="77.50112">
        <ele>4000</ele>
        <time>2015-09-03T07:30:07Z</time>
      </trkpt>
      <trkpt lat="33.83857" lon="77.50119">
        <ele>4000</ele>
        <time>2015-09-03T07:31:39Z</time>
      </trkpt>
      <trkpt lat="33.83855" lon="77.50121">
        <ele>4000.2</ele>
        <time>2015-09-03T07:32:44Z</time>
      </trkpt>
      <trkpt lat="33.83855" lon="77.50124">
        <ele>3999.8</ele>
        <time>2015-09-03T07:33:28Z</time>
      </trkpt>
      <trkpt lat="33.83856" lon="77.50118">
        <ele>4001.2</ele>
        <time>2015-09-03T07:33:54Z</time>
      </trkpt>
      <trkpt lat="33.83853" lon="77.50122">
        <ele>4000.8</ele>
        <time>2015-09-03T07:34:06Z</time>
      </trkpt>
      <trkpt lat="33.83856" lon="77.50123">
        <ele>4001.6</ele>
        <time>2015-09-03T07:34:50Z</time>
      </trkpt>
      <trkpt lat="33.83854" lon="77.5012">
        <ele>4001.8</ele>
        <time>2015-09-03T07:34:54Z</time>
      </trkpt>
      <trkpt lat="33.83853" lon="77.50118">
        <ele>4001.8</ele>
        <time>2015-09-03T07:35:13Z</time>
      </trkpt>
      <trkpt lat="33.83853" lon="77.50124">
        <ele>4002.2</ele>
        <time>2015-09-03T07:35:57Z</time>
      </trkpt>
      <trkpt lat="33.83853" lon="77.50122">
        <ele>4002.4</ele>
        <time>2015-09-03T07:36:56Z</time>
      </trkpt>
      <trkpt lat="33.83853" lon="77.50121">
        <ele>4002.2</ele>
        <time>2015-09-03T07:38:00Z</time>
      </trkpt>
      <trkpt lat="33.83851" lon="77.50119">
        <ele>4002.2</ele>
        <time>2015-09-03T07:38:12Z</time>
      </trkpt>
      <trkpt lat="33.8385" lon="77.50121">
        <ele>4002.2</ele>
        <time>2015-09-03T07:40:05Z</time>
      </trkpt>
      <trkpt lat="33.83858" lon="77.50121">
        <ele>4002.8</ele>
        <time>2015-09-03T07:40:17Z</time>
      </trkpt>
      <trkpt lat="33.83859" lon="77.50122">
        <ele>4003.2</ele>
        <time>2015-09-03T07:40:20Z</time>
      </trkpt>
      <trkpt lat="33.83859" lon="77.50122">
        <ele>4003.2</ele>
        <time>2015-09-03T07:40:21Z</time>
      </trkpt>
      <trkpt lat="33.83857" lon="77.50121">
        <ele>4003</ele>
        <time>2015-09-03T07:40:27Z</time>
      </trkpt>
      <trkpt lat="33.83855" lon="77.50126">
        <ele>4003.2</ele>
        <time>2015-09-03T07:41:19Z</time>
      </trkpt>
      <trkpt lat="33.83854" lon="77.50125">
        <ele>4003.2</ele>
        <time>2015-09-03T07:41:37Z</time>
      </trkpt>
      <trkpt lat="33.83854" lon="77.50123">
        <ele>4003.6</ele>
        <time>2015-09-03T07:42:40Z</time>
      </trkpt>
      <trkpt lat="33.83856" lon="77.50123">
        <ele>4004.2</ele>
        <time>2015-09-03T07:43:27Z</time>
      </trkpt>
      <trkpt lat="33.83855" lon="77.5012">
        <ele>4003.2</ele>
        <time>2015-09-03T07:43:57Z</time>
      </trkpt>
      <trkpt lat="33.83855" lon="77.50119">
        <ele>4003</ele>
        <time>2015-09-03T07:43:59Z</time>
      </trkpt>
      <trkpt lat="33.83844" lon="77.50104">
        <ele>4002</ele>
        <time>2015-09-03T07:44:20Z</time>
      </trkpt>
      <trkpt lat="33.83843" lon="77.50103">
        <ele>4002</ele>
        <time>2015-09-03T07:44:21Z</time>
      </trkpt>
      <trkpt lat="33.83842" lon="77.50103">
        <ele>4002</ele>
        <time>2015-09-03T07:44:22Z</time>
      </trkpt>
      <trkpt lat="33.8384" lon="77.50105">
        <ele>4001.8</ele>
        <time>2015-09-03T07:44:24Z</time>
      </trkpt>
      <trkpt lat="33.83836" lon="77.50107">
        <ele>4001.6</ele>
        <time>2015-09-03T07:44:27Z</time>
      </trkpt>
      <trkpt lat="33.83829" lon="77.50114">
        <ele>4001.8</ele>
        <time>2015-09-03T07:44:33Z</time>
      </trkpt>
      <trkpt lat="33.83827" lon="77.50115">
        <ele>4001.8</ele>
        <time>2015-09-03T07:44:35Z</time>
      </trkpt>
      <trkpt lat="33.83826" lon="77.50116">
        <ele>4001.8</ele>
        <time>2015-09-03T07:44:41Z</time>
      </trkpt>
      <trkpt lat="33.83809" lon="77.50122">
        <ele>4002.2</ele>
        <time>2015-09-03T07:45:02Z</time>
      </trkpt>
      <trkpt lat="33.83808" lon="77.50122">
        <ele>4002.2</ele>
        <time>2015-09-03T07:45:03Z</time>
      </trkpt>
      <trkpt lat="33.83807" lon="77.50123">
        <ele>4001.8</ele>
        <time>2015-09-03T07:45:05Z</time>
      </trkpt>
      <trkpt lat="33.83802" lon="77.50126">
        <ele>4001.8</ele>
        <time>2015-09-03T07:45:11Z</time>
      </trkpt>
      <trkpt lat="33.838" lon="77.50129">
        <ele>4002.2</ele>
        <time>2015-09-03T07:45:16Z</time>
      </trkpt>
      <trkpt lat="33.83788" lon="77.50142">
        <ele>4001.8</ele>
        <time>2015-09-03T07:45:52Z</time>
      </trkpt>
      <trkpt lat="33.83779" lon="77.50153">
        <ele>4003</ele>
        <time>2015-09-03T07:46:11Z</time>
      </trkpt>
      <trkpt lat="33.83778" lon="77.50152">
        <ele>4003</ele>
        <time>2015-09-03T07:46:13Z</time>
      </trkpt>
      <trkpt lat="33.83775" lon="77.50149">
        <ele>4004</ele>
        <time>2015-09-03T07:46:27Z</time>
      </trkpt>
      <trkpt lat="33.83771" lon="77.50149">
        <ele>4005.2</ele>
        <time>2015-09-03T07:46:37Z</time>
      </trkpt>
      <trkpt lat="33.8376" lon="77.50158">
        <ele>4005.2</ele>
        <time>2015-09-03T07:46:50Z</time>
      </trkpt>
      <trkpt lat="33.83754" lon="77.50161">
        <ele>4005.4</ele>
        <time>2015-09-03T07:46:57Z</time>
      </trkpt>
      <trkpt lat="33.8375" lon="77.50162">
        <ele>4005.6</ele>
        <time>2015-09-03T07:47:01Z</time>
      </trkpt>
      <trkpt lat="33.83749" lon="77.50156">
        <ele>4005.4</ele>
        <time>2015-09-03T07:47:05Z</time>
      </trkpt>
      <trkpt lat="33.83745" lon="77.50148">
        <ele>4005.2</ele>
        <time>2015-09-03T07:47:14Z</time>
      </trkpt>
      <trkpt lat="33.83732" lon="77.50145">
        <ele>4004.8</ele>
        <time>2015-09-03T07:47:30Z</time>
      </trkpt>
      <trkpt lat="33.8373" lon="77.50144">
        <ele>4004.8</ele>
        <time>2015-09-03T07:47:33Z</time>
      </trkpt>
      <trkpt lat="33.83731" lon="77.50142">
        <ele>4004.6</ele>
        <time>2015-09-03T07:47:38Z</time>
      </trkpt>
      <trkpt lat="33.83726" lon="77.50141">
        <ele>4004.4</ele>
        <time>2015-09-03T07:47:49Z</time>
      </trkpt>
      <trkpt lat="33.8372" lon="77.50139">
        <ele>4004.2</ele>
        <time>2015-09-03T07:47:56Z</time>
      </trkpt>
      <trkpt lat="33.83715" lon="77.50136">
        <ele>4004</ele>
        <time>2015-09-03T07:48:04Z</time>
      </trkpt>
      <trkpt lat="33.83706" lon="77.50135">
        <ele>4003</ele>
        <time>2015-09-03T07:48:15Z</time>
      </trkpt>
      <trkpt lat="33.83704" lon="77.50134">
        <ele>4002.8</ele>
        <time>2015-09-03T07:48:19Z</time>
      </trkpt>
      <trkpt lat="33.83701" lon="77.50124">
        <ele>4003.4</ele>
        <time>2015-09-03T07:48:31Z</time>
      </trkpt>
      <trkpt lat="33.83696" lon="77.5012">
        <ele>4003</ele>
        <time>2015-09-03T07:48:42Z</time>
      </trkpt>
      <trkpt lat="33.83692" lon="77.50123">
        <ele>4003</ele>
        <time>2015-09-03T07:49:15Z</time>
      </trkpt>
      <trkpt lat="33.83692" lon="77.50122">
        <ele>4003</ele>
        <time>2015-09-03T07:49:17Z</time>
      </trkpt>
      <trkpt lat="33.83679" lon="77.5011">
        <ele>4003.6</ele>
        <time>2015-09-03T07:49:50Z</time>
      </trkpt>
      <trkpt lat="33.83677" lon="77.50108">
        <ele>4003.8</ele>
        <time>2015-09-03T07:49:52Z</time>
      </trkpt>
      <trkpt lat="33.83673" lon="77.50107">
        <ele>4003.8</ele>
        <time>2015-09-03T07:49:55Z</time>
      </trkpt>
      <trkpt lat="33.8366" lon="77.50093">
        <ele>4004</ele>
        <time>2015-09-03T07:50:09Z</time>
      </trkpt>
      <trkpt lat="33.83654" lon="77.50093">
        <ele>4004.2</ele>
        <time>2015-09-03T07:50:15Z</time>
      </trkpt>
      <trkpt lat="33.83648" lon="77.50093">
        <ele>4004.2</ele>
        <time>2015-09-03T07:50:19Z</time>
      </trkpt>
      <trkpt lat="33.83635" lon="77.50092">
        <ele>4005</ele>
        <time>2015-09-03T07:50:32Z</time>
      </trkpt>
      <trkpt lat="33.83621" lon="77.50078">
        <ele>4005.6</ele>
        <time>2015-09-03T07:50:49Z</time>
      </trkpt>
      <trkpt lat="33.83608" lon="77.5007">
        <ele>4006.2</ele>
        <time>2015-09-03T07:51:07Z</time>
      </trkpt>
      <trkpt lat="33.83604" lon="77.50069">
        <ele>4006.2</ele>
        <time>2015-09-03T07:51:11Z</time>
      </trkpt>
      <trkpt lat="33.83602" lon="77.50068">
        <ele>4006.4</ele>
        <time>2015-09-03T07:51:13Z</time>
      </trkpt>
      <trkpt lat="33.83598" lon="77.50065">
        <ele>4006.2</ele>
        <time>2015-09-03T07:51:16Z</time>
      </trkpt>
      <trkpt lat="33.83583" lon="77.50056">
        <ele>4007</ele>
        <time>2015-09-03T07:51:31Z</time>
      </trkpt>
      <trkpt lat="33.8358" lon="77.50055">
        <ele>4007</ele>
        <time>2015-09-03T07:51:34Z</time>
      </trkpt>
      <trkpt lat="33.8358" lon="77.50053">
        <ele>4007.2</ele>
        <time>2015-09-03T07:51:35Z</time>
      </trkpt>
      <trkpt lat="33.83579" lon="77.50053">
        <ele>4007.2</ele>
        <time>2015-09-03T07:51:36Z</time>
      </trkpt>
      <trkpt lat="33.83566" lon="77.50038">
        <ele>4007.8</ele>
        <time>2015-09-03T07:51:52Z</time>
      </trkpt>
      <trkpt lat="33.83563" lon="77.50039">
        <ele>4007.8</ele>
        <time>2015-09-03T07:51:55Z</time>
      </trkpt>
      <trkpt lat="33.8356" lon="77.50038">
        <ele>4007.6</ele>
        <time>2015-09-03T07:51:57Z</time>
      </trkpt>
      <trkpt lat="33.83554" lon="77.50031">
        <ele>4007.6</ele>
        <time>2015-09-03T07:52:05Z</time>
      </trkpt>
      <trkpt lat="33.83552" lon="77.50031">
        <ele>4007.8</ele>
        <time>2015-09-03T07:52:08Z</time>
      </trkpt>
      <trkpt lat="33.83547" lon="77.50031">
        <ele>4008.2</ele>
        <time>2015-09-03T07:52:13Z</time>
      </trkpt>
      <trkpt lat="33.83546" lon="77.50031">
        <ele>4008.2</ele>
        <time>2015-09-03T07:52:14Z</time>
      </trkpt>
      <trkpt lat="33.83533" lon="77.50036">
        <ele>4009</ele>
        <time>2015-09-03T07:52:31Z</time>
      </trkpt>
      <trkpt lat="33.8353" lon="77.50039">
        <ele>4009</ele>
        <time>2015-09-03T07:52:33Z</time>
      </trkpt>
      <trkpt lat="33.83528" lon="77.50041">
        <ele>4009.2</ele>
        <time>2015-09-03T07:52:35Z</time>
      </trkpt>
      <trkpt lat="33.83527" lon="77.50042">
        <ele>4009.2</ele>
        <time>2015-09-03T07:52:36Z</time>
      </trkpt>
      <trkpt lat="33.83524" lon="77.5004">
        <ele>4009.4</ele>
        <time>2015-09-03T07:52:41Z</time>
      </trkpt>
      <trkpt lat="33.83522" lon="77.5004">
        <ele>4009.6</ele>
        <time>2015-09-03T07:52:43Z</time>
      </trkpt>
      <trkpt lat="33.83522" lon="77.5004">
        <ele>4009.6</ele>
        <time>2015-09-03T07:52:44Z</time>
      </trkpt>
      <trkpt lat="33.83522" lon="77.5004">
        <ele>4009.6</ele>
        <time>2015-09-03T07:52:45Z</time>
      </trkpt>
      <trkpt lat="33.83517" lon="77.50043">
        <ele>4009.6</ele>
        <time>2015-09-03T07:52:50Z</time>
      </trkpt>
      <trkpt lat="33.83516" lon="77.50043">
        <ele>4009.4</ele>
        <time>2015-09-03T07:52:52Z</time>
      </trkpt>
      <trkpt lat="33.83512" lon="77.50045">
        <ele>4009.6</ele>
        <time>2015-09-03T07:52:56Z</time>
      </trkpt>
      <trkpt lat="33.8351" lon="77.50045">
        <ele>4009.6</ele>
        <time>2015-09-03T07:52:58Z</time>
      </trkpt>
      <trkpt lat="33.83498" lon="77.50048">
        <ele>4010.2</ele>
        <time>2015-09-03T07:53:11Z</time>
      </trkpt>
      <trkpt lat="33.83497" lon="77.50049">
        <ele>4010.2</ele>
        <time>2015-09-03T07:53:12Z</time>
      </trkpt>
      <trkpt lat="33.83495" lon="77.50049">
        <ele>4010.4</ele>
        <time>2015-09-03T07:53:14Z</time>
      </trkpt>
      <trkpt lat="33.83491" lon="77.5005">
        <ele>4010.6</ele>
        <time>2015-09-03T07:53:18Z</time>
      </trkpt>
      <trkpt lat="33.83489" lon="77.5005">
        <ele>4010.8</ele>
        <time>2015-09-03T07:53:21Z</time>
      </trkpt>
      <trkpt lat="33.83483" lon="77.50051">
        <ele>4010.8</ele>
        <time>2015-09-03T07:53:27Z</time>
      </trkpt>
      <trkpt lat="33.83479" lon="77.50049">
        <ele>4011.2</ele>
        <time>2015-09-03T07:53:31Z</time>
      </trkpt>
      <trkpt lat="33.83478" lon="77.50048">
        <ele>4011.2</ele>
        <time>2015-09-03T07:53:32Z</time>
      </trkpt>
      <trkpt lat="33.83477" lon="77.50049">
        <ele>4011.4</ele>
        <time>2015-09-03T07:53:34Z</time>
      </trkpt>
      <trkpt lat="33.83466" lon="77.50056">
        <ele>4012</ele>
        <time>2015-09-03T07:53:57Z</time>
      </trkpt>
      <trkpt lat="33.83464" lon="77.50057">
        <ele>4012</ele>
        <time>2015-09-03T07:54:00Z</time>
      </trkpt>
      <trkpt lat="33.83461" lon="77.50058">
        <ele>4012.2</ele>
        <time>2015-09-03T07:54:03Z</time>
      </trkpt>
      <trkpt lat="33.83458" lon="77.50061">
        <ele>4012.6</ele>
        <time>2015-09-03T07:54:06Z</time>
      </trkpt>
      <trkpt lat="33.83453" lon="77.50064">
        <ele>4012.8</ele>
        <time>2015-09-03T07:54:12Z</time>
      </trkpt>
      <trkpt lat="33.83448" lon="77.50067">
        <ele>4013.2</ele>
        <time>2015-09-03T07:54:22Z</time>
      </trkpt>
      <trkpt lat="33.83445" lon="77.50072">
        <ele>4013.4</ele>
        <time>2015-09-03T07:54:28Z</time>
      </trkpt>
      <trkpt lat="33.83443" lon="77.50073">
        <ele>4013.4</ele>
        <time>2015-09-03T07:54:30Z</time>
      </trkpt>
      <trkpt lat="33.83434" lon="77.50077">
        <ele>4014</ele>
        <time>2015-09-03T07:54:39Z</time>
      </trkpt>
      <trkpt lat="33.8343" lon="77.50081">
        <ele>4014</ele>
        <time>2015-09-03T07:54:45Z</time>
      </trkpt>
      <trkpt lat="33.83425" lon="77.50083">
        <ele>4014.2</ele>
        <time>2015-09-03T07:54:49Z</time>
      </trkpt>
      <trkpt lat="33.83423" lon="77.50085">
        <ele>4014.2</ele>
        <time>2015-09-03T07:54:51Z</time>
      </trkpt>
      <trkpt lat="33.83422" lon="77.50086">
        <ele>4014.2</ele>
        <time>2015-09-03T07:54:52Z</time>
      </trkpt>
      <trkpt lat="33.83419" lon="77.5009">
        <ele>4014.6</ele>
        <time>2015-09-03T07:54:55Z</time>
      </trkpt>
      <trkpt lat="33.83416" lon="77.50092">
        <ele>4014.8</ele>
        <time>2015-09-03T07:54:58Z</time>
      </trkpt>
      <trkpt lat="33.83408" lon="77.50097">
        <ele>4015.2</ele>
        <time>2015-09-03T07:55:07Z</time>
      </trkpt>
      <trkpt lat="33.83407" lon="77.50097">
        <ele>4015.4</ele>
        <time>2015-09-03T07:55:08Z</time>
      </trkpt>
      <trkpt lat="33.83391" lon="77.501">
        <ele>4016</ele>
        <time>2015-09-03T07:55:22Z</time>
      </trkpt>
      <trkpt lat="33.8339" lon="77.50102">
        <ele>4016.2</ele>
        <time>2015-09-03T07:55:25Z</time>
      </trkpt>
      <trkpt lat="33.83386" lon="77.5011">
        <ele>4016.4</ele>
        <time>2015-09-03T07:55:32Z</time>
      </trkpt>
      <trkpt lat="33.83383" lon="77.50113">
        <ele>4016.4</ele>
        <time>2015-09-03T07:55:37Z</time>
      </trkpt>
      <trkpt lat="33.83382" lon="77.50115">
        <ele>4016.4</ele>
        <time>2015-09-03T07:55:39Z</time>
      </trkpt>
      <trkpt lat="33.8338" lon="77.50117">
        <ele>4016.6</ele>
        <time>2015-09-03T07:55:41Z</time>
      </trkpt>
      <trkpt lat="33.83379" lon="77.50115">
        <ele>4016.6</ele>
        <time>2015-09-03T07:55:43Z</time>
      </trkpt>
      <trkpt lat="33.83374" lon="77.50114">
        <ele>4016.8</ele>
        <time>2015-09-03T07:55:51Z</time>
      </trkpt>
      <trkpt lat="33.83363" lon="77.50108">
        <ele>4017.2</ele>
        <time>2015-09-03T07:56:01Z</time>
      </trkpt>
      <trkpt lat="33.83362" lon="77.50109">
        <ele>4017.2</ele>
        <time>2015-09-03T07:56:03Z</time>
      </trkpt>
      <trkpt lat="33.8336" lon="77.50114">
        <ele>4017.4</ele>
        <time>2015-09-03T07:56:05Z</time>
      </trkpt>
      <trkpt lat="33.83359" lon="77.50119">
        <ele>4017.4</ele>
        <time>2015-09-03T07:56:08Z</time>
      </trkpt>
      <trkpt lat="33.83353" lon="77.50125">
        <ele>4018.4</ele>
        <time>2015-09-03T07:56:19Z</time>
      </trkpt>
      <trkpt lat="33.83352" lon="77.50142">
        <ele>4019.4</ele>
        <time>2015-09-03T07:56:26Z</time>
      </trkpt>
      <trkpt lat="33.83351" lon="77.50142">
        <ele>4019.6</ele>
        <time>2015-09-03T07:56:28Z</time>
      </trkpt>
      <trkpt lat="33.83343" lon="77.50137">
        <ele>4020.4</ele>
        <time>2015-09-03T07:56:40Z</time>
      </trkpt>
      <trkpt lat="33.83341" lon="77.50135">
        <ele>4020.6</ele>
        <time>2015-09-03T07:56:42Z</time>
      </trkpt>
      <trkpt lat="33.8334" lon="77.50132">
        <ele>4021</ele>
        <time>2015-09-03T07:56:44Z</time>
      </trkpt>
      <trkpt lat="33.83341" lon="77.5013">
        <ele>4021.6</ele>
        <time>2015-09-03T07:56:50Z</time>
      </trkpt>
      <trkpt lat="33.83348" lon="77.50133">
        <ele>4022.6</ele>
        <time>2015-09-03T07:57:08Z</time>
      </trkpt>
      <trkpt lat="33.83346" lon="77.5014">
        <ele>4023.6</ele>
        <time>2015-09-03T07:57:18Z</time>
      </trkpt>
      <trkpt lat="33.83347" lon="77.50142">
        <ele>4024</ele>
        <time>2015-09-03T07:57:21Z</time>
      </trkpt>
      <trkpt lat="33.83347" lon="77.50143">
        <ele>4024.6</ele>
        <time>2015-09-03T07:57:26Z</time>
      </trkpt>
      <trkpt lat="33.83355" lon="77.50144">
        <ele>4025.2</ele>
        <time>2015-09-03T07:57:32Z</time>
      </trkpt>
      <trkpt lat="33.83359" lon="77.50143">
        <ele>4025.2</ele>
        <time>2015-09-03T07:57:34Z</time>
      </trkpt>
      <trkpt lat="33.83359" lon="77.50144">
        <ele>4025.4</ele>
        <time>2015-09-03T07:57:37Z</time>
      </trkpt>
      <trkpt lat="33.8336" lon="77.50144">
        <ele>4025.6</ele>
        <time>2015-09-03T07:57:42Z</time>
      </trkpt>
      <trkpt lat="33.83352" lon="77.50144">
        <ele>4026.2</ele>
        <time>2015-09-03T07:57:48Z</time>
      </trkpt>
      <trkpt lat="33.83351" lon="77.50145">
        <ele>4026.8</ele>
        <time>2015-09-03T07:57:52Z</time>
      </trkpt>
      <trkpt lat="33.8335" lon="77.50147">
        <ele>4027.8</ele>
        <time>2015-09-03T07:58:02Z</time>
      </trkpt>
      <trkpt lat="33.83351" lon="77.50148">
        <ele>4028.4</ele>
        <time>2015-09-03T07:58:06Z</time>
      </trkpt>
      <trkpt lat="33.83352" lon="77.50149">
        <ele>4028.8</ele>
        <time>2015-09-03T07:58:13Z</time>
      </trkpt>
      <trkpt lat="33.83351" lon="77.50149">
        <ele>4030</ele>
        <time>2015-09-03T07:58:22Z</time>
      </trkpt>
      <trkpt lat="33.83347" lon="77.50157">
        <ele>4030.8</ele>
        <time>2015-09-03T07:58:34Z</time>
      </trkpt>
      <trkpt lat="33.83346" lon="77.50158">
        <ele>4030.8</ele>
        <time>2015-09-03T07:58:36Z</time>
      </trkpt>
      <trkpt lat="33.83345" lon="77.50159">
        <ele>4031</ele>
        <time>2015-09-03T07:58:38Z</time>
      </trkpt>
      <trkpt lat="33.83347" lon="77.50159">
        <ele>4031.6</ele>
        <time>2015-09-03T07:58:42Z</time>
      </trkpt>
      <trkpt lat="33.83348" lon="77.50159">
        <ele>4032</ele>
        <time>2015-09-03T07:58:44Z</time>
      </trkpt>
      <trkpt lat="33.83339" lon="77.50166">
        <ele>4033</ele>
        <time>2015-09-03T07:58:56Z</time>
      </trkpt>
      <trkpt lat="33.83344" lon="77.50167">
        <ele>4033.8</ele>
        <time>2015-09-03T07:59:03Z</time>
      </trkpt>
      <trkpt lat="33.83345" lon="77.50164">
        <ele>4034</ele>
        <time>2015-09-03T07:59:06Z</time>
      </trkpt>
      <trkpt lat="33.83346" lon="77.50163">
        <ele>4034.2</ele>
        <time>2015-09-03T07:59:07Z</time>
      </trkpt>
      <trkpt lat="33.83349" lon="77.50163">
        <ele>4034.6</ele>
        <time>2015-09-03T07:59:12Z</time>
      </trkpt>
      <trkpt lat="33.8335" lon="77.50162">
        <ele>4035.2</ele>
        <time>2015-09-03T07:59:15Z</time>
      </trkpt>
      <trkpt lat="33.83356" lon="77.50162">
        <ele>4036</ele>
        <time>2015-09-03T07:59:21Z</time>
      </trkpt>
      <trkpt lat="33.8335" lon="77.50173">
        <ele>4036.2</ele>
        <time>2015-09-03T07:59:26Z</time>
      </trkpt>
      <trkpt lat="33.8335" lon="77.50174">
        <ele>4036.2</ele>
        <time>2015-09-03T07:59:28Z</time>
      </trkpt>
      <trkpt lat="33.83348" lon="77.50172">
        <ele>4037.2</ele>
        <time>2015-09-03T07:59:38Z</time>
      </trkpt>
      <trkpt lat="33.83347" lon="77.5017">
        <ele>4037.4</ele>
        <time>2015-09-03T07:59:40Z</time>
      </trkpt>
      <trkpt lat="33.83351" lon="77.50173">
        <ele>4037.6</ele>
        <time>2015-09-03T08:00:00Z</time>
      </trkpt>
      <trkpt lat="33.8335" lon="77.50174">
        <ele>4040.4</ele>
        <time>2015-09-03T08:00:37Z</time>
      </trkpt>
      <trkpt lat="33.8335" lon="77.50173">
        <ele>4040.4</ele>
        <time>2015-09-03T08:00:38Z</time>
      </trkpt>
      <trkpt lat="33.83347" lon="77.5018">
        <ele>4041.6</ele>
        <time>2015-09-03T08:00:46Z</time>
      </trkpt>
      <trkpt lat="33.83348" lon="77.50181">
        <ele>4042.6</ele>
        <time>2015-09-03T08:00:54Z</time>
      </trkpt>
      <trkpt lat="33.83344" lon="77.50181">
        <ele>4043.4</ele>
        <time>2015-09-03T08:01:04Z</time>
      </trkpt>
      <trkpt lat="33.83343" lon="77.50182">
        <ele>4043.6</ele>
        <time>2015-09-03T08:01:06Z</time>
      </trkpt>
      <trkpt lat="33.83342" lon="77.50188">
        <ele>4044.6</ele>
        <time>2015-09-03T08:01:17Z</time>
      </trkpt>
      <trkpt lat="33.83343" lon="77.50192">
        <ele>4045.8</ele>
        <time>2015-09-03T08:01:29Z</time>
      </trkpt>
      <trkpt lat="33.83345" lon="77.50194">
        <ele>4046.8</ele>
        <time>2015-09-03T08:01:37Z</time>
      </trkpt>
      <trkpt lat="33.83345" lon="77.502">
        <ele>4047.8</ele>
        <time>2015-09-03T08:01:48Z</time>
      </trkpt>
      <trkpt lat="33.83345" lon="77.50204">
        <ele>4049</ele>
        <time>2015-09-03T08:01:59Z</time>
      </trkpt>
      <trkpt lat="33.83341" lon="77.50209">
        <ele>4050</ele>
        <time>2015-09-03T08:02:09Z</time>
      </trkpt>
      <trkpt lat="33.8334" lon="77.50214">
        <ele>4051</ele>
        <time>2015-09-03T08:02:17Z</time>
      </trkpt>
      <trkpt lat="33.8334" lon="77.50221">
        <ele>4052</ele>
        <time>2015-09-03T08:03:01Z</time>
      </trkpt>
      <trkpt lat="33.83338" lon="77.50227">
        <ele>4053</ele>
        <time>2015-09-03T08:03:11Z</time>
      </trkpt>
      <trkpt lat="33.83336" lon="77.50235">
        <ele>4054.2</ele>
        <time>2015-09-03T08:03:24Z</time>
      </trkpt>
      <trkpt lat="33.83334" lon="77.50243">
        <ele>4055.2</ele>
        <time>2015-09-03T08:03:35Z</time>
      </trkpt>
      <trkpt lat="33.83333" lon="77.50248">
        <ele>4056.2</ele>
        <time>2015-09-03T08:03:45Z</time>
      </trkpt>
      <trkpt lat="33.83334" lon="77.50252">
        <ele>4057.2</ele>
        <time>2015-09-03T08:04:00Z</time>
      </trkpt>
      <trkpt lat="33.83332" lon="77.50255">
        <ele>4058.2</ele>
        <time>2015-09-03T08:04:10Z</time>
      </trkpt>
      <trkpt lat="33.83329" lon="77.50264">
        <ele>4059.4</ele>
        <time>2015-09-03T08:04:25Z</time>
      </trkpt>
      <trkpt lat="33.83325" lon="77.50276">
        <ele>4060.4</ele>
        <time>2015-09-03T08:04:42Z</time>
      </trkpt>
      <trkpt lat="33.83321" lon="77.50288">
        <ele>4061.4</ele>
        <time>2015-09-03T08:05:01Z</time>
      </trkpt>
      <trkpt lat="33.83316" lon="77.50294">
        <ele>4062.4</ele>
        <time>2015-09-03T08:05:14Z</time>
      </trkpt>
      <trkpt lat="33.83311" lon="77.50304">
        <ele>4063</ele>
        <time>2015-09-03T08:05:26Z</time>
      </trkpt>
      <trkpt lat="33.83307" lon="77.50308">
        <ele>4063.6</ele>
        <time>2015-09-03T08:05:33Z</time>
      </trkpt>
      <trkpt lat="33.833" lon="77.50313">
        <ele>4064.6</ele>
        <time>2015-09-03T08:05:47Z</time>
      </trkpt>
      <trkpt lat="33.83298" lon="77.50326">
        <ele>4065.6</ele>
        <time>2015-09-03T08:06:05Z</time>
      </trkpt>
      <trkpt lat="33.83293" lon="77.50339">
        <ele>4066.8</ele>
        <time>2015-09-03T08:06:23Z</time>
      </trkpt>
      <trkpt lat="33.83292" lon="77.50341">
        <ele>4067.2</ele>
        <time>2015-09-03T08:06:25Z</time>
      </trkpt>
      <trkpt lat="33.83286" lon="77.50351">
        <ele>4067.8</ele>
        <time>2015-09-03T08:06:37Z</time>
      </trkpt>
      <trkpt lat="33.83285" lon="77.50352">
        <ele>4067.8</ele>
        <time>2015-09-03T08:06:40Z</time>
      </trkpt>
      <trkpt lat="33.83277" lon="77.50369">
        <ele>4068.8</ele>
        <time>2015-09-03T08:07:00Z</time>
      </trkpt>
      <trkpt lat="33.83277" lon="77.50372">
        <ele>4069</ele>
        <time>2015-09-03T08:07:02Z</time>
      </trkpt>
      <trkpt lat="33.83277" lon="77.50374">
        <ele>4069.4</ele>
        <time>2015-09-03T08:07:05Z</time>
      </trkpt>
      <trkpt lat="33.83276" lon="77.50378">
        <ele>4069.8</ele>
        <time>2015-09-03T08:07:17Z</time>
      </trkpt>
      <trkpt lat="33.83274" lon="77.50392">
        <ele>4070</ele>
        <time>2015-09-03T08:07:29Z</time>
      </trkpt>
      <trkpt lat="33.83274" lon="77.50396">
        <ele>4070.2</ele>
        <time>2015-09-03T08:07:33Z</time>
      </trkpt>
      <trkpt lat="33.83271" lon="77.50395">
        <ele>4070.2</ele>
        <time>2015-09-03T08:07:46Z</time>
      </trkpt>
      <trkpt lat="33.83268" lon="77.50392">
        <ele>4070.2</ele>
        <time>2015-09-03T08:07:49Z</time>
      </trkpt>
      <trkpt lat="33.83266" lon="77.50393">
        <ele>4070</ele>
        <time>2015-09-03T08:07:51Z</time>
      </trkpt>
      <trkpt lat="33.83261" lon="77.50393">
        <ele>4069.2</ele>
        <time>2015-09-03T08:07:56Z</time>
      </trkpt>
      <trkpt lat="33.8326" lon="77.50396">
        <ele>4069</ele>
        <time>2015-09-03T08:07:59Z</time>
      </trkpt>
      <trkpt lat="33.8326" lon="77.50397">
        <ele>4068.8</ele>
        <time>2015-09-03T08:08:00Z</time>
      </trkpt>
      <trkpt lat="33.83258" lon="77.50402">
        <ele>4068.6</ele>
        <time>2015-09-03T08:08:03Z</time>
      </trkpt>
      <trkpt lat="33.83254" lon="77.50411">
        <ele>4067.8</ele>
        <time>2015-09-03T08:08:11Z</time>
      </trkpt>
      <trkpt lat="33.83254" lon="77.50412">
        <ele>4067.8</ele>
        <time>2015-09-03T08:08:12Z</time>
      </trkpt>
      <trkpt lat="33.83254" lon="77.50416">
        <ele>4067.6</ele>
        <time>2015-09-03T08:08:15Z</time>
      </trkpt>
      <trkpt lat="33.83252" lon="77.50419">
        <ele>4067.6</ele>
        <time>2015-09-03T08:08:18Z</time>
      </trkpt>
      <trkpt lat="33.83251" lon="77.50421">
        <ele>4067.4</ele>
        <time>2015-09-03T08:08:20Z</time>
      </trkpt>
      <trkpt lat="33.83251" lon="77.50425">
        <ele>4067.2</ele>
        <time>2015-09-03T08:08:23Z</time>
      </trkpt>
      <trkpt lat="33.8325" lon="77.50431">
        <ele>4067.4</ele>
        <time>2015-09-03T08:08:27Z</time>
      </trkpt>
      <trkpt lat="33.83255" lon="77.5045">
        <ele>4066.6</ele>
        <time>2015-09-03T08:08:49Z</time>
      </trkpt>
      <trkpt lat="33.83253" lon="77.50454">
        <ele>4066.4</ele>
        <time>2015-09-03T08:08:52Z</time>
      </trkpt>
      <trkpt lat="33.83241" lon="77.50469">
        <ele>4067</ele>
        <time>2015-09-03T08:09:07Z</time>
      </trkpt>
      <trkpt lat="33.83238" lon="77.50477">
        <ele>4067.2</ele>
        <time>2015-09-03T08:09:13Z</time>
      </trkpt>
      <trkpt lat="33.83237" lon="77.50491">
        <ele>4067.6</ele>
        <time>2015-09-03T08:09:26Z</time>
      </trkpt>
      <trkpt lat="33.83234" lon="77.50499">
        <ele>4067.6</ele>
        <time>2015-09-03T08:09:33Z</time>
      </trkpt>
      <trkpt lat="33.83228" lon="77.50515">
        <ele>4067</ele>
        <time>2015-09-03T08:09:46Z</time>
      </trkpt>
      <trkpt lat="33.83226" lon="77.50525">
        <ele>4067</ele>
        <time>2015-09-03T08:09:56Z</time>
      </trkpt>
      <trkpt lat="33.83224" lon="77.50529">
        <ele>4066.6</ele>
        <time>2015-09-03T08:10:02Z</time>
      </trkpt>
      <trkpt lat="33.8322" lon="77.50536">
        <ele>4066.2</ele>
        <time>2015-09-03T08:10:10Z</time>
      </trkpt>
      <trkpt lat="33.83218" lon="77.50544">
        <ele>4065.6</ele>
        <time>2015-09-03T08:10:16Z</time>
      </trkpt>
      <trkpt lat="33.83216" lon="77.5055">
        <ele>4065.4</ele>
        <time>2015-09-03T08:10:21Z</time>
      </trkpt>
      <trkpt lat="33.83215" lon="77.50552">
        <ele>4065.2</ele>
        <time>2015-09-03T08:10:23Z</time>
      </trkpt>
      <trkpt lat="33.83213" lon="77.50554">
        <ele>4065.2</ele>
        <time>2015-09-03T08:10:26Z</time>
      </trkpt>
      <trkpt lat="33.8321" lon="77.5056">
        <ele>4065.8</ele>
        <time>2015-09-03T08:10:32Z</time>
      </trkpt>
      <trkpt lat="33.83207" lon="77.50565">
        <ele>4066</ele>
        <time>2015-09-03T08:10:37Z</time>
      </trkpt>
      <trkpt lat="33.83208" lon="77.50578">
        <ele>4066</ele>
        <time>2015-09-03T08:10:49Z</time>
      </trkpt>
      <trkpt lat="33.8321" lon="77.5058">
        <ele>4066.2</ele>
        <time>2015-09-03T08:10:51Z</time>
      </trkpt>
      <trkpt lat="33.83209" lon="77.50582">
        <ele>4066.8</ele>
        <time>2015-09-03T08:10:54Z</time>
      </trkpt>
      <trkpt lat="33.83209" lon="77.50589">
        <ele>4067.2</ele>
        <time>2015-09-03T08:11:01Z</time>
      </trkpt>
      <trkpt lat="33.83209" lon="77.50595">
        <ele>4066.6</ele>
        <time>2015-09-03T08:11:08Z</time>
      </trkpt>
      <trkpt lat="33.83204" lon="77.50611">
        <ele>4067</ele>
        <time>2015-09-03T08:11:24Z</time>
      </trkpt>
      <trkpt lat="33.83203" lon="77.50626">
        <ele>4066.4</ele>
        <time>2015-09-03T08:11:36Z</time>
      </trkpt>
      <trkpt lat="33.83203" lon="77.50628">
        <ele>4066.4</ele>
        <time>2015-09-03T08:11:38Z</time>
      </trkpt>
      <trkpt lat="33.83203" lon="77.50635">
        <ele>4066.4</ele>
        <time>2015-09-03T08:11:43Z</time>
      </trkpt>
      <trkpt lat="33.83202" lon="77.50639">
        <ele>4066.4</ele>
        <time>2015-09-03T08:11:46Z</time>
      </trkpt>
      <trkpt lat="33.83197" lon="77.50644">
        <ele>4066.8</ele>
        <time>2015-09-03T08:11:53Z</time>
      </trkpt>
      <trkpt lat="33.83191" lon="77.50663">
        <ele>4065.6</ele>
        <time>2015-09-03T08:12:10Z</time>
      </trkpt>
      <trkpt lat="33.83192" lon="77.50676">
        <ele>4064.6</ele>
        <time>2015-09-03T08:12:20Z</time>
      </trkpt>
      <trkpt lat="33.83192" lon="77.50689">
        <ele>4063.6</ele>
        <time>2015-09-03T08:12:27Z</time>
      </trkpt>
      <trkpt lat="33.83192" lon="77.50693">
        <ele>4063.4</ele>
        <time>2015-09-03T08:12:30Z</time>
      </trkpt>
      <trkpt lat="33.83188" lon="77.507">
        <ele>4062.4</ele>
        <time>2015-09-03T08:12:40Z</time>
      </trkpt>
      <trkpt lat="33.83186" lon="77.50706">
        <ele>4061</ele>
        <time>2015-09-03T08:12:45Z</time>
      </trkpt>
      <trkpt lat="33.83178" lon="77.50714">
        <ele>4060.4</ele>
        <time>2015-09-03T08:12:54Z</time>
      </trkpt>
      <trkpt lat="33.83173" lon="77.50717">
        <ele>4060</ele>
        <time>2015-09-03T08:13:00Z</time>
      </trkpt>
      <trkpt lat="33.83171" lon="77.50717">
        <ele>4059.4</ele>
        <time>2015-09-03T08:13:03Z</time>
      </trkpt>
      <trkpt lat="33.8317" lon="77.50716">
        <ele>4059.4</ele>
        <time>2015-09-03T08:13:04Z</time>
      </trkpt>
      <trkpt lat="33.83165" lon="77.50718">
        <ele>4059</ele>
        <time>2015-09-03T08:13:10Z</time>
      </trkpt>
      <trkpt lat="33.83164" lon="77.5072">
        <ele>4058.8</ele>
        <time>2015-09-03T08:13:11Z</time>
      </trkpt>
      <trkpt lat="33.8316" lon="77.50723">
        <ele>4058.6</ele>
        <time>2015-09-03T08:13:15Z</time>
      </trkpt>
      <trkpt lat="33.83155" lon="77.50718">
        <ele>4058.2</ele>
        <time>2015-09-03T08:13:20Z</time>
      </trkpt>
      <trkpt lat="33.83147" lon="77.50709">
        <ele>4059</ele>
        <time>2015-09-03T08:13:34Z</time>
      </trkpt>
      <trkpt lat="33.8315" lon="77.5071">
        <ele>4059.4</ele>
        <time>2015-09-03T08:13:47Z</time>
      </trkpt>
      <trkpt lat="33.83149" lon="77.50711">
        <ele>4059.4</ele>
        <time>2015-09-03T08:13:51Z</time>
      </trkpt>
      <trkpt lat="33.83146" lon="77.50714">
        <ele>4059.8</ele>
        <time>2015-09-03T08:13:55Z</time>
      </trkpt>
      <trkpt lat="33.83143" lon="77.50715">
        <ele>4060</ele>
        <time>2015-09-03T08:13:57Z</time>
      </trkpt>
      <trkpt lat="33.83142" lon="77.50716">
        <ele>4060</ele>
        <time>2015-09-03T08:13:58Z</time>
      </trkpt>
      <trkpt lat="33.83138" lon="77.50709">
        <ele>4061</ele>
        <time>2015-09-03T08:14:08Z</time>
      </trkpt>
      <trkpt lat="33.83137" lon="77.50715">
        <ele>4062</ele>
        <time>2015-09-03T08:14:16Z</time>
      </trkpt>
      <trkpt lat="33.83133" lon="77.50721">
        <ele>4063</ele>
        <time>2015-09-03T08:14:25Z</time>
      </trkpt>
      <trkpt lat="33.83131" lon="77.50721">
        <ele>4064.2</ele>
        <time>2015-09-03T08:14:32Z</time>
      </trkpt>
      <trkpt lat="33.83128" lon="77.50724">
        <ele>4065.2</ele>
        <time>2015-09-03T08:14:41Z</time>
      </trkpt>
      <trkpt lat="33.8313" lon="77.50725">
        <ele>4066.2</ele>
        <time>2015-09-03T08:14:47Z</time>
      </trkpt>
      <trkpt lat="33.83125" lon="77.50719">
        <ele>4066.4</ele>
        <time>2015-09-03T08:14:56Z</time>
      </trkpt>
      <trkpt lat="33.8313" lon="77.50728">
        <ele>4067.4</ele>
        <time>2015-09-03T08:15:13Z</time>
      </trkpt>
      <trkpt lat="33.83131" lon="77.50732">
        <ele>4068.4</ele>
        <time>2015-09-03T08:15:23Z</time>
      </trkpt>
      <trkpt lat="33.83132" lon="77.50732">
        <ele>4069.4</ele>
        <time>2015-09-03T08:15:35Z</time>
      </trkpt>
      <trkpt lat="33.83131" lon="77.50735">
        <ele>4070.6</ele>
        <time>2015-09-03T08:15:43Z</time>
      </trkpt>
      <trkpt lat="33.83126" lon="77.50744">
        <ele>4071.2</ele>
        <time>2015-09-03T08:16:00Z</time>
      </trkpt>
      <trkpt lat="33.83126" lon="77.50745">
        <ele>4071.2</ele>
        <time>2015-09-03T08:16:02Z</time>
      </trkpt>
      <trkpt lat="33.83127" lon="77.50747">
        <ele>4071.6</ele>
        <time>2015-09-03T08:16:05Z</time>
      </trkpt>
      <trkpt lat="33.8313" lon="77.5075">
        <ele>4072.6</ele>
        <time>2015-09-03T08:16:12Z</time>
      </trkpt>
      <trkpt lat="33.83128" lon="77.50756">
        <ele>4073.8</ele>
        <time>2015-09-03T08:16:23Z</time>
      </trkpt>
      <trkpt lat="33.83126" lon="77.50758">
        <ele>4074.8</ele>
        <time>2015-09-03T08:16:34Z</time>
      </trkpt>
      <trkpt lat="33.83126" lon="77.50758">
        <ele>4075.8</ele>
        <time>2015-09-03T08:16:41Z</time>
      </trkpt>
      <trkpt lat="33.83121" lon="77.50771">
        <ele>4076.8</ele>
        <time>2015-09-03T08:17:09Z</time>
      </trkpt>
      <trkpt lat="33.83118" lon="77.50779">
        <ele>4077.6</ele>
        <time>2015-09-03T08:17:19Z</time>
      </trkpt>
      <trkpt lat="33.83105" lon="77.50787">
        <ele>4077</ele>
        <time>2015-09-03T08:17:38Z</time>
      </trkpt>
      <trkpt lat="33.83102" lon="77.50786">
        <ele>4077</ele>
        <time>2015-09-03T08:17:41Z</time>
      </trkpt>
      <trkpt lat="33.83098" lon="77.50787">
        <ele>4077.6</ele>
        <time>2015-09-03T08:17:47Z</time>
      </trkpt>
      <trkpt lat="33.83097" lon="77.5079">
        <ele>4078</ele>
        <time>2015-09-03T08:17:49Z</time>
      </trkpt>
      <trkpt lat="33.83083" lon="77.50807">
        <ele>4078.2</ele>
        <time>2015-09-03T08:18:08Z</time>
      </trkpt>
      <trkpt lat="33.83081" lon="77.50815">
        <ele>4078.2</ele>
        <time>2015-09-03T08:18:11Z</time>
      </trkpt>
      <trkpt lat="33.83078" lon="77.50821">
        <ele>4078.6</ele>
        <time>2015-09-03T08:18:19Z</time>
      </trkpt>
      <trkpt lat="33.83075" lon="77.50823">
        <ele>4079</ele>
        <time>2015-09-03T08:18:24Z</time>
      </trkpt>
      <trkpt lat="33.83067" lon="77.5083">
        <ele>4078.6</ele>
        <time>2015-09-03T08:18:36Z</time>
      </trkpt>
      <trkpt lat="33.83061" lon="77.50834">
        <ele>4078.4</ele>
        <time>2015-09-03T08:18:42Z</time>
      </trkpt>
      <trkpt lat="33.83055" lon="77.50839">
        <ele>4078.2</ele>
        <time>2015-09-03T08:18:50Z</time>
      </trkpt>
      <trkpt lat="33.83054" lon="77.50841">
        <ele>4078</ele>
        <time>2015-09-03T08:18:52Z</time>
      </trkpt>
      <trkpt lat="33.83057" lon="77.50846">
        <ele>4078</ele>
        <time>2015-09-03T08:19:01Z</time>
      </trkpt>
      <trkpt lat="33.83049" lon="77.50838">
        <ele>4078</ele>
        <time>2015-09-03T08:19:04Z</time>
      </trkpt>
      <trkpt lat="33.83046" lon="77.50841">
        <ele>4077.8</ele>
        <time>2015-09-03T08:19:07Z</time>
      </trkpt>
      <trkpt lat="33.83044" lon="77.50843">
        <ele>4077.8</ele>
        <time>2015-09-03T08:19:09Z</time>
      </trkpt>
      <trkpt lat="33.83043" lon="77.5085">
        <ele>4077.6</ele>
        <time>2015-09-03T08:19:13Z</time>
      </trkpt>
      <trkpt lat="33.83042" lon="77.50854">
        <ele>4077.2</ele>
        <time>2015-09-03T08:19:16Z</time>
      </trkpt>
      <trkpt lat="33.83041" lon="77.50856">
        <ele>4077</ele>
        <time>2015-09-03T08:19:18Z</time>
      </trkpt>
      <trkpt lat="33.83031" lon="77.50861">
        <ele>4076.6</ele>
        <time>2015-09-03T08:19:29Z</time>
      </trkpt>
      <trkpt lat="33.83026" lon="77.5087">
        <ele>4077.6</ele>
        <time>2015-09-03T08:19:38Z</time>
      </trkpt>
      <trkpt lat="33.83024" lon="77.50872">
        <ele>4078</ele>
        <time>2015-09-03T08:19:41Z</time>
      </trkpt>
      <trkpt lat="33.83022" lon="77.50877">
        <ele>4078.6</ele>
        <time>2015-09-03T08:19:48Z</time>
      </trkpt>
      <trkpt lat="33.83019" lon="77.50878">
        <ele>4078.2</ele>
        <time>2015-09-03T08:19:51Z</time>
      </trkpt>
      <trkpt lat="33.8301" lon="77.50879">
        <ele>4076.6</ele>
        <time>2015-09-03T08:19:59Z</time>
      </trkpt>
      <trkpt lat="33.83006" lon="77.50882">
        <ele>4075.8</ele>
        <time>2015-09-03T08:20:04Z</time>
      </trkpt>
      <trkpt lat="33.83006" lon="77.50882">
        <ele>4075.6</ele>
        <time>2015-09-03T08:20:05Z</time>
      </trkpt>
      <trkpt lat="33.82998" lon="77.50883">
        <ele>4074.6</ele>
        <time>2015-09-03T08:20:12Z</time>
      </trkpt>
      <trkpt lat="33.82993" lon="77.50885">
        <ele>4074</ele>
        <time>2015-09-03T08:20:17Z</time>
      </trkpt>
      <trkpt lat="33.82982" lon="77.50882">
        <ele>4073.6</ele>
        <time>2015-09-03T08:20:29Z</time>
      </trkpt>
      <trkpt lat="33.82976" lon="77.50879">
        <ele>4073.2</ele>
        <time>2015-09-03T08:20:36Z</time>
      </trkpt>
      <trkpt lat="33.82966" lon="77.50869">
        <ele>4072.4</ele>
        <time>2015-09-03T08:20:46Z</time>
      </trkpt>
      <trkpt lat="33.82961" lon="77.50865">
        <ele>4072.2</ele>
        <time>2015-09-03T08:20:50Z</time>
      </trkpt>
      <trkpt lat="33.82954" lon="77.50863">
        <ele>4072</ele>
        <time>2015-09-03T08:20:57Z</time>
      </trkpt>
      <trkpt lat="33.8295" lon="77.50866">
        <ele>4071.6</ele>
        <time>2015-09-03T08:21:00Z</time>
      </trkpt>
      <trkpt lat="33.82946" lon="77.50866">
        <ele>4071.4</ele>
        <time>2015-09-03T08:21:03Z</time>
      </trkpt>
      <trkpt lat="33.82942" lon="77.50865">
        <ele>4071.4</ele>
        <time>2015-09-03T08:21:07Z</time>
      </trkpt>
      <trkpt lat="33.82939" lon="77.50861">
        <ele>4071.2</ele>
        <time>2015-09-03T08:21:13Z</time>
      </trkpt>
      <trkpt lat="33.82932" lon="77.50859">
        <ele>4070.8</ele>
        <time>2015-09-03T08:21:21Z</time>
      </trkpt>
      <trkpt lat="33.82927" lon="77.50857">
        <ele>4070.4</ele>
        <time>2015-09-03T08:21:25Z</time>
      </trkpt>
      <trkpt lat="33.82926" lon="77.50857">
        <ele>4070.2</ele>
        <time>2015-09-03T08:21:26Z</time>
      </trkpt>
      <trkpt lat="33.82923" lon="77.50858">
        <ele>4069.8</ele>
        <time>2015-09-03T08:21:29Z</time>
      </trkpt>
      <trkpt lat="33.82914" lon="77.50856">
        <ele>4069.4</ele>
        <time>2015-09-03T08:21:38Z</time>
      </trkpt>
      <trkpt lat="33.82911" lon="77.50858">
        <ele>4069.4</ele>
        <time>2015-09-03T08:21:40Z</time>
      </trkpt>
      <trkpt lat="33.82901" lon="77.50879">
        <ele>4068.8</ele>
        <time>2015-09-03T08:21:51Z</time>
      </trkpt>
      <trkpt lat="33.82894" lon="77.50885">
        <ele>4068.8</ele>
        <time>2015-09-03T08:21:58Z</time>
      </trkpt>
      <trkpt lat="33.82888" lon="77.50891">
        <ele>4068.8</ele>
        <time>2015-09-03T08:22:03Z</time>
      </trkpt>
      <trkpt lat="33.82887" lon="77.50893">
        <ele>4069</ele>
        <time>2015-09-03T08:22:05Z</time>
      </trkpt>
      <trkpt lat="33.82886" lon="77.50894">
        <ele>4069</ele>
        <time>2015-09-03T08:22:07Z</time>
      </trkpt>
      <trkpt lat="33.82876" lon="77.50897">
        <ele>4068.8</ele>
        <time>2015-09-03T08:22:15Z</time>
      </trkpt>
      <trkpt lat="33.82871" lon="77.50898">
        <ele>4068.8</ele>
        <time>2015-09-03T08:22:19Z</time>
      </trkpt>
      <trkpt lat="33.82854" lon="77.50903">
        <ele>4069</ele>
        <time>2015-09-03T08:22:43Z</time>
      </trkpt>
      <trkpt lat="33.82851" lon="77.50906">
        <ele>4069</ele>
        <time>2015-09-03T08:22:46Z</time>
      </trkpt>
      <trkpt lat="33.82848" lon="77.50909">
        <ele>4069</ele>
        <time>2015-09-03T08:22:50Z</time>
      </trkpt>
      <trkpt lat="33.8284" lon="77.5091">
        <ele>4069.2</ele>
        <time>2015-09-03T08:22:59Z</time>
      </trkpt>
      <trkpt lat="33.82839" lon="77.5091">
        <ele>4069.2</ele>
        <time>2015-09-03T08:23:01Z</time>
      </trkpt>
      <trkpt lat="33.82836" lon="77.5091">
        <ele>4069.4</ele>
        <time>2015-09-03T08:23:04Z</time>
      </trkpt>
      <trkpt lat="33.82831" lon="77.50912">
        <ele>4069.8</ele>
        <time>2015-09-03T08:23:09Z</time>
      </trkpt>
      <trkpt lat="33.82828" lon="77.50925">
        <ele>4069.6</ele>
        <time>2015-09-03T08:23:17Z</time>
      </trkpt>
      <trkpt lat="33.82824" lon="77.50925">
        <ele>4069.4</ele>
        <time>2015-09-03T08:23:21Z</time>
      </trkpt>
      <trkpt lat="33.8282" lon="77.50925">
        <ele>4069.6</ele>
        <time>2015-09-03T08:23:25Z</time>
      </trkpt>
      <trkpt lat="33.82818" lon="77.50926">
        <ele>4069.8</ele>
        <time>2015-09-03T08:23:27Z</time>
      </trkpt>
      <trkpt lat="33.82809" lon="77.50927">
        <ele>4069.4</ele>
        <time>2015-09-03T08:23:35Z</time>
      </trkpt>
      <trkpt lat="33.82806" lon="77.50926">
        <ele>4069.4</ele>
        <time>2015-09-03T08:23:40Z</time>
      </trkpt>
      <trkpt lat="33.82798" lon="77.50926">
        <ele>4068.6</ele>
        <time>2015-09-03T08:23:51Z</time>
      </trkpt>
      <trkpt lat="33.82797" lon="77.50935">
        <ele>4068.6</ele>
        <time>2015-09-03T08:23:56Z</time>
      </trkpt>
      <trkpt lat="33.82789" lon="77.50946">
        <ele>4069.2</ele>
        <time>2015-09-03T08:24:10Z</time>
      </trkpt>
      <trkpt lat="33.82787" lon="77.50946">
        <ele>4069.2</ele>
        <time>2015-09-03T08:24:12Z</time>
      </trkpt>
      <trkpt lat="33.82783" lon="77.50949">
        <ele>4069.4</ele>
        <time>2015-09-03T08:24:16Z</time>
      </trkpt>
      <trkpt lat="33.82781" lon="77.50952">
        <ele>4069.6</ele>
        <time>2015-09-03T08:24:19Z</time>
      </trkpt>
      <trkpt lat="33.82781" lon="77.50953">
        <ele>4069.8</ele>
        <time>2015-09-03T08:24:21Z</time>
      </trkpt>
      <trkpt lat="33.82777" lon="77.50956">
        <ele>4069.4</ele>
        <time>2015-09-03T08:24:28Z</time>
      </trkpt>
      <trkpt lat="33.82775" lon="77.50955">
        <ele>4069.4</ele>
        <time>2015-09-03T08:24:31Z</time>
      </trkpt>
      <trkpt lat="33.82758" lon="77.50958">
        <ele>4069.2</ele>
        <time>2015-09-03T08:24:46Z</time>
      </trkpt>
      <trkpt lat="33.82752" lon="77.50959">
        <ele>4069.4</ele>
        <time>2015-09-03T08:24:52Z</time>
      </trkpt>
      <trkpt lat="33.8275" lon="77.50959">
        <ele>4069.4</ele>
        <time>2015-09-03T08:24:54Z</time>
      </trkpt>
      <trkpt lat="33.82732" lon="77.50956">
        <ele>4069.6</ele>
        <time>2015-09-03T08:25:09Z</time>
      </trkpt>
      <trkpt lat="33.8273" lon="77.50956">
        <ele>4069.6</ele>
        <time>2015-09-03T08:25:12Z</time>
      </trkpt>
      <trkpt lat="33.82716" lon="77.50953">
        <ele>4070</ele>
        <time>2015-09-03T08:25:27Z</time>
      </trkpt>
      <trkpt lat="33.82698" lon="77.50949">
        <ele>4069.6</ele>
        <time>2015-09-03T08:25:40Z</time>
      </trkpt>
      <trkpt lat="33.82689" lon="77.50954">
        <ele>4070</ele>
        <time>2015-09-03T08:25:50Z</time>
      </trkpt>
      <trkpt lat="33.82689" lon="77.50955">
        <ele>4070</ele>
        <time>2015-09-03T08:25:52Z</time>
      </trkpt>
      <trkpt lat="33.82687" lon="77.50956">
        <ele>4069.8</ele>
        <time>2015-09-03T08:25:58Z</time>
      </trkpt>
      <trkpt lat="33.8268" lon="77.50951">
        <ele>4068.8</ele>
        <time>2015-09-03T08:26:07Z</time>
      </trkpt>
      <trkpt lat="33.82677" lon="77.50949">
        <ele>4068.8</ele>
        <time>2015-09-03T08:26:12Z</time>
      </trkpt>
      <trkpt lat="33.82658" lon="77.5095">
        <ele>4068.4</ele>
        <time>2015-09-03T08:26:35Z</time>
      </trkpt>
      <trkpt lat="33.82658" lon="77.5095">
        <ele>4068.2</ele>
        <time>2015-09-03T08:26:36Z</time>
      </trkpt>
      <trkpt lat="33.82642" lon="77.50945">
        <ele>4067.4</ele>
        <time>2015-09-03T08:26:50Z</time>
      </trkpt>
      <trkpt lat="33.82639" lon="77.50942">
        <ele>4067.2</ele>
        <time>2015-09-03T08:26:53Z</time>
      </trkpt>
      <trkpt lat="33.82632" lon="77.50937">
        <ele>4066.8</ele>
        <time>2015-09-03T08:26:59Z</time>
      </trkpt>
      <trkpt lat="33.82617" lon="77.50929">
        <ele>4066.2</ele>
        <time>2015-09-03T08:27:16Z</time>
      </trkpt>
      <trkpt lat="33.82611" lon="77.50929">
        <ele>4065</ele>
        <time>2015-09-03T08:27:23Z</time>
      </trkpt>
      <trkpt lat="33.82609" lon="77.50928">
        <ele>4064.8</ele>
        <time>2015-09-03T08:27:25Z</time>
      </trkpt>
      <trkpt lat="33.82606" lon="77.50926">
        <ele>4064.8</ele>
        <time>2015-09-03T08:27:29Z</time>
      </trkpt>
      <trkpt lat="33.82603" lon="77.50927">
        <ele>4064.8</ele>
        <time>2015-09-03T08:27:32Z</time>
      </trkpt>
      <trkpt lat="33.82599" lon="77.50926">
        <ele>4065</ele>
        <time>2015-09-03T08:27:40Z</time>
      </trkpt>
      <trkpt lat="33.82598" lon="77.50928">
        <ele>4065</ele>
        <time>2015-09-03T08:27:42Z</time>
      </trkpt>
      <trkpt lat="33.82597" lon="77.50928">
        <ele>4065.2</ele>
        <time>2015-09-03T08:27:44Z</time>
      </trkpt>
      <trkpt lat="33.82596" lon="77.50927">
        <ele>4065.4</ele>
        <time>2015-09-03T08:27:46Z</time>
      </trkpt>
      <trkpt lat="33.82594" lon="77.50925">
        <ele>4065.4</ele>
        <time>2015-09-03T08:27:48Z</time>
      </trkpt>
      <trkpt lat="33.82591" lon="77.50926">
        <ele>4066.2</ele>
        <time>2015-09-03T08:27:56Z</time>
      </trkpt>
      <trkpt lat="33.82579" lon="77.50922">
        <ele>4067.2</ele>
        <time>2015-09-03T08:28:11Z</time>
      </trkpt>
      <trkpt lat="33.82573" lon="77.50921">
        <ele>4067.4</ele>
        <time>2015-09-03T08:28:16Z</time>
      </trkpt>
      <trkpt lat="33.8257" lon="77.50917">
        <ele>4067.4</ele>
        <time>2015-09-03T08:28:20Z</time>
      </trkpt>
      <trkpt lat="33.82569" lon="77.50915">
        <ele>4067.4</ele>
        <time>2015-09-03T08:28:22Z</time>
      </trkpt>
      <trkpt lat="33.82562" lon="77.50911">
        <ele>4068.2</ele>
        <time>2015-09-03T08:28:40Z</time>
      </trkpt>
      <trkpt lat="33.82565" lon="77.50919">
        <ele>4068.2</ele>
        <time>2015-09-03T08:28:45Z</time>
      </trkpt>
      <trkpt lat="33.82569" lon="77.50914">
        <ele>4068.2</ele>
        <time>2015-09-03T08:28:49Z</time>
      </trkpt>
      <trkpt lat="33.82573" lon="77.50908">
        <ele>4068</ele>
        <time>2015-09-03T08:29:05Z</time>
      </trkpt>
      <trkpt lat="33.82569" lon="77.50909">
        <ele>4068</ele>
        <time>2015-09-03T08:29:09Z</time>
      </trkpt>
      <trkpt lat="33.82568" lon="77.50911">
        <ele>4068</ele>
        <time>2015-09-03T08:29:11Z</time>
      </trkpt>
      <trkpt lat="33.82566" lon="77.5091">
        <ele>4068.2</ele>
        <time>2015-09-03T08:29:14Z</time>
      </trkpt>
      <trkpt lat="33.82564" lon="77.50912">
        <ele>4068.2</ele>
        <time>2015-09-03T08:29:18Z</time>
      </trkpt>
      <trkpt lat="33.82563" lon="77.50915">
        <ele>4068</ele>
        <time>2015-09-03T08:29:21Z</time>
      </trkpt>
      <trkpt lat="33.82558" lon="77.50911">
        <ele>4068</ele>
        <time>2015-09-03T08:29:48Z</time>
      </trkpt>
      <trkpt lat="33.82562" lon="77.50905">
        <ele>4069.2</ele>
        <time>2015-09-03T08:30:07Z</time>
      </trkpt>
      <trkpt lat="33.82563" lon="77.50909">
        <ele>4070.4</ele>
        <time>2015-09-03T08:30:26Z</time>
      </trkpt>
      <trkpt lat="33.82559" lon="77.50907">
        <ele>4070.6</ele>
        <time>2015-09-03T08:30:32Z</time>
      </trkpt>
      <trkpt lat="33.82565" lon="77.50916">
        <ele>4070.6</ele>
        <time>2015-09-03T08:30:57Z</time>
      </trkpt>
      <trkpt lat="33.82574" lon="77.50905">
        <ele>4070.6</ele>
        <time>2015-09-03T08:31:11Z</time>
      </trkpt>
      <trkpt lat="33.82571" lon="77.50903">
        <ele>4070.8</ele>
        <time>2015-09-03T08:31:14Z</time>
      </trkpt>
      <trkpt lat="33.82562" lon="77.50904">
        <ele>4071</ele>
        <time>2015-09-03T08:31:20Z</time>
      </trkpt>
      <trkpt lat="33.82561" lon="77.50904">
        <ele>4071.4</ele>
        <time>2015-09-03T08:31:25Z</time>
      </trkpt>
      <trkpt lat="33.82561" lon="77.50903">
        <ele>4072.4</ele>
        <time>2015-09-03T08:32:00Z</time>
      </trkpt>
      <trkpt lat="33.82561" lon="77.50906">
        <ele>4072.4</ele>
        <time>2015-09-03T08:32:10Z</time>
      </trkpt>
      <trkpt lat="33.8256" lon="77.50909">
        <ele>4072.6</ele>
        <time>2015-09-03T08:32:14Z</time>
      </trkpt>
      <trkpt lat="33.8256" lon="77.5091">
        <ele>4072.6</ele>
        <time>2015-09-03T08:32:17Z</time>
      </trkpt>
      <trkpt lat="33.82559" lon="77.50911">
        <ele>4072.6</ele>
        <time>2015-09-03T08:32:21Z</time>
      </trkpt>
      <trkpt lat="33.8256" lon="77.50917">
        <ele>4073</ele>
        <time>2015-09-03T08:33:18Z</time>
      </trkpt>
      <trkpt lat="33.82554" lon="77.50916">
        <ele>4073</ele>
        <time>2015-09-03T08:33:32Z</time>
      </trkpt>
      <trkpt lat="33.82556" lon="77.50914">
        <ele>4072.6</ele>
        <time>2015-09-03T08:33:40Z</time>
      </trkpt>
      <trkpt lat="33.82562" lon="77.50903">
        <ele>4073</ele>
        <time>2015-09-03T08:34:19Z</time>
      </trkpt>
      <trkpt lat="33.82551" lon="77.50913">
        <ele>4072.8</ele>
        <time>2015-09-03T08:34:32Z</time>
      </trkpt>
      <trkpt lat="33.82554" lon="77.50915">
        <ele>4072.2</ele>
        <time>2015-09-03T08:34:50Z</time>
      </trkpt>
      <trkpt lat="33.82552" lon="77.50918">
        <ele>4072.2</ele>
        <time>2015-09-03T08:34:52Z</time>
      </trkpt>
      <trkpt lat="33.82546" lon="77.50924">
        <ele>4072.2</ele>
        <time>2015-09-03T08:34:58Z</time>
      </trkpt>
      <trkpt lat="33.82543" lon="77.50919">
        <ele>4072.2</ele>
        <time>2015-09-03T08:35:08Z</time>
      </trkpt>
      <trkpt lat="33.82544" lon="77.50921">
        <ele>4072.4</ele>
        <time>2015-09-03T08:35:10Z</time>
      </trkpt>
      <trkpt lat="33.82542" lon="77.50918">
        <ele>4072.6</ele>
        <time>2015-09-03T08:35:15Z</time>
      </trkpt>
      <trkpt lat="33.8254" lon="77.50916">
        <ele>4072.6</ele>
        <time>2015-09-03T08:35:17Z</time>
      </trkpt>
      <trkpt lat="33.82538" lon="77.50917">
        <ele>4072.6</ele>
        <time>2015-09-03T08:35:19Z</time>
      </trkpt>
      <trkpt lat="33.82536" lon="77.50919">
        <ele>4072.6</ele>
        <time>2015-09-03T08:35:21Z</time>
      </trkpt>
      <trkpt lat="33.8253" lon="77.50925">
        <ele>4073</ele>
        <time>2015-09-03T08:35:32Z</time>
      </trkpt>
      <trkpt lat="33.82526" lon="77.50929">
        <ele>4072.8</ele>
        <time>2015-09-03T08:35:39Z</time>
      </trkpt>
      <trkpt lat="33.82523" lon="77.50934">
        <ele>4073.6</ele>
        <time>2015-09-03T08:35:45Z</time>
      </trkpt>
      <trkpt lat="33.82519" lon="77.50939">
        <ele>4073.6</ele>
        <time>2015-09-03T08:35:50Z</time>
      </trkpt>
      <trkpt lat="33.82518" lon="77.50942">
        <ele>4073.6</ele>
        <time>2015-09-03T08:35:53Z</time>
      </trkpt>
      <trkpt lat="33.82512" lon="77.50949">
        <ele>4073.8</ele>
        <time>2015-09-03T08:36:01Z</time>
      </trkpt>
      <trkpt lat="33.82507" lon="77.50954">
        <ele>4073.8</ele>
        <time>2015-09-03T08:36:08Z</time>
      </trkpt>
      <trkpt lat="33.825" lon="77.50969">
        <ele>4074</ele>
        <time>2015-09-03T08:36:23Z</time>
      </trkpt>
      <trkpt lat="33.82499" lon="77.5097">
        <ele>4074</ele>
        <time>2015-09-03T08:36:25Z</time>
      </trkpt>
      <trkpt lat="33.82494" lon="77.50974">
        <ele>4074</ele>
        <time>2015-09-03T08:36:29Z</time>
      </trkpt>
      <trkpt lat="33.82493" lon="77.50976">
        <ele>4074.2</ele>
        <time>2015-09-03T08:36:31Z</time>
      </trkpt>
      <trkpt lat="33.82489" lon="77.50978">
        <ele>4074.4</ele>
        <time>2015-09-03T08:36:37Z</time>
      </trkpt>
      <trkpt lat="33.8249" lon="77.5098">
        <ele>4074.4</ele>
        <time>2015-09-03T08:36:39Z</time>
      </trkpt>
      <trkpt lat="33.82484" lon="77.50988">
        <ele>4074.4</ele>
        <time>2015-09-03T08:36:47Z</time>
      </trkpt>
      <trkpt lat="33.82483" lon="77.50989">
        <ele>4074.6</ele>
        <time>2015-09-03T08:36:48Z</time>
      </trkpt>
      <trkpt lat="33.82466" lon="77.50992">
        <ele>4074.8</ele>
        <time>2015-09-03T08:37:14Z</time>
      </trkpt>
      <trkpt lat="33.82465" lon="77.50993">
        <ele>4074.8</ele>
        <time>2015-09-03T08:37:16Z</time>
      </trkpt>
      <trkpt lat="33.82462" lon="77.50996">
        <ele>4074.8</ele>
        <time>2015-09-03T08:37:21Z</time>
      </trkpt>
      <trkpt lat="33.8246" lon="77.50997">
        <ele>4075.6</ele>
        <time>2015-09-03T08:37:26Z</time>
      </trkpt>
      <trkpt lat="33.82452" lon="77.5101">
        <ele>4076</ele>
        <time>2015-09-03T08:37:57Z</time>
      </trkpt>
      <trkpt lat="33.82429" lon="77.51025">
        <ele>4081.6</ele>
        <time>2015-09-03T08:39:15Z</time>
      </trkpt>
      <trkpt lat="33.82414" lon="77.51031">
        <ele>4082.2</ele>
        <time>2015-09-03T08:39:20Z</time>
      </trkpt>
      <trkpt lat="33.82394" lon="77.51033">
        <ele>4082.8</ele>
        <time>2015-09-03T08:39:27Z</time>
      </trkpt>
      <trkpt lat="33.82382" lon="77.51039">
        <ele>4083.2</ele>
        <time>2015-09-03T08:39:36Z</time>
      </trkpt>
      <trkpt lat="33.8238" lon="77.51041">
        <ele>4083.2</ele>
        <time>2015-09-03T08:39:38Z</time>
      </trkpt>
      <trkpt lat="33.82377" lon="77.51047">
        <ele>4084.4</ele>
        <time>2015-09-03T08:39:44Z</time>
      </trkpt>
      <trkpt lat="33.82374" lon="77.51053">
        <ele>4085.4</ele>
        <time>2015-09-03T08:39:50Z</time>
      </trkpt>
      <trkpt lat="33.8237" lon="77.51064">
        <ele>4086.6</ele>
        <time>2015-09-03T08:40:02Z</time>
      </trkpt>
      <trkpt lat="33.82371" lon="77.51071">
        <ele>4086.6</ele>
        <time>2015-09-03T08:40:10Z</time>
      </trkpt>
      <trkpt lat="33.82373" lon="77.51078">
        <ele>4085.4</ele>
        <time>2015-09-03T08:40:17Z</time>
      </trkpt>
      <trkpt lat="33.82371" lon="77.51084">
        <ele>4085.6</ele>
        <time>2015-09-03T08:40:25Z</time>
      </trkpt>
      <trkpt lat="33.82372" lon="77.51102">
        <ele>4086.4</ele>
        <time>2015-09-03T08:40:41Z</time>
      </trkpt>
      <trkpt lat="33.82366" lon="77.511">
        <ele>4087</ele>
        <time>2015-09-03T08:40:45Z</time>
      </trkpt>
      <trkpt lat="33.82351" lon="77.51133">
        <ele>4090.6</ele>
        <time>2015-09-03T08:41:17Z</time>
      </trkpt>
      <trkpt lat="33.82336" lon="77.51149">
        <ele>4090.4</ele>
        <time>2015-09-03T08:41:38Z</time>
      </trkpt>
      <trkpt lat="33.82323" lon="77.51157">
        <ele>4091.2</ele>
        <time>2015-09-03T08:41:42Z</time>
      </trkpt>
      <trkpt lat="33.82322" lon="77.51158">
        <ele>4091.4</ele>
        <time>2015-09-03T08:41:43Z</time>
      </trkpt>
      <trkpt lat="33.82317" lon="77.51163">
        <ele>4091.8</ele>
        <time>2015-09-03T08:41:46Z</time>
      </trkpt>
      <trkpt lat="33.82316" lon="77.51164">
        <ele>4092</ele>
        <time>2015-09-03T08:41:48Z</time>
      </trkpt>
      <trkpt lat="33.82316" lon="77.51177">
        <ele>4092.8</ele>
        <time>2015-09-03T08:41:58Z</time>
      </trkpt>
      <trkpt lat="33.82315" lon="77.51179">
        <ele>4092.8</ele>
        <time>2015-09-03T08:41:59Z</time>
      </trkpt>
      <trkpt lat="33.82313" lon="77.51192">
        <ele>4093.8</ele>
        <time>2015-09-03T08:42:08Z</time>
      </trkpt>
      <trkpt lat="33.82313" lon="77.51193">
        <ele>4093.8</ele>
        <time>2015-09-03T08:42:09Z</time>
      </trkpt>
      <trkpt lat="33.82316" lon="77.512">
        <ele>4094.2</ele>
        <time>2015-09-03T08:42:20Z</time>
      </trkpt>
      <trkpt lat="33.82318" lon="77.512">
        <ele>4094</ele>
        <time>2015-09-03T08:42:22Z</time>
      </trkpt>
      <trkpt lat="33.82317" lon="77.51202">
        <ele>4094</ele>
        <time>2015-09-03T08:42:24Z</time>
      </trkpt>
      <trkpt lat="33.82318" lon="77.51206">
        <ele>4093.2</ele>
        <time>2015-09-03T08:42:29Z</time>
      </trkpt>
      <trkpt lat="33.8232" lon="77.51207">
        <ele>4092.6</ele>
        <time>2015-09-03T08:42:31Z</time>
      </trkpt>
      <trkpt lat="33.82322" lon="77.5121">
        <ele>4091.4</ele>
        <time>2015-09-03T08:42:36Z</time>
      </trkpt>
      <trkpt lat="33.82325" lon="77.51218">
        <ele>4090.6</ele>
        <time>2015-09-03T08:42:40Z</time>
      </trkpt>
      <trkpt lat="33.82354" lon="77.51213">
        <ele>4090.6</ele>
        <time>2015-09-03T08:42:43Z</time>
      </trkpt>
      <trkpt lat="33.82359" lon="77.51223">
        <ele>4090.8</ele>
        <time>2015-09-03T08:42:51Z</time>
      </trkpt>
      <trkpt lat="33.82354" lon="77.51243">
        <ele>4090.8</ele>
        <time>2015-09-03T08:43:04Z</time>
      </trkpt>
      <trkpt lat="33.82355" lon="77.51245">
        <ele>4091</ele>
        <time>2015-09-03T08:43:06Z</time>
      </trkpt>
      <trkpt lat="33.82348" lon="77.51259">
        <ele>4091.4</ele>
        <time>2015-09-03T08:43:15Z</time>
      </trkpt>
      <trkpt lat="33.82347" lon="77.51261">
        <ele>4091.6</ele>
        <time>2015-09-03T08:43:18Z</time>
      </trkpt>
      <trkpt lat="33.82346" lon="77.51267">
        <ele>4092.2</ele>
        <time>2015-09-03T08:43:24Z</time>
      </trkpt>
      <trkpt lat="33.82345" lon="77.51269">
        <ele>4092.2</ele>
        <time>2015-09-03T08:43:26Z</time>
      </trkpt>
      <trkpt lat="33.82345" lon="77.51271">
        <ele>4092.2</ele>
        <time>2015-09-03T08:43:28Z</time>
      </trkpt>
      <trkpt lat="33.82345" lon="77.51276">
        <ele>4092.4</ele>
        <time>2015-09-03T08:43:34Z</time>
      </trkpt>
      <trkpt lat="33.82338" lon="77.51293">
        <ele>4093.4</ele>
        <time>2015-09-03T08:43:51Z</time>
      </trkpt>
      <trkpt lat="33.82338" lon="77.51294">
        <ele>4093.6</ele>
        <time>2015-09-03T08:43:52Z</time>
      </trkpt>
      <trkpt lat="33.82328" lon="77.51311">
        <ele>4094.6</ele>
        <time>2015-09-03T08:44:14Z</time>
      </trkpt>
      <trkpt lat="33.82326" lon="77.51317">
        <ele>4094.6</ele>
        <time>2015-09-03T08:44:18Z</time>
      </trkpt>
      <trkpt lat="33.82327" lon="77.51319">
        <ele>4094.8</ele>
        <time>2015-09-03T08:44:21Z</time>
      </trkpt>
      <trkpt lat="33.82327" lon="77.51321">
        <ele>4094.8</ele>
        <time>2015-09-03T08:44:23Z</time>
      </trkpt>
      <trkpt lat="33.82325" lon="77.51324">
        <ele>4095</ele>
        <time>2015-09-03T08:44:27Z</time>
      </trkpt>
      <trkpt lat="33.82324" lon="77.51327">
        <ele>4095.6</ele>
        <time>2015-09-03T08:44:31Z</time>
      </trkpt>
      <trkpt lat="33.82322" lon="77.51336">
        <ele>4096.6</ele>
        <time>2015-09-03T08:44:40Z</time>
      </trkpt>
      <trkpt lat="33.82317" lon="77.51343">
        <ele>4097.6</ele>
        <time>2015-09-03T08:44:50Z</time>
      </trkpt>
      <trkpt lat="33.82313" lon="77.51346">
        <ele>4098.8</ele>
        <time>2015-09-03T08:44:55Z</time>
      </trkpt>
      <trkpt lat="33.82312" lon="77.51353">
        <ele>4099.6</ele>
        <time>2015-09-03T08:45:01Z</time>
      </trkpt>
      <trkpt lat="33.8231" lon="77.51374">
        <ele>4098.6</ele>
        <time>2015-09-03T08:45:20Z</time>
      </trkpt>
      <trkpt lat="33.8231" lon="77.5138">
        <ele>4098.4</ele>
        <time>2015-09-03T08:45:24Z</time>
      </trkpt>
      <trkpt lat="33.82316" lon="77.5139">
        <ele>4098.8</ele>
        <time>2015-09-03T08:45:34Z</time>
      </trkpt>
      <trkpt lat="33.82317" lon="77.51394">
        <ele>4099</ele>
        <time>2015-09-03T08:45:37Z</time>
      </trkpt>
      <trkpt lat="33.8232" lon="77.514">
        <ele>4099</ele>
        <time>2015-09-03T08:45:43Z</time>
      </trkpt>
      <trkpt lat="33.82321" lon="77.51404">
        <ele>4099.2</ele>
        <time>2015-09-03T08:45:47Z</time>
      </trkpt>
      <trkpt lat="33.82322" lon="77.51409">
        <ele>4099.6</ele>
        <time>2015-09-03T08:45:51Z</time>
      </trkpt>
      <trkpt lat="33.82321" lon="77.51413">
        <ele>4099.8</ele>
        <time>2015-09-03T08:45:54Z</time>
      </trkpt>
      <trkpt lat="33.8232" lon="77.51423">
        <ele>4101</ele>
        <time>2015-09-03T08:46:04Z</time>
      </trkpt>
      <trkpt lat="33.8232" lon="77.51431">
        <ele>4102</ele>
        <time>2015-09-03T08:46:11Z</time>
      </trkpt>
      <trkpt lat="33.82322" lon="77.51445">
        <ele>4102.4</ele>
        <time>2015-09-03T08:46:25Z</time>
      </trkpt>
      <trkpt lat="33.82322" lon="77.51447">
        <ele>4102.6</ele>
        <time>2015-09-03T08:46:27Z</time>
      </trkpt>
      <trkpt lat="33.82321" lon="77.5145">
        <ele>4103.4</ele>
        <time>2015-09-03T08:46:30Z</time>
      </trkpt>
      <trkpt lat="33.8232" lon="77.51453">
        <ele>4104.4</ele>
        <time>2015-09-03T08:46:33Z</time>
      </trkpt>
      <trkpt lat="33.82321" lon="77.51462">
        <ele>4104.6</ele>
        <time>2015-09-03T08:46:41Z</time>
      </trkpt>
      <trkpt lat="33.82322" lon="77.51469">
        <ele>4104.4</ele>
        <time>2015-09-03T08:46:48Z</time>
      </trkpt>
      <trkpt lat="33.82321" lon="77.51472">
        <ele>4104.8</ele>
        <time>2015-09-03T08:46:50Z</time>
      </trkpt>
      <trkpt lat="33.82322" lon="77.51478">
        <ele>4105.6</ele>
        <time>2015-09-03T08:46:55Z</time>
      </trkpt>
      <trkpt lat="33.82322" lon="77.5148">
        <ele>4105.4</ele>
        <time>2015-09-03T08:46:56Z</time>
      </trkpt>
      <trkpt lat="33.82323" lon="77.51484">
        <ele>4104.6</ele>
        <time>2015-09-03T08:46:59Z</time>
      </trkpt>
      <trkpt lat="33.82324" lon="77.51485">
        <ele>4104.4</ele>
        <time>2015-09-03T08:47:00Z</time>
      </trkpt>
      <trkpt lat="33.82325" lon="77.51487">
        <ele>4104.4</ele>
        <time>2015-09-03T08:47:02Z</time>
      </trkpt>
      <trkpt lat="33.82322" lon="77.51497">
        <ele>4104.6</ele>
        <time>2015-09-03T08:47:10Z</time>
      </trkpt>
      <trkpt lat="33.82322" lon="77.51508">
        <ele>4105</ele>
        <time>2015-09-03T08:47:22Z</time>
      </trkpt>
      <trkpt lat="33.8232" lon="77.51513">
        <ele>4105.6</ele>
        <time>2015-09-03T08:47:27Z</time>
      </trkpt>
      <trkpt lat="33.8232" lon="77.51515">
        <ele>4105.8</ele>
        <time>2015-09-03T08:47:29Z</time>
      </trkpt>
      <trkpt lat="33.82316" lon="77.5153">
        <ele>4104.6</ele>
        <time>2015-09-03T08:47:40Z</time>
      </trkpt>
      <trkpt lat="33.82317" lon="77.51532">
        <ele>4104.6</ele>
        <time>2015-09-03T08:47:42Z</time>
      </trkpt>
      <trkpt lat="33.82313" lon="77.51538">
        <ele>4104.8</ele>
        <time>2015-09-03T08:47:47Z</time>
      </trkpt>
      <trkpt lat="33.82311" lon="77.51541">
        <ele>4104.8</ele>
        <time>2015-09-03T08:47:50Z</time>
      </trkpt>
      <trkpt lat="33.82303" lon="77.51546">
        <ele>4105.6</ele>
        <time>2015-09-03T08:47:57Z</time>
      </trkpt>
      <trkpt lat="33.82306" lon="77.51553">
        <ele>4105.6</ele>
        <time>2015-09-03T08:48:00Z</time>
      </trkpt>
      <trkpt lat="33.82301" lon="77.51558">
        <ele>4105.8</ele>
        <time>2015-09-03T08:48:05Z</time>
      </trkpt>
      <trkpt lat="33.8229" lon="77.51566">
        <ele>4106.8</ele>
        <time>2015-09-03T08:48:16Z</time>
      </trkpt>
      <trkpt lat="33.82288" lon="77.51567">
        <ele>4107</ele>
        <time>2015-09-03T08:48:18Z</time>
      </trkpt>
      <trkpt lat="33.82285" lon="77.51573">
        <ele>4107.8</ele>
        <time>2015-09-03T08:48:28Z</time>
      </trkpt>
      <trkpt lat="33.82284" lon="77.51575">
        <ele>4107.8</ele>
        <time>2015-09-03T08:48:30Z</time>
      </trkpt>
      <trkpt lat="33.82283" lon="77.51583">
        <ele>4107.8</ele>
        <time>2015-09-03T08:48:44Z</time>
      </trkpt>
      <trkpt lat="33.8228" lon="77.51587">
        <ele>4107.6</ele>
        <time>2015-09-03T08:48:48Z</time>
      </trkpt>
      <trkpt lat="33.82272" lon="77.51598">
        <ele>4107.6</ele>
        <time>2015-09-03T08:48:53Z</time>
      </trkpt>
      <trkpt lat="33.82263" lon="77.51612">
        <ele>4108.8</ele>
        <time>2015-09-03T08:49:03Z</time>
      </trkpt>
      <trkpt lat="33.82261" lon="77.51618">
        <ele>4109.4</ele>
        <time>2015-09-03T08:49:08Z</time>
      </trkpt>
      <trkpt lat="33.82262" lon="77.5162">
        <ele>4110</ele>
        <time>2015-09-03T08:49:13Z</time>
      </trkpt>
      <trkpt lat="33.82258" lon="77.51632">
        <ele>4110.4</ele>
        <time>2015-09-03T08:49:19Z</time>
      </trkpt>
      <trkpt lat="33.82242" lon="77.51643">
        <ele>4109.4</ele>
        <time>2015-09-03T08:49:36Z</time>
      </trkpt>
      <trkpt lat="33.82239" lon="77.51652">
        <ele>4108.8</ele>
        <time>2015-09-03T08:49:47Z</time>
      </trkpt>
      <trkpt lat="33.82236" lon="77.51659">
        <ele>4108.6</ele>
        <time>2015-09-03T08:49:51Z</time>
      </trkpt>
      <trkpt lat="33.82241" lon="77.51658">
        <ele>4108.6</ele>
        <time>2015-09-03T08:49:53Z</time>
      </trkpt>
      <trkpt lat="33.82242" lon="77.51664">
        <ele>4108.6</ele>
        <time>2015-09-03T08:50:00Z</time>
      </trkpt>
      <trkpt lat="33.82242" lon="77.51664">
        <ele>4109.4</ele>
        <time>2015-09-03T08:50:15Z</time>
      </trkpt>
      <trkpt lat="33.82239" lon="77.51662">
        <ele>4108.6</ele>
        <time>2015-09-03T08:50:22Z</time>
      </trkpt>
      <trkpt lat="33.82238" lon="77.5166">
        <ele>4108.6</ele>
        <time>2015-09-03T08:50:24Z</time>
      </trkpt>
      <trkpt lat="33.82241" lon="77.51655">
        <ele>4108.4</ele>
        <time>2015-09-03T08:50:29Z</time>
      </trkpt>
      <trkpt lat="33.82245" lon="77.51647">
        <ele>4107.6</ele>
        <time>2015-09-03T08:50:36Z</time>
      </trkpt>
      <trkpt lat="33.82248" lon="77.51646">
        <ele>4107.2</ele>
        <time>2015-09-03T08:50:38Z</time>
      </trkpt>
      <trkpt lat="33.8225" lon="77.51646">
        <ele>4106.8</ele>
        <time>2015-09-03T08:50:40Z</time>
      </trkpt>
      <trkpt lat="33.8225" lon="77.51647">
        <ele>4106.8</ele>
        <time>2015-09-03T08:50:42Z</time>
      </trkpt>
      <trkpt lat="33.82248" lon="77.51653">
        <ele>4107.2</ele>
        <time>2015-09-03T08:50:47Z</time>
      </trkpt>
      <trkpt lat="33.82246" lon="77.5166">
        <ele>4108.8</ele>
        <time>2015-09-03T08:50:58Z</time>
      </trkpt>
      <trkpt lat="33.82242" lon="77.51663">
        <ele>4109.4</ele>
        <time>2015-09-03T08:51:04Z</time>
      </trkpt>
      <trkpt lat="33.82243" lon="77.51665">
        <ele>4109.8</ele>
        <time>2015-09-03T08:51:08Z</time>
      </trkpt>
      <trkpt lat="33.82246" lon="77.51664">
        <ele>4110.8</ele>
        <time>2015-09-03T08:51:17Z</time>
      </trkpt>
      <trkpt lat="33.82244" lon="77.51671">
        <ele>4111.4</ele>
        <time>2015-09-03T08:51:27Z</time>
      </trkpt>
      <trkpt lat="33.82242" lon="77.51672">
        <ele>4111.6</ele>
        <time>2015-09-03T08:51:29Z</time>
      </trkpt>
      <trkpt lat="33.82241" lon="77.51673">
        <ele>4111.8</ele>
        <time>2015-09-03T08:51:31Z</time>
      </trkpt>
      <trkpt lat="33.82241" lon="77.51673">
        <ele>4112</ele>
        <time>2015-09-03T08:51:32Z</time>
      </trkpt>
      <trkpt lat="33.82242" lon="77.5168">
        <ele>4113</ele>
        <time>2015-09-03T08:51:42Z</time>
      </trkpt>
      <trkpt lat="33.8224" lon="77.51681">
        <ele>4114</ele>
        <time>2015-09-03T08:51:52Z</time>
      </trkpt>
      <trkpt lat="33.82232" lon="77.51689">
        <ele>4115.2</ele>
        <time>2015-09-03T08:52:09Z</time>
      </trkpt>
      <trkpt lat="33.82233" lon="77.51691">
        <ele>4116.2</ele>
        <time>2015-09-03T08:52:18Z</time>
      </trkpt>
      <trkpt lat="33.82233" lon="77.51689">
        <ele>4117.4</ele>
        <time>2015-09-03T08:52:23Z</time>
      </trkpt>
      <trkpt lat="33.82238" lon="77.51689">
        <ele>4118.4</ele>
        <time>2015-09-03T08:52:31Z</time>
      </trkpt>
      <trkpt lat="33.82239" lon="77.5169">
        <ele>4119.6</ele>
        <time>2015-09-03T08:52:38Z</time>
      </trkpt>
      <trkpt lat="33.82245" lon="77.51697">
        <ele>4120.6</ele>
        <time>2015-09-03T08:53:06Z</time>
      </trkpt>
      <trkpt lat="33.82243" lon="77.51701">
        <ele>4121.6</ele>
        <time>2015-09-03T08:53:16Z</time>
      </trkpt>
      <trkpt lat="33.82241" lon="77.51706">
        <ele>4123</ele>
        <time>2015-09-03T08:53:30Z</time>
      </trkpt>
      <trkpt lat="33.82241" lon="77.51706">
        <ele>4124.2</ele>
        <time>2015-09-03T08:53:33Z</time>
      </trkpt>
      <trkpt lat="33.8224" lon="77.51709">
        <ele>4125.2</ele>
        <time>2015-09-03T08:53:43Z</time>
      </trkpt>
      <trkpt lat="33.82238" lon="77.51711">
        <ele>4126.4</ele>
        <time>2015-09-03T08:53:54Z</time>
      </trkpt>
      <trkpt lat="33.82228" lon="77.51726">
        <ele>4127.2</ele>
        <time>2015-09-03T08:54:24Z</time>
      </trkpt>
      <trkpt lat="33.82228" lon="77.51728">
        <ele>4127.4</ele>
        <time>2015-09-03T08:54:27Z</time>
      </trkpt>
      <trkpt lat="33.82224" lon="77.51738">
        <ele>4128.6</ele>
        <time>2015-09-03T08:54:54Z</time>
      </trkpt>
      <trkpt lat="33.82217" lon="77.51741">
        <ele>4127.4</ele>
        <time>2015-09-03T08:55:04Z</time>
      </trkpt>
      <trkpt lat="33.82216" lon="77.51743">
        <ele>4127.2</ele>
        <time>2015-09-03T08:55:06Z</time>
      </trkpt>
      <trkpt lat="33.82205" lon="77.51753">
        <ele>4128.4</ele>
        <time>2015-09-03T08:55:18Z</time>
      </trkpt>
      <trkpt lat="33.822" lon="77.51752">
        <ele>4128.2</ele>
        <time>2015-09-03T08:55:24Z</time>
      </trkpt>
      <trkpt lat="33.82196" lon="77.51757">
        <ele>4127.4</ele>
        <time>2015-09-03T08:55:28Z</time>
      </trkpt>
      <trkpt lat="33.82185" lon="77.5177">
        <ele>4126.4</ele>
        <time>2015-09-03T08:55:39Z</time>
      </trkpt>
      <trkpt lat="33.82184" lon="77.5177">
        <ele>4126.4</ele>
        <time>2015-09-03T08:55:41Z</time>
      </trkpt>
      <trkpt lat="33.82171" lon="77.51786">
        <ele>4126.6</ele>
        <time>2015-09-03T08:55:55Z</time>
      </trkpt>
      <trkpt lat="33.82157" lon="77.518">
        <ele>4126.6</ele>
        <time>2015-09-03T08:56:07Z</time>
      </trkpt>
      <trkpt lat="33.82149" lon="77.51793">
        <ele>4127.6</ele>
        <time>2015-09-03T08:56:13Z</time>
      </trkpt>
      <trkpt lat="33.82148" lon="77.51795">
        <ele>4127.6</ele>
        <time>2015-09-03T08:56:14Z</time>
      </trkpt>
      <trkpt lat="33.82143" lon="77.518">
        <ele>4126.4</ele>
        <time>2015-09-03T08:56:19Z</time>
      </trkpt>
      <trkpt lat="33.82154" lon="77.51803">
        <ele>4126</ele>
        <time>2015-09-03T08:56:32Z</time>
      </trkpt>
      <trkpt lat="33.82154" lon="77.51805">
        <ele>4125.4</ele>
        <time>2015-09-03T08:56:34Z</time>
      </trkpt>
      <trkpt lat="33.82154" lon="77.51805">
        <ele>4125.4</ele>
        <time>2015-09-03T08:56:35Z</time>
      </trkpt>
      <trkpt lat="33.82153" lon="77.5181">
        <ele>4126</ele>
        <time>2015-09-03T08:56:39Z</time>
      </trkpt>
      <trkpt lat="33.82149" lon="77.51812">
        <ele>4126.2</ele>
        <time>2015-09-03T08:56:42Z</time>
      </trkpt>
      <trkpt lat="33.82142" lon="77.51815">
        <ele>4123.8</ele>
        <time>2015-09-03T08:56:47Z</time>
      </trkpt>
      <trkpt lat="33.82133" lon="77.51817">
        <ele>4124.2</ele>
        <time>2015-09-03T08:56:55Z</time>
      </trkpt>
      <trkpt lat="33.82132" lon="77.51818">
        <ele>4125</ele>
        <time>2015-09-03T08:56:57Z</time>
      </trkpt>
      <trkpt lat="33.82133" lon="77.51822">
        <ele>4126</ele>
        <time>2015-09-03T08:57:03Z</time>
      </trkpt>
      <trkpt lat="33.82131" lon="77.51827">
        <ele>4127</ele>
        <time>2015-09-03T08:57:08Z</time>
      </trkpt>
      <trkpt lat="33.82132" lon="77.51835">
        <ele>4126.8</ele>
        <time>2015-09-03T08:57:17Z</time>
      </trkpt>
      <trkpt lat="33.82127" lon="77.51846">
        <ele>4128.2</ele>
        <time>2015-09-03T08:57:33Z</time>
      </trkpt>
      <trkpt lat="33.8212" lon="77.51854">
        <ele>4128.8</ele>
        <time>2015-09-03T08:57:46Z</time>
      </trkpt>
      <trkpt lat="33.82119" lon="77.51857">
        <ele>4129</ele>
        <time>2015-09-03T08:57:49Z</time>
      </trkpt>
      <trkpt lat="33.82119" lon="77.51858">
        <ele>4129.2</ele>
        <time>2015-09-03T08:57:50Z</time>
      </trkpt>
      <trkpt lat="33.82114" lon="77.51863">
        <ele>4130.2</ele>
        <time>2015-09-03T08:57:57Z</time>
      </trkpt>
      <trkpt lat="33.8211" lon="77.51866">
        <ele>4131.4</ele>
        <time>2015-09-03T08:58:05Z</time>
      </trkpt>
      <trkpt lat="33.82108" lon="77.51871">
        <ele>4132.4</ele>
        <time>2015-09-03T08:58:12Z</time>
      </trkpt>
      <trkpt lat="33.82104" lon="77.51877">
        <ele>4133.4</ele>
        <time>2015-09-03T08:58:24Z</time>
      </trkpt>
      <trkpt lat="33.82101" lon="77.51883">
        <ele>4134.6</ele>
        <time>2015-09-03T08:58:31Z</time>
      </trkpt>
      <trkpt lat="33.821" lon="77.51887">
        <ele>4135.6</ele>
        <time>2015-09-03T08:58:39Z</time>
      </trkpt>
      <trkpt lat="33.82097" lon="77.51888">
        <ele>4136.6</ele>
        <time>2015-09-03T08:58:43Z</time>
      </trkpt>
      <trkpt lat="33.82092" lon="77.51894">
        <ele>4137.4</ele>
        <time>2015-09-03T08:58:50Z</time>
      </trkpt>
      <trkpt lat="33.8209" lon="77.51896">
        <ele>4137.6</ele>
        <time>2015-09-03T08:58:54Z</time>
      </trkpt>
      <trkpt lat="33.8208" lon="77.51907">
        <ele>4138.2</ele>
        <time>2015-09-03T08:59:09Z</time>
      </trkpt>
      <trkpt lat="33.82076" lon="77.51911">
        <ele>4138.8</ele>
        <time>2015-09-03T08:59:16Z</time>
      </trkpt>
      <trkpt lat="33.82072" lon="77.51919">
        <ele>4138.8</ele>
        <time>2015-09-03T08:59:29Z</time>
      </trkpt>
      <trkpt lat="33.82071" lon="77.51927">
        <ele>4139.8</ele>
        <time>2015-09-03T08:59:46Z</time>
      </trkpt>
      <trkpt lat="33.82058" lon="77.51938">
        <ele>4140.6</ele>
        <time>2015-09-03T09:00:11Z</time>
      </trkpt>
      <trkpt lat="33.82057" lon="77.5194">
        <ele>4140.6</ele>
        <time>2015-09-03T09:00:12Z</time>
      </trkpt>
      <trkpt lat="33.82054" lon="77.51943">
        <ele>4140.8</ele>
        <time>2015-09-03T09:00:18Z</time>
      </trkpt>
      <trkpt lat="33.82048" lon="77.51949">
        <ele>4141.8</ele>
        <time>2015-09-03T09:00:29Z</time>
      </trkpt>
      <trkpt lat="33.82045" lon="77.51957">
        <ele>4143</ele>
        <time>2015-09-03T09:00:41Z</time>
      </trkpt>
      <trkpt lat="33.82045" lon="77.51962">
        <ele>4144</ele>
        <time>2015-09-03T09:00:47Z</time>
      </trkpt>
      <trkpt lat="33.82035" lon="77.51969">
        <ele>4144</ele>
        <time>2015-09-03T09:01:02Z</time>
      </trkpt>
      <trkpt lat="33.82029" lon="77.51976">
        <ele>4145</ele>
        <time>2015-09-03T09:01:17Z</time>
      </trkpt>
      <trkpt lat="33.82015" lon="77.51992">
        <ele>4145.8</ele>
        <time>2015-09-03T09:01:38Z</time>
      </trkpt>
      <trkpt lat="33.82009" lon="77.52001">
        <ele>4146</ele>
        <time>2015-09-03T09:01:45Z</time>
      </trkpt>
      <trkpt lat="33.82008" lon="77.52003">
        <ele>4146.2</ele>
        <time>2015-09-03T09:01:47Z</time>
      </trkpt>
      <trkpt lat="33.82007" lon="77.52004">
        <ele>4146.4</ele>
        <time>2015-09-03T09:01:49Z</time>
      </trkpt>
      <trkpt lat="33.82006" lon="77.52006">
        <ele>4146.6</ele>
        <time>2015-09-03T09:01:51Z</time>
      </trkpt>
      <trkpt lat="33.82001" lon="77.52008">
        <ele>4147.2</ele>
        <time>2015-09-03T09:01:58Z</time>
      </trkpt>
      <trkpt lat="33.81997" lon="77.52011">
        <ele>4147.8</ele>
        <time>2015-09-03T09:02:06Z</time>
      </trkpt>
      <trkpt lat="33.81996" lon="77.52011">
        <ele>4147.8</ele>
        <time>2015-09-03T09:02:08Z</time>
      </trkpt>
      <trkpt lat="33.81993" lon="77.52012">
        <ele>4147.6</ele>
        <time>2015-09-03T09:02:13Z</time>
      </trkpt>
      <trkpt lat="33.81991" lon="77.52015">
        <ele>4147.6</ele>
        <time>2015-09-03T09:02:16Z</time>
      </trkpt>
      <trkpt lat="33.81983" lon="77.52021">
        <ele>4148.2</ele>
        <time>2015-09-03T09:02:28Z</time>
      </trkpt>
      <trkpt lat="33.81974" lon="77.52024">
        <ele>4149.2</ele>
        <time>2015-09-03T09:02:42Z</time>
      </trkpt>
      <trkpt lat="33.81968" lon="77.52028">
        <ele>4150.4</ele>
        <time>2015-09-03T09:02:53Z</time>
      </trkpt>
      <trkpt lat="33.81962" lon="77.52033">
        <ele>4151.4</ele>
        <time>2015-09-03T09:03:06Z</time>
      </trkpt>
      <trkpt lat="33.81949" lon="77.52049">
        <ele>4152.4</ele>
        <time>2015-09-03T09:03:23Z</time>
      </trkpt>
      <trkpt lat="33.81946" lon="77.52051">
        <ele>4152.8</ele>
        <time>2015-09-03T09:03:27Z</time>
      </trkpt>
      <trkpt lat="33.81944" lon="77.52054">
        <ele>4153.6</ele>
        <time>2015-09-03T09:03:32Z</time>
      </trkpt>
      <trkpt lat="33.81938" lon="77.52061">
        <ele>4154.6</ele>
        <time>2015-09-03T09:03:44Z</time>
      </trkpt>
      <trkpt lat="33.81932" lon="77.52068">
        <ele>4155.6</ele>
        <time>2015-09-03T09:04:00Z</time>
      </trkpt>
      <trkpt lat="33.81929" lon="77.5208">
        <ele>4156.6</ele>
        <time>2015-09-03T09:04:14Z</time>
      </trkpt>
      <trkpt lat="33.81927" lon="77.52084">
        <ele>4157.2</ele>
        <time>2015-09-03T09:04:18Z</time>
      </trkpt>
      <trkpt lat="33.81925" lon="77.52092">
        <ele>4157.8</ele>
        <time>2015-09-03T09:04:27Z</time>
      </trkpt>
      <trkpt lat="33.81918" lon="77.521">
        <ele>4158.6</ele>
        <time>2015-09-03T09:04:40Z</time>
      </trkpt>
      <trkpt lat="33.81911" lon="77.52108">
        <ele>4157.2</ele>
        <time>2015-09-03T09:04:51Z</time>
      </trkpt>
      <trkpt lat="33.8191" lon="77.52112">
        <ele>4156.4</ele>
        <time>2015-09-03T09:04:53Z</time>
      </trkpt>
      <trkpt lat="33.81909" lon="77.52118">
        <ele>4155.4</ele>
        <time>2015-09-03T09:04:57Z</time>
      </trkpt>
      <trkpt lat="33.81906" lon="77.52122">
        <ele>4154.8</ele>
        <time>2015-09-03T09:05:01Z</time>
      </trkpt>
      <trkpt lat="33.81904" lon="77.52126">
        <ele>4154.8</ele>
        <time>2015-09-03T09:05:03Z</time>
      </trkpt>
      <trkpt lat="33.81905" lon="77.5213">
        <ele>4154.6</ele>
        <time>2015-09-03T09:05:05Z</time>
      </trkpt>
      <trkpt lat="33.81905" lon="77.52131">
        <ele>4154.4</ele>
        <time>2015-09-03T09:05:07Z</time>
      </trkpt>
      <trkpt lat="33.81906" lon="77.52132">
        <ele>4154.4</ele>
        <time>2015-09-03T09:05:08Z</time>
      </trkpt>
      <trkpt lat="33.81898" lon="77.5213">
        <ele>4155.4</ele>
        <time>2015-09-03T09:05:21Z</time>
      </trkpt>
      <trkpt lat="33.81896" lon="77.52133">
        <ele>4156.4</ele>
        <time>2015-09-03T09:05:28Z</time>
      </trkpt>
      <trkpt lat="33.81898" lon="77.52141">
        <ele>4157.6</ele>
        <time>2015-09-03T09:05:39Z</time>
      </trkpt>
      <trkpt lat="33.81896" lon="77.52148">
        <ele>4158.6</ele>
        <time>2015-09-03T09:05:51Z</time>
      </trkpt>
      <trkpt lat="33.81891" lon="77.52154">
        <ele>4159</ele>
        <time>2015-09-03T09:05:59Z</time>
      </trkpt>
      <trkpt lat="33.81881" lon="77.52165">
        <ele>4159.2</ele>
        <time>2015-09-03T09:06:12Z</time>
      </trkpt>
      <trkpt lat="33.81873" lon="77.52171">
        <ele>4159.2</ele>
        <time>2015-09-03T09:06:24Z</time>
      </trkpt>
      <trkpt lat="33.81871" lon="77.52174">
        <ele>4159.2</ele>
        <time>2015-09-03T09:06:29Z</time>
      </trkpt>
      <trkpt lat="33.8186" lon="77.52177">
        <ele>4159.2</ele>
        <time>2015-09-03T09:06:43Z</time>
      </trkpt>
      <trkpt lat="33.81857" lon="77.52178">
        <ele>4159.2</ele>
        <time>2015-09-03T09:06:46Z</time>
      </trkpt>
      <trkpt lat="33.81854" lon="77.5218">
        <ele>4159.2</ele>
        <time>2015-09-03T09:06:49Z</time>
      </trkpt>
      <trkpt lat="33.81847" lon="77.52182">
        <ele>4159.6</ele>
        <time>2015-09-03T09:06:56Z</time>
      </trkpt>
      <trkpt lat="33.81844" lon="77.52183">
        <ele>4159.8</ele>
        <time>2015-09-03T09:06:58Z</time>
      </trkpt>
      <trkpt lat="33.81841" lon="77.52183">
        <ele>4160</ele>
        <time>2015-09-03T09:07:02Z</time>
      </trkpt>
      <trkpt lat="33.8184" lon="77.52183">
        <ele>4160.2</ele>
        <time>2015-09-03T09:07:04Z</time>
      </trkpt>
      <trkpt lat="33.81834" lon="77.52188">
        <ele>4160.4</ele>
        <time>2015-09-03T09:07:11Z</time>
      </trkpt>
      <trkpt lat="33.81834" lon="77.52185">
        <ele>4160.6</ele>
        <time>2015-09-03T09:07:12Z</time>
      </trkpt>
      <trkpt lat="33.81834" lon="77.52185">
        <ele>4161</ele>
        <time>2015-09-03T09:07:14Z</time>
      </trkpt>
      <trkpt lat="33.8183" lon="77.52187">
        <ele>4161.8</ele>
        <time>2015-09-03T09:07:21Z</time>
      </trkpt>
      <trkpt lat="33.8182" lon="77.52203">
        <ele>4162.2</ele>
        <time>2015-09-03T09:07:44Z</time>
      </trkpt>
      <trkpt lat="33.81818" lon="77.52206">
        <ele>4162</ele>
        <time>2015-09-03T09:07:46Z</time>
      </trkpt>
      <trkpt lat="33.81817" lon="77.5221">
        <ele>4162</ele>
        <time>2015-09-03T09:07:51Z</time>
      </trkpt>
      <trkpt lat="33.81812" lon="77.52216">
        <ele>4162</ele>
        <time>2015-09-03T09:07:57Z</time>
      </trkpt>
      <trkpt lat="33.81804" lon="77.52219">
        <ele>4162</ele>
        <time>2015-09-03T09:08:04Z</time>
      </trkpt>
      <trkpt lat="33.81796" lon="77.52224">
        <ele>4162.8</ele>
        <time>2015-09-03T09:08:13Z</time>
      </trkpt>
      <trkpt lat="33.81795" lon="77.52226">
        <ele>4163</ele>
        <time>2015-09-03T09:08:15Z</time>
      </trkpt>
      <trkpt lat="33.81794" lon="77.52226">
        <ele>4163.2</ele>
        <time>2015-09-03T09:08:17Z</time>
      </trkpt>
      <trkpt lat="33.81788" lon="77.52227">
        <ele>4163.8</ele>
        <time>2015-09-03T09:08:25Z</time>
      </trkpt>
      <trkpt lat="33.8178" lon="77.52234">
        <ele>4165</ele>
        <time>2015-09-03T09:08:38Z</time>
      </trkpt>
      <trkpt lat="33.81776" lon="77.52237">
        <ele>4165</ele>
        <time>2015-09-03T09:08:41Z</time>
      </trkpt>
      <trkpt lat="33.81767" lon="77.52256">
        <ele>4165.2</ele>
        <time>2015-09-03T09:08:51Z</time>
      </trkpt>
      <trkpt lat="33.81766" lon="77.52257">
        <ele>4165</ele>
        <time>2015-09-03T09:08:54Z</time>
      </trkpt>
      <trkpt lat="33.81761" lon="77.52261">
        <ele>4164.6</ele>
        <time>2015-09-03T09:09:01Z</time>
      </trkpt>
      <trkpt lat="33.81754" lon="77.52269">
        <ele>4165.2</ele>
        <time>2015-09-03T09:09:12Z</time>
      </trkpt>
      <trkpt lat="33.81751" lon="77.52271">
        <ele>4166</ele>
        <time>2015-09-03T09:09:17Z</time>
      </trkpt>
      <trkpt lat="33.81742" lon="77.5228">
        <ele>4167</ele>
        <time>2015-09-03T09:09:33Z</time>
      </trkpt>
      <trkpt lat="33.81737" lon="77.52284">
        <ele>4168.2</ele>
        <time>2015-09-03T09:09:41Z</time>
      </trkpt>
      <trkpt lat="33.81734" lon="77.52287">
        <ele>4168.6</ele>
        <time>2015-09-03T09:09:45Z</time>
      </trkpt>
      <trkpt lat="33.81731" lon="77.5229">
        <ele>4169.2</ele>
        <time>2015-09-03T09:09:49Z</time>
      </trkpt>
      <trkpt lat="33.81729" lon="77.52291">
        <ele>4169.2</ele>
        <time>2015-09-03T09:09:52Z</time>
      </trkpt>
      <trkpt lat="33.81722" lon="77.52302">
        <ele>4169.4</ele>
        <time>2015-09-03T09:10:07Z</time>
      </trkpt>
      <trkpt lat="33.81712" lon="77.52311">
        <ele>4170</ele>
        <time>2015-09-03T09:10:20Z</time>
      </trkpt>
      <trkpt lat="33.81701" lon="77.5232">
        <ele>4170.2</ele>
        <time>2015-09-03T09:10:35Z</time>
      </trkpt>
      <trkpt lat="33.8169" lon="77.52333">
        <ele>4171</ele>
        <time>2015-09-03T09:10:53Z</time>
      </trkpt>
      <trkpt lat="33.81684" lon="77.52336">
        <ele>4171.2</ele>
        <time>2015-09-03T09:11:00Z</time>
      </trkpt>
      <trkpt lat="33.81677" lon="77.5234">
        <ele>4172.4</ele>
        <time>2015-09-03T09:11:07Z</time>
      </trkpt>
      <trkpt lat="33.81664" lon="77.5235">
        <ele>4172.8</ele>
        <time>2015-09-03T09:11:19Z</time>
      </trkpt>
      <trkpt lat="33.8166" lon="77.52352">
        <ele>4172.6</ele>
        <time>2015-09-03T09:11:25Z</time>
      </trkpt>
      <trkpt lat="33.81657" lon="77.52354">
        <ele>4173.4</ele>
        <time>2015-09-03T09:11:31Z</time>
      </trkpt>
      <trkpt lat="33.81653" lon="77.52354">
        <ele>4174.6</ele>
        <time>2015-09-03T09:11:40Z</time>
      </trkpt>
      <trkpt lat="33.8165" lon="77.52354">
        <ele>4176</ele>
        <time>2015-09-03T09:11:45Z</time>
      </trkpt>
      <trkpt lat="33.81645" lon="77.52359">
        <ele>4176.2</ele>
        <time>2015-09-03T09:11:55Z</time>
      </trkpt>
      <trkpt lat="33.81641" lon="77.52362">
        <ele>4176.4</ele>
        <time>2015-09-03T09:11:59Z</time>
      </trkpt>
      <trkpt lat="33.81639" lon="77.52362">
        <ele>4176.2</ele>
        <time>2015-09-03T09:12:02Z</time>
      </trkpt>
      <trkpt lat="33.81634" lon="77.52367">
        <ele>4176.2</ele>
        <time>2015-09-03T09:12:09Z</time>
      </trkpt>
      <trkpt lat="33.8163" lon="77.52373">
        <ele>4176.4</ele>
        <time>2015-09-03T09:12:17Z</time>
      </trkpt>
      <trkpt lat="33.81626" lon="77.52377">
        <ele>4176.6</ele>
        <time>2015-09-03T09:12:22Z</time>
      </trkpt>
      <trkpt lat="33.81623" lon="77.52377">
        <ele>4177</ele>
        <time>2015-09-03T09:12:26Z</time>
      </trkpt>
      <trkpt lat="33.81612" lon="77.52381">
        <ele>4177.6</ele>
        <time>2015-09-03T09:12:39Z</time>
      </trkpt>
      <trkpt lat="33.81611" lon="77.52382">
        <ele>4177.4</ele>
        <time>2015-09-03T09:12:42Z</time>
      </trkpt>
      <trkpt lat="33.81609" lon="77.52383">
        <ele>4177</ele>
        <time>2015-09-03T09:12:45Z</time>
      </trkpt>
      <trkpt lat="33.81607" lon="77.52385">
        <ele>4176.8</ele>
        <time>2015-09-03T09:12:47Z</time>
      </trkpt>
      <trkpt lat="33.81595" lon="77.52404">
        <ele>4176.6</ele>
        <time>2015-09-03T09:13:06Z</time>
      </trkpt>
      <trkpt lat="33.81594" lon="77.52405">
        <ele>4176.6</ele>
        <time>2015-09-03T09:13:08Z</time>
      </trkpt>
      <trkpt lat="33.81593" lon="77.52406">
        <ele>4176.6</ele>
        <time>2015-09-03T09:13:10Z</time>
      </trkpt>
      <trkpt lat="33.81589" lon="77.52409">
        <ele>4176.6</ele>
        <time>2015-09-03T09:13:14Z</time>
      </trkpt>
      <trkpt lat="33.81585" lon="77.52418">
        <ele>4177.4</ele>
        <time>2015-09-03T09:13:23Z</time>
      </trkpt>
      <trkpt lat="33.81579" lon="77.52427">
        <ele>4178</ele>
        <time>2015-09-03T09:13:32Z</time>
      </trkpt>
      <trkpt lat="33.81578" lon="77.52428">
        <ele>4178.2</ele>
        <time>2015-09-03T09:13:33Z</time>
      </trkpt>
      <trkpt lat="33.81573" lon="77.52434">
        <ele>4178.8</ele>
        <time>2015-09-03T09:13:40Z</time>
      </trkpt>
      <trkpt lat="33.81571" lon="77.52437">
        <ele>4179.2</ele>
        <time>2015-09-03T09:13:44Z</time>
      </trkpt>
      <trkpt lat="33.81562" lon="77.5245">
        <ele>4180.2</ele>
        <time>2015-09-03T09:14:01Z</time>
      </trkpt>
      <trkpt lat="33.81557" lon="77.52458">
        <ele>4181.2</ele>
        <time>2015-09-03T09:14:16Z</time>
      </trkpt>
      <trkpt lat="33.81548" lon="77.52462">
        <ele>4182</ele>
        <time>2015-09-03T09:14:22Z</time>
      </trkpt>
      <trkpt lat="33.81546" lon="77.52465">
        <ele>4182.2</ele>
        <time>2015-09-03T09:14:25Z</time>
      </trkpt>
      <trkpt lat="33.81546" lon="77.52465">
        <ele>4182.2</ele>
        <time>2015-09-03T09:14:26Z</time>
      </trkpt>
      <trkpt lat="33.81534" lon="77.52483">
        <ele>4183.4</ele>
        <time>2015-09-03T09:14:50Z</time>
      </trkpt>
      <trkpt lat="33.81528" lon="77.52487">
        <ele>4184</ele>
        <time>2015-09-03T09:14:56Z</time>
      </trkpt>
      <trkpt lat="33.81526" lon="77.52489">
        <ele>4184.4</ele>
        <time>2015-09-03T09:14:58Z</time>
      </trkpt>
      <trkpt lat="33.81516" lon="77.52502">
        <ele>4185.4</ele>
        <time>2015-09-03T09:15:15Z</time>
      </trkpt>
      <trkpt lat="33.81512" lon="77.52513">
        <ele>4186.4</ele>
        <time>2015-09-03T09:15:27Z</time>
      </trkpt>
      <trkpt lat="33.81514" lon="77.52517">
        <ele>4186.6</ele>
        <time>2015-09-03T09:15:31Z</time>
      </trkpt>
      <trkpt lat="33.81508" lon="77.52522">
        <ele>4186.6</ele>
        <time>2015-09-03T09:15:45Z</time>
      </trkpt>
      <trkpt lat="33.81506" lon="77.52513">
        <ele>4186.6</ele>
        <time>2015-09-03T09:15:47Z</time>
      </trkpt>
      <trkpt lat="33.81502" lon="77.5248">
        <ele>4186.8</ele>
        <time>2015-09-03T09:15:50Z</time>
      </trkpt>
      <trkpt lat="33.81497" lon="77.52466">
        <ele>4187.4</ele>
        <time>2015-09-03T09:15:53Z</time>
      </trkpt>
      <trkpt lat="33.81496" lon="77.52466">
        <ele>4187.6</ele>
        <time>2015-09-03T09:15:54Z</time>
      </trkpt>
      <trkpt lat="33.81495" lon="77.52463">
        <ele>4187.6</ele>
        <time>2015-09-03T09:15:55Z</time>
      </trkpt>
      <trkpt lat="33.81487" lon="77.52442">
        <ele>4188.6</ele>
        <time>2015-09-03T09:15:59Z</time>
      </trkpt>
      <trkpt lat="33.81484" lon="77.52434">
        <ele>4189</ele>
        <time>2015-09-03T09:16:00Z</time>
      </trkpt>
      <trkpt lat="33.81485" lon="77.52416">
        <ele>4189.8</ele>
        <time>2015-09-03T09:16:04Z</time>
      </trkpt>
      <trkpt lat="33.81486" lon="77.52406">
        <ele>4190.8</ele>
        <time>2015-09-03T09:16:07Z</time>
      </trkpt>
      <trkpt lat="33.81487" lon="77.52398">
        <ele>4192</ele>
        <time>2015-09-03T09:16:11Z</time>
      </trkpt>
      <trkpt lat="33.81485" lon="77.52397">
        <ele>4192.2</ele>
        <time>2015-09-03T09:16:12Z</time>
      </trkpt>
      <trkpt lat="33.81485" lon="77.52396">
        <ele>4193.2</ele>
        <time>2015-09-03T09:16:16Z</time>
      </trkpt>
      <trkpt lat="33.81481" lon="77.5241">
        <ele>4194.4</ele>
        <time>2015-09-03T09:16:21Z</time>
      </trkpt>
      <trkpt lat="33.81474" lon="77.52426">
        <ele>4195.2</ele>
        <time>2015-09-03T09:16:24Z</time>
      </trkpt>
      <trkpt lat="33.81471" lon="77.5243">
        <ele>4195.6</ele>
        <time>2015-09-03T09:16:25Z</time>
      </trkpt>
      <trkpt lat="33.81497" lon="77.52549">
        <ele>4196.2</ele>
        <time>2015-09-03T09:16:28Z</time>
      </trkpt>
      <trkpt lat="33.81492" lon="77.52553">
        <ele>4196.6</ele>
        <time>2015-09-03T09:16:29Z</time>
      </trkpt>
      <trkpt lat="33.81488" lon="77.52557">
        <ele>4197.2</ele>
        <time>2015-09-03T09:16:31Z</time>
      </trkpt>
      <trkpt lat="33.81484" lon="77.5256">
        <ele>4197.6</ele>
        <time>2015-09-03T09:16:33Z</time>
      </trkpt>
      <trkpt lat="33.81481" lon="77.52561">
        <ele>4197.8</ele>
        <time>2015-09-03T09:16:34Z</time>
      </trkpt>
      <trkpt lat="33.81473" lon="77.52564">
        <ele>4198.6</ele>
        <time>2015-09-03T09:16:39Z</time>
      </trkpt>
      <trkpt lat="33.81469" lon="77.52566">
        <ele>4199.8</ele>
        <time>2015-09-03T09:16:42Z</time>
      </trkpt>
      <trkpt lat="33.81469" lon="77.52565">
        <ele>4200</ele>
        <time>2015-09-03T09:16:43Z</time>
      </trkpt>
      <trkpt lat="33.81469" lon="77.52561">
        <ele>4201</ele>
        <time>2015-09-03T09:16:46Z</time>
      </trkpt>
      <trkpt lat="33.81467" lon="77.52562">
        <ele>4201.4</ele>
        <time>2015-09-03T09:16:49Z</time>
      </trkpt>
      <trkpt lat="33.81462" lon="77.52566">
        <ele>4201.6</ele>
        <time>2015-09-03T09:16:55Z</time>
      </trkpt>
      <trkpt lat="33.81462" lon="77.5257">
        <ele>4202.2</ele>
        <time>2015-09-03T09:16:59Z</time>
      </trkpt>
      <trkpt lat="33.81458" lon="77.52573">
        <ele>4202.8</ele>
        <time>2015-09-03T09:17:05Z</time>
      </trkpt>
      <trkpt lat="33.81457" lon="77.52575">
        <ele>4203</ele>
        <time>2015-09-03T09:17:08Z</time>
      </trkpt>
      <trkpt lat="33.81457" lon="77.52576">
        <ele>4203.2</ele>
        <time>2015-09-03T09:17:10Z</time>
      </trkpt>
      <trkpt lat="33.81455" lon="77.52595">
        <ele>4204.4</ele>
        <time>2015-09-03T09:17:29Z</time>
      </trkpt>
      <trkpt lat="33.81453" lon="77.52595">
        <ele>4204.6</ele>
        <time>2015-09-03T09:17:30Z</time>
      </trkpt>
      <trkpt lat="33.81452" lon="77.52596">
        <ele>4204.8</ele>
        <time>2015-09-03T09:17:32Z</time>
      </trkpt>
      <trkpt lat="33.81443" lon="77.52609">
        <ele>4205.2</ele>
        <time>2015-09-03T09:17:50Z</time>
      </trkpt>
      <trkpt lat="33.81441" lon="77.52611">
        <ele>4205.6</ele>
        <time>2015-09-03T09:17:52Z</time>
      </trkpt>
      <trkpt lat="33.81432" lon="77.5263">
        <ele>4205.4</ele>
        <time>2015-09-03T09:18:13Z</time>
      </trkpt>
      <trkpt lat="33.81431" lon="77.52632">
        <ele>4205.6</ele>
        <time>2015-09-03T09:18:15Z</time>
      </trkpt>
      <trkpt lat="33.81423" lon="77.52637">
        <ele>4206.2</ele>
        <time>2015-09-03T09:18:25Z</time>
      </trkpt>
      <trkpt lat="33.81421" lon="77.52639">
        <ele>4206.6</ele>
        <time>2015-09-03T09:18:27Z</time>
      </trkpt>
      <trkpt lat="33.81411" lon="77.52654">
        <ele>4206.8</ele>
        <time>2015-09-03T09:18:46Z</time>
      </trkpt>
      <trkpt lat="33.81405" lon="77.52661">
        <ele>4207.4</ele>
        <time>2015-09-03T09:18:57Z</time>
      </trkpt>
      <trkpt lat="33.81403" lon="77.52663">
        <ele>4207.8</ele>
        <time>2015-09-03T09:19:00Z</time>
      </trkpt>
      <trkpt lat="33.81402" lon="77.52665">
        <ele>4208.8</ele>
        <time>2015-09-03T09:19:04Z</time>
      </trkpt>
      <trkpt lat="33.81397" lon="77.52667">
        <ele>4209.8</ele>
        <time>2015-09-03T09:19:13Z</time>
      </trkpt>
      <trkpt lat="33.81393" lon="77.5267">
        <ele>4210.8</ele>
        <time>2015-09-03T09:19:19Z</time>
      </trkpt>
      <trkpt lat="33.81393" lon="77.5267">
        <ele>4210.8</ele>
        <time>2015-09-03T09:19:20Z</time>
      </trkpt>
      <trkpt lat="33.81389" lon="77.52677">
        <ele>4210.6</ele>
        <time>2015-09-03T09:19:30Z</time>
      </trkpt>
      <trkpt lat="33.81386" lon="77.52682">
        <ele>4210.4</ele>
        <time>2015-09-03T09:19:34Z</time>
      </trkpt>
      <trkpt lat="33.81382" lon="77.52702">
        <ele>4210.4</ele>
        <time>2015-09-03T09:19:53Z</time>
      </trkpt>
      <trkpt lat="33.81379" lon="77.52707">
        <ele>4210.8</ele>
        <time>2015-09-03T09:20:00Z</time>
      </trkpt>
      <trkpt lat="33.81374" lon="77.5271">
        <ele>4210.6</ele>
        <time>2015-09-03T09:20:04Z</time>
      </trkpt>
      <trkpt lat="33.81364" lon="77.52728">
        <ele>4211.2</ele>
        <time>2015-09-03T09:20:27Z</time>
      </trkpt>
      <trkpt lat="33.81363" lon="77.52729">
        <ele>4211.4</ele>
        <time>2015-09-03T09:20:28Z</time>
      </trkpt>
      <trkpt lat="33.81359" lon="77.52731">
        <ele>4212</ele>
        <time>2015-09-03T09:20:32Z</time>
      </trkpt>
      <trkpt lat="33.81358" lon="77.52734">
        <ele>4212.4</ele>
        <time>2015-09-03T09:20:35Z</time>
      </trkpt>
      <trkpt lat="33.81355" lon="77.52739">
        <ele>4212.4</ele>
        <time>2015-09-03T09:20:39Z</time>
      </trkpt>
      <trkpt lat="33.81352" lon="77.52743">
        <ele>4213</ele>
        <time>2015-09-03T09:20:45Z</time>
      </trkpt>
      <trkpt lat="33.81352" lon="77.52744">
        <ele>4213</ele>
        <time>2015-09-03T09:20:46Z</time>
      </trkpt>
      <trkpt lat="33.81352" lon="77.52745">
        <ele>4213</ele>
        <time>2015-09-03T09:20:48Z</time>
      </trkpt>
      <trkpt lat="33.81344" lon="77.52757">
        <ele>4213.4</ele>
        <time>2015-09-03T09:21:03Z</time>
      </trkpt>
      <trkpt lat="33.81342" lon="77.52764">
        <ele>4213.8</ele>
        <time>2015-09-03T09:21:11Z</time>
      </trkpt>
      <trkpt lat="33.81342" lon="77.52766">
        <ele>4214</ele>
        <time>2015-09-03T09:21:14Z</time>
      </trkpt>
      <trkpt lat="33.81335" lon="77.52781">
        <ele>4215</ele>
        <time>2015-09-03T09:21:32Z</time>
      </trkpt>
      <trkpt lat="33.81333" lon="77.52784">
        <ele>4215</ele>
        <time>2015-09-03T09:21:35Z</time>
      </trkpt>
      <trkpt lat="33.81332" lon="77.52794">
        <ele>4215.8</ele>
        <time>2015-09-03T09:21:45Z</time>
      </trkpt>
      <trkpt lat="33.81332" lon="77.52797">
        <ele>4216</ele>
        <time>2015-09-03T09:21:49Z</time>
      </trkpt>
      <trkpt lat="33.81332" lon="77.52803">
        <ele>4216.6</ele>
        <time>2015-09-03T09:21:56Z</time>
      </trkpt>
      <trkpt lat="33.81332" lon="77.52809">
        <ele>4217.2</ele>
        <time>2015-09-03T09:22:05Z</time>
      </trkpt>
      <trkpt lat="33.81331" lon="77.52815">
        <ele>4218.2</ele>
        <time>2015-09-03T09:22:15Z</time>
      </trkpt>
      <trkpt lat="33.81331" lon="77.52822">
        <ele>4218.4</ele>
        <time>2015-09-03T09:22:22Z</time>
      </trkpt>
      <trkpt lat="33.8133" lon="77.52838">
        <ele>4218.8</ele>
        <time>2015-09-03T09:22:39Z</time>
      </trkpt>
      <trkpt lat="33.81321" lon="77.52854">
        <ele>4219</ele>
        <time>2015-09-03T09:22:55Z</time>
      </trkpt>
      <trkpt lat="33.81319" lon="77.52859">
        <ele>4219.2</ele>
        <time>2015-09-03T09:23:00Z</time>
      </trkpt>
      <trkpt lat="33.8131" lon="77.52873">
        <ele>4218.2</ele>
        <time>2015-09-03T09:23:28Z</time>
      </trkpt>
      <trkpt lat="33.81307" lon="77.5288">
        <ele>4217.8</ele>
        <time>2015-09-03T09:23:32Z</time>
      </trkpt>
      <trkpt lat="33.81305" lon="77.52879">
        <ele>4217.8</ele>
        <time>2015-09-03T09:23:36Z</time>
      </trkpt>
      <trkpt lat="33.81298" lon="77.52886">
        <ele>4217</ele>
        <time>2015-09-03T09:23:50Z</time>
      </trkpt>
      <trkpt lat="33.81291" lon="77.5289">
        <ele>4216</ele>
        <time>2015-09-03T09:23:58Z</time>
      </trkpt>
      <trkpt lat="33.81282" lon="77.52897">
        <ele>4214.8</ele>
        <time>2015-09-03T09:24:08Z</time>
      </trkpt>
      <trkpt lat="33.81267" lon="77.52899">
        <ele>4215</ele>
        <time>2015-09-03T09:24:23Z</time>
      </trkpt>
      <trkpt lat="33.81253" lon="77.52904">
        <ele>4216</ele>
        <time>2015-09-03T09:24:51Z</time>
      </trkpt>
      <trkpt lat="33.8125" lon="77.52904">
        <ele>4217.2</ele>
        <time>2015-09-03T09:25:13Z</time>
      </trkpt>
      <trkpt lat="33.81242" lon="77.5291">
        <ele>4218.2</ele>
        <time>2015-09-03T09:25:27Z</time>
      </trkpt>
      <trkpt lat="33.81242" lon="77.52913">
        <ele>4219.4</ele>
        <time>2015-09-03T09:25:36Z</time>
      </trkpt>
      <trkpt lat="33.8124" lon="77.52916">
        <ele>4219.2</ele>
        <time>2015-09-03T09:25:40Z</time>
      </trkpt>
      <trkpt lat="33.8124" lon="77.52915">
        <ele>4218.8</ele>
        <time>2015-09-03T09:25:42Z</time>
      </trkpt>
      <trkpt lat="33.8124" lon="77.52913">
        <ele>4220.4</ele>
        <time>2015-09-03T09:26:28Z</time>
      </trkpt>
      <trkpt lat="33.81238" lon="77.52918">
        <ele>4220.2</ele>
        <time>2015-09-03T09:26:39Z</time>
      </trkpt>
      <trkpt lat="33.81239" lon="77.52916">
        <ele>4220.4</ele>
        <time>2015-09-03T09:26:56Z</time>
      </trkpt>
      <trkpt lat="33.81239" lon="77.52916">
        <ele>4220.6</ele>
        <time>2015-09-03T09:26:58Z</time>
      </trkpt>
      <trkpt lat="33.81226" lon="77.52924">
        <ele>4220.8</ele>
        <time>2015-09-03T09:27:12Z</time>
      </trkpt>
      <trkpt lat="33.81221" lon="77.52932">
        <ele>4221.2</ele>
        <time>2015-09-03T09:27:26Z</time>
      </trkpt>
      <trkpt lat="33.81219" lon="77.52936">
        <ele>4221.4</ele>
        <time>2015-09-03T09:27:28Z</time>
      </trkpt>
      <trkpt lat="33.81219" lon="77.52936">
        <ele>4221.6</ele>
        <time>2015-09-03T09:27:29Z</time>
      </trkpt>
      <trkpt lat="33.81218" lon="77.52943">
        <ele>4222.6</ele>
        <time>2015-09-03T09:27:36Z</time>
      </trkpt>
      <trkpt lat="33.81217" lon="77.52951">
        <ele>4223.6</ele>
        <time>2015-09-03T09:27:45Z</time>
      </trkpt>
      <trkpt lat="33.81213" lon="77.52954">
        <ele>4224.6</ele>
        <time>2015-09-03T09:27:52Z</time>
      </trkpt>
      <trkpt lat="33.81213" lon="77.52955">
        <ele>4224.6</ele>
        <time>2015-09-03T09:27:53Z</time>
      </trkpt>
      <trkpt lat="33.81212" lon="77.52962">
        <ele>4224</ele>
        <time>2015-09-03T09:28:00Z</time>
      </trkpt>
      <trkpt lat="33.81212" lon="77.52964">
        <ele>4223.6</ele>
        <time>2015-09-03T09:28:02Z</time>
      </trkpt>
      <trkpt lat="33.81209" lon="77.52978">
        <ele>4222.4</ele>
        <time>2015-09-03T09:28:20Z</time>
      </trkpt>
      <trkpt lat="33.81221" lon="77.52999">
        <ele>4221.2</ele>
        <time>2015-09-03T09:28:38Z</time>
      </trkpt>
      <trkpt lat="33.81222" lon="77.53004">
        <ele>4221</ele>
        <time>2015-09-03T09:28:43Z</time>
      </trkpt>
      <trkpt lat="33.81224" lon="77.53006">
        <ele>4221</ele>
        <time>2015-09-03T09:28:46Z</time>
      </trkpt>
      <trkpt lat="33.81221" lon="77.53013">
        <ele>4221.8</ele>
        <time>2015-09-03T09:28:56Z</time>
      </trkpt>
      <trkpt lat="33.81218" lon="77.53021">
        <ele>4222.4</ele>
        <time>2015-09-03T09:29:04Z</time>
      </trkpt>
      <trkpt lat="33.81218" lon="77.53022">
        <ele>4222.6</ele>
        <time>2015-09-03T09:29:05Z</time>
      </trkpt>
      <trkpt lat="33.8122" lon="77.53031">
        <ele>4223.4</ele>
        <time>2015-09-03T09:29:17Z</time>
      </trkpt>
      <trkpt lat="33.81217" lon="77.53037">
        <ele>4224.6</ele>
        <time>2015-09-03T09:29:24Z</time>
      </trkpt>
      <trkpt lat="33.81216" lon="77.53038">
        <ele>4224.8</ele>
        <time>2015-09-03T09:29:25Z</time>
      </trkpt>
      <trkpt lat="33.81216" lon="77.53041">
        <ele>4225</ele>
        <time>2015-09-03T09:29:27Z</time>
      </trkpt>
      <trkpt lat="33.81215" lon="77.53046">
        <ele>4225.6</ele>
        <time>2015-09-03T09:29:32Z</time>
      </trkpt>
      <trkpt lat="33.81214" lon="77.53049">
        <ele>4225.8</ele>
        <time>2015-09-03T09:29:36Z</time>
      </trkpt>
      <trkpt lat="33.81213" lon="77.53055">
        <ele>4226.6</ele>
        <time>2015-09-03T09:29:41Z</time>
      </trkpt>
      <trkpt lat="33.81211" lon="77.53059">
        <ele>4226.8</ele>
        <time>2015-09-03T09:29:44Z</time>
      </trkpt>
      <trkpt lat="33.81212" lon="77.53071">
        <ele>4227</ele>
        <time>2015-09-03T09:29:55Z</time>
      </trkpt>
      <trkpt lat="33.81205" lon="77.53082">
        <ele>4227.4</ele>
        <time>2015-09-03T09:30:07Z</time>
      </trkpt>
      <trkpt lat="33.81205" lon="77.53084">
        <ele>4227.6</ele>
        <time>2015-09-03T09:30:09Z</time>
      </trkpt>
      <trkpt lat="33.81203" lon="77.53092">
        <ele>4229</ele>
        <time>2015-09-03T09:30:17Z</time>
      </trkpt>
      <trkpt lat="33.81203" lon="77.53093">
        <ele>4229.6</ele>
        <time>2015-09-03T09:30:19Z</time>
      </trkpt>
      <trkpt lat="33.81198" lon="77.53097">
        <ele>4229.2</ele>
        <time>2015-09-03T09:30:24Z</time>
      </trkpt>
      <trkpt lat="33.81198" lon="77.53105">
        <ele>4229.6</ele>
        <time>2015-09-03T09:30:34Z</time>
      </trkpt>
      <trkpt lat="33.81197" lon="77.53107">
        <ele>4230</ele>
        <time>2015-09-03T09:30:37Z</time>
      </trkpt>
      <trkpt lat="33.81195" lon="77.53111">
        <ele>4230.6</ele>
        <time>2015-09-03T09:30:41Z</time>
      </trkpt>
      <trkpt lat="33.81195" lon="77.53116">
        <ele>4230.8</ele>
        <time>2015-09-03T09:30:46Z</time>
      </trkpt>
      <trkpt lat="33.81197" lon="77.53118">
        <ele>4231.2</ele>
        <time>2015-09-03T09:30:48Z</time>
      </trkpt>
      <trkpt lat="33.81195" lon="77.53123">
        <ele>4232.2</ele>
        <time>2015-09-03T09:30:57Z</time>
      </trkpt>
      <trkpt lat="33.81201" lon="77.53127">
        <ele>4233.2</ele>
        <time>2015-09-03T09:31:03Z</time>
      </trkpt>
      <trkpt lat="33.81198" lon="77.53133">
        <ele>4234.2</ele>
        <time>2015-09-03T09:31:10Z</time>
      </trkpt>
      <trkpt lat="33.81188" lon="77.53138">
        <ele>4234.6</ele>
        <time>2015-09-03T09:31:17Z</time>
      </trkpt>
      <trkpt lat="33.81184" lon="77.53141">
        <ele>4235</ele>
        <time>2015-09-03T09:31:21Z</time>
      </trkpt>
      <trkpt lat="33.81182" lon="77.53144">
        <ele>4235.4</ele>
        <time>2015-09-03T09:31:26Z</time>
      </trkpt>
      <trkpt lat="33.8118" lon="77.53146">
        <ele>4235.4</ele>
        <time>2015-09-03T09:31:28Z</time>
      </trkpt>
      <trkpt lat="33.81181" lon="77.53152">
        <ele>4236</ele>
        <time>2015-09-03T09:31:34Z</time>
      </trkpt>
      <trkpt lat="33.81181" lon="77.53154">
        <ele>4236</ele>
        <time>2015-09-03T09:31:37Z</time>
      </trkpt>
      <trkpt lat="33.81182" lon="77.53158">
        <ele>4236.2</ele>
        <time>2015-09-03T09:31:41Z</time>
      </trkpt>
      <trkpt lat="33.81182" lon="77.5316">
        <ele>4236.2</ele>
        <time>2015-09-03T09:31:42Z</time>
      </trkpt>
      <trkpt lat="33.81182" lon="77.5316">
        <ele>4236.4</ele>
        <time>2015-09-03T09:31:43Z</time>
      </trkpt>
      <trkpt lat="33.81181" lon="77.53161">
        <ele>4236.4</ele>
        <time>2015-09-03T09:31:44Z</time>
      </trkpt>
      <trkpt lat="33.81171" lon="77.5318">
        <ele>4237.2</ele>
        <time>2015-09-03T09:32:07Z</time>
      </trkpt>
      <trkpt lat="33.81172" lon="77.53182">
        <ele>4237.4</ele>
        <time>2015-09-03T09:32:10Z</time>
      </trkpt>
      <trkpt lat="33.81175" lon="77.53191">
        <ele>4238</ele>
        <time>2015-09-03T09:32:19Z</time>
      </trkpt>
      <trkpt lat="33.81176" lon="77.53193">
        <ele>4238</ele>
        <time>2015-09-03T09:32:21Z</time>
      </trkpt>
      <trkpt lat="33.81177" lon="77.53195">
        <ele>4238.2</ele>
        <time>2015-09-03T09:32:23Z</time>
      </trkpt>
      <trkpt lat="33.81177" lon="77.53197">
        <ele>4238.4</ele>
        <time>2015-09-03T09:32:25Z</time>
      </trkpt>
      <trkpt lat="33.81177" lon="77.532">
        <ele>4238.6</ele>
        <time>2015-09-03T09:32:27Z</time>
      </trkpt>
      <trkpt lat="33.81179" lon="77.53204">
        <ele>4239</ele>
        <time>2015-09-03T09:32:31Z</time>
      </trkpt>
      <trkpt lat="33.81179" lon="77.53206">
        <ele>4239.2</ele>
        <time>2015-09-03T09:32:33Z</time>
      </trkpt>
      <trkpt lat="33.81173" lon="77.53215">
        <ele>4239.4</ele>
        <time>2015-09-03T09:32:42Z</time>
      </trkpt>
      <trkpt lat="33.81173" lon="77.53218">
        <ele>4239.6</ele>
        <time>2015-09-03T09:32:45Z</time>
      </trkpt>
      <trkpt lat="33.81173" lon="77.53228">
        <ele>4240.6</ele>
        <time>2015-09-03T09:33:00Z</time>
      </trkpt>
      <trkpt lat="33.81171" lon="77.53236">
        <ele>4241</ele>
        <time>2015-09-03T09:33:06Z</time>
      </trkpt>
      <trkpt lat="33.81171" lon="77.5324">
        <ele>4241.4</ele>
        <time>2015-09-03T09:33:10Z</time>
      </trkpt>
      <trkpt lat="33.81169" lon="77.53243">
        <ele>4241.8</ele>
        <time>2015-09-03T09:33:13Z</time>
      </trkpt>
      <trkpt lat="33.81171" lon="77.53247">
        <ele>4242</ele>
        <time>2015-09-03T09:33:17Z</time>
      </trkpt>
      <trkpt lat="33.81171" lon="77.5326">
        <ele>4242.8</ele>
        <time>2015-09-03T09:33:31Z</time>
      </trkpt>
      <trkpt lat="33.81167" lon="77.53268">
        <ele>4243.6</ele>
        <time>2015-09-03T09:33:39Z</time>
      </trkpt>
      <trkpt lat="33.81168" lon="77.53277">
        <ele>4243.6</ele>
        <time>2015-09-03T09:33:47Z</time>
      </trkpt>
      <trkpt lat="33.81167" lon="77.5328">
        <ele>4244</ele>
        <time>2015-09-03T09:33:51Z</time>
      </trkpt>
      <trkpt lat="33.81162" lon="77.53284">
        <ele>4244.6</ele>
        <time>2015-09-03T09:33:55Z</time>
      </trkpt>
      <trkpt lat="33.81161" lon="77.53287">
        <ele>4244.8</ele>
        <time>2015-09-03T09:33:58Z</time>
      </trkpt>
      <trkpt lat="33.81154" lon="77.53296">
        <ele>4245.2</ele>
        <time>2015-09-03T09:34:05Z</time>
      </trkpt>
      <trkpt lat="33.81152" lon="77.53303">
        <ele>4246.2</ele>
        <time>2015-09-03T09:34:12Z</time>
      </trkpt>
      <trkpt lat="33.81152" lon="77.53319">
        <ele>4247.2</ele>
        <time>2015-09-03T09:34:29Z</time>
      </trkpt>
      <trkpt lat="33.81154" lon="77.53323">
        <ele>4247.6</ele>
        <time>2015-09-03T09:34:33Z</time>
      </trkpt>
      <trkpt lat="33.81155" lon="77.53325">
        <ele>4247.8</ele>
        <time>2015-09-03T09:34:35Z</time>
      </trkpt>
      <trkpt lat="33.8116" lon="77.53332">
        <ele>4247.6</ele>
        <time>2015-09-03T09:34:44Z</time>
      </trkpt>
      <trkpt lat="33.81161" lon="77.53333">
        <ele>4247.4</ele>
        <time>2015-09-03T09:34:45Z</time>
      </trkpt>
      <trkpt lat="33.81163" lon="77.53336">
        <ele>4247.4</ele>
        <time>2015-09-03T09:34:48Z</time>
      </trkpt>
      <trkpt lat="33.8116" lon="77.53339">
        <ele>4248</ele>
        <time>2015-09-03T09:34:53Z</time>
      </trkpt>
      <trkpt lat="33.81161" lon="77.53341">
        <ele>4248.2</ele>
        <time>2015-09-03T09:34:56Z</time>
      </trkpt>
      <trkpt lat="33.81167" lon="77.53346">
        <ele>4247.6</ele>
        <time>2015-09-03T09:35:02Z</time>
      </trkpt>
      <trkpt lat="33.81169" lon="77.53348">
        <ele>4247.6</ele>
        <time>2015-09-03T09:35:05Z</time>
      </trkpt>
      <trkpt lat="33.8117" lon="77.53353">
        <ele>4247.4</ele>
        <time>2015-09-03T09:35:10Z</time>
      </trkpt>
      <trkpt lat="33.81162" lon="77.53358">
        <ele>4210.2</ele>
        <time>2015-09-03T09:35:31Z</time>
      </trkpt>
    </trkseg>
  </trk>
</gpx>